<?xml version="1.0" encoding="UTF-8" standalone="no" ?><gpx xmlns="http://www.topografix.com/GPX/1/1" xmlns:gpxx="http://www.garmin.com/xmlschemas/GpxExtensions/v3" xmlns:gpxtrkx="http://www.garmin.com/xmlschemas/TrackStatsExtension/v1" xmlns:wptx1="http://www.garmin.com/xmlschemas/WaypointExtension/v1" xmlns:gpxtpx="http://www.garmin.com/xmlschemas/TrackPointExtension/v1" creator="GPSMAP 62s" version="1.1" xmlns:xsi="http://www.w3.org/2001/XMLSchema-instance" xsi:schemaLocation="http://www.topografix.com/GPX/1/1 http://www.topografix.com/GPX/1/1/gpx.xsd http://www.garmin.com/xmlschemas/GpxExtensions/v3 http://www8.garmin.com/xmlschemas/GpxExtensionsv3.xsd http://www.garmin.com/xmlschemas/TrackStatsExtension/v1 http://www8.garmin.com/xmlschemas/TrackStatsExtension.xsd http://www.garmin.com/xmlschemas/WaypointExtension/v1 http://www8.garmin.com/xmlschemas/WaypointExtensionv1.xsd http://www.garmin.com/xmlschemas/TrackPointExtension/v1 http://www.garmin.com/xmlschemas/TrackPointExtensionv1.xsd"><metadata><link href="http://www.garmin.com"><text>Garmin International</text></link><time>2026-08-23T01:08:02Z</time></metadata><trk><name>2026-08-23 04:07:57</name><extensions><gpxx:TrackExtension><gpxx:DisplayColor>Red</gpxx:DisplayColor></gpxx:TrackExtension><gpxtrkx:TrackStatsExtension><gpxtrkx:Distance>30524</gpxtrkx:Distance><gpxtrkx:TotalElapsedTime>43037</gpxtrkx:TotalElapsedTime><gpxtrkx:MovingTime>29136</gpxtrkx:MovingTime><gpxtrkx:StoppedTime>12877</gpxtrkx:StoppedTime><gpxtrkx:MovingSpeed>1</gpxtrkx:MovingSpeed><gpxtrkx:MaxSpeed>2</gpxtrkx:MaxSpeed><gpxtrkx:MaxElevation>293</gpxtrkx:MaxElevation><gpxtrkx:MinElevation>82</gpxtrkx:MinElevation><gpxtrkx:Ascent>719</gpxtrkx:Ascent><gpxtrkx:Descent>761</gpxtrkx:Descent><gpxtrkx:AvgAscentRate>0</gpxtrkx:AvgAscentRate><gpxtrkx:MaxAscentRate>2</gpxtrkx:MaxAscentRate><gpxtrkx:AvgDescentRate>0</gpxtrkx:AvgDescentRate><gpxtrkx:MaxDescentRate>-2</gpxtrkx:MaxDescentRate></gpxtrkx:TrackStatsExtension></extensions><trkseg><trkpt lat="59.4054039940" lon="34.7087735496"><ele>155.39</ele><time>2026-08-22T13:10:45Z</time></trkpt><trkpt lat="59.4053965341" lon="34.7087529302"><ele>155.39</ele><time>2026-08-22T13:10:46Z</time></trkpt><trkpt lat="59.4053849671" lon="34.7087275330"><ele>165.00</ele><time>2026-08-22T13:10:49Z</time></trkpt><trkpt lat="59.4053825364" lon="34.7087196540"><ele>165.00</ele><time>2026-08-22T13:10:50Z</time></trkpt><trkpt lat="59.4053763337" lon="34.7087037284"><ele>165.00</ele><time>2026-08-22T13:10:51Z</time></trkpt><trkpt lat="59.4053679518" lon="34.7086588852"><ele>158.27</ele><time>2026-08-22T13:10:53Z</time></trkpt><trkpt lat="59.4053737354" lon="34.7086277883"><ele>158.27</ele><time>2026-08-22T13:10:54Z</time></trkpt><trkpt lat="59.4054042455" lon="34.7088645771"><ele>157.79</ele><time>2026-08-22T13:10:55Z</time></trkpt><trkpt lat="59.4054944348" lon="34.7087494098"><ele>153.47</ele><time>2026-08-22T13:11:02Z</time></trkpt><trkpt lat="59.4055060018" lon="34.7087379266"><ele>153.95</ele><time>2026-08-22T13:11:03Z</time></trkpt><trkpt lat="59.4056090154" lon="34.7085527703"><ele>151.54</ele><time>2026-08-22T13:11:22Z</time></trkpt><trkpt lat="59.4055955205" lon="34.7084711306"><ele>148.66</ele><time>2026-08-22T13:11:36Z</time></trkpt><trkpt lat="59.4056691136" lon="34.7082832921"><ele>144.82</ele><time>2026-08-22T13:11:51Z</time></trkpt><trkpt lat="59.4056895655" lon="34.7081517801"><ele>142.41</ele><time>2026-08-22T13:11:59Z</time></trkpt><trkpt lat="59.4057520106" lon="34.7079903446"><ele>138.09</ele><time>2026-08-22T13:12:12Z</time></trkpt><trkpt lat="59.4058168028" lon="34.7078917734"><ele>136.16</ele><time>2026-08-22T13:12:19Z</time></trkpt><trkpt lat="59.4058401044" lon="34.7078228742"><ele>138.09</ele><time>2026-08-22T13:12:30Z</time></trkpt><trkpt lat="59.4058470614" lon="34.7078312561"><ele>136.16</ele><time>2026-08-22T13:12:43Z</time></trkpt><trkpt lat="59.4058629870" lon="34.7078196891"><ele>133.28</ele><time>2026-08-22T13:13:04Z</time></trkpt><trkpt lat="59.4059768133" lon="34.7076516319"><ele>130.88</ele><time>2026-08-22T13:13:22Z</time></trkpt><trkpt lat="59.4060442876" lon="34.7075606044"><ele>130.40</ele><time>2026-08-22T13:13:29Z</time></trkpt><trkpt lat="59.4061239157" lon="34.7073938046"><ele>128.95</ele><time>2026-08-22T13:13:43Z</time></trkpt><trkpt lat="59.4062234927" lon="34.7072355542"><ele>127.51</ele><time>2026-08-22T13:13:59Z</time></trkpt><trkpt lat="59.4063450303" lon="34.7070764657"><ele>126.55</ele><time>2026-08-22T13:14:14Z</time></trkpt><trkpt lat="59.4064311963" lon="34.7067533433"><ele>125.59</ele><time>2026-08-22T13:14:30Z</time></trkpt><trkpt lat="59.4065182842" lon="34.7064186540"><ele>125.59</ele><time>2026-08-22T13:14:44Z</time></trkpt><trkpt lat="59.4065193739" lon="34.7063167300"><ele>125.59</ele><time>2026-08-22T13:14:48Z</time></trkpt><trkpt lat="59.4065751135" lon="34.7058393806"><ele>125.11</ele><time>2026-08-22T13:15:06Z</time></trkpt><trkpt lat="59.4066125806" lon="34.7054751869"><ele>124.63</ele><time>2026-08-22T13:15:22Z</time></trkpt><trkpt lat="59.4066096470" lon="34.7053880990"><ele>124.15</ele><time>2026-08-22T13:15:29Z</time></trkpt><trkpt lat="59.4066133350" lon="34.7053373046"><ele>124.15</ele><time>2026-08-22T13:15:32Z</time></trkpt><trkpt lat="59.4066257402" lon="34.7049628012"><ele>123.67</ele><time>2026-08-22T13:15:48Z</time></trkpt><trkpt lat="59.4066341221" lon="34.7046326380"><ele>123.19</ele><time>2026-08-22T13:16:03Z</time></trkpt><trkpt lat="59.4066437613" lon="34.7045778204"><ele>123.19</ele><time>2026-08-22T13:16:05Z</time></trkpt><trkpt lat="59.4065776281" lon="34.7041847929"><ele>122.22</ele><time>2026-08-22T13:16:22Z</time></trkpt><trkpt lat="59.4065057952" lon="34.7038247064"><ele>122.22</ele><time>2026-08-22T13:16:36Z</time></trkpt><trkpt lat="59.4063949864" lon="34.7036599182"><ele>122.22</ele><time>2026-08-22T13:16:52Z</time></trkpt><trkpt lat="59.4063982554" lon="34.7036352754"><ele>121.74</ele><time>2026-08-22T13:17:07Z</time></trkpt><trkpt lat="59.4063043781" lon="34.7034328524"><ele>121.26</ele><time>2026-08-22T13:17:23Z</time></trkpt><trkpt lat="59.4062254205" lon="34.7032988258"><ele>121.26</ele><time>2026-08-22T13:17:39Z</time></trkpt><trkpt lat="59.4062882848" lon="34.7029678244"><ele>120.78</ele><time>2026-08-22T13:17:59Z</time></trkpt><trkpt lat="59.4062920567" lon="34.7029325366"><ele>121.26</ele><time>2026-08-22T13:18:01Z</time></trkpt><trkpt lat="59.4063508138" lon="34.7025282774"><ele>120.78</ele><time>2026-08-22T13:18:19Z</time></trkpt><trkpt lat="59.4063673262" lon="34.7023557778"><ele>121.26</ele><time>2026-08-22T13:18:28Z</time></trkpt><trkpt lat="59.4064012729" lon="34.7022800054"><ele>121.26</ele><time>2026-08-22T13:18:32Z</time></trkpt><trkpt lat="59.4064768776" lon="34.7020332422"><ele>120.78</ele><time>2026-08-22T13:18:46Z</time></trkpt><trkpt lat="59.4065421727" lon="34.7016630974"><ele>120.78</ele><time>2026-08-22T13:19:04Z</time></trkpt><trkpt lat="59.4066096470" lon="34.7013585828"><ele>120.78</ele><time>2026-08-22T13:19:19Z</time></trkpt><trkpt lat="59.4066314399" lon="34.7012404818"><ele>120.78</ele><time>2026-08-22T13:19:25Z</time></trkpt><trkpt lat="59.4066466950" lon="34.7010178585"><ele>120.78</ele><time>2026-08-22T13:19:40Z</time></trkpt><trkpt lat="59.4067461044" lon="34.7006979212"><ele>120.78</ele><time>2026-08-22T13:19:56Z</time></trkpt><trkpt lat="59.4067673944" lon="34.7004460450"><ele>120.78</ele><time>2026-08-22T13:20:12Z</time></trkpt><trkpt lat="59.4067544863" lon="34.7004215699"><ele>121.74</ele><time>2026-08-22T13:20:16Z</time></trkpt><trkpt lat="59.4068771135" lon="34.7000961844"><ele>121.26</ele><time>2026-08-22T13:20:36Z</time></trkpt><trkpt lat="59.4069099706" lon="34.6998410393"><ele>121.26</ele><time>2026-08-22T13:20:49Z</time></trkpt><trkpt lat="59.4069759361" lon="34.6995118819"><ele>121.26</ele><time>2026-08-22T13:21:06Z</time></trkpt><trkpt lat="59.4070998207" lon="34.6992109716"><ele>121.74</ele><time>2026-08-22T13:21:21Z</time></trkpt><trkpt lat="59.4072041754" lon="34.6988423355"><ele>121.74</ele><time>2026-08-22T13:21:37Z</time></trkpt><trkpt lat="59.4072948676" lon="34.6985794790"><ele>122.22</ele><time>2026-08-22T13:21:52Z</time></trkpt><trkpt lat="59.4073905051" lon="34.6982728690"><ele>122.22</ele><time>2026-08-22T13:22:09Z</time></trkpt><trkpt lat="59.4075749069" lon="34.6978477389"><ele>122.22</ele><time>2026-08-22T13:22:31Z</time></trkpt><trkpt lat="59.4077078439" lon="34.6975214314"><ele>122.71</ele><time>2026-08-22T13:22:48Z</time></trkpt><trkpt lat="59.4077956863" lon="34.6973895840"><ele>122.71</ele><time>2026-08-22T13:23:03Z</time></trkpt><trkpt lat="59.4079965167" lon="34.6970479377"><ele>123.19</ele><time>2026-08-22T13:23:21Z</time></trkpt><trkpt lat="59.4080854487" lon="34.6966823190"><ele>123.19</ele><time>2026-08-22T13:23:37Z</time></trkpt><trkpt lat="59.4080803357" lon="34.6966645494"><ele>123.19</ele><time>2026-08-22T13:23:40Z</time></trkpt><trkpt lat="59.4081197307" lon="34.6962157823"><ele>123.67</ele><time>2026-08-22T13:23:59Z</time></trkpt><trkpt lat="59.4081326388" lon="34.6961745434"><ele>123.19</ele><time>2026-08-22T13:24:01Z</time></trkpt><trkpt lat="59.4081981853" lon="34.6958253533"><ele>124.63</ele><time>2026-08-22T13:24:17Z</time></trkpt><trkpt lat="59.4082134403" lon="34.6956837829"><ele>123.67</ele><time>2026-08-22T13:24:23Z</time></trkpt><trkpt lat="59.4082079083" lon="34.6956073400"><ele>123.67</ele><time>2026-08-22T13:24:26Z</time></trkpt><trkpt lat="59.4082260970" lon="34.6953104530"><ele>124.15</ele><time>2026-08-22T13:24:40Z</time></trkpt><trkpt lat="59.4082265999" lon="34.6949643642"><ele>124.15</ele><time>2026-08-22T13:24:57Z</time></trkpt><trkpt lat="59.4082447886" lon="34.6948610153"><ele>124.15</ele><time>2026-08-22T13:25:02Z</time></trkpt><trkpt lat="59.4083052222" lon="34.6944803931"><ele>124.15</ele><time>2026-08-22T13:25:20Z</time></trkpt><trkpt lat="59.4083371572" lon="34.6942831669"><ele>124.63</ele><time>2026-08-22T13:25:29Z</time></trkpt><trkpt lat="59.4083888736" lon="34.6939234156"><ele>124.63</ele><time>2026-08-22T13:25:46Z</time></trkpt><trkpt lat="59.4084563479" lon="34.6935112774"><ele>125.11</ele><time>2026-08-22T13:26:06Z</time></trkpt><trkpt lat="59.4085162785" lon="34.6931174118"><ele>125.11</ele><time>2026-08-22T13:26:23Z</time></trkpt><trkpt lat="59.4085223973" lon="34.6929766797"><ele>125.59</ele><time>2026-08-22T13:26:36Z</time></trkpt><trkpt lat="59.4086021092" lon="34.6926337760"><ele>125.59</ele><time>2026-08-22T13:26:52Z</time></trkpt><trkpt lat="59.4086886104" lon="34.6923194546"><ele>126.07</ele><time>2026-08-22T13:27:08Z</time></trkpt><trkpt lat="59.4087771233" lon="34.6920434386"><ele>126.55</ele><time>2026-08-22T13:27:23Z</time></trkpt><trkpt lat="59.4088637084" lon="34.6917590406"><ele>127.03</ele><time>2026-08-22T13:27:39Z</time></trkpt><trkpt lat="59.4089471083" lon="34.6914003789"><ele>127.51</ele><time>2026-08-22T13:27:56Z</time></trkpt><trkpt lat="59.4090093859" lon="34.6910051722"><ele>127.99</ele><time>2026-08-22T13:28:13Z</time></trkpt><trkpt lat="59.4090881757" lon="34.6906289086"><ele>128.47</ele><time>2026-08-22T13:28:30Z</time></trkpt><trkpt lat="59.4091390539" lon="34.6903793793"><ele>128.95</ele><time>2026-08-22T13:28:40Z</time></trkpt><trkpt lat="59.4092377927" lon="34.6900342125"><ele>129.43</ele><time>2026-08-22T13:28:57Z</time></trkpt><trkpt lat="59.4093675446" lon="34.6896499861"><ele>129.92</ele><time>2026-08-22T13:29:14Z</time></trkpt><trkpt lat="59.4094843045" lon="34.6893704496"><ele>130.88</ele><time>2026-08-22T13:29:30Z</time></trkpt><trkpt lat="59.4096124638" lon="34.6890371013"><ele>131.36</ele><time>2026-08-22T13:29:49Z</time></trkpt><trkpt lat="59.4096475001" lon="34.6886803675"><ele>131.36</ele><time>2026-08-22T13:30:06Z</time></trkpt><trkpt lat="59.4096006453" lon="34.6882428322"><ele>131.84</ele><time>2026-08-22T13:30:23Z</time></trkpt><trkpt lat="59.4095821213" lon="34.6877648961"><ele>132.32</ele><time>2026-08-22T13:30:41Z</time></trkpt><trkpt lat="59.4095647708" lon="34.6876573563"><ele>132.80</ele><time>2026-08-22T13:30:53Z</time></trkpt><trkpt lat="59.4095836300" lon="34.6873162966"><ele>133.28</ele><time>2026-08-22T13:31:06Z</time></trkpt><trkpt lat="59.4095895812" lon="34.6871551964"><ele>133.28</ele><time>2026-08-22T13:31:12Z</time></trkpt><trkpt lat="59.4096057583" lon="34.6870487463"><ele>133.28</ele><time>2026-08-22T13:31:16Z</time></trkpt><trkpt lat="59.4096046686" lon="34.6866521146"><ele>133.28</ele><time>2026-08-22T13:31:32Z</time></trkpt><trkpt lat="59.4095666148" lon="34.6863199398"><ele>133.76</ele><time>2026-08-22T13:31:47Z</time></trkpt><trkpt lat="59.4094568118" lon="34.6859383956"><ele>134.24</ele><time>2026-08-22T13:32:04Z</time></trkpt><trkpt lat="59.4093191810" lon="34.6855402552"><ele>134.72</ele><time>2026-08-22T13:32:23Z</time></trkpt><trkpt lat="59.4093063567" lon="34.6855013631"><ele>134.72</ele><time>2026-08-22T13:32:25Z</time></trkpt><trkpt lat="59.4092153292" lon="34.6851965971"><ele>134.72</ele><time>2026-08-22T13:32:41Z</time></trkpt><trkpt lat="59.4091531355" lon="34.6850631572"><ele>135.20</ele><time>2026-08-22T13:32:51Z</time></trkpt><trkpt lat="59.4090674724" lon="34.6847869735"><ele>135.20</ele><time>2026-08-22T13:33:06Z</time></trkpt><trkpt lat="59.4090231322" lon="34.6846081037"><ele>135.20</ele><time>2026-08-22T13:33:23Z</time></trkpt><trkpt lat="59.4090081286" lon="34.6845980454"><ele>135.20</ele><time>2026-08-22T13:33:44Z</time></trkpt><trkpt lat="59.4089526404" lon="34.6844956186"><ele>135.68</ele><time>2026-08-22T13:34:12Z</time></trkpt><trkpt lat="59.4088269118" lon="34.6841736697"><ele>135.68</ele><time>2026-08-22T13:34:29Z</time></trkpt><trkpt lat="59.4087083917" lon="34.6839104779"><ele>136.16</ele><time>2026-08-22T13:34:46Z</time></trkpt><trkpt lat="59.4086440187" lon="34.6836976614"><ele>136.16</ele><time>2026-08-22T13:35:01Z</time></trkpt><trkpt lat="59.4085880276" lon="34.6836294327"><ele>135.68</ele><time>2026-08-22T13:35:08Z</time></trkpt><trkpt lat="59.4084667414" lon="34.6833928116"><ele>136.16</ele><time>2026-08-22T13:35:25Z</time></trkpt><trkpt lat="59.4084406737" lon="34.6833546739"><ele>136.16</ele><time>2026-08-22T13:35:28Z</time></trkpt><trkpt lat="59.4083063118" lon="34.6831416897"><ele>136.16</ele><time>2026-08-22T13:35:44Z</time></trkpt><trkpt lat="59.4081872050" lon="34.6829043142"><ele>136.16</ele><time>2026-08-22T13:36:01Z</time></trkpt><trkpt lat="59.4081090018" lon="34.6827521827"><ele>136.16</ele><time>2026-08-22T13:36:12Z</time></trkpt><trkpt lat="59.4079893921" lon="34.6825631708"><ele>136.64</ele><time>2026-08-22T13:36:30Z</time></trkpt><trkpt lat="59.4078970235" lon="34.6824200917"><ele>136.64</ele><time>2026-08-22T13:36:46Z</time></trkpt><trkpt lat="59.4077728875" lon="34.6821485180"><ele>136.64</ele><time>2026-08-22T13:37:04Z</time></trkpt><trkpt lat="59.4076122902" lon="34.6819103882"><ele>137.13</ele><time>2026-08-22T13:37:21Z</time></trkpt><trkpt lat="59.4074966200" lon="34.6817173529"><ele>137.13</ele><time>2026-08-22T13:37:37Z</time></trkpt><trkpt lat="59.4073414709" lon="34.6814228967"><ele>137.61</ele><time>2026-08-22T13:37:55Z</time></trkpt><trkpt lat="59.4072425645" lon="34.6812208090"><ele>137.61</ele><time>2026-08-22T13:38:10Z</time></trkpt><trkpt lat="59.4071594998" lon="34.6809935756"><ele>138.09</ele><time>2026-08-22T13:38:26Z</time></trkpt><trkpt lat="59.4071558956" lon="34.6808030549"><ele>138.09</ele><time>2026-08-22T13:38:40Z</time></trkpt><trkpt lat="59.4071258884" lon="34.6806810144"><ele>138.57</ele><time>2026-08-22T13:38:56Z</time></trkpt><trkpt lat="59.4070973899" lon="34.6806583833"><ele>138.57</ele><time>2026-08-22T13:39:22Z</time></trkpt><trkpt lat="59.4070523791" lon="34.6806494985"><ele>139.05</ele><time>2026-08-22T13:39:48Z</time></trkpt><trkpt lat="59.4070127327" lon="34.6806072537"><ele>139.05</ele><time>2026-08-22T13:40:13Z</time></trkpt><trkpt lat="59.4070377108" lon="34.6806041524"><ele>139.53</ele><time>2026-08-22T13:40:42Z</time></trkpt><trkpt lat="59.4070714060" lon="34.6805723850"><ele>139.53</ele><time>2026-08-22T13:41:00Z</time></trkpt><trkpt lat="59.4071025867" lon="34.6803515218"><ele>140.01</ele><time>2026-08-22T13:41:19Z</time></trkpt><trkpt lat="59.4071159139" lon="34.6801588219"><ele>140.01</ele><time>2026-08-22T13:41:44Z</time></trkpt><trkpt lat="59.4070769381" lon="34.6799959615"><ele>140.49</ele><time>2026-08-22T13:42:02Z</time></trkpt><trkpt lat="59.4070308376" lon="34.6798959654"><ele>140.97</ele><time>2026-08-22T13:42:29Z</time></trkpt><trkpt lat="59.4070449192" lon="34.6799181774"><ele>141.45</ele><time>2026-08-22T13:42:54Z</time></trkpt><trkpt lat="59.4070340227" lon="34.6797507070"><ele>141.45</ele><time>2026-08-22T13:43:15Z</time></trkpt><trkpt lat="59.4070306700" lon="34.6795342863"><ele>141.45</ele><time>2026-08-22T13:43:28Z</time></trkpt><trkpt lat="59.4070681371" lon="34.6795019321"><ele>141.93</ele><time>2026-08-22T13:43:43Z</time></trkpt><trkpt lat="59.4070931152" lon="34.6793918777"><ele>141.93</ele><time>2026-08-22T13:43:59Z</time></trkpt><trkpt lat="59.4070556480" lon="34.6792827453"><ele>141.93</ele><time>2026-08-22T13:44:17Z</time></trkpt><trkpt lat="59.4070325140" lon="34.6793576796"><ele>142.41</ele><time>2026-08-22T13:44:43Z</time></trkpt><trkpt lat="59.4070025068" lon="34.6794573404"><ele>143.37</ele><time>2026-08-22T13:45:05Z</time></trkpt><trkpt lat="59.4069698174" lon="34.6795136668"><ele>143.37</ele><time>2026-08-22T13:45:18Z</time></trkpt><trkpt lat="59.4069784507" lon="34.6795986593"><ele>143.37</ele><time>2026-08-22T13:45:25Z</time></trkpt><trkpt lat="59.4069815520" lon="34.6798721608"><ele>143.85</ele><time>2026-08-22T13:45:39Z</time></trkpt><trkpt lat="59.4070280716" lon="34.6801574808"><ele>143.85</ele><time>2026-08-22T13:45:52Z</time></trkpt><trkpt lat="59.4070536364" lon="34.6805318166"><ele>144.34</ele><time>2026-08-22T13:46:08Z</time></trkpt><trkpt lat="59.4070552289" lon="34.6806951798"><ele>144.34</ele><time>2026-08-22T13:46:21Z</time></trkpt><trkpt lat="59.4070367888" lon="34.6808299609"><ele>144.34</ele><time>2026-08-22T13:46:35Z</time></trkpt><trkpt lat="59.4070264790" lon="34.6809493192"><ele>144.82</ele><time>2026-08-22T13:46:42Z</time></trkpt><trkpt lat="59.4069445040" lon="34.6811444499"><ele>144.82</ele><time>2026-08-22T13:47:00Z</time></trkpt><trkpt lat="59.4069465995" lon="34.6813086513"><ele>145.30</ele><time>2026-08-22T13:47:20Z</time></trkpt><trkpt lat="59.4069788698" lon="34.6813357249"><ele>145.78</ele><time>2026-08-22T13:47:34Z</time></trkpt><trkpt lat="59.4070328493" lon="34.6813905425"><ele>146.26</ele><time>2026-08-22T13:48:00Z</time></trkpt><trkpt lat="59.4070351962" lon="34.6813847590"><ele>146.26</ele><time>2026-08-22T13:48:17Z</time></trkpt><trkpt lat="59.4069857430" lon="34.6816344559"><ele>147.22</ele><time>2026-08-22T13:48:33Z</time></trkpt><trkpt lat="59.4069782831" lon="34.6817695722"><ele>147.22</ele><time>2026-08-22T13:48:47Z</time></trkpt><trkpt lat="59.4069197774" lon="34.6819321811"><ele>147.70</ele><time>2026-08-22T13:49:04Z</time></trkpt><trkpt lat="59.4069737568" lon="34.6819256432"><ele>148.18</ele><time>2026-08-22T13:49:23Z</time></trkpt><trkpt lat="59.4069424924" lon="34.6818642039"><ele>148.66</ele><time>2026-08-22T13:49:46Z</time></trkpt><trkpt lat="59.4069910236" lon="34.6819706541"><ele>149.14</ele><time>2026-08-22T13:50:13Z</time></trkpt><trkpt lat="59.4069315959" lon="34.6819997393"><ele>149.62</ele><time>2026-08-22T13:50:31Z</time></trkpt><trkpt lat="59.4069262315" lon="34.6821998153"><ele>149.62</ele><time>2026-08-22T13:50:47Z</time></trkpt><trkpt lat="59.4069097191" lon="34.6824045852"><ele>150.10</ele><time>2026-08-22T13:51:10Z</time></trkpt><trkpt lat="59.4069073722" lon="34.6825804375"><ele>150.10</ele><time>2026-08-22T13:51:28Z</time></trkpt><trkpt lat="59.4069307577" lon="34.6826107800"><ele>150.58</ele><time>2026-08-22T13:51:54Z</time></trkpt><trkpt lat="59.4069123175" lon="34.6825896576"><ele>151.06</ele><time>2026-08-22T13:52:21Z</time></trkpt><trkpt lat="59.4069887605" lon="34.6826439723"><ele>151.54</ele><time>2026-08-22T13:52:38Z</time></trkpt><trkpt lat="59.4070163369" lon="34.6822673734"><ele>152.03</ele><time>2026-08-22T13:52:56Z</time></trkpt><trkpt lat="59.4070439134" lon="34.6819790360"><ele>152.51</ele><time>2026-08-22T13:53:13Z</time></trkpt><trkpt lat="59.4070080388" lon="34.6819188539"><ele>152.51</ele><time>2026-08-22T13:53:27Z</time></trkpt><trkpt lat="59.4070541393" lon="34.6817497071"><ele>152.99</ele><time>2026-08-22T13:53:45Z</time></trkpt><trkpt lat="59.4070804585" lon="34.6814051270"><ele>153.47</ele><time>2026-08-22T13:54:01Z</time></trkpt><trkpt lat="59.4071029220" lon="34.6812775545"><ele>153.47</ele><time>2026-08-22T13:54:19Z</time></trkpt><trkpt lat="59.4071104657" lon="34.6812717710"><ele>154.43</ele><time>2026-08-22T13:54:20Z</time></trkpt><trkpt lat="59.4071541354" lon="34.6811556816"><ele>153.95</ele><time>2026-08-22T13:54:33Z</time></trkpt><trkpt lat="59.4071506988" lon="34.6809137799"><ele>153.95</ele><time>2026-08-22T13:54:44Z</time></trkpt><trkpt lat="59.4071575720" lon="34.6806173958"><ele>154.43</ele><time>2026-08-22T13:54:59Z</time></trkpt><trkpt lat="59.4071408082" lon="34.6802975424"><ele>154.91</ele><time>2026-08-22T13:55:16Z</time></trkpt><trkpt lat="59.4071211107" lon="34.6801293176"><ele>154.91</ele><time>2026-08-22T13:55:24Z</time></trkpt><trkpt lat="59.4070775248" lon="34.6798481047"><ele>154.91</ele><time>2026-08-22T13:55:42Z</time></trkpt><trkpt lat="59.4070399739" lon="34.6795897745"><ele>155.39</ele><time>2026-08-22T13:55:58Z</time></trkpt><trkpt lat="59.4071260560" lon="34.6793663967"><ele>155.87</ele><time>2026-08-22T13:56:13Z</time></trkpt><trkpt lat="59.4071318395" lon="34.6791848447"><ele>155.87</ele><time>2026-08-22T13:56:29Z</time></trkpt><trkpt lat="59.4071611762" lon="34.6789898816"><ele>156.35</ele><time>2026-08-22T13:56:45Z</time></trkpt><trkpt lat="59.4071217813" lon="34.6788441204"><ele>156.35</ele><time>2026-08-22T13:57:00Z</time></trkpt><trkpt lat="59.4071672112" lon="34.6789089963"><ele>156.83</ele><time>2026-08-22T13:57:14Z</time></trkpt><trkpt lat="59.4071370363" lon="34.6788456291"><ele>156.83</ele><time>2026-08-22T13:57:29Z</time></trkpt><trkpt lat="59.4071481004" lon="34.6788476408"><ele>156.83</ele><time>2026-08-22T13:57:32Z</time></trkpt><trkpt lat="59.4072035886" lon="34.6788073238"><ele>157.31</ele><time>2026-08-22T13:57:39Z</time></trkpt><trkpt lat="59.4073055126" lon="34.6786087565"><ele>157.31</ele><time>2026-08-22T13:57:55Z</time></trkpt><trkpt lat="59.4073341787" lon="34.6782997996"><ele>157.79</ele><time>2026-08-22T13:58:14Z</time></trkpt><trkpt lat="59.4074358512" lon="34.6777025051"><ele>158.75</ele><time>2026-08-22T13:58:32Z</time></trkpt><trkpt lat="59.4073685445" lon="34.6775219589"><ele>158.75</ele><time>2026-08-22T13:58:53Z</time></trkpt><trkpt lat="59.4073960371" lon="34.6774264053"><ele>159.24</ele><time>2026-08-22T13:59:04Z</time></trkpt><trkpt lat="59.4073895831" lon="34.6770505607"><ele>159.24</ele><time>2026-08-22T13:59:21Z</time></trkpt><trkpt lat="59.4073692989" lon="34.6768614650"><ele>159.72</ele><time>2026-08-22T13:59:34Z</time></trkpt><trkpt lat="59.4073228631" lon="34.6765258536"><ele>159.72</ele><time>2026-08-22T13:59:50Z</time></trkpt><trkpt lat="59.4072323386" lon="34.6762762405"><ele>160.20</ele><time>2026-08-22T14:00:03Z</time></trkpt><trkpt lat="59.4071282353" lon="34.6760682855"><ele>160.20</ele><time>2026-08-22T14:00:19Z</time></trkpt><trkpt lat="59.4070423208" lon="34.6759547107"><ele>160.68</ele><time>2026-08-22T14:00:37Z</time></trkpt><trkpt lat="59.4068595953" lon="34.6758996416"><ele>161.16</ele><time>2026-08-22T14:00:58Z</time></trkpt><trkpt lat="59.4068129081" lon="34.6759548783"><ele>161.16</ele><time>2026-08-22T14:01:34Z</time></trkpt><trkpt lat="59.4067711663" lon="34.6759994701"><ele>158.75</ele><time>2026-08-22T14:01:59Z</time></trkpt><trkpt lat="59.4068416581" lon="34.6759011503"><ele>158.75</ele><time>2026-08-22T14:02:26Z</time></trkpt><trkpt lat="59.4067155104" lon="34.6759690437"><ele>159.24</ele><time>2026-08-22T14:02:55Z</time></trkpt><trkpt lat="59.4067471102" lon="34.6760316566"><ele>159.72</ele><time>2026-08-22T14:03:18Z</time></trkpt><trkpt lat="59.4067952223" lon="34.6760722250"><ele>160.20</ele><time>2026-08-22T14:03:44Z</time></trkpt><trkpt lat="59.4068218768" lon="34.6760094445"><ele>160.20</ele><time>2026-08-22T14:04:10Z</time></trkpt><trkpt lat="59.4067830686" lon="34.6759213507"><ele>164.04</ele><time>2026-08-22T14:04:21Z</time></trkpt><trkpt lat="59.4067189470" lon="34.6759447362"><ele>164.52</ele><time>2026-08-22T14:04:44Z</time></trkpt><trkpt lat="59.4066894427" lon="34.6758414712"><ele>164.52</ele><time>2026-08-22T14:04:58Z</time></trkpt><trkpt lat="59.4066344574" lon="34.6758548822"><ele>165.00</ele><time>2026-08-22T14:05:15Z</time></trkpt><trkpt lat="59.4065427594" lon="34.6758747473"><ele>165.00</ele><time>2026-08-22T14:05:32Z</time></trkpt><trkpt lat="59.4063710142" lon="34.6759435628"><ele>165.48</ele><time>2026-08-22T14:05:49Z</time></trkpt><trkpt lat="59.4062576909" lon="34.6760221012"><ele>165.48</ele><time>2026-08-22T14:06:06Z</time></trkpt><trkpt lat="59.4061356504" lon="34.6761220135"><ele>165.48</ele><time>2026-08-22T14:06:20Z</time></trkpt><trkpt lat="59.4059625641" lon="34.6762691159"><ele>165.96</ele><time>2026-08-22T14:06:37Z</time></trkpt><trkpt lat="59.4058496598" lon="34.6764269471"><ele>166.45</ele><time>2026-08-22T14:07:08Z</time></trkpt><trkpt lat="59.4058098458" lon="34.6764917392"><ele>166.93</ele><time>2026-08-22T14:07:33Z</time></trkpt><trkpt lat="59.4058313034" lon="34.6765093412"><ele>167.41</ele><time>2026-08-22T14:08:11Z</time></trkpt><trkpt lat="59.4058640767" lon="34.6765786596"><ele>167.41</ele><time>2026-08-22T14:08:33Z</time></trkpt><trkpt lat="59.4058802538" lon="34.6765748877"><ele>167.41</ele><time>2026-08-22T14:08:53Z</time></trkpt><trkpt lat="59.4058994483" lon="34.6765920706"><ele>167.89</ele><time>2026-08-22T14:09:17Z</time></trkpt><trkpt lat="59.4058415294" lon="34.6764381789"><ele>168.37</ele><time>2026-08-22T14:09:34Z</time></trkpt><trkpt lat="59.4057451375" lon="34.6763938386"><ele>168.37</ele><time>2026-08-22T14:09:44Z</time></trkpt><trkpt lat="59.4057493284" lon="34.6763605624"><ele>168.37</ele><time>2026-08-22T14:09:56Z</time></trkpt><trkpt lat="59.4056593906" lon="34.6762971114"><ele>168.37</ele><time>2026-08-22T14:10:11Z</time></trkpt><trkpt lat="59.4055619091" lon="34.6762383543"><ele>168.85</ele><time>2026-08-22T14:10:24Z</time></trkpt><trkpt lat="59.4055411220" lon="34.6762326546"><ele>168.85</ele><time>2026-08-22T14:10:40Z</time></trkpt><trkpt lat="59.4054868910" lon="34.6762251947"><ele>168.85</ele><time>2026-08-22T14:10:57Z</time></trkpt><trkpt lat="59.4053378608" lon="34.6761128772"><ele>169.33</ele><time>2026-08-22T14:11:15Z</time></trkpt><trkpt lat="59.4051630981" lon="34.6760070138"><ele>169.33</ele><time>2026-08-22T14:11:31Z</time></trkpt><trkpt lat="59.4050698075" lon="34.6758745797"><ele>169.33</ele><time>2026-08-22T14:11:46Z</time></trkpt><trkpt lat="59.4050139841" lon="34.6758169960"><ele>169.33</ele><time>2026-08-22T14:12:04Z</time></trkpt><trkpt lat="59.4049803726" lon="34.6757506113"><ele>169.81</ele><time>2026-08-22T14:12:12Z</time></trkpt><trkpt lat="59.4049498625" lon="34.6755177621"><ele>169.81</ele><time>2026-08-22T14:12:26Z</time></trkpt><trkpt lat="59.4048921112" lon="34.6752797998"><ele>169.81</ele><time>2026-08-22T14:12:40Z</time></trkpt><trkpt lat="59.4048632775" lon="34.6750824060"><ele>170.29</ele><time>2026-08-22T14:12:53Z</time></trkpt><trkpt lat="59.4048584159" lon="34.6747802384"><ele>170.29</ele><time>2026-08-22T14:13:09Z</time></trkpt><trkpt lat="59.4048478547" lon="34.6747667436"><ele>170.29</ele><time>2026-08-22T14:13:10Z</time></trkpt><trkpt lat="59.4047830626" lon="34.6745918971"><ele>170.29</ele><time>2026-08-22T14:13:24Z</time></trkpt><trkpt lat="59.4047616888" lon="34.6745229140"><ele>170.29</ele><time>2026-08-22T14:13:30Z</time></trkpt><trkpt lat="59.4047302566" lon="34.6743551921"><ele>170.29</ele><time>2026-08-22T14:13:39Z</time></trkpt><trkpt lat="59.4046833180" lon="34.6741443034"><ele>170.77</ele><time>2026-08-22T14:13:51Z</time></trkpt><trkpt lat="59.4046488684" lon="34.6739602368"><ele>170.77</ele><time>2026-08-22T14:14:07Z</time></trkpt><trkpt lat="59.4046043605" lon="34.6739787608"><ele>171.25</ele><time>2026-08-22T14:14:21Z</time></trkpt><trkpt lat="59.4045772869" lon="34.6737691294"><ele>171.25</ele><time>2026-08-22T14:14:32Z</time></trkpt><trkpt lat="59.4045536499" lon="34.6737231128"><ele>171.25</ele><time>2026-08-22T14:14:35Z</time></trkpt><trkpt lat="59.4044987485" lon="34.6736309119"><ele>171.25</ele><time>2026-08-22T14:14:47Z</time></trkpt><trkpt lat="59.4043969084" lon="34.6734523773"><ele>171.73</ele><time>2026-08-22T14:15:02Z</time></trkpt><trkpt lat="59.4043825753" lon="34.6734325960"><ele>171.73</ele><time>2026-08-22T14:15:03Z</time></trkpt><trkpt lat="59.4043420907" lon="34.6733878367"><ele>171.73</ele><time>2026-08-22T14:15:06Z</time></trkpt><trkpt lat="59.4042415079" lon="34.6732119005"><ele>171.73</ele><time>2026-08-22T14:15:18Z</time></trkpt><trkpt lat="59.4041322079" lon="34.6730421670"><ele>171.73</ele><time>2026-08-22T14:15:34Z</time></trkpt><trkpt lat="59.4039945770" lon="34.6728679910"><ele>172.21</ele><time>2026-08-22T14:15:49Z</time></trkpt><trkpt lat="59.4039045554" lon="34.6727384068"><ele>172.21</ele><time>2026-08-22T14:16:04Z</time></trkpt><trkpt lat="59.4038193114" lon="34.6726436913"><ele>172.21</ele><time>2026-08-22T14:16:17Z</time></trkpt><trkpt lat="59.4038028829" lon="34.6725183818"><ele>172.69</ele><time>2026-08-22T14:16:35Z</time></trkpt><trkpt lat="59.4036318082" lon="34.6723788232"><ele>173.17</ele><time>2026-08-22T14:16:49Z</time></trkpt><trkpt lat="59.4035395235" lon="34.6722452994"><ele>173.17</ele><time>2026-08-22T14:17:04Z</time></trkpt><trkpt lat="59.4034781680" lon="34.6721887216"><ele>173.66</ele><time>2026-08-22T14:17:17Z</time></trkpt><trkpt lat="59.4034645893" lon="34.6721577086"><ele>173.66</ele><time>2026-08-22T14:17:20Z</time></trkpt><trkpt lat="59.4034416229" lon="34.6720846184"><ele>173.66</ele><time>2026-08-22T14:17:26Z</time></trkpt><trkpt lat="59.4033294730" lon="34.6719119512"><ele>174.14</ele><time>2026-08-22T14:17:39Z</time></trkpt><trkpt lat="59.4032741524" lon="34.6715928521"><ele>174.14</ele><time>2026-08-22T14:17:56Z</time></trkpt><trkpt lat="59.4032641780" lon="34.6714460012"><ele>174.14</ele><time>2026-08-22T14:18:04Z</time></trkpt><trkpt lat="59.4031970389" lon="34.6711290814"><ele>174.62</ele><time>2026-08-22T14:18:22Z</time></trkpt><trkpt lat="59.4032065943" lon="34.6708193701"><ele>174.62</ele><time>2026-08-22T14:18:37Z</time></trkpt><trkpt lat="59.4032296445" lon="34.6705934778"><ele>174.62</ele><time>2026-08-22T14:18:52Z</time></trkpt><trkpt lat="59.4032121263" lon="34.6702865325"><ele>174.62</ele><time>2026-08-22T14:19:09Z</time></trkpt><trkpt lat="59.4031586498" lon="34.6700415295"><ele>175.10</ele><time>2026-08-22T14:19:26Z</time></trkpt><trkpt lat="59.4031257927" lon="34.6699639130"><ele>175.10</ele><time>2026-08-22T14:19:30Z</time></trkpt><trkpt lat="59.4030086976" lon="34.6697379369"><ele>175.58</ele><time>2026-08-22T14:19:44Z</time></trkpt><trkpt lat="59.4029044267" lon="34.6695791837"><ele>175.58</ele><time>2026-08-22T14:19:58Z</time></trkpt><trkpt lat="59.4027048536" lon="34.6693972126"><ele>176.06</ele><time>2026-08-22T14:20:12Z</time></trkpt><trkpt lat="59.4025984034" lon="34.6692156605"><ele>176.06</ele><time>2026-08-22T14:20:26Z</time></trkpt><trkpt lat="59.4025200326" lon="34.6690337732"><ele>176.54</ele><time>2026-08-22T14:20:43Z</time></trkpt><trkpt lat="59.4025097229" lon="34.6690403111"><ele>177.02</ele><time>2026-08-22T14:21:04Z</time></trkpt><trkpt lat="59.4023465272" lon="34.6689576656"><ele>177.50</ele><time>2026-08-22T14:21:25Z</time></trkpt><trkpt lat="59.4022631273" lon="34.6688983217"><ele>177.50</ele><time>2026-08-22T14:21:49Z</time></trkpt><trkpt lat="59.4022533204" lon="34.6689104754"><ele>177.98</ele><time>2026-08-22T14:22:13Z</time></trkpt><trkpt lat="59.4022688270" lon="34.6689622756"><ele>177.98</ele><time>2026-08-22T14:22:34Z</time></trkpt><trkpt lat="59.4022461120" lon="34.6689116489"><ele>178.46</ele><time>2026-08-22T14:23:01Z</time></trkpt><trkpt lat="59.4022311084" lon="34.6688557416"><ele>178.46</ele><time>2026-08-22T14:23:26Z</time></trkpt><trkpt lat="59.4022295997" lon="34.6689020097"><ele>178.46</ele><time>2026-08-22T14:23:47Z</time></trkpt><trkpt lat="59.4023370557" lon="34.6692444943"><ele>178.94</ele><time>2026-08-22T14:24:02Z</time></trkpt><trkpt lat="59.4023523945" lon="34.6692728251"><ele>178.94</ele><time>2026-08-22T14:24:04Z</time></trkpt><trkpt lat="59.4024534803" lon="34.6694175806"><ele>178.94</ele><time>2026-08-22T14:24:18Z</time></trkpt><trkpt lat="59.4025987387" lon="34.6695881523"><ele>178.94</ele><time>2026-08-22T14:24:33Z</time></trkpt><trkpt lat="59.4028202724" lon="34.6698261984"><ele>178.94</ele><time>2026-08-22T14:24:51Z</time></trkpt><trkpt lat="59.4029327575" lon="34.6700195689"><ele>178.94</ele><time>2026-08-22T14:25:09Z</time></trkpt><trkpt lat="59.4029620104" lon="34.6702463832"><ele>178.94</ele><time>2026-08-22T14:25:27Z</time></trkpt><trkpt lat="59.4029880781" lon="34.6703755483"><ele>179.42</ele><time>2026-08-22T14:25:33Z</time></trkpt><trkpt lat="59.4030150678" lon="34.6705860179"><ele>179.42</ele><time>2026-08-22T14:25:41Z</time></trkpt><trkpt lat="59.4030351844" lon="34.6709125768"><ele>179.42</ele><time>2026-08-22T14:25:57Z</time></trkpt><trkpt lat="59.4030369446" lon="34.6709539834"><ele>179.42</ele><time>2026-08-22T14:25:59Z</time></trkpt><trkpt lat="59.4030447397" lon="34.6713731624"><ele>179.42</ele><time>2026-08-22T14:26:16Z</time></trkpt><trkpt lat="59.4031149801" lon="34.6717243642"><ele>179.42</ele><time>2026-08-22T14:26:31Z</time></trkpt><trkpt lat="59.4032117911" lon="34.6720795892"><ele>179.42</ele><time>2026-08-22T14:26:48Z</time></trkpt><trkpt lat="59.4032775890" lon="34.6722370014"><ele>179.90</ele><time>2026-08-22T14:26:57Z</time></trkpt><trkpt lat="59.4033889007" lon="34.6723292861"><ele>179.90</ele><time>2026-08-22T14:27:10Z</time></trkpt><trkpt lat="59.4033909962" lon="34.6723308787"><ele>179.90</ele><time>2026-08-22T14:27:11Z</time></trkpt><trkpt lat="59.4034583867" lon="34.6725035459"><ele>179.90</ele><time>2026-08-22T14:27:25Z</time></trkpt><trkpt lat="59.4035255257" lon="34.6725932322"><ele>179.90</ele><time>2026-08-22T14:27:40Z</time></trkpt><trkpt lat="59.4036001246" lon="34.6726795658"><ele>179.90</ele><time>2026-08-22T14:27:51Z</time></trkpt><trkpt lat="59.4036674313" lon="34.6727813222"><ele>179.90</ele><time>2026-08-22T14:28:05Z</time></trkpt><trkpt lat="59.4036815129" lon="34.6728147659"><ele>179.90</ele><time>2026-08-22T14:28:08Z</time></trkpt><trkpt lat="59.4037018809" lon="34.6728658956"><ele>180.38</ele><time>2026-08-22T14:28:13Z</time></trkpt><trkpt lat="59.4038242567" lon="34.6730473638"><ele>179.90</ele><time>2026-08-22T14:28:30Z</time></trkpt><trkpt lat="59.4039667491" lon="34.6731522214"><ele>180.38</ele><time>2026-08-22T14:28:44Z</time></trkpt><trkpt lat="59.4040118437" lon="34.6732180193"><ele>180.38</ele><time>2026-08-22T14:28:50Z</time></trkpt><trkpt lat="59.4040324632" lon="34.6732310113"><ele>180.38</ele><time>2026-08-22T14:28:52Z</time></trkpt><trkpt lat="59.4041740336" lon="34.6733824722"><ele>180.38</ele><time>2026-08-22T14:29:08Z</time></trkpt><trkpt lat="59.4042670727" lon="34.6735265572"><ele>180.38</ele><time>2026-08-22T14:29:18Z</time></trkpt><trkpt lat="59.4043754507" lon="34.6737136412"><ele>180.38</ele><time>2026-08-22T14:29:34Z</time></trkpt><trkpt lat="59.4044647180" lon="34.6739473287"><ele>180.38</ele><time>2026-08-22T14:29:48Z</time></trkpt><trkpt lat="59.4044876006" lon="34.6740577184"><ele>180.87</ele><time>2026-08-22T14:30:01Z</time></trkpt><trkpt lat="59.4044912886" lon="34.6740837023"><ele>180.87</ele><time>2026-08-22T14:30:03Z</time></trkpt><trkpt lat="59.4045253191" lon="34.6742343251"><ele>180.87</ele><time>2026-08-22T14:30:17Z</time></trkpt><trkpt lat="59.4045635406" lon="34.6744340658"><ele>180.87</ele><time>2026-08-22T14:30:31Z</time></trkpt><trkpt lat="59.4046377204" lon="34.6748332959"><ele>180.87</ele><time>2026-08-22T14:30:49Z</time></trkpt><trkpt lat="59.4046980701" lon="34.6751420852"><ele>180.87</ele><time>2026-08-22T14:31:06Z</time></trkpt><trkpt lat="59.4047450088" lon="34.6753258165"><ele>180.87</ele><time>2026-08-22T14:31:19Z</time></trkpt><trkpt lat="59.4047489483" lon="34.6753397305"><ele>181.35</ele><time>2026-08-22T14:31:20Z</time></trkpt><trkpt lat="59.4048009161" lon="34.6755656227"><ele>181.35</ele><time>2026-08-22T14:31:32Z</time></trkpt><trkpt lat="59.4048305880" lon="34.6756811254"><ele>181.35</ele><time>2026-08-22T14:31:38Z</time></trkpt><trkpt lat="59.4049009960" lon="34.6758803632"><ele>181.83</ele><time>2026-08-22T14:31:51Z</time></trkpt><trkpt lat="59.4049864914" lon="34.6760615800"><ele>181.83</ele><time>2026-08-22T14:32:07Z</time></trkpt><trkpt lat="59.4050081167" lon="34.6760938503"><ele>181.83</ele><time>2026-08-22T14:32:10Z</time></trkpt><trkpt lat="59.4051672891" lon="34.6762748156"><ele>181.83</ele><time>2026-08-22T14:32:27Z</time></trkpt><trkpt lat="59.4052862283" lon="34.6764359158"><ele>181.83</ele><time>2026-08-22T14:32:41Z</time></trkpt><trkpt lat="59.4053091947" lon="34.6764646657"><ele>181.83</ele><time>2026-08-22T14:32:45Z</time></trkpt><trkpt lat="59.4054732285" lon="34.6765459701"><ele>181.83</ele><time>2026-08-22T14:33:02Z</time></trkpt><trkpt lat="59.4056488294" lon="34.6766274422"><ele>181.83</ele><time>2026-08-22T14:33:18Z</time></trkpt><trkpt lat="59.4058331475" lon="34.6766070742"><ele>182.31</ele><time>2026-08-22T14:33:34Z</time></trkpt><trkpt lat="59.4059495721" lon="34.6765712835"><ele>182.31</ele><time>2026-08-22T14:33:51Z</time></trkpt><trkpt lat="59.4060610514" lon="34.6765095927"><ele>182.31</ele><time>2026-08-22T14:34:05Z</time></trkpt><trkpt lat="59.4062319584" lon="34.6763702016"><ele>182.79</ele><time>2026-08-22T14:34:22Z</time></trkpt><trkpt lat="59.4064886123" lon="34.6761858836"><ele>182.79</ele><time>2026-08-22T14:34:41Z</time></trkpt><trkpt lat="59.4066228066" lon="34.6761587262"><ele>183.27</ele><time>2026-08-22T14:34:59Z</time></trkpt><trkpt lat="59.4068253133" lon="34.6761168167"><ele>183.27</ele><time>2026-08-22T14:35:16Z</time></trkpt><trkpt lat="59.4069382176" lon="34.6761769988"><ele>183.27</ele><time>2026-08-22T14:35:32Z</time></trkpt><trkpt lat="59.4070969708" lon="34.6763407812"><ele>183.75</ele><time>2026-08-22T14:35:50Z</time></trkpt><trkpt lat="59.4072175864" lon="34.6765348222"><ele>183.75</ele><time>2026-08-22T14:36:04Z</time></trkpt><trkpt lat="59.4072732423" lon="34.6766804997"><ele>183.75</ele><time>2026-08-22T14:36:18Z</time></trkpt><trkpt lat="59.4072732423" lon="34.6768414322"><ele>183.75</ele><time>2026-08-22T14:36:35Z</time></trkpt><trkpt lat="59.4072755054" lon="34.6768872812"><ele>183.75</ele><time>2026-08-22T14:36:39Z</time></trkpt><trkpt lat="59.4072757568" lon="34.6770311985"><ele>184.23</ele><time>2026-08-22T14:36:51Z</time></trkpt><trkpt lat="59.4072986394" lon="34.6772022732"><ele>184.23</ele><time>2026-08-22T14:37:02Z</time></trkpt><trkpt lat="59.4073076081" lon="34.6774056181"><ele>184.71</ele><time>2026-08-22T14:37:13Z</time></trkpt><trkpt lat="59.4073228631" lon="34.6777271479"><ele>184.71</ele><time>2026-08-22T14:37:28Z</time></trkpt><trkpt lat="59.4073188398" lon="34.6777581610"><ele>184.71</ele><time>2026-08-22T14:37:30Z</time></trkpt><trkpt lat="59.4072488509" lon="34.6780832112"><ele>185.19</ele><time>2026-08-22T14:37:48Z</time></trkpt><trkpt lat="59.4071809575" lon="34.6783448942"><ele>185.19</ele><time>2026-08-22T14:38:04Z</time></trkpt><trkpt lat="59.4070407283" lon="34.6786268614"><ele>185.19</ele><time>2026-08-22T14:38:23Z</time></trkpt><trkpt lat="59.4070115592" lon="34.6788384207"><ele>185.67</ele><time>2026-08-22T14:38:41Z</time></trkpt><trkpt lat="59.4070643652" lon="34.6790218167"><ele>185.67</ele><time>2026-08-22T14:38:56Z</time></trkpt><trkpt lat="59.4069924485" lon="34.6789230779"><ele>185.67</ele><time>2026-08-22T14:39:15Z</time></trkpt><trkpt lat="59.4069310091" lon="34.6792318672"><ele>186.15</ele><time>2026-08-22T14:39:31Z</time></trkpt><trkpt lat="59.4069150835" lon="34.6793712582"><ele>186.15</ele><time>2026-08-22T14:39:46Z</time></trkpt><trkpt lat="59.4069292489" lon="34.6794263273"><ele>186.15</ele><time>2026-08-22T14:39:52Z</time></trkpt><trkpt lat="59.4069708232" lon="34.6796611045"><ele>186.15</ele><time>2026-08-22T14:40:06Z</time></trkpt><trkpt lat="59.4070039317" lon="34.6800229512"><ele>186.15</ele><time>2026-08-22T14:40:24Z</time></trkpt><trkpt lat="59.4070177618" lon="34.6802200936"><ele>186.63</ele><time>2026-08-22T14:40:39Z</time></trkpt><trkpt lat="59.4070416503" lon="34.6803974546"><ele>186.63</ele><time>2026-08-22T14:40:51Z</time></trkpt><trkpt lat="59.4071206078" lon="34.6805563755"><ele>186.63</ele><time>2026-08-22T14:41:06Z</time></trkpt><trkpt lat="59.4070960488" lon="34.6807008795"><ele>187.11</ele><time>2026-08-22T14:41:19Z</time></trkpt><trkpt lat="59.4070578273" lon="34.6807970200"><ele>187.11</ele><time>2026-08-22T14:41:37Z</time></trkpt><trkpt lat="59.4071019161" lon="34.6809229162"><ele>187.11</ele><time>2026-08-22T14:41:47Z</time></trkpt><trkpt lat="59.4070706517" lon="34.6810157038"><ele>187.59</ele><time>2026-08-22T14:42:02Z</time></trkpt><trkpt lat="59.4070720766" lon="34.6810499020"><ele>187.59</ele><time>2026-08-22T14:42:07Z</time></trkpt><trkpt lat="59.4071520399" lon="34.6812857687"><ele>187.59</ele><time>2026-08-22T14:42:20Z</time></trkpt><trkpt lat="59.4072266389" lon="34.6814944781"><ele>187.59</ele><time>2026-08-22T14:42:33Z</time></trkpt><trkpt lat="59.4072912633" lon="34.6816266607"><ele>187.59</ele><time>2026-08-22T14:42:39Z</time></trkpt><trkpt lat="59.4074464124" lon="34.6819314267"><ele>188.08</ele><time>2026-08-22T14:42:56Z</time></trkpt><trkpt lat="59.4075754937" lon="34.6821302455"><ele>188.08</ele><time>2026-08-22T14:43:11Z</time></trkpt><trkpt lat="59.4076848775" lon="34.6823004819"><ele>189.04</ele><time>2026-08-22T14:43:25Z</time></trkpt><trkpt lat="59.4078267831" lon="34.6826196648"><ele>188.56</ele><time>2026-08-22T14:43:40Z</time></trkpt><trkpt lat="59.4079351611" lon="34.6827700362"><ele>188.56</ele><time>2026-08-22T14:43:53Z</time></trkpt><trkpt lat="59.4079671800" lon="34.6828095987"><ele>188.56</ele><time>2026-08-22T14:43:57Z</time></trkpt><trkpt lat="59.4079935830" lon="34.6828458086"><ele>188.56</ele><time>2026-08-22T14:44:00Z</time></trkpt><trkpt lat="59.4080356602" lon="34.6829420328"><ele>188.56</ele><time>2026-08-22T14:44:06Z</time></trkpt><trkpt lat="59.4080872927" lon="34.6830468066"><ele>188.56</ele><time>2026-08-22T14:44:12Z</time></trkpt><trkpt lat="59.4081648253" lon="34.6831284463"><ele>189.04</ele><time>2026-08-22T14:44:19Z</time></trkpt><trkpt lat="59.4082088303" lon="34.6832238324"><ele>189.04</ele><time>2026-08-22T14:44:23Z</time></trkpt><trkpt lat="59.4083766360" lon="34.6834834199"><ele>189.04</ele><time>2026-08-22T14:44:42Z</time></trkpt><trkpt lat="59.4084830023" lon="34.6836493816"><ele>189.04</ele><time>2026-08-22T14:44:55Z</time></trkpt><trkpt lat="59.4085389096" lon="34.6837653033"><ele>189.04</ele><time>2026-08-22T14:45:09Z</time></trkpt><trkpt lat="59.4086301047" lon="34.6839165967"><ele>189.52</ele><time>2026-08-22T14:45:22Z</time></trkpt><trkpt lat="59.4086790551" lon="34.6838415787"><ele>189.52</ele><time>2026-08-22T14:45:42Z</time></trkpt><trkpt lat="59.4086993393" lon="34.6839054488"><ele>189.04</ele><time>2026-08-22T14:45:55Z</time></trkpt><trkpt lat="59.4086921308" lon="34.6839190274"><ele>189.04</ele><time>2026-08-22T14:46:25Z</time></trkpt><trkpt lat="59.4086666498" lon="34.6838949714"><ele>188.56</ele><time>2026-08-22T14:47:02Z</time></trkpt><trkpt lat="59.4086783845" lon="34.6839193627"><ele>188.56</ele><time>2026-08-22T14:47:32Z</time></trkpt><trkpt lat="59.4086963218" lon="34.6839062870"><ele>189.04</ele><time>2026-08-22T14:48:11Z</time></trkpt><trkpt lat="59.4086850900" lon="34.6839181893"><ele>188.56</ele><time>2026-08-22T14:48:49Z</time></trkpt><trkpt lat="59.4086916279" lon="34.6839059517"><ele>188.56</ele><time>2026-08-22T14:49:23Z</time></trkpt><trkpt lat="59.4087039493" lon="34.6839114837"><ele>188.56</ele><time>2026-08-22T14:49:57Z</time></trkpt><trkpt lat="59.4086880237" lon="34.6839143336"><ele>188.08</ele><time>2026-08-22T14:50:33Z</time></trkpt><trkpt lat="59.4087028597" lon="34.6839226317"><ele>188.08</ele><time>2026-08-22T14:51:04Z</time></trkpt><trkpt lat="59.4087155163" lon="34.6838777885"><ele>188.56</ele><time>2026-08-22T14:51:20Z</time></trkpt><trkpt lat="59.4086742774" lon="34.6838606894"><ele>188.56</ele><time>2026-08-22T14:51:32Z</time></trkpt><trkpt lat="59.4086828269" lon="34.6838553250"><ele>188.56</ele><time>2026-08-22T14:51:44Z</time></trkpt><trkpt lat="59.4086779654" lon="34.6837466117"><ele>188.56</ele><time>2026-08-22T14:52:00Z</time></trkpt><trkpt lat="59.4086746965" lon="34.6837335359"><ele>188.56</ele><time>2026-08-22T14:52:01Z</time></trkpt><trkpt lat="59.4085358921" lon="34.6834819112"><ele>188.56</ele><time>2026-08-22T14:52:19Z</time></trkpt><trkpt lat="59.4084532466" lon="34.6832577791"><ele>188.56</ele><time>2026-08-22T14:52:35Z</time></trkpt><trkpt lat="59.4083106704" lon="34.6830069926"><ele>188.56</ele><time>2026-08-22T14:52:51Z</time></trkpt><trkpt lat="59.4082069024" lon="34.6827915777"><ele>188.56</ele><time>2026-08-22T14:53:08Z</time></trkpt><trkpt lat="59.4081308786" lon="34.6825975366"><ele>189.04</ele><time>2026-08-22T14:53:25Z</time></trkpt><trkpt lat="59.4080715347" lon="34.6824650187"><ele>189.04</ele><time>2026-08-22T14:53:38Z</time></trkpt><trkpt lat="59.4079275336" lon="34.6822111309"><ele>189.52</ele><time>2026-08-22T14:53:54Z</time></trkpt><trkpt lat="59.4077360071" lon="34.6819507051"><ele>190.00</ele><time>2026-08-22T14:54:13Z</time></trkpt><trkpt lat="59.4076488353" lon="34.6818429139"><ele>190.00</ele><time>2026-08-22T14:54:28Z</time></trkpt><trkpt lat="59.4075750746" lon="34.6815450210"><ele>190.48</ele><time>2026-08-22T14:54:42Z</time></trkpt><trkpt lat="59.4074215181" lon="34.6812512353"><ele>190.48</ele><time>2026-08-22T14:54:59Z</time></trkpt><trkpt lat="59.4073715620" lon="34.6810535062"><ele>190.96</ele><time>2026-08-22T14:55:13Z</time></trkpt><trkpt lat="59.4072460011" lon="34.6807744727"><ele>190.96</ele><time>2026-08-22T14:55:30Z</time></trkpt><trkpt lat="59.4072287343" lon="34.6804710478"><ele>191.44</ele><time>2026-08-22T14:55:47Z</time></trkpt><trkpt lat="59.4072190113" lon="34.6801237855"><ele>191.44</ele><time>2026-08-22T14:56:03Z</time></trkpt><trkpt lat="59.4071905129" lon="34.6798185166"><ele>191.44</ele><time>2026-08-22T14:56:20Z</time></trkpt><trkpt lat="59.4071341865" lon="34.6796128247"><ele>191.92</ele><time>2026-08-22T14:56:36Z</time></trkpt><trkpt lat="59.4071344379" lon="34.6795004234"><ele>191.92</ele><time>2026-08-22T14:56:41Z</time></trkpt><trkpt lat="59.4071510341" lon="34.6793622896"><ele>191.92</ele><time>2026-08-22T14:56:50Z</time></trkpt><trkpt lat="59.4071648642" lon="34.6790607087"><ele>192.40</ele><time>2026-08-22T14:57:06Z</time></trkpt><trkpt lat="59.4071830530" lon="34.6789609641"><ele>192.40</ele><time>2026-08-22T14:57:20Z</time></trkpt><trkpt lat="59.4071962126" lon="34.6788229980"><ele>192.88</ele><time>2026-08-22T14:57:34Z</time></trkpt><trkpt lat="59.4072653633" lon="34.6787227504"><ele>192.88</ele><time>2026-08-22T14:57:49Z</time></trkpt><trkpt lat="59.4072998129" lon="34.6785971895"><ele>192.88</ele><time>2026-08-22T14:58:06Z</time></trkpt><trkpt lat="59.4073688798" lon="34.6783137135"><ele>192.88</ele><time>2026-08-22T14:58:23Z</time></trkpt><trkpt lat="59.4074091967" lon="34.6781140566"><ele>192.88</ele><time>2026-08-22T14:58:33Z</time></trkpt><trkpt lat="59.4074062631" lon="34.6778289042"><ele>192.88</ele><time>2026-08-22T14:58:52Z</time></trkpt><trkpt lat="59.4074420538" lon="34.6772715915"><ele>193.36</ele><time>2026-08-22T14:59:10Z</time></trkpt><trkpt lat="59.4074673671" lon="34.6770082321"><ele>193.36</ele><time>2026-08-22T14:59:26Z</time></trkpt><trkpt lat="59.4074438140" lon="34.6768176276"><ele>193.36</ele><time>2026-08-22T14:59:39Z</time></trkpt><trkpt lat="59.4074402098" lon="34.6764676832"><ele>193.84</ele><time>2026-08-22T14:59:55Z</time></trkpt><trkpt lat="59.4072992261" lon="34.6761761606"><ele>193.84</ele><time>2026-08-22T15:00:12Z</time></trkpt><trkpt lat="59.4070959650" lon="34.6759718098"><ele>194.32</ele><time>2026-08-22T15:00:28Z</time></trkpt><trkpt lat="59.4069041032" lon="34.6759384498"><ele>194.32</ele><time>2026-08-22T15:00:48Z</time></trkpt><trkpt lat="59.4066009298" lon="34.6759281401"><ele>194.32</ele><time>2026-08-22T15:01:08Z</time></trkpt><trkpt lat="59.4062968343" lon="34.6760182455"><ele>194.80</ele><time>2026-08-22T15:01:30Z</time></trkpt><trkpt lat="59.4061256759" lon="34.6761202533"><ele>194.80</ele><time>2026-08-22T15:01:40Z</time></trkpt><trkpt lat="59.4058803376" lon="34.6762686968"><ele>194.80</ele><time>2026-08-22T15:01:56Z</time></trkpt><trkpt lat="59.4057532679" lon="34.6763720457"><ele>194.80</ele><time>2026-08-22T15:02:10Z</time></trkpt><trkpt lat="59.4056888949" lon="34.6763729677"><ele>194.80</ele><time>2026-08-22T15:02:16Z</time></trkpt><trkpt lat="59.4056119490" lon="34.6763398591"><ele>194.80</ele><time>2026-08-22T15:02:25Z</time></trkpt><trkpt lat="59.4055723865" lon="34.6762885619"><ele>194.32</ele><time>2026-08-22T15:02:40Z</time></trkpt><trkpt lat="59.4055671897" lon="34.6762681101"><ele>194.32</ele><time>2026-08-22T15:02:54Z</time></trkpt><trkpt lat="59.4054079335" lon="34.6761471592"><ele>194.80</ele><time>2026-08-22T15:03:12Z</time></trkpt><trkpt lat="59.4052191731" lon="34.6760202572"><ele>194.80</ele><time>2026-08-22T15:03:28Z</time></trkpt><trkpt lat="59.4051162433" lon="34.6758891642"><ele>194.80</ele><time>2026-08-22T15:03:42Z</time></trkpt><trkpt lat="59.4050891697" lon="34.6758225281"><ele>194.80</ele><time>2026-08-22T15:03:58Z</time></trkpt><trkpt lat="59.4049973879" lon="34.6754573286"><ele>195.28</ele><time>2026-08-22T15:04:15Z</time></trkpt><trkpt lat="59.4048678037" lon="34.6751660574"><ele>195.28</ele><time>2026-08-22T15:04:31Z</time></trkpt><trkpt lat="59.4048227929" lon="34.6747613791"><ele>195.77</ele><time>2026-08-22T15:04:49Z</time></trkpt><trkpt lat="59.4047653768" lon="34.6744239237"><ele>195.77</ele><time>2026-08-22T15:05:04Z</time></trkpt><trkpt lat="59.4047003333" lon="34.6741545293"><ele>195.77</ele><time>2026-08-22T15:05:19Z</time></trkpt><trkpt lat="59.4046678953" lon="34.6739416290"><ele>195.77</ele><time>2026-08-22T15:05:34Z</time></trkpt><trkpt lat="59.4046305120" lon="34.6738621686"><ele>196.25</ele><time>2026-08-22T15:05:48Z</time></trkpt><trkpt lat="59.4044801407" lon="34.6738482546"><ele>196.25</ele><time>2026-08-22T15:06:04Z</time></trkpt><trkpt lat="59.4043507241" lon="34.6738566365"><ele>195.77</ele><time>2026-08-22T15:06:17Z</time></trkpt><trkpt lat="59.4042368140" lon="34.6738734841"><ele>196.25</ele><time>2026-08-22T15:06:33Z</time></trkpt><trkpt lat="59.4042048790" lon="34.6738886554"><ele>196.25</ele><time>2026-08-22T15:06:49Z</time></trkpt><trkpt lat="59.4042940624" lon="34.6739427187"><ele>195.77</ele><time>2026-08-22T15:07:04Z</time></trkpt><trkpt lat="59.4043327030" lon="34.6737147309"><ele>195.77</ele><time>2026-08-22T15:07:19Z</time></trkpt><trkpt lat="59.4043736905" lon="34.6735809557"><ele>195.77</ele><time>2026-08-22T15:07:36Z</time></trkpt><trkpt lat="59.4043857604" lon="34.6733573265"><ele>195.77</ele><time>2026-08-22T15:08:13Z</time></trkpt><trkpt lat="59.4044269994" lon="34.6735214442"><ele>195.28</ele><time>2026-08-22T15:08:43Z</time></trkpt><trkpt lat="59.4044094812" lon="34.6734722424"><ele>195.28</ele><time>2026-08-22T15:09:04Z</time></trkpt><trkpt lat="59.4043747801" lon="34.6733511239"><ele>195.28</ele><time>2026-08-22T15:09:21Z</time></trkpt><trkpt lat="59.4042455312" lon="34.6731702425"><ele>195.28</ele><time>2026-08-22T15:09:37Z</time></trkpt><trkpt lat="59.4041297771" lon="34.6730097290"><ele>195.28</ele><time>2026-08-22T15:09:53Z</time></trkpt><trkpt lat="59.4040186331" lon="34.6729333699"><ele>195.28</ele><time>2026-08-22T15:10:10Z</time></trkpt><trkpt lat="59.4039162900" lon="34.6727886144"><ele>195.28</ele><time>2026-08-22T15:10:25Z</time></trkpt><trkpt lat="59.4038835168" lon="34.6726606227"><ele>195.28</ele><time>2026-08-22T15:10:38Z</time></trkpt><trkpt lat="59.4037283678" lon="34.6724648215"><ele>195.28</ele><time>2026-08-22T15:10:52Z</time></trkpt><trkpt lat="59.4035660941" lon="34.6722607221"><ele>195.28</ele><time>2026-08-22T15:11:07Z</time></trkpt><trkpt lat="59.4033982884" lon="34.6720572934"><ele>195.28</ele><time>2026-08-22T15:11:23Z</time></trkpt><trkpt lat="59.4033269584" lon="34.6718923375"><ele>195.28</ele><time>2026-08-22T15:11:35Z</time></trkpt><trkpt lat="59.4033079315" lon="34.6716413833"><ele>195.28</ele><time>2026-08-22T15:11:51Z</time></trkpt><trkpt lat="59.4032771699" lon="34.6713396348"><ele>195.28</ele><time>2026-08-22T15:12:06Z</time></trkpt><trkpt lat="59.4032782596" lon="34.6710580029"><ele>195.28</ele><time>2026-08-22T15:12:22Z</time></trkpt><trkpt lat="59.4032853004" lon="34.6709549893"><ele>195.28</ele><time>2026-08-22T15:12:27Z</time></trkpt><trkpt lat="59.4032926764" lon="34.6705386601"><ele>195.28</ele><time>2026-08-22T15:12:46Z</time></trkpt><trkpt lat="59.4032702968" lon="34.6701100096"><ele>195.77</ele><time>2026-08-22T15:13:03Z</time></trkpt><trkpt lat="59.4031888247" lon="34.6698143799"><ele>196.25</ele><time>2026-08-22T15:13:19Z</time></trkpt><trkpt lat="59.4030601624" lon="34.6696514357"><ele>196.25</ele><time>2026-08-22T15:13:36Z</time></trkpt><trkpt lat="59.4030370284" lon="34.6696402039"><ele>196.25</ele><time>2026-08-22T15:13:38Z</time></trkpt><trkpt lat="59.4028867409" lon="34.6695042495"><ele>196.73</ele><time>2026-08-22T15:13:53Z</time></trkpt><trkpt lat="59.4028192665" lon="34.6693686303"><ele>196.73</ele><time>2026-08-22T15:14:07Z</time></trkpt><trkpt lat="59.4027152471" lon="34.6691724937"><ele>197.21</ele><time>2026-08-22T15:14:22Z</time></trkpt><trkpt lat="59.4024568330" lon="34.6689102240"><ele>197.21</ele><time>2026-08-22T15:14:40Z</time></trkpt><trkpt lat="59.4022200443" lon="34.6687028557"><ele>197.69</ele><time>2026-08-22T15:14:57Z</time></trkpt><trkpt lat="59.4021308608" lon="34.6686246525"><ele>197.69</ele><time>2026-08-22T15:15:14Z</time></trkpt><trkpt lat="59.4019565172" lon="34.6684884466"><ele>197.69</ele><time>2026-08-22T15:15:31Z</time></trkpt><trkpt lat="59.4018371589" lon="34.6683447808"><ele>198.17</ele><time>2026-08-22T15:15:49Z</time></trkpt><trkpt lat="59.4016798306" lon="34.6680955030"><ele>198.17</ele><time>2026-08-22T15:16:08Z</time></trkpt><trkpt lat="59.4016025495" lon="34.6677682735"><ele>198.17</ele><time>2026-08-22T15:16:26Z</time></trkpt><trkpt lat="59.4015740510" lon="34.6675710473"><ele>198.17</ele><time>2026-08-22T15:16:40Z</time></trkpt><trkpt lat="59.4015665073" lon="34.6674568858"><ele>198.17</ele><time>2026-08-22T15:16:44Z</time></trkpt><trkpt lat="59.4015192334" lon="34.6671420615"><ele>198.17</ele><time>2026-08-22T15:17:02Z</time></trkpt><trkpt lat="59.4014787488" lon="34.6670506988"><ele>198.17</ele><time>2026-08-22T15:17:13Z</time></trkpt><trkpt lat="59.4013899844" lon="34.6668625250"><ele>198.65</ele><time>2026-08-22T15:17:27Z</time></trkpt><trkpt lat="59.4013356697" lon="34.6666735969"><ele>198.65</ele><time>2026-08-22T15:17:41Z</time></trkpt><trkpt lat="59.4012647588" lon="34.6664539073"><ele>199.13</ele><time>2026-08-22T15:17:55Z</time></trkpt><trkpt lat="59.4012376852" lon="34.6661287732"><ele>199.61</ele><time>2026-08-22T15:18:10Z</time></trkpt><trkpt lat="59.4011951890" lon="34.6659327205"><ele>199.61</ele><time>2026-08-22T15:18:24Z</time></trkpt><trkpt lat="59.4011542853" lon="34.6658709459"><ele>199.61</ele><time>2026-08-22T15:18:38Z</time></trkpt><trkpt lat="59.4010826200" lon="34.6655023098"><ele>200.09</ele><time>2026-08-22T15:18:56Z</time></trkpt><trkpt lat="59.4010375254" lon="34.6652315743"><ele>200.57</ele><time>2026-08-22T15:19:16Z</time></trkpt><trkpt lat="59.4009837136" lon="34.6649584919"><ele>201.05</ele><time>2026-08-22T15:19:34Z</time></trkpt><trkpt lat="59.4009040855" lon="34.6647294145"><ele>201.53</ele><time>2026-08-22T15:19:51Z</time></trkpt><trkpt lat="59.4008478429" lon="34.6645228844"><ele>201.53</ele><time>2026-08-22T15:20:07Z</time></trkpt><trkpt lat="59.4008454122" lon="34.6644598525"><ele>202.01</ele><time>2026-08-22T15:20:11Z</time></trkpt><trkpt lat="59.4008226134" lon="34.6642491315"><ele>202.01</ele><time>2026-08-22T15:20:29Z</time></trkpt><trkpt lat="59.4006418157" lon="34.6641979180"><ele>202.49</ele><time>2026-08-22T15:20:47Z</time></trkpt><trkpt lat="59.4004960544" lon="34.6638890449"><ele>202.98</ele><time>2026-08-22T15:21:27Z</time></trkpt><trkpt lat="59.4004171807" lon="34.6639714390"><ele>202.98</ele><time>2026-08-22T15:22:06Z</time></trkpt><trkpt lat="59.4004204497" lon="34.6639044676"><ele>202.98</ele><time>2026-08-22T15:22:53Z</time></trkpt><trkpt lat="59.4004005846" lon="34.6639630571"><ele>202.98</ele><time>2026-08-22T15:23:28Z</time></trkpt><trkpt lat="59.4004640356" lon="34.6639570221"><ele>202.49</ele><time>2026-08-22T15:24:04Z</time></trkpt><trkpt lat="59.4004711602" lon="34.6638162062"><ele>202.49</ele><time>2026-08-22T15:24:46Z</time></trkpt><trkpt lat="59.4004642032" lon="34.6637999453"><ele>202.49</ele><time>2026-08-22T15:25:27Z</time></trkpt><trkpt lat="59.4004228804" lon="34.6638318803"><ele>202.01</ele><time>2026-08-22T15:26:05Z</time></trkpt><trkpt lat="59.4004606828" lon="34.6638214868"><ele>201.53</ele><time>2026-08-22T15:26:43Z</time></trkpt><trkpt lat="59.4005205296" lon="34.6640638076"><ele>201.53</ele><time>2026-08-22T15:26:56Z</time></trkpt><trkpt lat="59.4006859884" lon="34.6639384981"><ele>201.53</ele><time>2026-08-22T15:27:13Z</time></trkpt><trkpt lat="59.4007816259" lon="34.6636817604"><ele>201.53</ele><time>2026-08-22T15:27:29Z</time></trkpt><trkpt lat="59.4007465895" lon="34.6634419542"><ele>201.53</ele><time>2026-08-22T15:27:44Z</time></trkpt><trkpt lat="59.4007930253" lon="34.6628401335"><ele>201.05</ele><time>2026-08-22T15:28:00Z</time></trkpt><trkpt lat="59.4007861521" lon="34.6627326775"><ele>201.05</ele><time>2026-08-22T15:28:06Z</time></trkpt><trkpt lat="59.4007519539" lon="34.6624505427"><ele>201.05</ele><time>2026-08-22T15:28:20Z</time></trkpt><trkpt lat="59.4006895088" lon="34.6622371394"><ele>201.05</ele><time>2026-08-22T15:28:32Z</time></trkpt><trkpt lat="59.4006495271" lon="34.6620382369"><ele>201.05</ele><time>2026-08-22T15:28:50Z</time></trkpt><trkpt lat="59.4005249720" lon="34.6617395058"><ele>201.53</ele><time>2026-08-22T15:29:08Z</time></trkpt><trkpt lat="59.4003259018" lon="34.6613096818"><ele>201.53</ele><time>2026-08-22T15:29:27Z</time></trkpt><trkpt lat="59.4002485368" lon="34.6610697918"><ele>202.01</ele><time>2026-08-22T15:29:43Z</time></trkpt><trkpt lat="59.4001313578" lon="34.6609449852"><ele>202.01</ele><time>2026-08-22T15:30:00Z</time></trkpt><trkpt lat="59.3999967445" lon="34.6608097851"><ele>202.01</ele><time>2026-08-22T15:30:16Z</time></trkpt><trkpt lat="59.3998769671" lon="34.6606611740"><ele>202.01</ele><time>2026-08-22T15:30:35Z</time></trkpt><trkpt lat="59.3997440301" lon="34.6604838129"><ele>202.49</ele><time>2026-08-22T15:30:52Z</time></trkpt><trkpt lat="59.3996028788" lon="34.6603220422"><ele>202.49</ele><time>2026-08-22T15:31:09Z</time></trkpt><trkpt lat="59.3994659185" lon="34.6602269076"><ele>202.98</ele><time>2026-08-22T15:31:26Z</time></trkpt><trkpt lat="59.3994153757" lon="34.6601891890"><ele>203.46</ele><time>2026-08-22T15:31:30Z</time></trkpt><trkpt lat="59.3991813529" lon="34.6600943059"><ele>202.98</ele><time>2026-08-22T15:31:43Z</time></trkpt><trkpt lat="59.3989169039" lon="34.6599489637"><ele>203.46</ele><time>2026-08-22T15:31:58Z</time></trkpt><trkpt lat="59.3988715578" lon="34.6598885302"><ele>203.46</ele><time>2026-08-22T15:32:20Z</time></trkpt><trkpt lat="59.3989124615" lon="34.6601361316"><ele>203.46</ele><time>2026-08-22T15:32:36Z</time></trkpt><trkpt lat="59.3989755772" lon="34.6599690802"><ele>203.46</ele><time>2026-08-22T15:32:53Z</time></trkpt><trkpt lat="59.3989661895" lon="34.6597974189"><ele>203.46</ele><time>2026-08-22T15:33:07Z</time></trkpt><trkpt lat="59.3989714701" lon="34.6596462931"><ele>203.46</ele><time>2026-08-22T15:33:19Z</time></trkpt><trkpt lat="59.3989795167" lon="34.6592985280"><ele>203.46</ele><time>2026-08-22T15:33:36Z</time></trkpt><trkpt lat="59.3989823665" lon="34.6590704564"><ele>203.46</ele><time>2026-08-22T15:33:50Z</time></trkpt><trkpt lat="59.3989714701" lon="34.6589363459"><ele>203.46</ele><time>2026-08-22T15:33:57Z</time></trkpt><trkpt lat="59.3989552092" lon="34.6587928478"><ele>203.46</ele><time>2026-08-22T15:34:05Z</time></trkpt><trkpt lat="59.3989242800" lon="34.6584150754"><ele>203.46</ele><time>2026-08-22T15:34:19Z</time></trkpt><trkpt lat="59.3988832086" lon="34.6582895983"><ele>203.46</ele><time>2026-08-22T15:34:32Z</time></trkpt><trkpt lat="59.3987850565" lon="34.6581515484"><ele>203.46</ele><time>2026-08-22T15:34:47Z</time></trkpt><trkpt lat="59.3986729067" lon="34.6579948906"><ele>203.94</ele><time>2026-08-22T15:35:04Z</time></trkpt><trkpt lat="59.3985504471" lon="34.6578881051"><ele>203.94</ele><time>2026-08-22T15:35:18Z</time></trkpt><trkpt lat="59.3983824737" lon="34.6577632986"><ele>203.94</ele><time>2026-08-22T15:35:33Z</time></trkpt><trkpt lat="59.3982649595" lon="34.6575695928"><ele>204.42</ele><time>2026-08-22T15:35:52Z</time></trkpt><trkpt lat="59.3982452620" lon="34.6575278509"><ele>203.94</ele><time>2026-08-22T15:35:55Z</time></trkpt><trkpt lat="59.3981201202" lon="34.6573422756"><ele>204.42</ele><time>2026-08-22T15:36:10Z</time></trkpt><trkpt lat="59.3979466986" lon="34.6570551954"><ele>204.42</ele><time>2026-08-22T15:36:24Z</time></trkpt><trkpt lat="59.3977959920" lon="34.6566723101"><ele>204.42</ele><time>2026-08-22T15:36:40Z</time></trkpt><trkpt lat="59.3977157772" lon="34.6562601719"><ele>204.42</ele><time>2026-08-22T15:36:58Z</time></trkpt><trkpt lat="59.3976908829" lon="34.6559915319"><ele>204.42</ele><time>2026-08-22T15:37:13Z</time></trkpt><trkpt lat="59.3976700120" lon="34.6557327826"><ele>204.90</ele><time>2026-08-22T15:37:30Z</time></trkpt><trkpt lat="59.3976552598" lon="34.6555078123"><ele>204.90</ele><time>2026-08-22T15:37:44Z</time></trkpt><trkpt lat="59.3976041302" lon="34.6553604584"><ele>204.90</ele><time>2026-08-22T15:37:58Z</time></trkpt><trkpt lat="59.3974245898" lon="34.6552855242"><ele>204.90</ele><time>2026-08-22T15:38:13Z</time></trkpt><trkpt lat="59.3972993642" lon="34.6552437823"><ele>205.38</ele><time>2026-08-22T15:38:27Z</time></trkpt><trkpt lat="59.3971256912" lon="34.6551633999"><ele>205.38</ele><time>2026-08-22T15:38:44Z</time></trkpt><trkpt lat="59.3970401958" lon="34.6549695265"><ele>205.86</ele><time>2026-08-22T15:38:59Z</time></trkpt><trkpt lat="59.3969547004" lon="34.6547523513"><ele>205.86</ele><time>2026-08-22T15:39:14Z</time></trkpt><trkpt lat="59.3968843762" lon="34.6546935104"><ele>205.86</ele><time>2026-08-22T15:39:30Z</time></trkpt><trkpt lat="59.3968406226" lon="34.6545098629"><ele>206.34</ele><time>2026-08-22T15:39:44Z</time></trkpt><trkpt lat="59.3967474997" lon="34.6542666201"><ele>206.82</ele><time>2026-08-22T15:40:00Z</time></trkpt><trkpt lat="59.3966104556" lon="34.6540993173"><ele>206.82</ele><time>2026-08-22T15:40:14Z</time></trkpt><trkpt lat="59.3965366948" lon="34.6539188549"><ele>206.82</ele><time>2026-08-22T15:40:28Z</time></trkpt><trkpt lat="59.3964315020" lon="34.6535833273"><ele>207.30</ele><time>2026-08-22T15:40:41Z</time></trkpt><trkpt lat="59.3964050151" lon="34.6535128355"><ele>207.30</ele><time>2026-08-22T15:40:53Z</time></trkpt><trkpt lat="59.3963837251" lon="34.6533488855"><ele>207.78</ele><time>2026-08-22T15:41:06Z</time></trkpt><trkpt lat="59.3963302486" lon="34.6532213967"><ele>207.78</ele><time>2026-08-22T15:41:16Z</time></trkpt><trkpt lat="59.3961958028" lon="34.6530130226"><ele>208.26</ele><time>2026-08-22T15:41:29Z</time></trkpt><trkpt lat="59.3960712478" lon="34.6527852025"><ele>208.26</ele><time>2026-08-22T15:41:44Z</time></trkpt><trkpt lat="59.3959374726" lon="34.6525835339"><ele>208.74</ele><time>2026-08-22T15:41:59Z</time></trkpt><trkpt lat="59.3958649691" lon="34.6524218470"><ele>209.22</ele><time>2026-08-22T15:42:14Z</time></trkpt><trkpt lat="59.3957999256" lon="34.6522583161"><ele>209.22</ele><time>2026-08-22T15:42:29Z</time></trkpt><trkpt lat="59.3956276774" lon="34.6519687213"><ele>209.22</ele><time>2026-08-22T15:42:45Z</time></trkpt><trkpt lat="59.3955613766" lon="34.6519073658"><ele>209.22</ele><time>2026-08-22T15:42:51Z</time></trkpt><trkpt lat="59.3954498135" lon="34.6517728362"><ele>209.70</ele><time>2026-08-22T15:43:00Z</time></trkpt><trkpt lat="59.3953079078" lon="34.6515813097"><ele>209.70</ele><time>2026-08-22T15:43:13Z</time></trkpt><trkpt lat="59.3951609731" lon="34.6514047030"><ele>209.70</ele><time>2026-08-22T15:43:28Z</time></trkpt><trkpt lat="59.3951480649" lon="34.6513821557"><ele>209.70</ele><time>2026-08-22T15:43:33Z</time></trkpt><trkpt lat="59.3950200733" lon="34.6511868574"><ele>210.19</ele><time>2026-08-22T15:43:50Z</time></trkpt><trkpt lat="59.3949044030" lon="34.6510671638"><ele>210.19</ele><time>2026-08-22T15:44:04Z</time></trkpt><trkpt lat="59.3947382737" lon="34.6507917345"><ele>210.19</ele><time>2026-08-22T15:44:23Z</time></trkpt><trkpt lat="59.3946473300" lon="34.6506123617"><ele>210.19</ele><time>2026-08-22T15:44:39Z</time></trkpt><trkpt lat="59.3945271336" lon="34.6504273731"><ele>210.19</ele><time>2026-08-22T15:44:55Z</time></trkpt><trkpt lat="59.3943456654" lon="34.6501318272"><ele>210.67</ele><time>2026-08-22T15:45:12Z</time></trkpt><trkpt lat="59.3941449188" lon="34.6497528814"><ele>211.63</ele><time>2026-08-22T15:45:31Z</time></trkpt><trkpt lat="59.3940560706" lon="34.6494955570"><ele>210.67</ele><time>2026-08-22T15:45:46Z</time></trkpt><trkpt lat="59.3939517997" lon="34.6493114065"><ele>210.67</ele><time>2026-08-22T15:46:02Z</time></trkpt><trkpt lat="59.3938445114" lon="34.6489724424"><ele>210.67</ele><time>2026-08-22T15:46:19Z</time></trkpt><trkpt lat="59.3937490415" lon="34.6486927383"><ele>210.67</ele><time>2026-08-22T15:46:36Z</time></trkpt><trkpt lat="59.3936487101" lon="34.6484415326"><ele>210.67</ele><time>2026-08-22T15:46:52Z</time></trkpt><trkpt lat="59.3936332036" lon="34.6480379440"><ele>210.67</ele><time>2026-08-22T15:47:11Z</time></trkpt><trkpt lat="59.3936198764" lon="34.6479886584"><ele>210.67</ele><time>2026-08-22T15:47:15Z</time></trkpt><trkpt lat="59.3935941439" lon="34.6477238741"><ele>211.15</ele><time>2026-08-22T15:47:32Z</time></trkpt><trkpt lat="59.3935891986" lon="34.6473698225"><ele>210.67</ele><time>2026-08-22T15:47:47Z</time></trkpt><trkpt lat="59.3935842533" lon="34.6470908727"><ele>211.15</ele><time>2026-08-22T15:48:02Z</time></trkpt><trkpt lat="59.3935613707" lon="34.6467296127"><ele>211.15</ele><time>2026-08-22T15:48:19Z</time></trkpt><trkpt lat="59.3935865164" lon="34.6465226635"><ele>210.67</ele><time>2026-08-22T15:48:31Z</time></trkpt><trkpt lat="59.3936357182" lon="34.6460882295"><ele>210.67</ele><time>2026-08-22T15:48:50Z</time></trkpt><trkpt lat="59.3937463593" lon="34.6456885803"><ele>210.67</ele><time>2026-08-22T15:49:06Z</time></trkpt><trkpt lat="59.3937561661" lon="34.6455191821"><ele>210.67</ele><time>2026-08-22T15:49:22Z</time></trkpt><trkpt lat="59.3937861733" lon="34.6453208663"><ele>210.67</ele><time>2026-08-22T15:49:41Z</time></trkpt><trkpt lat="59.3938995805" lon="34.6451566648"><ele>210.19</ele><time>2026-08-22T15:49:57Z</time></trkpt><trkpt lat="59.3940144964" lon="34.6449140925"><ele>210.67</ele><time>2026-08-22T15:50:16Z</time></trkpt><trkpt lat="59.3940729182" lon="34.6446304489"><ele>210.67</ele><time>2026-08-22T15:50:31Z</time></trkpt><trkpt lat="59.3941381294" lon="34.6443537623"><ele>210.67</ele><time>2026-08-22T15:50:45Z</time></trkpt><trkpt lat="59.3942610081" lon="34.6441705339"><ele>210.19</ele><time>2026-08-22T15:51:00Z</time></trkpt><trkpt lat="59.3943701405" lon="34.6437790990"><ele>210.19</ele><time>2026-08-22T15:51:19Z</time></trkpt><trkpt lat="59.3944123853" lon="34.6433580760"><ele>210.19</ele><time>2026-08-22T15:51:36Z</time></trkpt><trkpt lat="59.3943972979" lon="34.6429673955"><ele>210.19</ele><time>2026-08-22T15:51:53Z</time></trkpt><trkpt lat="59.3943169154" lon="34.6425565146"><ele>210.19</ele><time>2026-08-22T15:52:11Z</time></trkpt><trkpt lat="59.3941760156" lon="34.6423107572"><ele>209.70</ele><time>2026-08-22T15:52:28Z</time></trkpt><trkpt lat="59.3939908594" lon="34.6421240922"><ele>209.70</ele><time>2026-08-22T15:52:44Z</time></trkpt><trkpt lat="59.3938430026" lon="34.6420532651"><ele>209.70</ele><time>2026-08-22T15:52:58Z</time></trkpt><trkpt lat="59.3937197886" lon="34.6418353356"><ele>210.19</ele><time>2026-08-22T15:53:14Z</time></trkpt><trkpt lat="59.3937262427" lon="34.6418086812"><ele>210.19</ele><time>2026-08-22T15:53:28Z</time></trkpt><trkpt lat="59.3936200440" lon="34.6417346690"><ele>210.67</ele><time>2026-08-22T15:53:46Z</time></trkpt><trkpt lat="59.3934540823" lon="34.6416029893"><ele>211.15</ele><time>2026-08-22T15:54:06Z</time></trkpt><trkpt lat="59.3933055550" lon="34.6413579863"><ele>211.63</ele><time>2026-08-22T15:54:24Z</time></trkpt><trkpt lat="59.3931115977" lon="34.6411112230"><ele>211.63</ele><time>2026-08-22T15:54:44Z</time></trkpt><trkpt lat="59.3929878809" lon="34.6409136616"><ele>211.63</ele><time>2026-08-22T15:54:58Z</time></trkpt><trkpt lat="59.3927992042" lon="34.6407443471"><ele>211.63</ele><time>2026-08-22T15:55:12Z</time></trkpt><trkpt lat="59.3926427979" lon="34.6405696683"><ele>212.11</ele><time>2026-08-22T15:55:26Z</time></trkpt><trkpt lat="59.3924853858" lon="34.6404477954"><ele>212.11</ele><time>2026-08-22T15:55:41Z</time></trkpt><trkpt lat="59.3922829628" lon="34.6401105076"><ele>212.59</ele><time>2026-08-22T15:56:00Z</time></trkpt><trkpt lat="59.3921441585" lon="34.6398553625"><ele>212.59</ele><time>2026-08-22T15:56:21Z</time></trkpt><trkpt lat="59.3920082878" lon="34.6396857966"><ele>212.11</ele><time>2026-08-22T15:56:39Z</time></trkpt><trkpt lat="59.3919211160" lon="34.6396105271"><ele>212.11</ele><time>2026-08-22T15:56:58Z</time></trkpt><trkpt lat="59.3917793781" lon="34.6395030711"><ele>212.11</ele><time>2026-08-22T15:57:19Z</time></trkpt><trkpt lat="59.3917235546" lon="34.6394226886"><ele>212.11</ele><time>2026-08-22T15:57:31Z</time></trkpt><trkpt lat="59.3916727602" lon="34.6393387020"><ele>212.59</ele><time>2026-08-22T15:57:47Z</time></trkpt><trkpt lat="59.3915401585" lon="34.6392107103"><ele>212.11</ele><time>2026-08-22T15:58:04Z</time></trkpt><trkpt lat="59.3913865183" lon="34.6389968880"><ele>212.59</ele><time>2026-08-22T15:58:23Z</time></trkpt><trkpt lat="59.3912296090" lon="34.6387710795"><ele>212.59</ele><time>2026-08-22T15:58:40Z</time></trkpt><trkpt lat="59.3911462929" lon="34.6385429241"><ele>212.11</ele><time>2026-08-22T15:58:56Z</time></trkpt><trkpt lat="59.3911265954" lon="34.6382525750"><ele>212.11</ele><time>2026-08-22T15:59:12Z</time></trkpt><trkpt lat="59.3911158666" lon="34.6380949952"><ele>212.11</ele><time>2026-08-22T15:59:30Z</time></trkpt><trkpt lat="59.3910613842" lon="34.6380307898"><ele>212.11</ele><time>2026-08-22T15:59:46Z</time></trkpt><trkpt lat="59.3910298683" lon="34.6380887926"><ele>212.11</ele><time>2026-08-22T16:00:07Z</time></trkpt><trkpt lat="59.3910439499" lon="34.6379760560"><ele>212.11</ele><time>2026-08-22T16:00:33Z</time></trkpt><trkpt lat="59.3910428602" lon="34.6378391795"><ele>211.63</ele><time>2026-08-22T16:00:48Z</time></trkpt><trkpt lat="59.3910932355" lon="34.6377871279"><ele>211.63</ele><time>2026-08-22T16:01:04Z</time></trkpt><trkpt lat="59.3911277689" lon="34.6375671867"><ele>211.63</ele><time>2026-08-22T16:01:18Z</time></trkpt><trkpt lat="59.3912503961" lon="34.6372003108"><ele>211.63</ele><time>2026-08-22T16:01:37Z</time></trkpt><trkpt lat="59.3913354725" lon="34.6369342692"><ele>211.63</ele><time>2026-08-22T16:01:52Z</time></trkpt><trkpt lat="59.3913689163" lon="34.6365974005"><ele>211.63</ele><time>2026-08-22T16:02:07Z</time></trkpt><trkpt lat="59.3914334569" lon="34.6364199556"><ele>211.63</ele><time>2026-08-22T16:02:14Z</time></trkpt><trkpt lat="59.3914850056" lon="34.6363195404"><ele>211.63</ele><time>2026-08-22T16:02:19Z</time></trkpt><trkpt lat="59.3915280048" lon="34.6361646429"><ele>211.63</ele><time>2026-08-22T16:02:25Z</time></trkpt><trkpt lat="59.3915225565" lon="34.6357452963"><ele>211.63</ele><time>2026-08-22T16:02:39Z</time></trkpt><trkpt lat="59.3915059604" lon="34.6355232596"><ele>211.63</ele><time>2026-08-22T16:02:55Z</time></trkpt><trkpt lat="59.3914780486" lon="34.6351534501"><ele>211.63</ele><time>2026-08-22T16:03:11Z</time></trkpt><trkpt lat="59.3914884422" lon="34.6348529588"><ele>211.63</ele><time>2026-08-22T16:03:19Z</time></trkpt><trkpt lat="59.3915209640" lon="34.6345212869"><ele>211.15</ele><time>2026-08-22T16:03:32Z</time></trkpt><trkpt lat="59.3915089779" lon="34.6343544871"><ele>211.63</ele><time>2026-08-22T16:03:47Z</time></trkpt><trkpt lat="59.3915117439" lon="34.6342665609"><ele>211.63</ele><time>2026-08-22T16:03:56Z</time></trkpt><trkpt lat="59.3915515579" lon="34.6340433508"><ele>211.15</ele><time>2026-08-22T16:04:10Z</time></trkpt><trkpt lat="59.3915190361" lon="34.6338805743"><ele>211.15</ele><time>2026-08-22T16:04:28Z</time></trkpt><trkpt lat="59.3916217145" lon="34.6337764710"><ele>211.15</ele><time>2026-08-22T16:04:56Z</time></trkpt><trkpt lat="59.3917466048" lon="34.6337448712"><ele>210.67</ele><time>2026-08-22T16:05:13Z</time></trkpt><trkpt lat="59.3918215390" lon="34.6335266903"><ele>211.15</ele><time>2026-08-22T16:05:30Z</time></trkpt><trkpt lat="59.3918677233" lon="34.6332867164"><ele>211.15</ele><time>2026-08-22T16:05:49Z</time></trkpt><trkpt lat="59.3918534741" lon="34.6331094392"><ele>210.67</ele><time>2026-08-22T16:06:05Z</time></trkpt><trkpt lat="59.3918068707" lon="34.6326856501"><ele>210.67</ele><time>2026-08-22T16:06:22Z</time></trkpt><trkpt lat="59.3917471077" lon="34.6322705783"><ele>210.67</ele><time>2026-08-22T16:06:40Z</time></trkpt><trkpt lat="59.3918005005" lon="34.6318844240"><ele>210.67</ele><time>2026-08-22T16:06:57Z</time></trkpt><trkpt lat="59.3918174319" lon="34.6315791551"><ele>210.67</ele><time>2026-08-22T16:07:11Z</time></trkpt><trkpt lat="59.3918145820" lon="34.6315707732"><ele>210.67</ele><time>2026-08-22T16:07:26Z</time></trkpt><trkpt lat="59.3918474391" lon="34.6314810030"><ele>210.19</ele><time>2026-08-22T16:07:52Z</time></trkpt><trkpt lat="59.3917951360" lon="34.6314226650"><ele>210.19</ele><time>2026-08-22T16:08:11Z</time></trkpt><trkpt lat="59.3918770272" lon="34.6312160511"><ele>210.19</ele><time>2026-08-22T16:08:26Z</time></trkpt><trkpt lat="59.3919584155" lon="34.6309797652"><ele>210.19</ele><time>2026-08-22T16:08:44Z</time></trkpt><trkpt lat="59.3921061046" lon="34.6307433117"><ele>210.19</ele><time>2026-08-22T16:09:04Z</time></trkpt><trkpt lat="59.3921784405" lon="34.6303731669"><ele>209.70</ele><time>2026-08-22T16:09:21Z</time></trkpt><trkpt lat="59.3921979703" lon="34.6302326862"><ele>210.19</ele><time>2026-08-22T16:09:41Z</time></trkpt><trkpt lat="59.3922726531" lon="34.6301813051"><ele>209.70</ele><time>2026-08-22T16:10:05Z</time></trkpt><trkpt lat="59.3923153169" lon="34.6300229710"><ele>209.22</ele><time>2026-08-22T16:10:16Z</time></trkpt><trkpt lat="59.3924801890" lon="34.6297826618"><ele>209.22</ele><time>2026-08-22T16:10:34Z</time></trkpt><trkpt lat="59.3926431332" lon="34.6297184564"><ele>209.22</ele><time>2026-08-22T16:10:53Z</time></trkpt><trkpt lat="59.3926989567" lon="34.6296224836"><ele>209.22</ele><time>2026-08-22T16:11:10Z</time></trkpt><trkpt lat="59.3927166425" lon="34.6296105813"><ele>209.22</ele><time>2026-08-22T16:11:12Z</time></trkpt><trkpt lat="59.3928902317" lon="34.6294126008"><ele>209.22</ele><time>2026-08-22T16:11:28Z</time></trkpt><trkpt lat="59.3929072469" lon="34.6294136066"><ele>208.74</ele><time>2026-08-22T16:11:30Z</time></trkpt><trkpt lat="59.3930374179" lon="34.6293086652"><ele>208.74</ele><time>2026-08-22T16:11:45Z</time></trkpt><trkpt lat="59.3930711132" lon="34.6290739719"><ele>208.74</ele><time>2026-08-22T16:11:58Z</time></trkpt><trkpt lat="59.3930981867" lon="34.6291020513"><ele>208.26</ele><time>2026-08-22T16:12:10Z</time></trkpt><trkpt lat="59.3931945786" lon="34.6291262750"><ele>208.74</ele><time>2026-08-22T16:12:20Z</time></trkpt><trkpt lat="59.3933840096" lon="34.6291028894"><ele>208.26</ele><time>2026-08-22T16:12:35Z</time></trkpt><trkpt lat="59.3934976682" lon="34.6290823538"><ele>208.26</ele><time>2026-08-22T16:12:48Z</time></trkpt><trkpt lat="59.3936236482" lon="34.6290733013"><ele>207.78</ele><time>2026-08-22T16:13:01Z</time></trkpt><trkpt lat="59.3936849199" lon="34.6291179769"><ele>207.78</ele><time>2026-08-22T16:13:19Z</time></trkpt><trkpt lat="59.3937126640" lon="34.6290427074"><ele>207.78</ele><time>2026-08-22T16:13:33Z</time></trkpt><trkpt lat="59.3936697487" lon="34.6290080063"><ele>207.30</ele><time>2026-08-22T16:13:51Z</time></trkpt><trkpt lat="59.3937472813" lon="34.6291001234"><ele>206.82</ele><time>2026-08-22T16:14:15Z</time></trkpt><trkpt lat="59.3937643804" lon="34.6291130316"><ele>207.30</ele><time>2026-08-22T16:14:17Z</time></trkpt><trkpt lat="59.3938159291" lon="34.6290941723"><ele>206.82</ele><time>2026-08-22T16:14:23Z</time></trkpt><trkpt lat="59.3939239718" lon="34.6291577909"><ele>206.82</ele><time>2026-08-22T16:14:37Z</time></trkpt><trkpt lat="59.3940528017" lon="34.6292209905"><ele>206.82</ele><time>2026-08-22T16:14:49Z</time></trkpt><trkpt lat="59.3942740839" lon="34.6293217409"><ele>206.34</ele><time>2026-08-22T16:15:08Z</time></trkpt><trkpt lat="59.3943897542" lon="34.6293398459"><ele>206.34</ele><time>2026-08-22T16:15:24Z</time></trkpt><trkpt lat="59.3944760039" lon="34.6294023748"><ele>206.34</ele><time>2026-08-22T16:15:41Z</time></trkpt><trkpt lat="59.3946057558" lon="34.6295006108"><ele>205.86</ele><time>2026-08-22T16:15:53Z</time></trkpt><trkpt lat="59.3946118746" lon="34.6295110043"><ele>205.86</ele><time>2026-08-22T16:15:54Z</time></trkpt><trkpt lat="59.3946997169" lon="34.6295540873"><ele>205.86</ele><time>2026-08-22T16:16:02Z</time></trkpt><trkpt lat="59.3948165607" lon="34.6296033729"><ele>205.38</ele><time>2026-08-22T16:16:12Z</time></trkpt><trkpt lat="59.3950188998" lon="34.6294219047"><ele>205.38</ele><time>2026-08-22T16:16:29Z</time></trkpt><trkpt lat="59.3951414432" lon="34.6292110998"><ele>204.90</ele><time>2026-08-22T16:16:42Z</time></trkpt><trkpt lat="59.3952815048" lon="34.6290137898"><ele>204.90</ele><time>2026-08-22T16:16:55Z</time></trkpt><trkpt lat="59.3953431956" lon="34.6288449783"><ele>204.90</ele><time>2026-08-22T16:17:09Z</time></trkpt><trkpt lat="59.3954571057" lon="34.6286093630"><ele>204.42</ele><time>2026-08-22T16:17:23Z</time></trkpt><trkpt lat="59.3954403419" lon="34.6282652859"><ele>204.42</ele><time>2026-08-22T16:17:39Z</time></trkpt><trkpt lat="59.3954322115" lon="34.6282547247"><ele>204.42</ele><time>2026-08-22T16:17:54Z</time></trkpt><trkpt lat="59.3954465445" lon="34.6283349395"><ele>203.94</ele><time>2026-08-22T16:18:13Z</time></trkpt><trkpt lat="59.3954244163" lon="34.6282975562"><ele>203.46</ele><time>2026-08-22T16:18:40Z</time></trkpt><trkpt lat="59.3954011984" lon="34.6282890905"><ele>203.46</ele><time>2026-08-22T16:19:07Z</time></trkpt><trkpt lat="59.3953933194" lon="34.6282977238"><ele>202.98</ele><time>2026-08-22T16:19:35Z</time></trkpt><trkpt lat="59.3953643180" lon="34.6281936206"><ele>202.49</ele><time>2026-08-22T16:19:59Z</time></trkpt><trkpt lat="59.3954151962" lon="34.6281848196"><ele>202.49</ele><time>2026-08-22T16:20:31Z</time></trkpt><trkpt lat="59.3953507394" lon="34.6282421518"><ele>202.49</ele><time>2026-08-22T16:21:00Z</time></trkpt><trkpt lat="59.3953923974" lon="34.6283560619"><ele>202.49</ele><time>2026-08-22T16:21:19Z</time></trkpt><trkpt lat="59.3954071496" lon="34.6283091232"><ele>202.49</ele><time>2026-08-22T16:21:23Z</time></trkpt><trkpt lat="59.3955297768" lon="34.6281650383"><ele>202.01</ele><time>2026-08-22T16:21:37Z</time></trkpt><trkpt lat="59.3956314493" lon="34.6278571710"><ele>202.49</ele><time>2026-08-22T16:21:55Z</time></trkpt><trkpt lat="59.3956613727" lon="34.6278290078"><ele>202.01</ele><time>2026-08-22T16:21:57Z</time></trkpt><trkpt lat="59.3957277574" lon="34.6275871899"><ele>202.01</ele><time>2026-08-22T16:22:14Z</time></trkpt><trkpt lat="59.3957376480" lon="34.6274917200"><ele>202.01</ele><time>2026-08-22T16:22:27Z</time></trkpt><trkpt lat="59.3957134243" lon="34.6274738666"><ele>202.01</ele><time>2026-08-22T16:22:48Z</time></trkpt><trkpt lat="59.3957862630" lon="34.6273914725"><ele>202.01</ele><time>2026-08-22T16:23:10Z</time></trkpt><trkpt lat="59.3958117440" lon="34.6273608785"><ele>201.53</ele><time>2026-08-22T16:23:13Z</time></trkpt><trkpt lat="59.3958334532" lon="34.6271050628"><ele>201.53</ele><time>2026-08-22T16:23:28Z</time></trkpt><trkpt lat="59.3957835808" lon="34.6270481497"><ele>201.53</ele><time>2026-08-22T16:23:41Z</time></trkpt><trkpt lat="59.3958214670" lon="34.6268959343"><ele>201.53</ele><time>2026-08-22T16:23:56Z</time></trkpt><trkpt lat="59.3959035259" lon="34.6268854570"><ele>201.53</ele><time>2026-08-22T16:24:15Z</time></trkpt><trkpt lat="59.3959463574" lon="34.6267438028"><ele>201.05</ele><time>2026-08-22T16:24:30Z</time></trkpt><trkpt lat="59.3959613610" lon="34.6266651805"><ele>201.05</ele><time>2026-08-22T16:24:49Z</time></trkpt><trkpt lat="59.3959343713" lon="34.6266080160"><ele>200.57</ele><time>2026-08-22T16:25:16Z</time></trkpt><trkpt lat="59.3959613610" lon="34.6264861431"><ele>200.09</ele><time>2026-08-22T16:25:32Z</time></trkpt><trkpt lat="59.3959802203" lon="34.6264350135"><ele>200.09</ele><time>2026-08-22T16:25:36Z</time></trkpt><trkpt lat="59.3960297573" lon="34.6261279844"><ele>200.09</ele><time>2026-08-22T16:25:52Z</time></trkpt><trkpt lat="59.3960844912" lon="34.6258798800"><ele>200.09</ele><time>2026-08-22T16:26:06Z</time></trkpt><trkpt lat="59.3961233832" lon="34.6258046944"><ele>200.09</ele><time>2026-08-22T16:26:12Z</time></trkpt><trkpt lat="59.3962422386" lon="34.6255381498"><ele>200.09</ele><time>2026-08-22T16:26:29Z</time></trkpt><trkpt lat="59.3962672167" lon="34.6254759561"><ele>200.09</ele><time>2026-08-22T16:26:33Z</time></trkpt><trkpt lat="59.3962963857" lon="34.6254507266"><ele>200.09</ele><time>2026-08-22T16:26:37Z</time></trkpt><trkpt lat="59.3963506166" lon="34.6252973378"><ele>200.09</ele><time>2026-08-22T16:26:44Z</time></trkpt><trkpt lat="59.3964704778" lon="34.6250585373"><ele>200.09</ele><time>2026-08-22T16:26:59Z</time></trkpt><trkpt lat="59.3964814581" lon="34.6250359062"><ele>199.61</ele><time>2026-08-22T16:27:01Z</time></trkpt><trkpt lat="59.3965995591" lon="34.6247877181"><ele>199.61</ele><time>2026-08-22T16:27:18Z</time></trkpt><trkpt lat="59.3966638483" lon="34.6244622488"><ele>200.09</ele><time>2026-08-22T16:27:34Z</time></trkpt><trkpt lat="59.3966695480" lon="34.6244486701"><ele>200.09</ele><time>2026-08-22T16:27:35Z</time></trkpt><trkpt lat="59.3966788519" lon="34.6241028327"><ele>200.09</ele><time>2026-08-22T16:27:51Z</time></trkpt><trkpt lat="59.3966614176" lon="34.6239520423"><ele>200.09</ele><time>2026-08-22T16:27:59Z</time></trkpt><trkpt lat="59.3966353498" lon="34.6236927900"><ele>199.61</ele><time>2026-08-22T16:28:13Z</time></trkpt><trkpt lat="59.3966670334" lon="34.6232820768"><ele>199.61</ele><time>2026-08-22T16:28:32Z</time></trkpt><trkpt lat="59.3966768403" lon="34.6230997704"><ele>199.61</ele><time>2026-08-22T16:28:41Z</time></trkpt><trkpt lat="59.3966980465" lon="34.6229073219"><ele>199.13</ele><time>2026-08-22T16:28:57Z</time></trkpt><trkpt lat="59.3966806959" lon="34.6228056494"><ele>199.13</ele><time>2026-08-22T16:29:17Z</time></trkpt><trkpt lat="59.3966800254" lon="34.6228272747"><ele>199.13</ele><time>2026-08-22T16:29:37Z</time></trkpt><trkpt lat="59.3967030756" lon="34.6225966047"><ele>199.13</ele><time>2026-08-22T16:29:53Z</time></trkpt><trkpt lat="59.3967693765" lon="34.6221876517"><ele>199.13</ele><time>2026-08-22T16:30:11Z</time></trkpt><trkpt lat="59.3968831189" lon="34.6217990667"><ele>199.13</ele><time>2026-08-22T16:30:30Z</time></trkpt><trkpt lat="59.3970014714" lon="34.6214491222"><ele>199.13</ele><time>2026-08-22T16:30:48Z</time></trkpt><trkpt lat="59.3971100170" lon="34.6212596912"><ele>199.13</ele><time>2026-08-22T16:31:03Z</time></trkpt><trkpt lat="59.3971536867" lon="34.6210151073"><ele>198.65</ele><time>2026-08-22T16:31:19Z</time></trkpt><trkpt lat="59.3971596379" lon="34.6208946593"><ele>199.13</ele><time>2026-08-22T16:31:35Z</time></trkpt><trkpt lat="59.3972416967" lon="34.6205547731"><ele>198.65</ele><time>2026-08-22T16:31:52Z</time></trkpt><trkpt lat="59.3972906470" lon="34.6203673538"><ele>198.65</ele><time>2026-08-22T16:32:09Z</time></trkpt><trkpt lat="59.3973397650" lon="34.6200700477"><ele>198.65</ele><time>2026-08-22T16:32:24Z</time></trkpt><trkpt lat="59.3974501546" lon="34.6197910979"><ele>198.65</ele><time>2026-08-22T16:32:40Z</time></trkpt><trkpt lat="59.3974436168" lon="34.6193996631"><ele>198.65</ele><time>2026-08-22T16:32:57Z</time></trkpt><trkpt lat="59.3973841891" lon="34.6191365551"><ele>198.65</ele><time>2026-08-22T16:33:14Z</time></trkpt><trkpt lat="59.3973723706" lon="34.6191019379"><ele>198.65</ele><time>2026-08-22T16:33:37Z</time></trkpt><trkpt lat="59.3973824289" lon="34.6190290153"><ele>198.65</ele><time>2026-08-22T16:34:02Z</time></trkpt><trkpt lat="59.3973228335" lon="34.6189114172"><ele>198.65</ele><time>2026-08-22T16:34:21Z</time></trkpt><trkpt lat="59.3973124400" lon="34.6188907139"><ele>198.65</ele><time>2026-08-22T16:34:23Z</time></trkpt><trkpt lat="59.3972401880" lon="34.6185957547"><ele>198.65</ele><time>2026-08-22T16:34:43Z</time></trkpt><trkpt lat="59.3972319737" lon="34.6182345785"><ele>198.65</ele><time>2026-08-22T16:35:03Z</time></trkpt><trkpt lat="59.3971137051" lon="34.6179298125"><ele>198.65</ele><time>2026-08-22T16:35:18Z</time></trkpt><trkpt lat="59.3969359249" lon="34.6175481007"><ele>198.65</ele><time>2026-08-22T16:35:40Z</time></trkpt><trkpt lat="59.3968181591" lon="34.6172536444"><ele>198.17</ele><time>2026-08-22T16:35:57Z</time></trkpt><trkpt lat="59.3967112061" lon="34.6168802306"><ele>198.17</ele><time>2026-08-22T16:36:15Z</time></trkpt><trkpt lat="59.3966719788" lon="34.6167501435"><ele>198.17</ele><time>2026-08-22T16:36:27Z</time></trkpt><trkpt lat="59.3966284767" lon="34.6166739520"><ele>198.17</ele><time>2026-08-22T16:36:42Z</time></trkpt><trkpt lat="59.3965961225" lon="34.6167253330"><ele>197.69</ele><time>2026-08-22T16:37:13Z</time></trkpt><trkpt lat="59.3966393732" lon="34.6164377499"><ele>197.69</ele><time>2026-08-22T16:37:29Z</time></trkpt><trkpt lat="59.3965962902" lon="34.6161618177"><ele>197.69</ele><time>2026-08-22T16:37:49Z</time></trkpt><trkpt lat="59.3965326715" lon="34.6157281380"><ele>197.69</ele><time>2026-08-22T16:38:06Z</time></trkpt><trkpt lat="59.3964935280" lon="34.6155798621"><ele>198.17</ele><time>2026-08-22T16:38:24Z</time></trkpt><trkpt lat="59.3964181747" lon="34.6153998189"><ele>198.17</ele><time>2026-08-22T16:38:50Z</time></trkpt><trkpt lat="59.3964360282" lon="34.6153767686"><ele>198.17</ele><time>2026-08-22T16:39:19Z</time></trkpt><trkpt lat="59.3964375369" lon="34.6152960509"><ele>197.69</ele><time>2026-08-22T16:39:48Z</time></trkpt><trkpt lat="59.3963889219" lon="34.6152557340"><ele>197.69</ele><time>2026-08-22T16:40:18Z</time></trkpt><trkpt lat="59.3964339327" lon="34.6153492760"><ele>197.69</ele><time>2026-08-22T16:40:46Z</time></trkpt><trkpt lat="59.3964620959" lon="34.6153660398"><ele>197.69</ele><time>2026-08-22T16:41:21Z</time></trkpt><trkpt lat="59.3964627665" lon="34.6152886748"><ele>198.17</ele><time>2026-08-22T16:41:52Z</time></trkpt><trkpt lat="59.3965097889" lon="34.6153429896"><ele>198.17</ele><time>2026-08-22T16:42:29Z</time></trkpt><trkpt lat="59.3964700587" lon="34.6153652016"><ele>198.17</ele><time>2026-08-22T16:43:07Z</time></trkpt><trkpt lat="59.3964559771" lon="34.6153812949"><ele>198.65</ele><time>2026-08-22T16:43:40Z</time></trkpt><trkpt lat="59.3964726571" lon="34.6153603401"><ele>198.65</ele><time>2026-08-22T16:44:17Z</time></trkpt><trkpt lat="59.3964576535" lon="34.6153610107"><ele>198.65</ele><time>2026-08-22T16:44:46Z</time></trkpt><trkpt lat="59.3964207731" lon="34.6153610107"><ele>198.65</ele><time>2026-08-22T16:45:19Z</time></trkpt><trkpt lat="59.3964357767" lon="34.6154387947"><ele>198.65</ele><time>2026-08-22T16:45:48Z</time></trkpt><trkpt lat="59.3963735830" lon="34.6154630184"><ele>195.28</ele><time>2026-08-22T16:46:12Z</time></trkpt><trkpt lat="59.3963656202" lon="34.6154709812"><ele>198.65</ele><time>2026-08-22T16:46:17Z</time></trkpt><trkpt lat="59.3963641115" lon="34.6154699754"><ele>198.65</ele><time>2026-08-22T16:46:18Z</time></trkpt><trkpt lat="59.3962951284" lon="34.6154496074"><ele>198.65</ele><time>2026-08-22T16:46:51Z</time></trkpt><trkpt lat="59.3963513710" lon="34.6154019143"><ele>198.17</ele><time>2026-08-22T16:47:22Z</time></trkpt><trkpt lat="59.3963627703" lon="34.6153717395"><ele>198.65</ele><time>2026-08-22T16:47:56Z</time></trkpt><trkpt lat="59.3963721581" lon="34.6154061053"><ele>190.96</ele><time>2026-08-22T16:48:16Z</time></trkpt><trkpt lat="59.3963709008" lon="34.6154074464"><ele>196.73</ele><time>2026-08-22T16:48:17Z</time></trkpt><trkpt lat="59.3963845633" lon="34.6153995674"><ele>195.28</ele><time>2026-08-22T16:48:22Z</time></trkpt><trkpt lat="59.3963842280" lon="34.6153974719"><ele>190.96</ele><time>2026-08-22T16:48:25Z</time></trkpt><trkpt lat="59.3963837251" lon="34.6153973043"><ele>194.80</ele><time>2026-08-22T16:48:26Z</time></trkpt><trkpt lat="59.3963824678" lon="34.6153932810"><ele>194.32</ele><time>2026-08-22T16:48:27Z</time></trkpt><trkpt lat="59.3963667098" lon="34.6153730806"><ele>194.80</ele><time>2026-08-22T16:48:31Z</time></trkpt><trkpt lat="59.3963870779" lon="34.6153447498"><ele>195.28</ele><time>2026-08-22T16:48:44Z</time></trkpt><trkpt lat="59.3963904306" lon="34.6153429896"><ele>192.40</ele><time>2026-08-22T16:48:47Z</time></trkpt><trkpt lat="59.3964583240" lon="34.6155136451"><ele>195.28</ele><time>2026-08-22T16:49:02Z</time></trkpt><trkpt lat="59.3964984734" lon="34.6155282296"><ele>195.28</ele><time>2026-08-22T16:49:12Z</time></trkpt><trkpt lat="59.3964833021" lon="34.6154857334"><ele>197.21</ele><time>2026-08-22T16:49:22Z</time></trkpt><trkpt lat="59.3964749202" lon="34.6154219471"><ele>197.69</ele><time>2026-08-22T16:49:43Z</time></trkpt><trkpt lat="59.3965068553" lon="34.6153738350"><ele>198.65</ele><time>2026-08-22T16:49:55Z</time></trkpt><trkpt lat="59.3965177517" lon="34.6151022613"><ele>198.65</ele><time>2026-08-22T16:50:12Z</time></trkpt><trkpt lat="59.3964944500" lon="34.6147783846"><ele>199.13</ele><time>2026-08-22T16:50:29Z</time></trkpt><trkpt lat="59.3964579888" lon="34.6144534182"><ele>199.61</ele><time>2026-08-22T16:50:45Z</time></trkpt><trkpt lat="59.3964562286" lon="34.6144078206"><ele>200.57</ele><time>2026-08-22T16:51:05Z</time></trkpt><trkpt lat="59.3964425661" lon="34.6143347304"><ele>200.57</ele><time>2026-08-22T16:51:30Z</time></trkpt><trkpt lat="59.3964398839" lon="34.6141359955"><ele>200.57</ele><time>2026-08-22T16:51:45Z</time></trkpt><trkpt lat="59.3963584956" lon="34.6138733067"><ele>201.05</ele><time>2026-08-22T16:52:01Z</time></trkpt><trkpt lat="59.3963122275" lon="34.6136958618"><ele>200.57</ele><time>2026-08-22T16:52:17Z</time></trkpt><trkpt lat="59.3962299172" lon="34.6133148205"><ele>200.09</ele><time>2026-08-22T16:52:35Z</time></trkpt><trkpt lat="59.3962030113" lon="34.6131517086"><ele>200.09</ele><time>2026-08-22T16:52:47Z</time></trkpt><trkpt lat="59.3961479422" lon="34.6130019240"><ele>199.61</ele><time>2026-08-22T16:53:02Z</time></trkpt><trkpt lat="59.3961366266" lon="34.6129510459"><ele>201.05</ele><time>2026-08-22T16:53:07Z</time></trkpt><trkpt lat="59.3960870057" lon="34.6126052085"><ele>201.53</ele><time>2026-08-22T16:53:24Z</time></trkpt><trkpt lat="59.3960810546" lon="34.6123412624"><ele>202.01</ele><time>2026-08-22T16:53:40Z</time></trkpt><trkpt lat="59.3961141631" lon="34.6120499074"><ele>202.01</ele><time>2026-08-22T16:53:56Z</time></trkpt><trkpt lat="59.3961404823" lon="34.6117870510"><ele>202.49</ele><time>2026-08-22T16:54:13Z</time></trkpt><trkpt lat="59.3961347826" lon="34.6118188184"><ele>202.01</ele><time>2026-08-22T16:54:18Z</time></trkpt><trkpt lat="59.3960704096" lon="34.6120862011"><ele>202.01</ele><time>2026-08-22T16:54:34Z</time></trkpt><trkpt lat="59.3960425816" lon="34.6122091636"><ele>202.49</ele><time>2026-08-22T16:54:40Z</time></trkpt><trkpt lat="59.3960138317" lon="34.6124881133"><ele>202.98</ele><time>2026-08-22T16:54:53Z</time></trkpt><trkpt lat="59.3960114010" lon="34.6127344575"><ele>202.01</ele><time>2026-08-22T16:55:05Z</time></trkpt><trkpt lat="59.3960243929" lon="34.6129337791"><ele>202.49</ele><time>2026-08-22T16:55:20Z</time></trkpt><trkpt lat="59.3960388936" lon="34.6129487827"><ele>200.09</ele><time>2026-08-22T16:55:23Z</time></trkpt><trkpt lat="59.3960395642" lon="34.6129755210"><ele>201.53</ele><time>2026-08-22T16:55:26Z</time></trkpt><trkpt lat="59.3960450962" lon="34.6130098030"><ele>202.98</ele><time>2026-08-22T16:55:29Z</time></trkpt><trkpt lat="59.3960747682" lon="34.6131660417"><ele>200.09</ele><time>2026-08-22T16:55:43Z</time></trkpt><trkpt lat="59.3960803002" lon="34.6131973062"><ele>203.46</ele><time>2026-08-22T16:55:46Z</time></trkpt><trkpt lat="59.3960844073" lon="34.6132097952"><ele>203.46</ele><time>2026-08-22T16:55:47Z</time></trkpt><trkpt lat="59.3961100560" lon="34.6132725757"><ele>203.94</ele><time>2026-08-22T16:55:51Z</time></trkpt><trkpt lat="59.3961537257" lon="34.6135402936"><ele>203.94</ele><time>2026-08-22T16:56:04Z</time></trkpt><trkpt lat="59.3961596768" lon="34.6135825384"><ele>204.90</ele><time>2026-08-22T16:56:20Z</time></trkpt><trkpt lat="59.3961406499" lon="34.6135813650"><ele>205.38</ele><time>2026-08-22T16:56:49Z</time></trkpt><trkpt lat="59.3961740937" lon="34.6136166528"><ele>204.90</ele><time>2026-08-22T16:56:58Z</time></trkpt><trkpt lat="59.3962595053" lon="34.6138671041"><ele>204.90</ele><time>2026-08-22T16:57:12Z</time></trkpt><trkpt lat="59.3963801209" lon="34.6139411163"><ele>204.90</ele><time>2026-08-22T16:57:28Z</time></trkpt><trkpt lat="59.3964721542" lon="34.6137678623"><ele>206.34</ele><time>2026-08-22T16:57:49Z</time></trkpt><trkpt lat="59.3964983057" lon="34.6134992223"><ele>208.26</ele><time>2026-08-22T16:58:08Z</time></trkpt><trkpt lat="59.3965401314" lon="34.6132724918"><ele>210.19</ele><time>2026-08-22T16:58:27Z</time></trkpt><trkpt lat="59.3965655286" lon="34.6131434105"><ele>212.11</ele><time>2026-08-22T16:58:42Z</time></trkpt><trkpt lat="59.3965957034" lon="34.6130422410"><ele>213.55</ele><time>2026-08-22T16:58:59Z</time></trkpt><trkpt lat="59.3966375291" lon="34.6129543148"><ele>215.47</ele><time>2026-08-22T16:59:18Z</time></trkpt><trkpt lat="59.3967139721" lon="34.6128679812"><ele>217.40</ele><time>2026-08-22T16:59:35Z</time></trkpt><trkpt lat="59.3967657723" lon="34.6128546540"><ele>215.95</ele><time>2026-08-22T16:59:43Z</time></trkpt><trkpt lat="59.3967999704" lon="34.6128177736"><ele>217.88</ele><time>2026-08-22T16:59:46Z</time></trkpt><trkpt lat="59.3969139643" lon="34.6127580944"><ele>219.80</ele><time>2026-08-22T17:00:03Z</time></trkpt><trkpt lat="59.3970264494" lon="34.6127156820"><ele>221.24</ele><time>2026-08-22T17:00:20Z</time></trkpt><trkpt lat="59.3971179798" lon="34.6126503032"><ele>223.16</ele><time>2026-08-22T17:00:41Z</time></trkpt><trkpt lat="59.3971231766" lon="34.6126698330"><ele>223.64</ele><time>2026-08-22T17:00:49Z</time></trkpt><trkpt lat="59.3971207459" lon="34.6126687434"><ele>221.72</ele><time>2026-08-22T17:00:52Z</time></trkpt><trkpt lat="59.3971239310" lon="34.6126710903"><ele>223.64</ele><time>2026-08-22T17:00:55Z</time></trkpt><trkpt lat="59.3972425349" lon="34.6125427634"><ele>225.09</ele><time>2026-08-22T17:01:13Z</time></trkpt><trkpt lat="59.3972617295" lon="34.6124484669"><ele>225.57</ele><time>2026-08-22T17:01:19Z</time></trkpt><trkpt lat="59.3973323889" lon="34.6123412624"><ele>226.05</ele><time>2026-08-22T17:01:38Z</time></trkpt><trkpt lat="59.3974498194" lon="34.6122105885"><ele>226.53</ele><time>2026-08-22T17:01:55Z</time></trkpt><trkpt lat="59.3975447025" lon="34.6121761389"><ele>227.97</ele><time>2026-08-22T17:02:11Z</time></trkpt><trkpt lat="59.3976175413" lon="34.6120530088"><ele>227.97</ele><time>2026-08-22T17:02:25Z</time></trkpt><trkpt lat="59.3976313714" lon="34.6120439563"><ele>228.93</ele><time>2026-08-22T17:02:27Z</time></trkpt><trkpt lat="59.3977067247" lon="34.6118551958"><ele>229.89</ele><time>2026-08-22T17:02:43Z</time></trkpt><trkpt lat="59.3977275956" lon="34.6118049044"><ele>227.97</ele><time>2026-08-22T17:02:50Z</time></trkpt><trkpt lat="59.3977421802" lon="34.6117670182"><ele>226.05</ele><time>2026-08-22T17:02:55Z</time></trkpt><trkpt lat="59.3977628835" lon="34.6117459796"><ele>229.89</ele><time>2026-08-22T17:03:00Z</time></trkpt><trkpt lat="59.3977670744" lon="34.6117378492"><ele>229.89</ele><time>2026-08-22T17:03:01Z</time></trkpt><trkpt lat="59.3978331238" lon="34.6116325725"><ele>229.89</ele><time>2026-08-22T17:03:20Z</time></trkpt><trkpt lat="59.3978733569" lon="34.6116240229"><ele>230.37</ele><time>2026-08-22T17:03:31Z</time></trkpt><trkpt lat="59.3979909550" lon="34.6114982944"><ele>231.81</ele><time>2026-08-22T17:03:50Z</time></trkpt><trkpt lat="59.3980000075" lon="34.6114544570"><ele>233.26</ele><time>2026-08-22T17:04:10Z</time></trkpt><trkpt lat="59.3980431743" lon="34.6114186663"><ele>233.74</ele><time>2026-08-22T17:04:31Z</time></trkpt><trkpt lat="59.3980415817" lon="34.6113324165"><ele>233.74</ele><time>2026-08-22T17:04:37Z</time></trkpt><trkpt lat="59.3980650511" lon="34.6112920996"><ele>230.85</ele><time>2026-08-22T17:04:46Z</time></trkpt><trkpt lat="59.3980743550" lon="34.6112913452"><ele>234.22</ele><time>2026-08-22T17:04:48Z</time></trkpt><trkpt lat="59.3980771210" lon="34.6112823766"><ele>234.22</ele><time>2026-08-22T17:04:49Z</time></trkpt><trkpt lat="59.3980909511" lon="34.6112464182"><ele>235.18</ele><time>2026-08-22T17:05:13Z</time></trkpt><trkpt lat="59.3980857544" lon="34.6113032475"><ele>235.66</ele><time>2026-08-22T17:05:28Z</time></trkpt><trkpt lat="59.3981281668" lon="34.6111931093"><ele>231.81</ele><time>2026-08-22T17:05:40Z</time></trkpt><trkpt lat="59.3981588446" lon="34.6111506131"><ele>236.14</ele><time>2026-08-22T17:05:43Z</time></trkpt><trkpt lat="59.3982556555" lon="34.6109913569"><ele>236.14</ele><time>2026-08-22T17:05:58Z</time></trkpt><trkpt lat="59.3983386364" lon="34.6109004971"><ele>237.10</ele><time>2026-08-22T17:06:13Z</time></trkpt><trkpt lat="59.3983964715" lon="34.6106420830"><ele>238.06</ele><time>2026-08-22T17:06:31Z</time></trkpt><trkpt lat="59.3983346969" lon="34.6104226448"><ele>238.06</ele><time>2026-08-22T17:06:47Z</time></trkpt><trkpt lat="59.3982870039" lon="34.6102695912"><ele>238.06</ele><time>2026-08-22T17:07:03Z</time></trkpt><trkpt lat="59.3982721679" lon="34.6101924777"><ele>237.10</ele><time>2026-08-22T17:07:18Z</time></trkpt><trkpt lat="59.3982735090" lon="34.6101519093"><ele>239.02</ele><time>2026-08-22T17:07:21Z</time></trkpt><trkpt lat="59.3983111437" lon="34.6100255940"><ele>239.51</ele><time>2026-08-22T17:07:39Z</time></trkpt><trkpt lat="59.3983222917" lon="34.6100240853"><ele>239.02</ele><time>2026-08-22T17:07:48Z</time></trkpt><trkpt lat="59.3984062783" lon="34.6099543478"><ele>239.99</ele><time>2026-08-22T17:08:03Z</time></trkpt><trkpt lat="59.3984600063" lon="34.6098235063"><ele>240.47</ele><time>2026-08-22T17:08:17Z</time></trkpt><trkpt lat="59.3985159975" lon="34.6095721330"><ele>240.47</ele><time>2026-08-22T17:08:30Z</time></trkpt><trkpt lat="59.3985289056" lon="34.6095546149"><ele>241.43</ele><time>2026-08-22T17:08:43Z</time></trkpt><trkpt lat="59.3984896783" lon="34.6095531061"><ele>241.43</ele><time>2026-08-22T17:08:56Z</time></trkpt><trkpt lat="59.3985004909" lon="34.6094819438"><ele>242.39</ele><time>2026-08-22T17:09:18Z</time></trkpt><trkpt lat="59.3984999042" lon="34.6095194109"><ele>242.87</ele><time>2026-08-22T17:09:36Z</time></trkpt><trkpt lat="59.3984922767" lon="34.6094239410"><ele>242.39</ele><time>2026-08-22T17:09:48Z</time></trkpt><trkpt lat="59.3985241279" lon="34.6093054209"><ele>242.87</ele><time>2026-08-22T17:10:02Z</time></trkpt><trkpt lat="59.3985541351" lon="34.6091720648"><ele>242.87</ele><time>2026-08-22T17:10:20Z</time></trkpt><trkpt lat="59.3985328451" lon="34.6090014093"><ele>242.87</ele><time>2026-08-22T17:10:34Z</time></trkpt><trkpt lat="59.3984658737" lon="34.6088864934"><ele>243.83</ele><time>2026-08-22T17:10:49Z</time></trkpt><trkpt lat="59.3984729983" lon="34.6087381337"><ele>242.87</ele><time>2026-08-22T17:11:00Z</time></trkpt><trkpt lat="59.3984730821" lon="34.6087228786"><ele>241.43</ele><time>2026-08-22T17:11:02Z</time></trkpt><trkpt lat="59.3984684721" lon="34.6087055281"><ele>241.43</ele><time>2026-08-22T17:11:04Z</time></trkpt><trkpt lat="59.3984889239" lon="34.6086041071"><ele>243.35</ele><time>2026-08-22T17:11:16Z</time></trkpt><trkpt lat="59.3985320907" lon="34.6085275803"><ele>243.35</ele><time>2026-08-22T17:11:30Z</time></trkpt><trkpt lat="59.3985566497" lon="34.6084487066"><ele>243.83</ele><time>2026-08-22T17:11:35Z</time></trkpt><trkpt lat="59.3985719047" lon="34.6082715970"><ele>243.83</ele><time>2026-08-22T17:11:47Z</time></trkpt><trkpt lat="59.3985952064" lon="34.6080753766"><ele>244.31</ele><time>2026-08-22T17:12:00Z</time></trkpt><trkpt lat="59.3985732459" lon="34.6079881210"><ele>244.79</ele><time>2026-08-22T17:12:14Z</time></trkpt><trkpt lat="59.3985608406" lon="34.6078738756"><ele>244.79</ele><time>2026-08-22T17:12:31Z</time></trkpt><trkpt lat="59.3985079508" lon="34.6076807566"><ele>244.79</ele><time>2026-08-22T17:12:45Z</time></trkpt><trkpt lat="59.3984880019" lon="34.6077258512"><ele>244.79</ele><time>2026-08-22T17:12:58Z</time></trkpt><trkpt lat="59.3985208590" lon="34.6077192295"><ele>244.79</ele><time>2026-08-22T17:13:16Z</time></trkpt><trkpt lat="59.3985602539" lon="34.6076856181"><ele>245.27</ele><time>2026-08-22T17:13:30Z</time></trkpt><trkpt lat="59.3985934462" lon="34.6077116858"><ele>245.27</ele><time>2026-08-22T17:13:46Z</time></trkpt><trkpt lat="59.3986917660" lon="34.6076068282"><ele>245.27</ele><time>2026-08-22T17:14:03Z</time></trkpt><trkpt lat="59.3987656944" lon="34.6073414572"><ele>244.31</ele><time>2026-08-22T17:14:20Z</time></trkpt><trkpt lat="59.3987729028" lon="34.6073281299"><ele>244.31</ele><time>2026-08-22T17:14:21Z</time></trkpt><trkpt lat="59.3987792730" lon="34.6073236037"><ele>245.75</ele><time>2026-08-22T17:14:23Z</time></trkpt><trkpt lat="59.3988103699" lon="34.6073689498"><ele>245.75</ele><time>2026-08-22T17:14:40Z</time></trkpt><trkpt lat="59.3988460768" lon="34.6073814388"><ele>246.23</ele><time>2026-08-22T17:14:51Z</time></trkpt><trkpt lat="59.3988883216" lon="34.6074205823"><ele>246.72</ele><time>2026-08-22T17:15:06Z</time></trkpt><trkpt lat="59.3989280518" lon="34.6074740589"><ele>242.87</ele><time>2026-08-22T17:15:18Z</time></trkpt><trkpt lat="59.3989364337" lon="34.6074809320"><ele>244.31</ele><time>2026-08-22T17:15:19Z</time></trkpt><trkpt lat="59.3990188278" lon="34.6075158007"><ele>246.72</ele><time>2026-08-22T17:15:28Z</time></trkpt><trkpt lat="59.3991573807" lon="34.6074738912"><ele>246.72</ele><time>2026-08-22T17:15:41Z</time></trkpt><trkpt lat="59.3992759846" lon="34.6074417047"><ele>246.72</ele><time>2026-08-22T17:15:54Z</time></trkpt><trkpt lat="59.3993774056" lon="34.6072980389"><ele>246.72</ele><time>2026-08-22T17:16:08Z</time></trkpt><trkpt lat="59.3993855361" lon="34.6072605718"><ele>246.72</ele><time>2026-08-22T17:16:10Z</time></trkpt><trkpt lat="59.3994192313" lon="34.6070703026"><ele>246.23</ele><time>2026-08-22T17:16:22Z</time></trkpt><trkpt lat="59.3994764797" lon="34.6069835499"><ele>245.75</ele><time>2026-08-22T17:16:36Z</time></trkpt><trkpt lat="59.3995193113" lon="34.6068207733"><ele>246.23</ele><time>2026-08-22T17:16:47Z</time></trkpt><trkpt lat="59.3995706923" lon="34.6066947933"><ele>246.72</ele><time>2026-08-22T17:16:59Z</time></trkpt><trkpt lat="59.3996184692" lon="34.6066257264"><ele>247.20</ele><time>2026-08-22T17:17:09Z</time></trkpt><trkpt lat="59.3996462133" lon="34.6065461822"><ele>247.20</ele><time>2026-08-22T17:17:19Z</time></trkpt><trkpt lat="59.3996982649" lon="34.6064471081"><ele>246.72</ele><time>2026-08-22T17:17:31Z</time></trkpt><trkpt lat="59.3997571059" lon="34.6063324437"><ele>247.20</ele><time>2026-08-22T17:17:43Z</time></trkpt><trkpt lat="59.3997491430" lon="34.6062720101"><ele>247.68</ele><time>2026-08-22T17:17:54Z</time></trkpt><trkpt lat="59.3997614644" lon="34.6062956471"><ele>247.68</ele><time>2026-08-22T17:18:12Z</time></trkpt><trkpt lat="59.3997842632" lon="34.6062738542"><ele>247.68</ele><time>2026-08-22T17:18:34Z</time></trkpt><trkpt lat="59.3997874483" lon="34.6062225569"><ele>247.20</ele><time>2026-08-22T17:18:45Z</time></trkpt><trkpt lat="59.3998467084" lon="34.6060838364"><ele>247.68</ele><time>2026-08-22T17:19:02Z</time></trkpt><trkpt lat="59.3998964131" lon="34.6059611253"><ele>247.20</ele><time>2026-08-22T17:19:14Z</time></trkpt><trkpt lat="59.3999216426" lon="34.6058157831"><ele>247.68</ele><time>2026-08-22T17:19:26Z</time></trkpt><trkpt lat="59.3999442738" lon="34.6056265198"><ele>247.20</ele><time>2026-08-22T17:19:39Z</time></trkpt><trkpt lat="59.3999679945" lon="34.6054428723"><ele>248.16</ele><time>2026-08-22T17:19:51Z</time></trkpt><trkpt lat="59.3999884464" lon="34.6053078398"><ele>247.68</ele><time>2026-08-22T17:20:01Z</time></trkpt><trkpt lat="59.3999798968" lon="34.6050734818"><ele>247.20</ele><time>2026-08-22T17:20:15Z</time></trkpt><trkpt lat="59.3999629654" lon="34.6049231943"><ele>247.68</ele><time>2026-08-22T17:20:28Z</time></trkpt><trkpt lat="59.3999546673" lon="34.6047904249"><ele>248.16</ele><time>2026-08-22T17:20:45Z</time></trkpt><trkpt lat="59.3999758735" lon="34.6046405565"><ele>248.16</ele><time>2026-08-22T17:20:57Z</time></trkpt><trkpt lat="59.3999608699" lon="34.6043617744"><ele>248.64</ele><time>2026-08-22T17:21:15Z</time></trkpt><trkpt lat="59.3999914639" lon="34.6042191144"><ele>248.16</ele><time>2026-08-22T17:21:32Z</time></trkpt><trkpt lat="59.4000313617" lon="34.6040207148"><ele>248.16</ele><time>2026-08-22T17:21:48Z</time></trkpt><trkpt lat="59.4000910409" lon="34.6037586126"><ele>248.64</ele><time>2026-08-22T17:22:01Z</time></trkpt><trkpt lat="59.4000534061" lon="34.6035648230"><ele>248.16</ele><time>2026-08-22T17:22:13Z</time></trkpt><trkpt lat="59.3999772985" lon="34.6034230851"><ele>248.64</ele><time>2026-08-22T17:22:26Z</time></trkpt><trkpt lat="59.3998949882" lon="34.6033814270"><ele>248.16</ele><time>2026-08-22T17:22:40Z</time></trkpt><trkpt lat="59.3998990115" lon="34.6033045650"><ele>248.64</ele><time>2026-08-22T17:22:55Z</time></trkpt><trkpt lat="59.3998526596" lon="34.6032576263"><ele>249.12</ele><time>2026-08-22T17:23:08Z</time></trkpt><trkpt lat="59.3998589460" lon="34.6032303013"><ele>249.60</ele><time>2026-08-22T17:23:32Z</time></trkpt><trkpt lat="59.3998304475" lon="34.6031071711"><ele>249.12</ele><time>2026-08-22T17:23:59Z</time></trkpt><trkpt lat="59.3997182138" lon="34.6029895730"><ele>249.12</ele><time>2026-08-22T17:24:13Z</time></trkpt><trkpt lat="59.3996339757" lon="34.6029063407"><ele>248.64</ele><time>2026-08-22T17:24:26Z</time></trkpt><trkpt lat="59.3995219097" lon="34.6028604079"><ele>249.12</ele><time>2026-08-22T17:24:39Z</time></trkpt><trkpt lat="59.3994557764" lon="34.6027798578"><ele>249.12</ele><time>2026-08-22T17:24:51Z</time></trkpt><trkpt lat="59.3993900623" lon="34.6026450768"><ele>249.12</ele><time>2026-08-22T17:25:04Z</time></trkpt><trkpt lat="59.3993492424" lon="34.6026150696"><ele>249.12</ele><time>2026-08-22T17:25:09Z</time></trkpt><trkpt lat="59.3992882222" lon="34.6024853177"><ele>249.12</ele><time>2026-08-22T17:25:22Z</time></trkpt><trkpt lat="59.3992762361" lon="34.6023831423"><ele>248.64</ele><time>2026-08-22T17:25:34Z</time></trkpt><trkpt lat="59.3992912397" lon="34.6022682264"><ele>249.12</ele><time>2026-08-22T17:25:49Z</time></trkpt><trkpt lat="59.3992795888" lon="34.6021999978"><ele>249.12</ele><time>2026-08-22T17:25:53Z</time></trkpt><trkpt lat="59.3992099352" lon="34.6020496264"><ele>249.12</ele><time>2026-08-22T17:26:05Z</time></trkpt><trkpt lat="59.3991782516" lon="34.6019838285"><ele>249.60</ele><time>2026-08-22T17:26:18Z</time></trkpt><trkpt lat="59.3991394434" lon="34.6019839961"><ele>248.64</ele><time>2026-08-22T17:26:25Z</time></trkpt><trkpt lat="59.3990874756" lon="34.6018690802"><ele>248.16</ele><time>2026-08-22T17:27:04Z</time></trkpt><trkpt lat="59.3991108611" lon="34.6018669009"><ele>248.64</ele><time>2026-08-22T17:27:42Z</time></trkpt><trkpt lat="59.3990772497" lon="34.6019081399"><ele>248.64</ele><time>2026-08-22T17:28:11Z</time></trkpt><trkpt lat="59.3991215061" lon="34.6018756181"><ele>251.52</ele><time>2026-08-22T17:28:25Z</time></trkpt><trkpt lat="59.3991412874" lon="34.6018588543"><ele>250.56</ele><time>2026-08-22T17:28:27Z</time></trkpt><trkpt lat="59.3991873041" lon="34.6018091496"><ele>251.04</ele><time>2026-08-22T17:28:32Z</time></trkpt><trkpt lat="59.3992374279" lon="34.6016885340"><ele>249.60</ele><time>2026-08-22T17:28:43Z</time></trkpt><trkpt lat="59.3992747273" lon="34.6015413478"><ele>249.60</ele><time>2026-08-22T17:28:55Z</time></trkpt><trkpt lat="59.3992780801" lon="34.6015057247"><ele>249.12</ele><time>2026-08-22T17:28:57Z</time></trkpt><trkpt lat="59.3992519286" lon="34.6013067383"><ele>248.64</ele><time>2026-08-22T17:29:07Z</time></trkpt><trkpt lat="59.3992066663" lon="34.6012009587"><ele>249.12</ele><time>2026-08-22T17:29:13Z</time></trkpt><trkpt lat="59.3991485797" lon="34.6012268588"><ele>251.04</ele><time>2026-08-22T17:29:25Z</time></trkpt><trkpt lat="59.3991371803" lon="34.6012173034"><ele>249.12</ele><time>2026-08-22T17:29:29Z</time></trkpt><trkpt lat="59.3991262000" lon="34.6012658346"><ele>242.87</ele><time>2026-08-22T17:29:42Z</time></trkpt><trkpt lat="59.3991211709" lon="34.6012671757"><ele>233.26</ele><time>2026-08-22T17:29:43Z</time></trkpt><trkpt lat="59.3991132081" lon="34.6012709476"><ele>233.26</ele><time>2026-08-22T17:29:44Z</time></trkpt><trkpt lat="59.3991109449" lon="34.6012618113"><ele>250.56</ele><time>2026-08-22T17:29:50Z</time></trkpt><trkpt lat="59.3991105258" lon="34.6012047306"><ele>246.23</ele><time>2026-08-22T17:30:12Z</time></trkpt><trkpt lat="59.3991102744" lon="34.6011972707"><ele>251.04</ele><time>2026-08-22T17:30:14Z</time></trkpt><trkpt lat="59.3991133757" lon="34.6011853684"><ele>250.56</ele><time>2026-08-22T17:30:15Z</time></trkpt><trkpt lat="59.3991314806" lon="34.6011729632"><ele>246.23</ele><time>2026-08-22T17:30:29Z</time></trkpt><trkpt lat="59.3991311453" lon="34.6011735499"><ele>249.60</ele><time>2026-08-22T17:30:30Z</time></trkpt><trkpt lat="59.3991324026" lon="34.6012090053"><ele>245.27</ele><time>2026-08-22T17:30:47Z</time></trkpt><trkpt lat="59.3991319835" lon="34.6012085024"><ele>248.16</ele><time>2026-08-22T17:30:49Z</time></trkpt><trkpt lat="59.3991303910" lon="34.6012070775"><ele>248.16</ele><time>2026-08-22T17:30:50Z</time></trkpt><trkpt lat="59.3991132919" lon="34.6011933312"><ele>244.79</ele><time>2026-08-22T17:31:01Z</time></trkpt><trkpt lat="59.3991028145" lon="34.6011683531"><ele>241.43</ele><time>2026-08-22T17:31:26Z</time></trkpt><trkpt lat="59.3990889844" lon="34.6011695266"><ele>238.54</ele><time>2026-08-22T17:31:54Z</time></trkpt><trkpt lat="59.3990872242" lon="34.6011968516"><ele>236.14</ele><time>2026-08-22T17:32:23Z</time></trkpt><trkpt lat="59.3991032336" lon="34.6011967678"><ele>233.26</ele><time>2026-08-22T17:32:54Z</time></trkpt><trkpt lat="59.3990991265" lon="34.6011994500"><ele>230.85</ele><time>2026-08-22T17:33:29Z</time></trkpt><trkpt lat="59.3990907446" lon="34.6012174711"><ele>228.93</ele><time>2026-08-22T17:34:02Z</time></trkpt><trkpt lat="59.3990978692" lon="34.6011896431"><ele>227.01</ele><time>2026-08-22T17:34:47Z</time></trkpt><trkpt lat="59.3991075922" lon="34.6011748910"><ele>225.57</ele><time>2026-08-22T17:35:16Z</time></trkpt><trkpt lat="59.3990883138" lon="34.6011357475"><ele>224.12</ele><time>2026-08-22T17:35:53Z</time></trkpt><trkpt lat="59.3991014734" lon="34.6011362504"><ele>221.24</ele><time>2026-08-22T17:36:25Z</time></trkpt><trkpt lat="59.3991148844" lon="34.6011608094"><ele>219.80</ele><time>2026-08-22T17:36:37Z</time></trkpt><trkpt lat="59.3991006352" lon="34.6012355760"><ele>216.43</ele><time>2026-08-22T17:37:06Z</time></trkpt><trkpt lat="59.3990984559" lon="34.6012415271"><ele>216.91</ele><time>2026-08-22T17:37:07Z</time></trkpt><trkpt lat="59.3991150521" lon="34.6012836881"><ele>218.36</ele><time>2026-08-22T17:37:11Z</time></trkpt><trkpt lat="59.3991427962" lon="34.6012448799"><ele>218.84</ele><time>2026-08-22T17:37:23Z</time></trkpt><trkpt lat="59.3991439696" lon="34.6012174711"><ele>216.43</ele><time>2026-08-22T17:37:28Z</time></trkpt><trkpt lat="59.3991490826" lon="34.6011143737"><ele>214.51</ele><time>2026-08-22T17:37:42Z</time></trkpt><trkpt lat="59.3991487473" lon="34.6011101827"><ele>214.51</ele><time>2026-08-22T17:37:43Z</time></trkpt><trkpt lat="59.3991813529" lon="34.6010106895"><ele>214.51</ele><time>2026-08-22T17:37:55Z</time></trkpt><trkpt lat="59.3992202450" lon="34.6008533612"><ele>214.51</ele><time>2026-08-22T17:38:06Z</time></trkpt><trkpt lat="59.3992126174" lon="34.6006077714"><ele>213.07</ele><time>2026-08-22T17:38:20Z</time></trkpt><trkpt lat="59.3991862144" lon="34.6005312447"><ele>212.59</ele><time>2026-08-22T17:38:25Z</time></trkpt><trkpt lat="59.3991801795" lon="34.6005216893"><ele>214.03</ele><time>2026-08-22T17:38:28Z</time></trkpt><trkpt lat="59.3991693668" lon="34.6003735811"><ele>214.03</ele><time>2026-08-22T17:38:40Z</time></trkpt><trkpt lat="59.3991717976" lon="34.6002838947"><ele>214.51</ele><time>2026-08-22T17:38:50Z</time></trkpt><trkpt lat="59.3991481606" lon="34.6000779513"><ele>214.03</ele><time>2026-08-22T17:39:04Z</time></trkpt><trkpt lat="59.3991080113" lon="34.5999342017"><ele>213.55</ele><time>2026-08-22T17:39:16Z</time></trkpt><trkpt lat="59.3990781717" lon="34.5998715889"><ele>211.63</ele><time>2026-08-22T17:39:27Z</time></trkpt><trkpt lat="59.3990060035" lon="34.5998252369"><ele>212.59</ele><time>2026-08-22T17:39:41Z</time></trkpt><trkpt lat="59.3989777565" lon="34.5998490416"><ele>211.63</ele><time>2026-08-22T17:39:55Z</time></trkpt><trkpt lat="59.3989389483" lon="34.5999668073"><ele>212.11</ele><time>2026-08-22T17:40:08Z</time></trkpt><trkpt lat="59.3989431392" lon="34.5998787973"><ele>211.63</ele><time>2026-08-22T17:40:20Z</time></trkpt><trkpt lat="59.3988779280" lon="34.5997394901"><ele>211.15</ele><time>2026-08-22T17:40:33Z</time></trkpt><trkpt lat="59.3988186680" lon="34.5996759553"><ele>212.59</ele><time>2026-08-22T17:40:45Z</time></trkpt><trkpt lat="59.3988083582" lon="34.5996959042"><ele>212.59</ele><time>2026-08-22T17:40:59Z</time></trkpt><trkpt lat="59.3987953663" lon="34.5997100696"><ele>212.11</ele><time>2026-08-22T17:41:20Z</time></trkpt><trkpt lat="59.3988024071" lon="34.5996939763"><ele>211.63</ele><time>2026-08-22T17:41:46Z</time></trkpt><trkpt lat="59.3988011498" lon="34.5996919647"><ele>210.67</ele><time>2026-08-22T17:42:17Z</time></trkpt><trkpt lat="59.3987680413" lon="34.5996156894"><ele>209.22</ele><time>2026-08-22T17:42:46Z</time></trkpt><trkpt lat="59.3987644371" lon="34.5996019430"><ele>208.74</ele><time>2026-08-22T17:43:11Z</time></trkpt><trkpt lat="59.3988004792" lon="34.5996261667"><ele>208.26</ele><time>2026-08-22T17:43:24Z</time></trkpt><trkpt lat="59.3987786025" lon="34.5995525736"><ele>208.26</ele><time>2026-08-22T17:43:30Z</time></trkpt><trkpt lat="59.3987447396" lon="34.5994630549"><ele>208.26</ele><time>2026-08-22T17:43:45Z</time></trkpt><trkpt lat="59.3986938614" lon="34.5994359814"><ele>207.78</ele><time>2026-08-22T17:44:01Z</time></trkpt><trkpt lat="59.3986589927" lon="34.5992928185"><ele>207.30</ele><time>2026-08-22T17:44:13Z</time></trkpt><trkpt lat="59.3985791970" lon="34.5991924033"><ele>207.30</ele><time>2026-08-22T17:44:28Z</time></trkpt><trkpt lat="59.3985289894" lon="34.5990903117"><ele>206.82</ele><time>2026-08-22T17:44:44Z</time></trkpt><trkpt lat="59.3984723277" lon="34.5989729650"><ele>206.82</ele><time>2026-08-22T17:44:56Z</time></trkpt><trkpt lat="59.3984502833" lon="34.5988451410"><ele>206.34</ele><time>2026-08-22T17:45:09Z</time></trkpt><trkpt lat="59.3984183483" lon="34.5988457277"><ele>206.34</ele><time>2026-08-22T17:45:20Z</time></trkpt><trkpt lat="59.3984164204" lon="34.5988323167"><ele>205.86</ele><time>2026-08-22T17:45:43Z</time></trkpt><trkpt lat="59.3984002434" lon="34.5986194164"><ele>205.38</ele><time>2026-08-22T17:45:57Z</time></trkpt><trkpt lat="59.3983004987" lon="34.5985330828"><ele>204.90</ele><time>2026-08-22T17:46:11Z</time></trkpt><trkpt lat="59.3982300069" lon="34.5984789357"><ele>205.86</ele><time>2026-08-22T17:46:23Z</time></trkpt><trkpt lat="59.3981467746" lon="34.5984816179"><ele>205.86</ele><time>2026-08-22T17:46:36Z</time></trkpt><trkpt lat="59.3980985787" lon="34.5983903389"><ele>204.90</ele><time>2026-08-22T17:46:48Z</time></trkpt><trkpt lat="59.3980958126" lon="34.5983236190"><ele>204.90</ele><time>2026-08-22T17:47:04Z</time></trkpt><trkpt lat="59.3980562501" lon="34.5982912648"><ele>205.38</ele><time>2026-08-22T17:47:11Z</time></trkpt><trkpt lat="59.3979316112" lon="34.5982889179"><ele>204.90</ele><time>2026-08-22T17:47:23Z</time></trkpt><trkpt lat="59.3978532404" lon="34.5981854852"><ele>204.90</ele><time>2026-08-22T17:47:38Z</time></trkpt><trkpt lat="59.3977935612" lon="34.5981501974"><ele>202.98</ele><time>2026-08-22T17:47:50Z</time></trkpt><trkpt lat="59.3977570161" lon="34.5981890894"><ele>202.98</ele><time>2026-08-22T17:48:04Z</time></trkpt><trkpt lat="59.3977703433" lon="34.5981116407"><ele>205.38</ele><time>2026-08-22T17:48:16Z</time></trkpt><trkpt lat="59.3977175374" lon="34.5979665499"><ele>204.90</ele><time>2026-08-22T17:48:29Z</time></trkpt><trkpt lat="59.3976569362" lon="34.5978595130"><ele>205.38</ele><time>2026-08-22T17:48:41Z</time></trkpt><trkpt lat="59.3976125121" lon="34.5977383107"><ele>205.86</ele><time>2026-08-22T17:48:53Z</time></trkpt><trkpt lat="59.3975281902" lon="34.5976491272"><ele>205.86</ele><time>2026-08-22T17:49:05Z</time></trkpt><trkpt lat="59.3974329717" lon="34.5975837484"><ele>205.38</ele><time>2026-08-22T17:49:21Z</time></trkpt><trkpt lat="59.3973539304" lon="34.5975246560"><ele>205.86</ele><time>2026-08-22T17:49:35Z</time></trkpt><trkpt lat="59.3972592149" lon="34.5974094048"><ele>205.38</ele><time>2026-08-22T17:49:48Z</time></trkpt><trkpt lat="59.3972389307" lon="34.5973955747"><ele>203.94</ele><time>2026-08-22T17:49:52Z</time></trkpt><trkpt lat="59.3971878849" lon="34.5972783957"><ele>206.34</ele><time>2026-08-22T17:50:05Z</time></trkpt><trkpt lat="59.3971498311" lon="34.5972595364"><ele>205.38</ele><time>2026-08-22T17:50:14Z</time></trkpt><trkpt lat="59.3970230967" lon="34.5973272622"><ele>205.86</ele><time>2026-08-22T17:50:28Z</time></trkpt><trkpt lat="59.3969519343" lon="34.5974115841"><ele>205.86</ele><time>2026-08-22T17:50:39Z</time></trkpt><trkpt lat="59.3969474919" lon="34.5974000171"><ele>205.86</ele><time>2026-08-22T17:50:55Z</time></trkpt><trkpt lat="59.3968718871" lon="34.5973983407"><ele>205.38</ele><time>2026-08-22T17:51:09Z</time></trkpt><trkpt lat="59.3968469091" lon="34.5973804034"><ele>205.86</ele><time>2026-08-22T17:51:20Z</time></trkpt><trkpt lat="59.3968332466" lon="34.5974443574"><ele>206.34</ele><time>2026-08-22T17:51:33Z</time></trkpt><trkpt lat="59.3968039099" lon="34.5975803956"><ele>205.86</ele><time>2026-08-22T17:52:00Z</time></trkpt><trkpt lat="59.3967712205" lon="34.5975085627"><ele>206.34</ele><time>2026-08-22T17:52:22Z</time></trkpt><trkpt lat="59.3967457395" lon="34.5974992588"><ele>205.38</ele><time>2026-08-22T17:52:26Z</time></trkpt><trkpt lat="59.3931562733" lon="34.6012368333"><ele>287.09</ele><time>2026-08-22T18:09:16Z</time></trkpt><trkpt lat="59.3931099214" lon="34.6013317164"><ele>277.48</ele><time>2026-08-22T18:09:19Z</time></trkpt><trkpt lat="59.3931179680" lon="34.6013490669"><ele>264.50</ele><time>2026-08-22T18:09:20Z</time></trkpt><trkpt lat="59.3931251764" lon="34.6013669204"><ele>269.79</ele><time>2026-08-22T18:09:21Z</time></trkpt><trkpt lat="59.3931369111" lon="34.6013625618"><ele>265.46</ele><time>2026-08-22T18:09:26Z</time></trkpt><trkpt lat="59.3931364082" lon="34.6013581194"><ele>262.58</ele><time>2026-08-22T18:09:27Z</time></trkpt><trkpt lat="59.3931369111" lon="34.6013554372"><ele>259.21</ele><time>2026-08-22T18:09:28Z</time></trkpt><trkpt lat="59.3931405153" lon="34.6013592929"><ele>253.44</ele><time>2026-08-22T18:09:30Z</time></trkpt><trkpt lat="59.3931435328" lon="34.6013546828"><ele>250.08</ele><time>2026-08-22T18:09:31Z</time></trkpt><trkpt lat="59.3931442033" lon="34.6013466362"><ele>245.27</ele><time>2026-08-22T18:09:32Z</time></trkpt><trkpt lat="59.3931401800" lon="34.6013420261"><ele>238.54</ele><time>2026-08-22T18:09:33Z</time></trkpt><trkpt lat="59.3931462988" lon="34.6013312135"><ele>243.35</ele><time>2026-08-22T18:09:34Z</time></trkpt><trkpt lat="59.3931465503" lon="34.6013405174"><ele>239.51</ele><time>2026-08-22T18:09:36Z</time></trkpt><trkpt lat="59.3931476399" lon="34.6013338119"><ele>236.14</ele><time>2026-08-22T18:09:37Z</time></trkpt><trkpt lat="59.3931487296" lon="34.6013409365"><ele>232.30</ele><time>2026-08-22T18:09:39Z</time></trkpt><trkpt lat="59.3931457121" lon="34.6013462171"><ele>226.05</ele><time>2026-08-22T18:09:40Z</time></trkpt><trkpt lat="59.3931451254" lon="34.6013514977"><ele>222.68</ele><time>2026-08-22T18:09:41Z</time></trkpt><trkpt lat="59.3931452092" lon="34.6013530064"><ele>227.01</ele><time>2026-08-22T18:09:42Z</time></trkpt><trkpt lat="59.3931464665" lon="34.6013575327"><ele>223.64</ele><time>2026-08-22T18:09:45Z</time></trkpt><trkpt lat="59.3931482267" lon="34.6013589576"><ele>220.28</ele><time>2026-08-22T18:09:47Z</time></trkpt><trkpt lat="59.3931504898" lon="34.6013642382"><ele>216.91</ele><time>2026-08-22T18:09:49Z</time></trkpt><trkpt lat="59.3931561057" lon="34.6013732906"><ele>213.07</ele><time>2026-08-22T18:09:52Z</time></trkpt><trkpt lat="59.3931610510" lon="34.6013768949"><ele>209.22</ele><time>2026-08-22T18:09:55Z</time></trkpt><trkpt lat="59.3931656610" lon="34.6013840195"><ele>206.34</ele><time>2026-08-22T18:09:58Z</time></trkpt><trkpt lat="59.3931653257" lon="34.6013930719"><ele>202.49</ele><time>2026-08-22T18:10:02Z</time></trkpt><trkpt lat="59.3931642361" lon="34.6013948321"><ele>194.80</ele><time>2026-08-22T18:10:03Z</time></trkpt><trkpt lat="59.3931629788" lon="34.6013982687"><ele>195.28</ele><time>2026-08-22T18:10:04Z</time></trkpt><trkpt lat="59.3931624759" lon="34.6013976820"><ele>198.65</ele><time>2026-08-22T18:10:05Z</time></trkpt><trkpt lat="59.3931617215" lon="34.6013968438"><ele>197.21</ele><time>2026-08-22T18:10:06Z</time></trkpt><trkpt lat="59.3931623083" lon="34.6013907250"><ele>190.48</ele><time>2026-08-22T18:10:08Z</time></trkpt><trkpt lat="59.3931643199" lon="34.6013890486"><ele>194.32</ele><time>2026-08-22T18:10:09Z</time></trkpt><trkpt lat="59.3931608833" lon="34.6013661660"><ele>190.00</ele><time>2026-08-22T18:10:13Z</time></trkpt><trkpt lat="59.3931449577" lon="34.6013250109"><ele>187.59</ele><time>2026-08-22T18:10:17Z</time></trkpt><trkpt lat="59.3931085803" lon="34.6013333928"><ele>183.27</ele><time>2026-08-22T18:10:23Z</time></trkpt><trkpt lat="59.3930438720" lon="34.6014374122"><ele>184.71</ele><time>2026-08-22T18:10:35Z</time></trkpt><trkpt lat="59.3930206541" lon="34.6014712751"><ele>182.79</ele><time>2026-08-22T18:10:40Z</time></trkpt><trkpt lat="59.3930178043" lon="34.6014759690"><ele>181.35</ele><time>2026-08-22T18:10:41Z</time></trkpt><trkpt lat="59.3929682672" lon="34.6015508194"><ele>177.02</ele><time>2026-08-22T18:10:49Z</time></trkpt><trkpt lat="59.3929613102" lon="34.6015517414"><ele>179.90</ele><time>2026-08-22T18:10:50Z</time></trkpt><trkpt lat="59.3928779941" lon="34.6016446128"><ele>177.98</ele><time>2026-08-22T18:11:03Z</time></trkpt><trkpt lat="59.3928318936" lon="34.6017240733"><ele>179.42</ele><time>2026-08-22T18:11:11Z</time></trkpt><trkpt lat="59.3928052392" lon="34.6018170286"><ele>178.46</ele><time>2026-08-22T18:11:18Z</time></trkpt><trkpt lat="59.3927820213" lon="34.6018981654"><ele>178.46</ele><time>2026-08-22T18:11:23Z</time></trkpt><trkpt lat="59.3927520141" lon="34.6020694915"><ele>178.46</ele><time>2026-08-22T18:11:36Z</time></trkpt><trkpt lat="59.3927244376" lon="34.6021851618"><ele>178.94</ele><time>2026-08-22T18:11:50Z</time></trkpt><trkpt lat="59.3927049916" lon="34.6022675559"><ele>178.46</ele><time>2026-08-22T18:12:03Z</time></trkpt><trkpt lat="59.3926737271" lon="34.6022614371"><ele>175.58</ele><time>2026-08-22T18:12:35Z</time></trkpt><trkpt lat="59.3926354218" lon="34.6022957191"><ele>174.62</ele><time>2026-08-22T18:12:47Z</time></trkpt><trkpt lat="59.3926140480" lon="34.6023225412"><ele>176.06</ele><time>2026-08-22T18:12:50Z</time></trkpt><trkpt lat="59.3925511837" lon="34.6024285723"><ele>175.10</ele><time>2026-08-22T18:13:02Z</time></trkpt><trkpt lat="59.3924920075" lon="34.6025200188"><ele>176.06</ele><time>2026-08-22T18:13:14Z</time></trkpt><trkpt lat="59.3924240302" lon="34.6026379522"><ele>175.58</ele><time>2026-08-22T18:13:27Z</time></trkpt><trkpt lat="59.3923644349" lon="34.6026812028"><ele>174.14</ele><time>2026-08-22T18:13:35Z</time></trkpt><trkpt lat="59.3923028279" lon="34.6028204262"><ele>174.14</ele><time>2026-08-22T18:13:46Z</time></trkpt><trkpt lat="59.3922514468" lon="34.6030122042"><ele>172.21</ele><time>2026-08-22T18:13:59Z</time></trkpt><trkpt lat="59.3922493514" lon="34.6032136213"><ele>172.69</ele><time>2026-08-22T18:14:13Z</time></trkpt><trkpt lat="59.3922437355" lon="34.6033924911"><ele>171.73</ele><time>2026-08-22T18:14:26Z</time></trkpt><trkpt lat="59.3922133092" lon="34.6034660842"><ele>173.66</ele><time>2026-08-22T18:14:32Z</time></trkpt><trkpt lat="59.3922060169" lon="34.6036526654"><ele>174.14</ele><time>2026-08-22T18:14:44Z</time></trkpt><trkpt lat="59.3921940308" lon="34.6038700081"><ele>173.17</ele><time>2026-08-22T18:14:58Z</time></trkpt><trkpt lat="59.3921696395" lon="34.6039114986"><ele>170.77</ele><time>2026-08-22T18:15:03Z</time></trkpt><trkpt lat="59.3921241257" lon="34.6039935574"><ele>174.14</ele><time>2026-08-22T18:15:11Z</time></trkpt><trkpt lat="59.3920358643" lon="34.6040941402"><ele>173.66</ele><time>2026-08-22T18:15:25Z</time></trkpt><trkpt lat="59.3919758499" lon="34.6041777078"><ele>173.66</ele><time>2026-08-22T18:15:37Z</time></trkpt><trkpt lat="59.3919480219" lon="34.6042697411"><ele>174.62</ele><time>2026-08-22T18:15:48Z</time></trkpt><trkpt lat="59.3919587508" lon="34.6044129878"><ele>174.14</ele><time>2026-08-22T18:16:00Z</time></trkpt><trkpt lat="59.3919307552" lon="34.6045049373"><ele>173.17</ele><time>2026-08-22T18:16:09Z</time></trkpt><trkpt lat="59.3919600919" lon="34.6045699809"><ele>169.81</ele><time>2026-08-22T18:16:15Z</time></trkpt><trkpt lat="59.3919635285" lon="34.6045761835"><ele>169.33</ele><time>2026-08-22T18:16:16Z</time></trkpt><trkpt lat="59.3919635285" lon="34.6045759320"><ele>173.66</ele><time>2026-08-22T18:16:22Z</time></trkpt><trkpt lat="59.3919648696" lon="34.6045685560"><ele>173.66</ele><time>2026-08-22T18:16:23Z</time></trkpt><trkpt lat="59.3919559848" lon="34.6045724116"><ele>174.14</ele><time>2026-08-22T18:16:31Z</time></trkpt><trkpt lat="59.3919334374" lon="34.6045843977"><ele>173.66</ele><time>2026-08-22T18:16:58Z</time></trkpt><trkpt lat="59.3919352815" lon="34.6045706514"><ele>173.66</ele><time>2026-08-22T18:17:00Z</time></trkpt><trkpt lat="59.3919173442" lon="34.6045760158"><ele>172.21</ele><time>2026-08-22T18:17:03Z</time></trkpt><trkpt lat="59.3918405659" lon="34.6046881657"><ele>172.69</ele><time>2026-08-22T18:17:17Z</time></trkpt><trkpt lat="59.3918210361" lon="34.6047196817"><ele>172.21</ele><time>2026-08-22T18:17:23Z</time></trkpt><trkpt lat="59.3917911127" lon="34.6047079470"><ele>172.69</ele><time>2026-08-22T18:17:27Z</time></trkpt><trkpt lat="59.3917405698" lon="34.6047158260"><ele>171.73</ele><time>2026-08-22T18:17:33Z</time></trkpt><trkpt lat="59.3917004205" lon="34.6047605854"><ele>171.25</ele><time>2026-08-22T18:17:41Z</time></trkpt><trkpt lat="59.3916635402" lon="34.6047449112"><ele>172.21</ele><time>2026-08-22T18:17:52Z</time></trkpt><trkpt lat="59.3916571699" lon="34.6047397982"><ele>173.17</ele><time>2026-08-22T18:17:53Z</time></trkpt><trkpt lat="59.3915699981" lon="34.6047739964"><ele>172.69</ele><time>2026-08-22T18:18:04Z</time></trkpt><trkpt lat="59.3914668169" lon="34.6048714779"><ele>172.21</ele><time>2026-08-22T18:18:17Z</time></trkpt><trkpt lat="59.3914250750" lon="34.6049837954"><ele>172.69</ele><time>2026-08-22T18:18:31Z</time></trkpt><trkpt lat="59.3914129212" lon="34.6049657743"><ele>172.21</ele><time>2026-08-22T18:18:33Z</time></trkpt><trkpt lat="59.3913994264" lon="34.6049923450"><ele>172.69</ele><time>2026-08-22T18:18:35Z</time></trkpt><trkpt lat="59.3913719337" lon="34.6050604060"><ele>174.14</ele><time>2026-08-22T18:18:39Z</time></trkpt><trkpt lat="59.3913342152" lon="34.6051226836"><ele>174.14</ele><time>2026-08-22T18:18:52Z</time></trkpt><trkpt lat="59.3912969995" lon="34.6051657666"><ele>171.25</ele><time>2026-08-22T18:18:59Z</time></trkpt><trkpt lat="59.3912751228" lon="34.6052194946"><ele>174.14</ele><time>2026-08-22T18:19:07Z</time></trkpt><trkpt lat="59.3912527431" lon="34.6052448917"><ele>173.66</ele><time>2026-08-22T18:19:14Z</time></trkpt><trkpt lat="59.3912429363" lon="34.6052614041"><ele>175.10</ele><time>2026-08-22T18:19:31Z</time></trkpt><trkpt lat="59.3912380747" lon="34.6052609850"><ele>174.14</ele><time>2026-08-22T18:19:35Z</time></trkpt><trkpt lat="59.3912377395" lon="34.6052581351"><ele>173.66</ele><time>2026-08-22T18:19:45Z</time></trkpt><trkpt lat="59.3912008591" lon="34.6053424571"><ele>173.66</ele><time>2026-08-22T18:20:01Z</time></trkpt><trkpt lat="59.3911120947" lon="34.6054336522"><ele>172.21</ele><time>2026-08-22T18:20:14Z</time></trkpt><trkpt lat="59.3910166249" lon="34.6055398509"><ele>168.85</ele><time>2026-08-22T18:20:29Z</time></trkpt><trkpt lat="59.3910130206" lon="34.6055393480"><ele>170.29</ele><time>2026-08-22T18:20:30Z</time></trkpt><trkpt lat="59.3910086621" lon="34.6055585425"><ele>171.25</ele><time>2026-08-22T18:20:35Z</time></trkpt><trkpt lat="59.3909936585" lon="34.6055901423"><ele>172.69</ele><time>2026-08-22T18:20:38Z</time></trkpt><trkpt lat="59.3909722846" lon="34.6056283638"><ele>173.17</ele><time>2026-08-22T18:20:43Z</time></trkpt><trkpt lat="59.3909256812" lon="34.6056796610"><ele>174.62</ele><time>2026-08-22T18:20:57Z</time></trkpt><trkpt lat="59.3908574525" lon="34.6056909766"><ele>172.21</ele><time>2026-08-22T18:21:14Z</time></trkpt><trkpt lat="59.3907720409" lon="34.6056753024"><ele>172.21</ele><time>2026-08-22T18:21:28Z</time></trkpt><trkpt lat="59.3906923290" lon="34.6056219097"><ele>172.21</ele><time>2026-08-22T18:21:41Z</time></trkpt><trkpt lat="59.3906264473" lon="34.6056186408"><ele>170.29</ele><time>2026-08-22T18:21:50Z</time></trkpt><trkpt lat="59.3905956019" lon="34.6056199819"><ele>170.29</ele><time>2026-08-22T18:21:54Z</time></trkpt><trkpt lat="59.3905721325" lon="34.6056415234"><ele>173.17</ele><time>2026-08-22T18:21:58Z</time></trkpt><trkpt lat="59.3905790057" lon="34.6056668367"><ele>167.89</ele><time>2026-08-22T18:22:01Z</time></trkpt><trkpt lat="59.3905762397" lon="34.6056667529"><ele>167.89</ele><time>2026-08-22T18:22:02Z</time></trkpt><trkpt lat="59.3905537762" lon="34.6056642383"><ele>171.25</ele><time>2026-08-22T18:22:05Z</time></trkpt><trkpt lat="59.3905473221" lon="34.6056552697"><ele>171.25</ele><time>2026-08-22T18:22:06Z</time></trkpt><trkpt lat="59.3905350845" lon="34.6056366619"><ele>172.69</ele><time>2026-08-22T18:22:08Z</time></trkpt><trkpt lat="59.3904983718" lon="34.6055984404"><ele>170.77</ele><time>2026-08-22T18:22:13Z</time></trkpt><trkpt lat="59.3904177379" lon="34.6055020485"><ele>171.73</ele><time>2026-08-22T18:22:26Z</time></trkpt><trkpt lat="59.3903182447" lon="34.6055183932"><ele>171.73</ele><time>2026-08-22T18:22:39Z</time></trkpt><trkpt lat="59.3902958650" lon="34.6055101790"><ele>172.21</ele><time>2026-08-22T18:22:43Z</time></trkpt><trkpt lat="59.3902166560" lon="34.6055510826"><ele>170.77</ele><time>2026-08-22T18:22:56Z</time></trkpt><trkpt lat="59.3902117107" lon="34.6056054812"><ele>170.29</ele><time>2026-08-22T18:23:13Z</time></trkpt><trkpt lat="59.3902098667" lon="34.6056115162"><ele>172.21</ele><time>2026-08-22T18:23:16Z</time></trkpt><trkpt lat="59.3901902530" lon="34.6056452952"><ele>172.69</ele><time>2026-08-22T18:23:41Z</time></trkpt><trkpt lat="59.3901705556" lon="34.6056200657"><ele>172.21</ele><time>2026-08-22T18:23:49Z</time></trkpt><trkpt lat="59.3901092000" lon="34.6056001168"><ele>170.29</ele><time>2026-08-22T18:24:04Z</time></trkpt><trkpt lat="59.3900892511" lon="34.6055816766"><ele>172.21</ele><time>2026-08-22T18:24:07Z</time></trkpt><trkpt lat="59.3899896741" lon="34.6055375040"><ele>170.29</ele><time>2026-08-22T18:24:20Z</time></trkpt><trkpt lat="59.3898963835" lon="34.6055859514"><ele>171.73</ele><time>2026-08-22T18:24:32Z</time></trkpt><trkpt lat="59.3898126483" lon="34.6055688523"><ele>171.73</ele><time>2026-08-22T18:24:44Z</time></trkpt><trkpt lat="59.3897632789" lon="34.6055259369"><ele>173.17</ele><time>2026-08-22T18:24:54Z</time></trkpt><trkpt lat="59.3897101376" lon="34.6055162139"><ele>171.73</ele><time>2026-08-22T18:25:04Z</time></trkpt><trkpt lat="59.3896806333" lon="34.6055194829"><ele>172.69</ele><time>2026-08-22T18:25:09Z</time></trkpt><trkpt lat="59.3896086328" lon="34.6054763999"><ele>170.77</ele><time>2026-08-22T18:25:20Z</time></trkpt><trkpt lat="59.3895606883" lon="34.6054108534"><ele>171.25</ele><time>2026-08-22T18:25:31Z</time></trkpt><trkpt lat="59.3895122409" lon="34.6053713746"><ele>170.77</ele><time>2026-08-22T18:25:37Z</time></trkpt><trkpt lat="59.3894390669" lon="34.6053510904"><ele>173.17</ele><time>2026-08-22T18:25:51Z</time></trkpt><trkpt lat="59.3894259911" lon="34.6053407807"><ele>171.25</ele><time>2026-08-22T18:25:55Z</time></trkpt><trkpt lat="59.3894086406" lon="34.6053162217"><ele>171.73</ele><time>2026-08-22T18:25:58Z</time></trkpt><trkpt lat="59.3892969936" lon="34.6052447241"><ele>171.25</ele><time>2026-08-22T18:26:12Z</time></trkpt><trkpt lat="59.3891947344" lon="34.6052421257"><ele>171.25</ele><time>2026-08-22T18:26:25Z</time></trkpt><trkpt lat="59.3891625479" lon="34.6052552853"><ele>170.29</ele><time>2026-08-22T18:26:35Z</time></trkpt><trkpt lat="59.3891537469" lon="34.6052491665"><ele>171.25</ele><time>2026-08-22T18:26:36Z</time></trkpt><trkpt lat="59.3891322892" lon="34.6052435506"><ele>171.25</ele><time>2026-08-22T18:26:38Z</time></trkpt><trkpt lat="59.3890616298" lon="34.6052970272"><ele>167.89</ele><time>2026-08-22T18:26:51Z</time></trkpt><trkpt lat="59.3890418485" lon="34.6053327341"><ele>168.37</ele><time>2026-08-22T18:27:02Z</time></trkpt><trkpt lat="59.3890238274" lon="34.6053413674"><ele>170.29</ele><time>2026-08-22T18:27:06Z</time></trkpt><trkpt lat="59.3889621366" lon="34.6054076683"><ele>170.29</ele><time>2026-08-22T18:27:18Z</time></trkpt><trkpt lat="59.3889602087" lon="34.6054259408"><ele>166.93</ele><time>2026-08-22T18:27:21Z</time></trkpt><trkpt lat="59.3889539223" lon="34.6054319758"><ele>170.29</ele><time>2026-08-22T18:27:25Z</time></trkpt><trkpt lat="59.3889506534" lon="34.6054215822"><ele>173.17</ele><time>2026-08-22T18:27:29Z</time></trkpt><trkpt lat="59.3889607117" lon="34.6054271143"><ele>171.25</ele><time>2026-08-22T18:27:33Z</time></trkpt><trkpt lat="59.3889424391" lon="34.6054749750"><ele>172.69</ele><time>2026-08-22T18:27:44Z</time></trkpt><trkpt lat="59.3889176287" lon="34.6055257693"><ele>173.66</ele><time>2026-08-22T18:28:19Z</time></trkpt><trkpt lat="59.3889068160" lon="34.6054982767"><ele>173.17</ele><time>2026-08-22T18:28:57Z</time></trkpt><trkpt lat="59.3888901360" lon="34.6055203211"><ele>173.66</ele><time>2026-08-22T18:29:20Z</time></trkpt><trkpt lat="59.3888364919" lon="34.6055532619"><ele>171.73</ele><time>2026-08-22T18:29:33Z</time></trkpt><trkpt lat="59.3887759745" lon="34.6056194790"><ele>173.66</ele><time>2026-08-22T18:29:45Z</time></trkpt><trkpt lat="59.3887172174" lon="34.6056830976"><ele>174.14</ele><time>2026-08-22T18:29:57Z</time></trkpt><trkpt lat="59.3886817619" lon="34.6056515817"><ele>174.14</ele><time>2026-08-22T18:30:08Z</time></trkpt><trkpt lat="59.3886510842" lon="34.6056670882"><ele>174.14</ele><time>2026-08-22T18:30:22Z</time></trkpt><trkpt lat="59.3886018824" lon="34.6056833491"><ele>173.17</ele><time>2026-08-22T18:30:36Z</time></trkpt><trkpt lat="59.3885430414" lon="34.6057055611"><ele>173.66</ele><time>2026-08-22T18:30:49Z</time></trkpt><trkpt lat="59.3885192368" lon="34.6057568584"><ele>172.21</ele><time>2026-08-22T18:30:54Z</time></trkpt><trkpt lat="59.3885013834" lon="34.6057311259"><ele>173.66</ele><time>2026-08-22T18:31:06Z</time></trkpt><trkpt lat="59.3884546123" lon="34.6057290304"><ele>170.29</ele><time>2026-08-22T18:31:20Z</time></trkpt><trkpt lat="59.3884318136" lon="34.6057225764"><ele>170.77</ele><time>2026-08-22T18:31:23Z</time></trkpt><trkpt lat="59.3883742299" lon="34.6057913080"><ele>170.77</ele><time>2026-08-22T18:31:32Z</time></trkpt><trkpt lat="59.3883114494" lon="34.6058467962"><ele>171.25</ele><time>2026-08-22T18:31:45Z</time></trkpt><trkpt lat="59.3882589787" lon="34.6059573535"><ele>171.73</ele><time>2026-08-22T18:31:56Z</time></trkpt><trkpt lat="59.3882072624" lon="34.6060374007"><ele>173.17</ele><time>2026-08-22T18:32:08Z</time></trkpt><trkpt lat="59.3881219346" lon="34.6060928050"><ele>172.69</ele><time>2026-08-22T18:32:23Z</time></trkpt><trkpt lat="59.3880540412" lon="34.6061405819"><ele>172.21</ele><time>2026-08-22T18:32:34Z</time></trkpt><trkpt lat="59.3879594933" lon="34.6061972436"><ele>173.17</ele><time>2026-08-22T18:32:48Z</time></trkpt><trkpt lat="59.3879227806" lon="34.6062880196"><ele>172.69</ele><time>2026-08-22T18:32:55Z</time></trkpt><trkpt lat="59.3878452480" lon="34.6064294223"><ele>171.73</ele><time>2026-08-22T18:33:09Z</time></trkpt><trkpt lat="59.3878294062" lon="34.6064575016"><ele>170.77</ele><time>2026-08-22T18:33:16Z</time></trkpt><trkpt lat="59.3878209405" lon="34.6064997464"><ele>173.17</ele><time>2026-08-22T18:33:31Z</time></trkpt><trkpt lat="59.3878216110" lon="34.6065031830"><ele>169.81</ele><time>2026-08-22T18:33:33Z</time></trkpt><trkpt lat="59.3878207728" lon="34.6065048594"><ele>170.77</ele><time>2026-08-22T18:33:34Z</time></trkpt><trkpt lat="59.3878198508" lon="34.6065111458"><ele>171.73</ele><time>2026-08-22T18:33:36Z</time></trkpt><trkpt lat="59.3878318369" lon="34.6064699907"><ele>172.21</ele><time>2026-08-22T18:33:49Z</time></trkpt><trkpt lat="59.3878311664" lon="34.6064641234"><ele>172.21</ele><time>2026-08-22T18:33:50Z</time></trkpt><trkpt lat="59.3878255505" lon="34.6064580884"><ele>170.77</ele><time>2026-08-22T18:33:56Z</time></trkpt><trkpt lat="59.3877880834" lon="34.6064780373"><ele>172.69</ele><time>2026-08-22T18:34:01Z</time></trkpt><trkpt lat="59.3877303321" lon="34.6064446773"><ele>171.25</ele><time>2026-08-22T18:34:11Z</time></trkpt><trkpt lat="59.3876885064" lon="34.6063906979"><ele>171.73</ele><time>2026-08-22T18:34:18Z</time></trkpt><trkpt lat="59.3876468483" lon="34.6063461900"><ele>172.69</ele><time>2026-08-22T18:34:24Z</time></trkpt><trkpt lat="59.3875329383" lon="34.6063088905"><ele>171.25</ele><time>2026-08-22T18:34:38Z</time></trkpt><trkpt lat="59.3874828983" lon="34.6063101478"><ele>171.25</ele><time>2026-08-22T18:34:44Z</time></trkpt><trkpt lat="59.3873912003" lon="34.6063351259"><ele>172.21</ele><time>2026-08-22T18:34:57Z</time></trkpt><trkpt lat="59.3873783760" lon="34.6063647140"><ele>169.81</ele><time>2026-08-22T18:35:00Z</time></trkpt><trkpt lat="59.3872896116" lon="34.6063650493"><ele>171.25</ele><time>2026-08-22T18:35:12Z</time></trkpt><trkpt lat="59.3872800563" lon="34.6063697431"><ele>170.77</ele><time>2026-08-22T18:35:13Z</time></trkpt><trkpt lat="59.3871825747" lon="34.6063709166"><ele>171.25</ele><time>2026-08-22T18:35:26Z</time></trkpt><trkpt lat="59.3870815728" lon="34.6063570026"><ele>172.69</ele><time>2026-08-22T18:35:40Z</time></trkpt><trkpt lat="59.3869778886" lon="34.6063123271"><ele>171.73</ele><time>2026-08-22T18:35:54Z</time></trkpt><trkpt lat="59.3869697582" lon="34.6063102316"><ele>171.73</ele><time>2026-08-22T18:35:55Z</time></trkpt><trkpt lat="59.3869422656" lon="34.6063088067"><ele>171.25</ele><time>2026-08-22T18:36:00Z</time></trkpt><trkpt lat="59.3869064748" lon="34.6062821522"><ele>170.77</ele><time>2026-08-22T18:36:11Z</time></trkpt><trkpt lat="59.3869010266" lon="34.6062896959"><ele>173.17</ele><time>2026-08-22T18:36:13Z</time></trkpt><trkpt lat="59.3868493941" lon="34.6062699147"><ele>171.25</ele><time>2026-08-22T18:36:22Z</time></trkpt><trkpt lat="59.3867671676" lon="34.6061868500"><ele>172.21</ele><time>2026-08-22T18:36:35Z</time></trkpt><trkpt lat="59.3867617194" lon="34.6061797254"><ele>171.73</ele><time>2026-08-22T18:36:36Z</time></trkpt><trkpt lat="59.3867216539" lon="34.6061901189"><ele>166.45</ele><time>2026-08-22T18:36:44Z</time></trkpt><trkpt lat="59.3867167085" lon="34.6061847545"><ele>166.45</ele><time>2026-08-22T18:36:45Z</time></trkpt><trkpt lat="59.3867151160" lon="34.6061783005"><ele>169.33</ele><time>2026-08-22T18:36:47Z</time></trkpt><trkpt lat="59.3867114279" lon="34.6061879396"><ele>167.89</ele><time>2026-08-22T18:36:50Z</time></trkpt><trkpt lat="59.3867177982" lon="34.6061870176"><ele>171.25</ele><time>2026-08-22T18:36:56Z</time></trkpt><trkpt lat="59.3867064826" lon="34.6062029433"><ele>166.45</ele><time>2026-08-22T18:37:01Z</time></trkpt><trkpt lat="59.3867125176" lon="34.6061976627"><ele>170.77</ele><time>2026-08-22T18:37:05Z</time></trkpt><trkpt lat="59.3867136072" lon="34.6061961539"><ele>170.77</ele><time>2026-08-22T18:37:06Z</time></trkpt><trkpt lat="59.3867030460" lon="34.6061408333"><ele>170.29</ele><time>2026-08-22T18:37:16Z</time></trkpt><trkpt lat="59.3866976816" lon="34.6061237343"><ele>166.45</ele><time>2026-08-22T18:37:20Z</time></trkpt><trkpt lat="59.3866946641" lon="34.6061214712"><ele>170.29</ele><time>2026-08-22T18:37:24Z</time></trkpt><trkpt lat="59.3866918143" lon="34.6061159391"><ele>169.81</ele><time>2026-08-22T18:37:25Z</time></trkpt><trkpt lat="59.3866578676" lon="34.6060378198"><ele>172.21</ele><time>2026-08-22T18:37:40Z</time></trkpt><trkpt lat="59.3866129406" lon="34.6059722733"><ele>172.21</ele><time>2026-08-22T18:37:52Z</time></trkpt><trkpt lat="59.3865975179" lon="34.6059039608"><ele>173.17</ele><time>2026-08-22T18:38:03Z</time></trkpt><trkpt lat="59.3866043072" lon="34.6059047990"><ele>170.29</ele><time>2026-08-22T18:38:09Z</time></trkpt><trkpt lat="59.3865981884" lon="34.6058823355"><ele>173.17</ele><time>2026-08-22T18:38:16Z</time></trkpt><trkpt lat="59.3865198176" lon="34.6057841834"><ele>170.29</ele><time>2026-08-22T18:38:28Z</time></trkpt><trkpt lat="59.3865115196" lon="34.6057882905"><ele>170.29</ele><time>2026-08-22T18:38:29Z</time></trkpt><trkpt lat="59.3864554446" lon="34.6057470515"><ele>172.21</ele><time>2026-08-22T18:38:37Z</time></trkpt><trkpt lat="59.3863779958" lon="34.6057758853"><ele>170.29</ele><time>2026-08-22T18:38:50Z</time></trkpt><trkpt lat="59.3863098510" lon="34.6057540085"><ele>170.29</ele><time>2026-08-22T18:39:02Z</time></trkpt><trkpt lat="59.3862377666" lon="34.6058000252"><ele>172.69</ele><time>2026-08-22T18:39:11Z</time></trkpt><trkpt lat="59.3861350883" lon="34.6058715228"><ele>170.29</ele><time>2026-08-22T18:39:25Z</time></trkpt><trkpt lat="59.3861362617" lon="34.6058781445"><ele>167.89</ele><time>2026-08-22T18:39:27Z</time></trkpt><trkpt lat="59.3861344177" lon="34.6058865264"><ele>171.25</ele><time>2026-08-22T18:39:29Z</time></trkpt><trkpt lat="59.3860812765" lon="34.6059556771"><ele>173.17</ele><time>2026-08-22T18:39:40Z</time></trkpt><trkpt lat="59.3860145565" lon="34.6060567629"><ele>172.69</ele><time>2026-08-22T18:39:54Z</time></trkpt><trkpt lat="59.3859197572" lon="34.6061188728"><ele>171.25</ele><time>2026-08-22T18:40:06Z</time></trkpt><trkpt lat="59.3859122135" lon="34.6061307751"><ele>171.73</ele><time>2026-08-22T18:40:07Z</time></trkpt><trkpt lat="59.3858313281" lon="34.6062258258"><ele>172.69</ele><time>2026-08-22T18:40:20Z</time></trkpt><trkpt lat="59.3858082779" lon="34.6062367223"><ele>170.77</ele><time>2026-08-22T18:40:24Z</time></trkpt><trkpt lat="59.3857477605" lon="34.6062202100"><ele>171.73</ele><time>2026-08-22T18:40:35Z</time></trkpt><trkpt lat="59.3857351877" lon="34.6062244009"><ele>171.73</ele><time>2026-08-22T18:40:37Z</time></trkpt><trkpt lat="59.3856695574" lon="34.6062425058"><ele>173.17</ele><time>2026-08-22T18:40:49Z</time></trkpt><trkpt lat="59.3856682163" lon="34.6063119918"><ele>173.17</ele><time>2026-08-22T18:41:00Z</time></trkpt><trkpt lat="59.3856697250" lon="34.6063398197"><ele>172.21</ele><time>2026-08-22T18:41:07Z</time></trkpt><trkpt lat="59.3856727425" lon="34.6063497942"><ele>173.66</ele><time>2026-08-22T18:41:10Z</time></trkpt><trkpt lat="59.3856636062" lon="34.6063433401"><ele>173.17</ele><time>2026-08-22T18:41:24Z</time></trkpt><trkpt lat="59.3856517039" lon="34.6063009277"><ele>173.17</ele><time>2026-08-22T18:41:34Z</time></trkpt><trkpt lat="59.3856795318" lon="34.6063074656"><ele>173.17</ele><time>2026-08-22T18:41:47Z</time></trkpt><trkpt lat="59.3856641091" lon="34.6063042805"><ele>173.66</ele><time>2026-08-22T18:42:10Z</time></trkpt><trkpt lat="59.3856416456" lon="34.6063157637"><ele>173.17</ele><time>2026-08-22T18:42:29Z</time></trkpt><trkpt lat="59.3855852354" lon="34.6063055377"><ele>172.69</ele><time>2026-08-22T18:42:42Z</time></trkpt><trkpt lat="59.3854871672" lon="34.6063182782"><ele>173.17</ele><time>2026-08-22T18:42:54Z</time></trkpt><trkpt lat="59.3854259793" lon="34.6063508838"><ele>172.21</ele><time>2026-08-22T18:43:03Z</time></trkpt><trkpt lat="59.3853506260" lon="34.6063653845"><ele>172.69</ele><time>2026-08-22T18:43:11Z</time></trkpt><trkpt lat="59.3852588441" lon="34.6063849982"><ele>171.73</ele><time>2026-08-22T18:43:23Z</time></trkpt><trkpt lat="59.3852130789" lon="34.6064357087"><ele>175.10</ele><time>2026-08-22T18:43:32Z</time></trkpt><trkpt lat="59.3852105644" lon="34.6064373851"><ele>175.10</ele><time>2026-08-22T18:43:33Z</time></trkpt><trkpt lat="59.3851934653" lon="34.6064423304"><ele>172.21</ele><time>2026-08-22T18:43:43Z</time></trkpt><trkpt lat="59.3851686548" lon="34.6064834017"><ele>173.66</ele><time>2026-08-22T18:43:54Z</time></trkpt><trkpt lat="59.3851704150" lon="34.6064785402"><ele>173.17</ele><time>2026-08-22T18:44:12Z</time></trkpt><trkpt lat="59.3851264939" lon="34.6064359602"><ele>172.69</ele><time>2026-08-22T18:44:24Z</time></trkpt><trkpt lat="59.3851014320" lon="34.6064120717"><ele>173.66</ele><time>2026-08-22T18:44:34Z</time></trkpt><trkpt lat="59.3851305172" lon="34.6063886862"><ele>172.69</ele><time>2026-08-22T18:44:44Z</time></trkpt><trkpt lat="59.3851354625" lon="34.6062950604"><ele>173.66</ele><time>2026-08-22T18:44:54Z</time></trkpt><trkpt lat="59.3851023540" lon="34.6061788872"><ele>173.17</ele><time>2026-08-22T18:45:03Z</time></trkpt><trkpt lat="59.3850860931" lon="34.6060998458"><ele>173.66</ele><time>2026-08-22T18:45:08Z</time></trkpt><trkpt lat="59.3850673176" lon="34.6059162822"><ele>172.69</ele><time>2026-08-22T18:45:21Z</time></trkpt><trkpt lat="59.3850699160" lon="34.6058900468"><ele>172.69</ele><time>2026-08-22T18:45:23Z</time></trkpt><trkpt lat="59.3850408308" lon="34.6057393402"><ele>174.14</ele><time>2026-08-22T18:45:34Z</time></trkpt><trkpt lat="59.3850407470" lon="34.6056546830"><ele>174.14</ele><time>2026-08-22T18:45:44Z</time></trkpt><trkpt lat="59.3850454409" lon="34.6055414435"><ele>174.14</ele><time>2026-08-22T18:45:54Z</time></trkpt><trkpt lat="59.3850390706" lon="34.6054093447"><ele>174.62</ele><time>2026-08-22T18:46:08Z</time></trkpt><trkpt lat="59.3850375619" lon="34.6054450516"><ele>176.54</ele><time>2026-08-22T18:46:29Z</time></trkpt><trkpt lat="59.3850344606" lon="34.6053545270"><ele>176.06</ele><time>2026-08-22T18:46:56Z</time></trkpt><trkpt lat="59.3850369751" lon="34.6053494141"><ele>174.62</ele><time>2026-08-22T18:46:59Z</time></trkpt><trkpt lat="59.3850401603" lon="34.6052732226"><ele>175.58</ele><time>2026-08-22T18:47:09Z</time></trkpt><trkpt lat="59.3850687426" lon="34.6052345820"><ele>173.17</ele><time>2026-08-22T18:47:17Z</time></trkpt><trkpt lat="59.3850725982" lon="34.6051673591"><ele>175.58</ele><time>2026-08-22T18:47:24Z</time></trkpt><trkpt lat="59.3850836623" lon="34.6050374396"><ele>174.62</ele><time>2026-08-22T18:47:37Z</time></trkpt><trkpt lat="59.3850886077" lon="34.6050307341"><ele>174.14</ele><time>2026-08-22T18:47:41Z</time></trkpt><trkpt lat="59.3850981630" lon="34.6050126292"><ele>175.58</ele><time>2026-08-22T18:47:43Z</time></trkpt><trkpt lat="59.3851124961" lon="34.6049868129"><ele>176.06</ele><time>2026-08-22T18:47:48Z</time></trkpt><trkpt lat="59.3851407431" lon="34.6049658582"><ele>175.58</ele><time>2026-08-22T18:47:53Z</time></trkpt><trkpt lat="59.3851645477" lon="34.6049118787"><ele>176.06</ele><time>2026-08-22T18:47:58Z</time></trkpt><trkpt lat="59.3852093071" lon="34.6048023272"><ele>175.58</ele><time>2026-08-22T18:48:10Z</time></trkpt><trkpt lat="59.3852858339" lon="34.6048088651"><ele>175.58</ele><time>2026-08-22T18:48:23Z</time></trkpt><trkpt lat="59.3854032643" lon="34.6047994774"><ele>176.06</ele><time>2026-08-22T18:48:36Z</time></trkpt><trkpt lat="59.3854914419" lon="34.6046404727"><ele>176.06</ele><time>2026-08-22T18:48:48Z</time></trkpt><trkpt lat="59.3855318427" lon="34.6044949628"><ele>176.06</ele><time>2026-08-22T18:48:58Z</time></trkpt><trkpt lat="59.3856170867" lon="34.6043549012"><ele>177.02</ele><time>2026-08-22T18:49:12Z</time></trkpt><trkpt lat="59.3856593315" lon="34.6042814758"><ele>177.98</ele><time>2026-08-22T18:49:23Z</time></trkpt><trkpt lat="59.3856653664" lon="34.6042932104"><ele>177.98</ele><time>2026-08-22T18:49:47Z</time></trkpt><trkpt lat="59.3856558111" lon="34.6042761952"><ele>178.46</ele><time>2026-08-22T18:50:12Z</time></trkpt><trkpt lat="59.3857221119" lon="34.6041799709"><ele>177.98</ele><time>2026-08-22T18:50:23Z</time></trkpt><trkpt lat="59.3857350200" lon="34.6041641291"><ele>177.02</ele><time>2026-08-22T18:50:25Z</time></trkpt><trkpt lat="59.3858200964" lon="34.6040651388"><ele>177.98</ele><time>2026-08-22T18:50:36Z</time></trkpt><trkpt lat="59.3858876545" lon="34.6040257439"><ele>177.50</ele><time>2026-08-22T18:50:48Z</time></trkpt><trkpt lat="59.3859884888" lon="34.6039507259"><ele>177.50</ele><time>2026-08-22T18:51:01Z</time></trkpt><trkpt lat="59.3860675301" lon="34.6038268413"><ele>177.50</ele><time>2026-08-22T18:51:14Z</time></trkpt><trkpt lat="59.3861310650" lon="34.6036881208"><ele>177.98</ele><time>2026-08-22T18:51:25Z</time></trkpt><trkpt lat="59.3861543667" lon="34.6035343967"><ele>176.54</ele><time>2026-08-22T18:51:35Z</time></trkpt><trkpt lat="59.3861716334" lon="34.6034860332"><ele>177.02</ele><time>2026-08-22T18:51:39Z</time></trkpt><trkpt lat="59.3862024788" lon="34.6032880526"><ele>177.98</ele><time>2026-08-22T18:51:51Z</time></trkpt><trkpt lat="59.3862287980" lon="34.6031005494"><ele>177.02</ele><time>2026-08-22T18:52:03Z</time></trkpt><trkpt lat="59.3862417899" lon="34.6029878128"><ele>177.50</ele><time>2026-08-22T18:52:14Z</time></trkpt><trkpt lat="59.3862457294" lon="34.6029652655"><ele>177.02</ele><time>2026-08-22T18:52:16Z</time></trkpt><trkpt lat="59.3862760719" lon="34.6027969569"><ele>179.42</ele><time>2026-08-22T18:52:29Z</time></trkpt><trkpt lat="59.3862640020" lon="34.6027737390"><ele>179.42</ele><time>2026-08-22T18:52:44Z</time></trkpt><trkpt lat="59.3862408679" lon="34.6028242819"><ele>178.94</ele><time>2026-08-22T18:52:58Z</time></trkpt><trkpt lat="59.3862398621" lon="34.6028524451"><ele>176.06</ele><time>2026-08-22T18:53:05Z</time></trkpt><trkpt lat="59.3862411194" lon="34.6028530318"><ele>177.50</ele><time>2026-08-22T18:53:08Z</time></trkpt><trkpt lat="59.3862422090" lon="34.6028539538"><ele>175.10</ele><time>2026-08-22T18:53:11Z</time></trkpt><trkpt lat="59.3862415385" lon="34.6028464101"><ele>177.98</ele><time>2026-08-22T18:53:29Z</time></trkpt><trkpt lat="59.3862351682" lon="34.6028242819"><ele>179.42</ele><time>2026-08-22T18:53:49Z</time></trkpt><trkpt lat="59.3862162251" lon="34.6027919278"><ele>179.42</ele><time>2026-08-22T18:54:00Z</time></trkpt><trkpt lat="59.3862337433" lon="34.6028089430"><ele>175.10</ele><time>2026-08-22T18:54:27Z</time></trkpt><trkpt lat="59.3862349167" lon="34.6028088592"><ele>177.98</ele><time>2026-08-22T18:54:28Z</time></trkpt><trkpt lat="59.3862401973" lon="34.6028077696"><ele>178.94</ele><time>2026-08-22T18:54:30Z</time></trkpt><trkpt lat="59.3862280436" lon="34.6027952805"><ele>179.90</ele><time>2026-08-22T18:55:13Z</time></trkpt><trkpt lat="59.3862156384" lon="34.6028127987"><ele>179.42</ele><time>2026-08-22T18:55:26Z</time></trkpt><trkpt lat="59.3862002995" lon="34.6028123796"><ele>179.90</ele><time>2026-08-22T18:55:41Z</time></trkpt><trkpt lat="59.3861674424" lon="34.6027412172"><ele>178.94</ele><time>2026-08-22T18:55:51Z</time></trkpt><trkpt lat="59.3861487508" lon="34.6026279777"><ele>179.90</ele><time>2026-08-22T18:56:01Z</time></trkpt><trkpt lat="59.3861439731" lon="34.6026007365"><ele>179.42</ele><time>2026-08-22T18:56:03Z</time></trkpt><trkpt lat="59.3861396145" lon="34.6025625151"><ele>179.42</ele><time>2026-08-22T18:56:05Z</time></trkpt><trkpt lat="59.3860940170" lon="34.6025032550"><ele>178.94</ele><time>2026-08-22T18:56:10Z</time></trkpt><trkpt lat="59.3860573880" lon="34.6024237946"><ele>179.42</ele><time>2026-08-22T18:56:17Z</time></trkpt><trkpt lat="59.3860087730" lon="34.6023727488"><ele>179.90</ele><time>2026-08-22T18:56:22Z</time></trkpt><trkpt lat="59.3859566376" lon="34.6022841521"><ele>179.42</ele><time>2026-08-22T18:56:30Z</time></trkpt><trkpt lat="59.3858791888" lon="34.6022468526"><ele>180.38</ele><time>2026-08-22T18:56:40Z</time></trkpt><trkpt lat="59.3858749140" lon="34.6022574976"><ele>181.35</ele><time>2026-08-22T18:57:03Z</time></trkpt><trkpt lat="59.3857952859" lon="34.6022200305"><ele>179.90</ele><time>2026-08-22T18:57:21Z</time></trkpt><trkpt lat="59.3857602496" lon="34.6022331901"><ele>179.90</ele><time>2026-08-22T18:57:26Z</time></trkpt><trkpt lat="59.3856722396" lon="34.6022488642"><ele>179.42</ele><time>2026-08-22T18:57:38Z</time></trkpt><trkpt lat="59.3856635224" lon="34.6022550669"><ele>179.90</ele><time>2026-08-22T18:57:39Z</time></trkpt><trkpt lat="59.3856177572" lon="34.6022991557"><ele>179.90</ele><time>2026-08-22T18:57:45Z</time></trkpt><trkpt lat="59.3855312560" lon="34.6024221182"><ele>180.38</ele><time>2026-08-22T18:57:59Z</time></trkpt><trkpt lat="59.3855087087" lon="34.6024551429"><ele>179.90</ele><time>2026-08-22T18:58:03Z</time></trkpt><trkpt lat="59.3854241353" lon="34.6025305800"><ele>179.42</ele><time>2026-08-22T18:58:13Z</time></trkpt><trkpt lat="59.3853735924" lon="34.6025439072"><ele>180.38</ele><time>2026-08-22T18:58:20Z</time></trkpt><trkpt lat="59.3853657972" lon="34.6025543846"><ele>181.35</ele><time>2026-08-22T18:58:32Z</time></trkpt><trkpt lat="59.3853589240" lon="34.6025556419"><ele>182.31</ele><time>2026-08-22T18:58:58Z</time></trkpt><trkpt lat="59.3853564095" lon="34.6025611740"><ele>180.87</ele><time>2026-08-22T18:59:03Z</time></trkpt><trkpt lat="59.3853406515" lon="34.6025951207"><ele>180.38</ele><time>2026-08-22T18:59:06Z</time></trkpt><trkpt lat="59.3853082974" lon="34.6027381159"><ele>180.87</ele><time>2026-08-22T18:59:16Z</time></trkpt><trkpt lat="59.3852637056" lon="34.6028252877"><ele>180.87</ele><time>2026-08-22T18:59:28Z</time></trkpt><trkpt lat="59.3852436729" lon="34.6028193366"><ele>181.83</ele><time>2026-08-22T18:59:45Z</time></trkpt><trkpt lat="59.3852331955" lon="34.6027967054"><ele>180.87</ele><time>2026-08-22T18:59:47Z</time></trkpt><trkpt lat="59.3851495441" lon="34.6027211007"><ele>179.90</ele><time>2026-08-22T19:00:00Z</time></trkpt><trkpt lat="59.3850575108" lon="34.6026703902"><ele>180.87</ele><time>2026-08-22T19:00:12Z</time></trkpt><trkpt lat="59.3849597778" lon="34.6026289836"><ele>180.38</ele><time>2026-08-22T19:00:24Z</time></trkpt><trkpt lat="59.3849409185" lon="34.6026438195"><ele>180.38</ele><time>2026-08-22T19:00:27Z</time></trkpt><trkpt lat="59.3848438561" lon="34.6025480144"><ele>180.38</ele><time>2026-08-22T19:00:40Z</time></trkpt><trkpt lat="59.3847488053" lon="34.6025052667"><ele>180.87</ele><time>2026-08-22T19:00:52Z</time></trkpt><trkpt lat="59.3847389147" lon="34.6025115531"><ele>180.87</ele><time>2026-08-22T19:00:53Z</time></trkpt><trkpt lat="59.3847046327" lon="34.6025408059"><ele>180.87</ele><time>2026-08-22T19:00:57Z</time></trkpt><trkpt lat="59.3846279383" lon="34.6025823802"><ele>180.87</ele><time>2026-08-22T19:01:06Z</time></trkpt><trkpt lat="59.3845409341" lon="34.6025688015"><ele>181.35</ele><time>2026-08-22T19:01:18Z</time></trkpt><trkpt lat="59.3845326360" lon="34.6025717352"><ele>180.38</ele><time>2026-08-22T19:01:19Z</time></trkpt><trkpt lat="59.3844151217" lon="34.6025584918"><ele>181.35</ele><time>2026-08-22T19:01:34Z</time></trkpt><trkpt lat="59.3843333144" lon="34.6025650296"><ele>181.35</ele><time>2026-08-22T19:01:44Z</time></trkpt><trkpt lat="59.3842554465" lon="34.6025189292"><ele>181.35</ele><time>2026-08-22T19:01:55Z</time></trkpt><trkpt lat="59.3841639161" lon="34.6025076136"><ele>181.35</ele><time>2026-08-22T19:02:05Z</time></trkpt><trkpt lat="59.3840664346" lon="34.6024737507"><ele>181.35</ele><time>2026-08-22T19:02:17Z</time></trkpt><trkpt lat="59.3839810230" lon="34.6023987327"><ele>181.83</ele><time>2026-08-22T19:02:29Z</time></trkpt><trkpt lat="59.3839547038" lon="34.6024010796"><ele>182.31</ele><time>2026-08-22T19:02:39Z</time></trkpt><trkpt lat="59.3839527760" lon="34.6023624390"><ele>183.27</ele><time>2026-08-22T19:02:59Z</time></trkpt><trkpt lat="59.3839086872" lon="34.6022834815"><ele>181.35</ele><time>2026-08-22T19:03:18Z</time></trkpt><trkpt lat="59.3838682864" lon="34.6022289991"><ele>182.31</ele><time>2026-08-22T19:03:34Z</time></trkpt><trkpt lat="59.3838309869" lon="34.6021160111"><ele>181.83</ele><time>2026-08-22T19:03:46Z</time></trkpt><trkpt lat="59.3838063441" lon="34.6020611934"><ele>181.35</ele><time>2026-08-22T19:03:51Z</time></trkpt><trkpt lat="59.3837965373" lon="34.6020092256"><ele>182.79</ele><time>2026-08-22T19:03:54Z</time></trkpt><trkpt lat="59.3837243691" lon="34.6018948965"><ele>182.79</ele><time>2026-08-22T19:04:06Z</time></trkpt><trkpt lat="59.3837174959" lon="34.6018850058"><ele>181.83</ele><time>2026-08-22T19:04:07Z</time></trkpt><trkpt lat="59.3837017380" lon="34.6018569265"><ele>182.31</ele><time>2026-08-22T19:04:09Z</time></trkpt><trkpt lat="59.3836692162" lon="34.6018187050"><ele>180.87</ele><time>2026-08-22T19:04:14Z</time></trkpt><trkpt lat="59.3836412206" lon="34.6018233988"><ele>182.31</ele><time>2026-08-22T19:04:17Z</time></trkpt><trkpt lat="59.3836336769" lon="34.6018210519"><ele>181.83</ele><time>2026-08-22T19:04:18Z</time></trkpt><trkpt lat="59.3836161587" lon="34.6017809864"><ele>181.83</ele><time>2026-08-22T19:04:22Z</time></trkpt><trkpt lat="59.3835848942" lon="34.6017447766"><ele>182.79</ele><time>2026-08-22T19:04:27Z</time></trkpt><trkpt lat="59.3835085351" lon="34.6016151085"><ele>182.31</ele><time>2026-08-22T19:04:40Z</time></trkpt><trkpt lat="59.3834798690" lon="34.6015884541"><ele>180.38</ele><time>2026-08-22T19:04:45Z</time></trkpt><trkpt lat="59.3834602553" lon="34.6015975066"><ele>181.83</ele><time>2026-08-22T19:04:50Z</time></trkpt><trkpt lat="59.3834077846" lon="34.6016340517"><ele>183.75</ele><time>2026-08-22T19:05:03Z</time></trkpt><trkpt lat="59.3833924457" lon="34.6015871968"><ele>182.31</ele><time>2026-08-22T19:05:30Z</time></trkpt><trkpt lat="59.3833035976" lon="34.6015814133"><ele>182.31</ele><time>2026-08-22T19:05:42Z</time></trkpt><trkpt lat="59.3832375482" lon="34.6015994344"><ele>182.31</ele><time>2026-08-22T19:05:50Z</time></trkpt><trkpt lat="59.3831526395" lon="34.6016177908"><ele>182.79</ele><time>2026-08-22T19:06:02Z</time></trkpt><trkpt lat="59.3831462692" lon="34.6016223170"><ele>182.79</ele><time>2026-08-22T19:06:04Z</time></trkpt><trkpt lat="59.3831062037" lon="34.6016524080"><ele>183.75</ele><time>2026-08-22T19:06:16Z</time></trkpt><trkpt lat="59.3830976542" lon="34.6016739495"><ele>182.79</ele><time>2026-08-22T19:06:35Z</time></trkpt><trkpt lat="59.3830930442" lon="34.6018571779"><ele>183.27</ele><time>2026-08-22T19:06:48Z</time></trkpt><trkpt lat="59.3831129093" lon="34.6018836647"><ele>183.75</ele><time>2026-08-22T19:07:07Z</time></trkpt><trkpt lat="59.3831361271" lon="34.6018514782"><ele>183.27</ele><time>2026-08-22T19:07:14Z</time></trkpt><trkpt lat="59.3831370492" lon="34.6018534899"><ele>188.08</ele><time>2026-08-22T19:07:15Z</time></trkpt><trkpt lat="59.3831381388" lon="34.6018551663"><ele>188.08</ele><time>2026-08-22T19:07:16Z</time></trkpt><trkpt lat="59.3831455149" lon="34.6018669847"><ele>188.56</ele><time>2026-08-22T19:07:33Z</time></trkpt><trkpt lat="59.3831694033" lon="34.6017990075"><ele>190.48</ele><time>2026-08-22T19:07:57Z</time></trkpt><trkpt lat="59.3831825629" lon="34.6017892845"><ele>190.48</ele><time>2026-08-22T19:08:35Z</time></trkpt><trkpt lat="59.3831624463" lon="34.6017770469"><ele>190.48</ele><time>2026-08-22T19:09:09Z</time></trkpt><trkpt lat="59.3831671402" lon="34.6017911285"><ele>190.96</ele><time>2026-08-22T19:09:52Z</time></trkpt><trkpt lat="59.3831693195" lon="34.6018313617"><ele>191.44</ele><time>2026-08-22T19:10:26Z</time></trkpt><trkpt lat="59.3831320200" lon="34.6018221416"><ele>191.44</ele><time>2026-08-22T19:10:57Z</time></trkpt><trkpt lat="59.3831449281" lon="34.6017738618"><ele>191.44</ele><time>2026-08-22T19:11:28Z</time></trkpt><trkpt lat="59.3831676431" lon="34.6017934754"><ele>191.44</ele><time>2026-08-22T19:12:07Z</time></trkpt><trkpt lat="59.3831608538" lon="34.6018182859"><ele>190.48</ele><time>2026-08-22T19:12:27Z</time></trkpt><trkpt lat="59.3831673916" lon="34.6018053778"><ele>191.44</ele><time>2026-08-22T19:13:10Z</time></trkpt><trkpt lat="59.3831770308" lon="34.6017877758"><ele>191.92</ele><time>2026-08-22T19:13:49Z</time></trkpt><trkpt lat="59.3831493706" lon="34.6018031985"><ele>192.40</ele><time>2026-08-22T19:14:29Z</time></trkpt><trkpt lat="59.3831481133" lon="34.6018238179"><ele>189.04</ele><time>2026-08-22T19:14:38Z</time></trkpt><trkpt lat="59.3831490353" lon="34.6018177830"><ele>189.04</ele><time>2026-08-22T19:14:39Z</time></trkpt><trkpt lat="59.3831435870" lon="34.6018144302"><ele>190.48</ele><time>2026-08-22T19:14:41Z</time></trkpt><trkpt lat="59.3831157591" lon="34.6018104069"><ele>189.52</ele><time>2026-08-22T19:14:59Z</time></trkpt><trkpt lat="59.3831128255" lon="34.6017965768"><ele>189.52</ele><time>2026-08-22T19:15:04Z</time></trkpt><trkpt lat="59.3831226323" lon="34.6017726883"><ele>188.56</ele><time>2026-08-22T19:15:23Z</time></trkpt><trkpt lat="59.3831253145" lon="34.6017919667"><ele>189.52</ele><time>2026-08-22T19:15:44Z</time></trkpt><trkpt lat="59.3831226323" lon="34.6018249914"><ele>188.56</ele><time>2026-08-22T19:15:58Z</time></trkpt><trkpt lat="59.3830575887" lon="34.6017988399"><ele>189.04</ele><time>2026-08-22T19:16:10Z</time></trkpt><trkpt lat="59.3830282521" lon="34.6018026955"><ele>190.48</ele><time>2026-08-22T19:16:25Z</time></trkpt><trkpt lat="59.3829865940" lon="34.6018373128"><ele>189.04</ele><time>2026-08-22T19:16:45Z</time></trkpt><trkpt lat="59.3828840833" lon="34.6018769592"><ele>189.04</ele><time>2026-08-22T19:16:56Z</time></trkpt><trkpt lat="59.3827559240" lon="34.6020474471"><ele>189.04</ele><time>2026-08-22T19:17:10Z</time></trkpt><trkpt lat="59.3827487156" lon="34.6020906977"><ele>189.04</ele><time>2026-08-22T19:17:12Z</time></trkpt><trkpt lat="59.3826810736" lon="34.6022245567"><ele>188.56</ele><time>2026-08-22T19:17:24Z</time></trkpt><trkpt lat="59.3825706001" lon="34.6022986528"><ele>189.04</ele><time>2026-08-22T19:17:37Z</time></trkpt><trkpt lat="59.3825042993" lon="34.6023590863"><ele>190.00</ele><time>2026-08-22T19:17:45Z</time></trkpt><trkpt lat="59.3824916426" lon="34.6023812145"><ele>189.04</ele><time>2026-08-22T19:17:47Z</time></trkpt><trkpt lat="59.3824175466" lon="34.6023803763"><ele>189.04</ele><time>2026-08-22T19:17:55Z</time></trkpt><trkpt lat="59.3823912274" lon="34.6023658756"><ele>189.04</ele><time>2026-08-22T19:17:58Z</time></trkpt><trkpt lat="59.3823524192" lon="34.6023584995"><ele>188.56</ele><time>2026-08-22T19:18:03Z</time></trkpt><trkpt lat="59.3822545186" lon="34.6023267321"><ele>189.52</ele><time>2026-08-22T19:18:17Z</time></trkpt><trkpt lat="59.3821781594" lon="34.6023582481"><ele>190.00</ele><time>2026-08-22T19:18:31Z</time></trkpt><trkpt lat="59.3821882177" lon="34.6023727488"><ele>189.52</ele><time>2026-08-22T19:18:57Z</time></trkpt><trkpt lat="59.3821624853" lon="34.6023201104"><ele>190.00</ele><time>2026-08-22T19:19:13Z</time></trkpt><trkpt lat="59.3820821866" lon="34.6022543963"><ele>189.52</ele><time>2026-08-22T19:19:25Z</time></trkpt><trkpt lat="59.3820484914" lon="34.6021978185"><ele>190.48</ele><time>2026-08-22T19:19:36Z</time></trkpt><trkpt lat="59.3820303865" lon="34.6021879278"><ele>190.96</ele><time>2026-08-22T19:19:47Z</time></trkpt><trkpt lat="59.3820287101" lon="34.6021232195"><ele>190.48</ele><time>2026-08-22T19:20:04Z</time></trkpt><trkpt lat="59.3819454778" lon="34.6020362154"><ele>190.00</ele><time>2026-08-22T19:20:13Z</time></trkpt><trkpt lat="59.3819313962" lon="34.6019870974"><ele>190.48</ele><time>2026-08-22T19:20:16Z</time></trkpt><trkpt lat="59.3819240201" lon="34.6019562520"><ele>189.52</ele><time>2026-08-22T19:20:18Z</time></trkpt><trkpt lat="59.3818461522" lon="34.6017993428"><ele>190.48</ele><time>2026-08-22T19:20:31Z</time></trkpt><trkpt lat="59.3818014767" lon="34.6017159428"><ele>190.48</ele><time>2026-08-22T19:20:40Z</time></trkpt><trkpt lat="59.3817182444" lon="34.6016006917"><ele>190.48</ele><time>2026-08-22T19:20:52Z</time></trkpt><trkpt lat="59.3816102855" lon="34.6014337242"><ele>190.00</ele><time>2026-08-22T19:21:07Z</time></trkpt><trkpt lat="59.3814758398" lon="34.6014120989"><ele>190.00</ele><time>2026-08-22T19:21:21Z</time></trkpt><trkpt lat="59.3813917693" lon="34.6014156193"><ele>190.48</ele><time>2026-08-22T19:21:30Z</time></trkpt><trkpt lat="59.3813043460" lon="34.6014645696"><ele>190.96</ele><time>2026-08-22T19:21:40Z</time></trkpt><trkpt lat="59.3812846486" lon="34.6014628094"><ele>190.96</ele><time>2026-08-22T19:21:42Z</time></trkpt><trkpt lat="59.3812641967" lon="34.6014378313"><ele>190.96</ele><time>2026-08-22T19:21:45Z</time></trkpt><trkpt lat="59.3812509533" lon="34.6014084946"><ele>190.96</ele><time>2026-08-22T19:21:47Z</time></trkpt><trkpt lat="59.3812439963" lon="34.6013795771"><ele>190.96</ele><time>2026-08-22T19:21:49Z</time></trkpt><trkpt lat="59.3811807130" lon="34.6012029704"><ele>190.48</ele><time>2026-08-22T19:22:02Z</time></trkpt><trkpt lat="59.3811419886" lon="34.6011211630"><ele>191.44</ele><time>2026-08-22T19:22:09Z</time></trkpt><trkpt lat="59.3810753524" lon="34.6009999607"><ele>191.44</ele><time>2026-08-22T19:22:20Z</time></trkpt><trkpt lat="59.3810561579" lon="34.6009580512"><ele>190.00</ele><time>2026-08-22T19:22:23Z</time></trkpt><trkpt lat="59.3809994124" lon="34.6007740684"><ele>191.44</ele><time>2026-08-22T19:22:37Z</time></trkpt><trkpt lat="59.3809057027" lon="34.6006335877"><ele>190.96</ele><time>2026-08-22T19:22:50Z</time></trkpt><trkpt lat="59.3807999231" lon="34.6005405486"><ele>192.40</ele><time>2026-08-22T19:23:04Z</time></trkpt><trkpt lat="59.3807929661" lon="34.6005459968"><ele>192.88</ele><time>2026-08-22T19:23:16Z</time></trkpt><trkpt lat="59.3807927147" lon="34.6005230304"><ele>193.36</ele><time>2026-08-22T19:23:38Z</time></trkpt><trkpt lat="59.3807411660" lon="34.6005231142"><ele>191.92</ele><time>2026-08-22T19:23:45Z</time></trkpt><trkpt lat="59.3806213886" lon="34.6004358586"><ele>191.92</ele><time>2026-08-22T19:24:00Z</time></trkpt><trkpt lat="59.3806124199" lon="34.6004312485"><ele>192.88</ele><time>2026-08-22T19:24:01Z</time></trkpt><trkpt lat="59.3805578537" lon="34.6003449988"><ele>192.40</ele><time>2026-08-22T19:24:09Z</time></trkpt><trkpt lat="59.3804573547" lon="34.6003537998"><ele>192.40</ele><time>2026-08-22T19:24:21Z</time></trkpt><trkpt lat="59.3803516589" lon="34.6002792008"><ele>190.00</ele><time>2026-08-22T19:24:35Z</time></trkpt><trkpt lat="59.3802685943" lon="34.6001380496"><ele>192.88</ele><time>2026-08-22T19:24:48Z</time></trkpt><trkpt lat="59.3802515790" lon="34.6001237165"><ele>191.44</ele><time>2026-08-22T19:24:50Z</time></trkpt><trkpt lat="59.3801692687" lon="34.5999469422"><ele>191.92</ele><time>2026-08-22T19:25:04Z</time></trkpt><trkpt lat="59.3801012076" lon="34.5998113230"><ele>192.88</ele><time>2026-08-22T19:25:15Z</time></trkpt><trkpt lat="59.3800319731" lon="34.5997638814"><ele>191.92</ele><time>2026-08-22T19:25:27Z</time></trkpt><trkpt lat="59.3799740542" lon="34.5998262428"><ele>192.40</ele><time>2026-08-22T19:25:40Z</time></trkpt><trkpt lat="59.3799881358" lon="34.5998732653"><ele>191.44</ele><time>2026-08-22T19:25:52Z</time></trkpt><trkpt lat="59.3799964339" lon="34.5998575073"><ele>191.92</ele><time>2026-08-22T19:25:53Z</time></trkpt><trkpt lat="59.3799665105" lon="34.5997011010"><ele>193.36</ele><time>2026-08-22T19:26:08Z</time></trkpt><trkpt lat="59.3799562845" lon="34.5996416733"><ele>193.84</ele><time>2026-08-22T19:26:15Z</time></trkpt><trkpt lat="59.3798552826" lon="34.5995078143"><ele>192.88</ele><time>2026-08-22T19:26:30Z</time></trkpt><trkpt lat="59.3797883950" lon="34.5994888712"><ele>191.44</ele><time>2026-08-22T19:26:43Z</time></trkpt><trkpt lat="59.3797749002" lon="34.5994934812"><ele>193.84</ele><time>2026-08-22T19:26:46Z</time></trkpt><trkpt lat="59.3797699548" lon="34.5994898770"><ele>193.84</ele><time>2026-08-22T19:26:59Z</time></trkpt><trkpt lat="59.3797817733" lon="34.5994658209"><ele>193.84</ele><time>2026-08-22T19:27:23Z</time></trkpt><trkpt lat="59.3797827791" lon="34.5993353985"><ele>193.36</ele><time>2026-08-22T19:27:36Z</time></trkpt><trkpt lat="59.3797456473" lon="34.5991950016"><ele>192.40</ele><time>2026-08-22T19:27:49Z</time></trkpt><trkpt lat="59.3796909973" lon="34.5991286170"><ele>194.32</ele><time>2026-08-22T19:27:55Z</time></trkpt><trkpt lat="59.3796604034" lon="34.5991021302"><ele>193.84</ele><time>2026-08-22T19:28:02Z</time></trkpt><trkpt lat="59.3795397040" lon="34.5991598815"><ele>191.92</ele><time>2026-08-22T19:28:19Z</time></trkpt><trkpt lat="59.3794758338" lon="34.5991006214"><ele>194.80</ele><time>2026-08-22T19:28:32Z</time></trkpt><trkpt lat="59.3794441503" lon="34.5991191454"><ele>194.80</ele><time>2026-08-22T19:28:36Z</time></trkpt><trkpt lat="59.3794489279" lon="34.5990617294"><ele>195.28</ele><time>2026-08-22T19:28:58Z</time></trkpt><trkpt lat="59.3794448208" lon="34.5990263578"><ele>194.80</ele><time>2026-08-22T19:29:25Z</time></trkpt><trkpt lat="59.3793726526" lon="34.5990426186"><ele>194.80</ele><time>2026-08-22T19:29:40Z</time></trkpt><trkpt lat="59.3793567270" lon="34.5989832748"><ele>194.32</ele><time>2026-08-22T19:29:55Z</time></trkpt><trkpt lat="59.3792967126" lon="34.5989276189"><ele>194.32</ele><time>2026-08-22T19:30:09Z</time></trkpt><trkpt lat="59.3792423140" lon="34.5988076739"><ele>192.88</ele><time>2026-08-22T19:30:22Z</time></trkpt><trkpt lat="59.3791447487" lon="34.5986728929"><ele>194.32</ele><time>2026-08-22T19:30:36Z</time></trkpt><trkpt lat="59.3791299127" lon="34.5986642595"><ele>195.28</ele><time>2026-08-22T19:30:38Z</time></trkpt><trkpt lat="59.3790863268" lon="34.5985443983"><ele>194.80</ele><time>2026-08-22T19:30:54Z</time></trkpt><trkpt lat="59.3789628614" lon="34.5985043328"><ele>195.28</ele><time>2026-08-22T19:31:09Z</time></trkpt><trkpt lat="59.3788731750" lon="34.5984809473"><ele>194.32</ele><time>2026-08-22T19:31:24Z</time></trkpt><trkpt lat="59.3787894398" lon="34.5984906703"><ele>195.77</ele><time>2026-08-22T19:31:35Z</time></trkpt><trkpt lat="59.3787518889" lon="34.5984993875"><ele>196.73</ele><time>2026-08-22T19:31:53Z</time></trkpt><trkpt lat="59.3787073810" lon="34.5986283850"><ele>195.28</ele><time>2026-08-22T19:32:05Z</time></trkpt><trkpt lat="59.3786698300" lon="34.5986787602"><ele>195.77</ele><time>2026-08-22T19:32:20Z</time></trkpt><trkpt lat="59.3785784673" lon="34.5987631660"><ele>194.80</ele><time>2026-08-22T19:32:35Z</time></trkpt><trkpt lat="59.3785244040" lon="34.5988649223"><ele>195.28</ele><time>2026-08-22T19:32:47Z</time></trkpt><trkpt lat="59.3784233183" lon="34.5989344921"><ele>196.73</ele><time>2026-08-22T19:33:02Z</time></trkpt><trkpt lat="59.3783737812" lon="34.5989154652"><ele>196.73</ele><time>2026-08-22T19:33:14Z</time></trkpt><trkpt lat="59.3782964163" lon="34.5990136173"><ele>196.73</ele><time>2026-08-22T19:33:29Z</time></trkpt><trkpt lat="59.3782265112" lon="34.5990784094"><ele>196.73</ele><time>2026-08-22T19:33:38Z</time></trkpt><trkpt lat="59.3781646527" lon="34.5990872942"><ele>196.25</ele><time>2026-08-22T19:33:50Z</time></trkpt><trkpt lat="59.3780437857" lon="34.5991089195"><ele>196.73</ele><time>2026-08-22T19:34:03Z</time></trkpt><trkpt lat="59.3780025467" lon="34.5991677605"><ele>196.25</ele><time>2026-08-22T19:34:17Z</time></trkpt><trkpt lat="59.3780020438" lon="34.5991659164"><ele>196.25</ele><time>2026-08-22T19:34:18Z</time></trkpt><trkpt lat="59.3779969309" lon="34.5991502423"><ele>197.69</ele><time>2026-08-22T19:34:21Z</time></trkpt><trkpt lat="59.3779613916" lon="34.5991811715"><ele>195.77</ele><time>2026-08-22T19:34:45Z</time></trkpt><trkpt lat="59.3779614754" lon="34.5991768967"><ele>195.28</ele><time>2026-08-22T19:34:47Z</time></trkpt><trkpt lat="59.3778928276" lon="34.5993080735"><ele>197.21</ele><time>2026-08-22T19:35:01Z</time></trkpt><trkpt lat="59.3778489903" lon="34.5993839297"><ele>195.77</ele><time>2026-08-22T19:35:10Z</time></trkpt><trkpt lat="59.3778080028" lon="34.5994380768"><ele>193.84</ele><time>2026-08-22T19:35:22Z</time></trkpt><trkpt lat="59.3777811807" lon="34.5995183755"><ele>196.25</ele><time>2026-08-22T19:35:30Z</time></trkpt><trkpt lat="59.3777640816" lon="34.5995240752"><ele>194.80</ele><time>2026-08-22T19:35:32Z</time></trkpt><trkpt lat="59.3777430430" lon="34.5995402522"><ele>195.28</ele><time>2026-08-22T19:35:34Z</time></trkpt><trkpt lat="59.3777013011" lon="34.5995741989"><ele>195.28</ele><time>2026-08-22T19:35:40Z</time></trkpt><trkpt lat="59.3776838668" lon="34.5995788928"><ele>196.73</ele><time>2026-08-22T19:35:43Z</time></trkpt><trkpt lat="59.3776185717" lon="34.5996200480"><ele>197.21</ele><time>2026-08-22T19:35:58Z</time></trkpt><trkpt lat="59.3775729742" lon="34.5996604487"><ele>192.88</ele><time>2026-08-22T19:36:06Z</time></trkpt><trkpt lat="59.3775638379" lon="34.5996713452"><ele>193.36</ele><time>2026-08-22T19:36:07Z</time></trkpt><trkpt lat="59.3775396980" lon="34.5997244027"><ele>193.84</ele><time>2026-08-22T19:36:12Z</time></trkpt><trkpt lat="59.3775319029" lon="34.5997431781"><ele>190.96</ele><time>2026-08-22T19:36:14Z</time></trkpt><trkpt lat="59.3775111996" lon="34.5997352153"><ele>195.28</ele><time>2026-08-22T19:36:19Z</time></trkpt><trkpt lat="59.3774605729" lon="34.5996720158"><ele>192.40</ele><time>2026-08-22T19:36:32Z</time></trkpt><trkpt lat="59.3774608243" lon="34.5996681601"><ele>193.36</ele><time>2026-08-22T19:36:33Z</time></trkpt><trkpt lat="59.3774394505" lon="34.5996310282"><ele>196.25</ele><time>2026-08-22T19:36:38Z</time></trkpt><trkpt lat="59.3774018157" lon="34.5996490493"><ele>192.88</ele><time>2026-08-22T19:36:44Z</time></trkpt><trkpt lat="59.3773922604" lon="34.5996565092"><ele>196.73</ele><time>2026-08-22T19:36:47Z</time></trkpt><trkpt lat="59.3773881532" lon="34.5996385720"><ele>196.73</ele><time>2026-08-22T19:36:48Z</time></trkpt><trkpt lat="59.3773544580" lon="34.5996259153"><ele>192.88</ele><time>2026-08-22T19:36:56Z</time></trkpt><trkpt lat="59.3773454893" lon="34.5996332914"><ele>192.88</ele><time>2026-08-22T19:36:57Z</time></trkpt><trkpt lat="59.3773360178" lon="34.5996369794"><ele>196.25</ele><time>2026-08-22T19:37:01Z</time></trkpt><trkpt lat="59.3773289770" lon="34.5996293519"><ele>197.21</ele><time>2026-08-22T19:37:03Z</time></trkpt><trkpt lat="59.3772490975" lon="34.5997095667"><ele>197.69</ele><time>2026-08-22T19:37:18Z</time></trkpt><trkpt lat="59.3771922681" lon="34.5997460280"><ele>194.32</ele><time>2026-08-22T19:37:27Z</time></trkpt><trkpt lat="59.3771789409" lon="34.5997871831"><ele>197.69</ele><time>2026-08-22T19:37:32Z</time></trkpt><trkpt lat="59.3771584053" lon="34.5997720957"><ele>194.80</ele><time>2026-08-22T19:37:37Z</time></trkpt><trkpt lat="59.3771537114" lon="34.5997718442"><ele>194.80</ele><time>2026-08-22T19:37:38Z</time></trkpt><trkpt lat="59.3771392107" lon="34.5997914579"><ele>193.84</ele><time>2026-08-22T19:37:41Z</time></trkpt><trkpt lat="59.3771179207" lon="34.5998322777"><ele>196.73</ele><time>2026-08-22T19:37:45Z</time></trkpt><trkpt lat="59.3771125562" lon="34.5998341218"><ele>196.73</ele><time>2026-08-22T19:37:46Z</time></trkpt><trkpt lat="59.3770605046" lon="34.5998487063"><ele>195.77</ele><time>2026-08-22T19:38:01Z</time></trkpt><trkpt lat="59.3770639412" lon="34.5998585131"><ele>196.73</ele><time>2026-08-22T19:38:16Z</time></trkpt><trkpt lat="59.3770534638" lon="34.5998553280"><ele>193.36</ele><time>2026-08-22T19:38:25Z</time></trkpt><trkpt lat="59.3770394661" lon="34.5998412464"><ele>196.73</ele><time>2026-08-22T19:38:28Z</time></trkpt><trkpt lat="59.3770328443" lon="34.5998307690"><ele>196.73</ele><time>2026-08-22T19:38:29Z</time></trkpt><trkpt lat="59.3770018313" lon="34.5998451021"><ele>192.88</ele><time>2026-08-22T19:38:34Z</time></trkpt><trkpt lat="59.3769968022" lon="34.5998337027"><ele>193.36</ele><time>2026-08-22T19:38:35Z</time></trkpt><trkpt lat="59.3769761827" lon="34.5998348761"><ele>196.25</ele><time>2026-08-22T19:38:39Z</time></trkpt><trkpt lat="59.3769729976" lon="34.5998357143"><ele>196.73</ele><time>2026-08-22T19:38:40Z</time></trkpt><trkpt lat="59.3769409787" lon="34.5998593513"><ele>196.73</ele><time>2026-08-22T19:38:52Z</time></trkpt><trkpt lat="59.3769478519" lon="34.5998703316"><ele>198.17</ele><time>2026-08-22T19:38:55Z</time></trkpt><trkpt lat="59.3769684713" lon="34.5998937171"><ele>196.25</ele><time>2026-08-22T19:38:59Z</time></trkpt><trkpt lat="59.3769549765" lon="34.5998499636"><ele>197.21</ele><time>2026-08-22T19:39:11Z</time></trkpt><trkpt lat="59.3768971413" lon="34.5998715051"><ele>198.17</ele><time>2026-08-22T19:39:22Z</time></trkpt><trkpt lat="59.3768636975" lon="34.5998392347"><ele>196.73</ele><time>2026-08-22T19:39:36Z</time></trkpt><trkpt lat="59.3768549804" lon="34.5998414140"><ele>193.84</ele><time>2026-08-22T19:39:38Z</time></trkpt><trkpt lat="59.3768534716" lon="34.5998463593"><ele>192.88</ele><time>2026-08-22T19:39:40Z</time></trkpt><trkpt lat="59.3768605124" lon="34.5998912025"><ele>191.92</ele><time>2026-08-22T19:40:07Z</time></trkpt><trkpt lat="59.3768457603" lon="34.5999089722"><ele>196.25</ele><time>2026-08-22T19:40:12Z</time></trkpt><trkpt lat="59.3768397253" lon="34.5999105647"><ele>196.73</ele><time>2026-08-22T19:40:13Z</time></trkpt><trkpt lat="59.3768343609" lon="34.5999109838"><ele>192.40</ele><time>2026-08-22T19:40:16Z</time></trkpt><trkpt lat="59.3768347800" lon="34.5999080501"><ele>191.44</ele><time>2026-08-22T19:40:18Z</time></trkpt><trkpt lat="59.3768359534" lon="34.5998777915"><ele>195.28</ele><time>2026-08-22T19:40:26Z</time></trkpt><trkpt lat="59.3768288288" lon="34.5998778753"><ele>195.28</ele><time>2026-08-22T19:40:27Z</time></trkpt><trkpt lat="59.3768455926" lon="34.5998519752"><ele>196.73</ele><time>2026-08-22T19:40:40Z</time></trkpt><trkpt lat="59.3768414017" lon="34.5998202078"><ele>194.80</ele><time>2026-08-22T19:40:59Z</time></trkpt><trkpt lat="59.3768448383" lon="34.5997649711"><ele>197.21</ele><time>2026-08-22T19:41:11Z</time></trkpt><trkpt lat="59.3768568244" lon="34.5997373946"><ele>197.21</ele><time>2026-08-22T19:41:15Z</time></trkpt><trkpt lat="59.3768700678" lon="34.5996961556"><ele>197.21</ele><time>2026-08-22T19:41:28Z</time></trkpt><trkpt lat="59.3768981472" lon="34.5995484665"><ele>197.21</ele><time>2026-08-22T19:41:40Z</time></trkpt><trkpt lat="59.3768041022" lon="34.5994132664"><ele>197.21</ele><time>2026-08-22T19:41:52Z</time></trkpt><trkpt lat="59.3766984902" lon="34.5993967541"><ele>197.21</ele><time>2026-08-22T19:42:05Z</time></trkpt><trkpt lat="59.3766506296" lon="34.5994396694"><ele>196.25</ele><time>2026-08-22T19:42:11Z</time></trkpt><trkpt lat="59.3766015954" lon="34.5994646475"><ele>197.69</ele><time>2026-08-22T19:42:17Z</time></trkpt><trkpt lat="59.3765566684" lon="34.5995261706"><ele>197.69</ele><time>2026-08-22T19:42:29Z</time></trkpt><trkpt lat="59.3765559141" lon="34.5995367318"><ele>193.36</ele><time>2026-08-22T19:42:30Z</time></trkpt><trkpt lat="59.3765550759" lon="34.5995415933"><ele>193.84</ele><time>2026-08-22T19:42:31Z</time></trkpt><trkpt lat="59.3765404914" lon="34.5995748695"><ele>197.21</ele><time>2026-08-22T19:42:35Z</time></trkpt><trkpt lat="59.3764922954" lon="34.5997125842"><ele>195.28</ele><time>2026-08-22T19:42:47Z</time></trkpt><trkpt lat="59.3764739390" lon="34.5997392386"><ele>194.32</ele><time>2026-08-22T19:42:58Z</time></trkpt><trkpt lat="59.3764641322" lon="34.5997845009"><ele>191.44</ele><time>2026-08-22T19:43:08Z</time></trkpt><trkpt lat="59.3764622882" lon="34.5998032764"><ele>189.04</ele><time>2026-08-22T19:43:10Z</time></trkpt><trkpt lat="59.3764604442" lon="34.5998176094"><ele>193.36</ele><time>2026-08-22T19:43:14Z</time></trkpt><trkpt lat="59.3764547445" lon="34.5998197049"><ele>192.40</ele><time>2026-08-22T19:43:18Z</time></trkpt><trkpt lat="59.3764565885" lon="34.5998382289"><ele>192.88</ele><time>2026-08-22T19:43:24Z</time></trkpt><trkpt lat="59.3764625397" lon="34.5998534840"><ele>189.04</ele><time>2026-08-22T19:43:26Z</time></trkpt><trkpt lat="59.3764653057" lon="34.5998589322"><ele>194.80</ele><time>2026-08-22T19:43:27Z</time></trkpt><trkpt lat="59.3764664792" lon="34.5998636261"><ele>194.80</ele><time>2026-08-22T19:43:28Z</time></trkpt><trkpt lat="59.3764677364" lon="34.5998782944"><ele>190.48</ele><time>2026-08-22T19:43:30Z</time></trkpt><trkpt lat="59.3764693290" lon="34.5998858381"><ele>193.84</ele><time>2026-08-22T19:43:31Z</time></trkpt><trkpt lat="59.3764788844" lon="34.5998900291"><ele>196.73</ele><time>2026-08-22T19:43:33Z</time></trkpt><trkpt lat="59.3764886074" lon="34.5998801384"><ele>192.88</ele><time>2026-08-22T19:43:40Z</time></trkpt><trkpt lat="59.3764934689" lon="34.5998471975"><ele>190.00</ele><time>2026-08-22T19:43:43Z</time></trkpt><trkpt lat="59.3765065446" lon="34.5998333674"><ele>193.84</ele><time>2026-08-22T19:43:45Z</time></trkpt><trkpt lat="59.3764892779" lon="34.5998109877"><ele>195.77</ele><time>2026-08-22T19:43:52Z</time></trkpt><trkpt lat="59.3764653895" lon="34.5998396538"><ele>193.84</ele><time>2026-08-22T19:44:02Z</time></trkpt><trkpt lat="59.3764590193" lon="34.5998347923"><ele>197.21</ele><time>2026-08-22T19:44:05Z</time></trkpt><trkpt lat="59.3764615338" lon="34.5998385642"><ele>197.21</ele><time>2026-08-22T19:44:06Z</time></trkpt><trkpt lat="59.3764516432" lon="34.5998852514"><ele>197.21</ele><time>2026-08-22T19:44:19Z</time></trkpt><trkpt lat="59.3764296826" lon="34.5999148395"><ele>195.28</ele><time>2026-08-22T19:44:28Z</time></trkpt><trkpt lat="59.3764332030" lon="34.5999170188"><ele>196.73</ele><time>2026-08-22T19:44:30Z</time></trkpt><trkpt lat="59.3764011003" lon="34.5998898614"><ele>197.69</ele><time>2026-08-22T19:45:04Z</time></trkpt><trkpt lat="59.3763845041" lon="34.5999994129"><ele>198.65</ele><time>2026-08-22T19:45:24Z</time></trkpt><trkpt lat="59.3763625436" lon="34.6001181006"><ele>197.69</ele><time>2026-08-22T19:45:37Z</time></trkpt><trkpt lat="59.3763565086" lon="34.6001901012"><ele>198.17</ele><time>2026-08-22T19:45:53Z</time></trkpt><trkpt lat="59.3763473723" lon="34.6001482755"><ele>195.28</ele><time>2026-08-22T19:46:01Z</time></trkpt><trkpt lat="59.3763322011" lon="34.6001553163"><ele>197.69</ele><time>2026-08-22T19:46:04Z</time></trkpt><trkpt lat="59.3763036188" lon="34.6001497842"><ele>196.25</ele><time>2026-08-22T19:46:19Z</time></trkpt><trkpt lat="59.3762939796" lon="34.6002988983"><ele>198.17</ele><time>2026-08-22T19:46:35Z</time></trkpt><trkpt lat="59.3762880284" lon="34.6003410593"><ele>198.65</ele><time>2026-08-22T19:47:01Z</time></trkpt><trkpt lat="59.3762664869" lon="34.6003718209"><ele>198.17</ele><time>2026-08-22T19:47:27Z</time></trkpt><trkpt lat="59.3762158602" lon="34.6003251337"><ele>198.65</ele><time>2026-08-22T19:47:51Z</time></trkpt><trkpt lat="59.3762444425" lon="34.6003076155"><ele>196.73</ele><time>2026-08-22T19:48:12Z</time></trkpt><trkpt lat="59.3762576021" lon="34.6003069449"><ele>198.17</ele><time>2026-08-22T19:48:25Z</time></trkpt><trkpt lat="59.3762526568" lon="34.6004628483"><ele>198.17</ele><time>2026-08-22T19:48:41Z</time></trkpt><trkpt lat="59.3762529083" lon="34.6004988067"><ele>198.17</ele><time>2026-08-22T19:48:59Z</time></trkpt><trkpt lat="59.3762449455" lon="34.6006454900"><ele>196.73</ele><time>2026-08-22T19:49:17Z</time></trkpt><trkpt lat="59.3762608711" lon="34.6006865613"><ele>198.65</ele><time>2026-08-22T19:49:35Z</time></trkpt><trkpt lat="59.3762708455" lon="34.6007531136"><ele>199.13</ele><time>2026-08-22T19:50:01Z</time></trkpt><trkpt lat="59.3762589432" lon="34.6007606573"><ele>196.25</ele><time>2026-08-22T19:50:07Z</time></trkpt><trkpt lat="59.3762663193" lon="34.6007947717"><ele>198.65</ele><time>2026-08-22T19:50:10Z</time></trkpt><trkpt lat="59.3762608711" lon="34.6009836160"><ele>198.17</ele><time>2026-08-22T19:50:25Z</time></trkpt><trkpt lat="59.3762633856" lon="34.6012204047"><ele>198.65</ele><time>2026-08-22T19:50:41Z</time></trkpt><trkpt lat="59.3762337975" lon="34.6013481449"><ele>199.13</ele><time>2026-08-22T19:50:55Z</time></trkpt><trkpt lat="59.3761978392" lon="34.6013639029"><ele>200.09</ele><time>2026-08-22T19:51:26Z</time></trkpt><trkpt lat="59.3761794828" lon="34.6014153678"><ele>198.65</ele><time>2026-08-22T19:51:47Z</time></trkpt><trkpt lat="59.3761343043" lon="34.6015418507"><ele>198.65</ele><time>2026-08-22T19:52:02Z</time></trkpt><trkpt lat="59.3761527445" lon="34.6016656514"><ele>198.65</ele><time>2026-08-22T19:52:27Z</time></trkpt><trkpt lat="59.3761537503" lon="34.6016887017"><ele>197.69</ele><time>2026-08-22T19:52:47Z</time></trkpt><trkpt lat="59.3760586996" lon="34.6017000172"><ele>198.65</ele><time>2026-08-22T19:53:06Z</time></trkpt><trkpt lat="59.3760809116" lon="34.6019697469"><ele>200.09</ele><time>2026-08-22T19:53:23Z</time></trkpt><trkpt lat="59.3761125952" lon="34.6020984929"><ele>199.61</ele><time>2026-08-22T19:53:39Z</time></trkpt><trkpt lat="59.3761262577" lon="34.6022527199"><ele>199.61</ele><time>2026-08-22T19:53:55Z</time></trkpt><trkpt lat="59.3761203066" lon="34.6021735109"><ele>198.17</ele><time>2026-08-22T19:54:13Z</time></trkpt><trkpt lat="59.3761092424" lon="34.6021784563"><ele>199.13</ele><time>2026-08-22T19:54:15Z</time></trkpt><trkpt lat="59.3760800734" lon="34.6022336092"><ele>199.13</ele><time>2026-08-22T19:54:22Z</time></trkpt><trkpt lat="59.3760877009" lon="34.6024236269"><ele>200.09</ele><time>2026-08-22T19:54:37Z</time></trkpt><trkpt lat="59.3761144392" lon="34.6025846433"><ele>196.73</ele><time>2026-08-22T19:54:51Z</time></trkpt><trkpt lat="59.3761544209" lon="34.6027125511"><ele>197.21</ele><time>2026-08-22T19:55:04Z</time></trkpt><trkpt lat="59.3761623837" lon="34.6027143952"><ele>197.21</ele><time>2026-08-22T19:55:05Z</time></trkpt><trkpt lat="59.3761697598" lon="34.6027165744"><ele>197.21</ele><time>2026-08-22T19:55:06Z</time></trkpt><trkpt lat="59.3761713523" lon="34.6028115414"><ele>199.13</ele><time>2026-08-22T19:55:18Z</time></trkpt><trkpt lat="59.3762151897" lon="34.6030092705"><ele>199.13</ele><time>2026-08-22T19:55:31Z</time></trkpt><trkpt lat="59.3762280978" lon="34.6030746493"><ele>199.13</ele><time>2026-08-22T19:55:36Z</time></trkpt><trkpt lat="59.3762858491" lon="34.6032393537"><ele>200.09</ele><time>2026-08-22T19:55:50Z</time></trkpt><trkpt lat="59.3763777986" lon="34.6032971889"><ele>197.69</ele><time>2026-08-22T19:56:02Z</time></trkpt><trkpt lat="59.3764021061" lon="34.6033156291"><ele>199.61</ele><time>2026-08-22T19:56:05Z</time></trkpt><trkpt lat="59.3764360528" lon="34.6034187265"><ele>199.61</ele><time>2026-08-22T19:56:19Z</time></trkpt><trkpt lat="59.3764415011" lon="34.6034599654"><ele>199.61</ele><time>2026-08-22T19:56:28Z</time></trkpt><trkpt lat="59.3764694128" lon="34.6035990212"><ele>200.57</ele><time>2026-08-22T19:56:40Z</time></trkpt><trkpt lat="59.3764982466" lon="34.6036625560"><ele>199.61</ele><time>2026-08-22T19:56:52Z</time></trkpt><trkpt lat="59.3764793035" lon="34.6036456246"><ele>200.57</ele><time>2026-08-22T19:57:13Z</time></trkpt><trkpt lat="59.3764795549" lon="34.6036612149"><ele>196.73</ele><time>2026-08-22T19:57:16Z</time></trkpt><trkpt lat="59.3764812313" lon="34.6036780626"><ele>198.17</ele><time>2026-08-22T19:57:17Z</time></trkpt><trkpt lat="59.3764819019" lon="34.6036980953"><ele>199.13</ele><time>2026-08-22T19:57:18Z</time></trkpt><trkpt lat="59.3765245657" lon="34.6039065532"><ele>199.13</ele><time>2026-08-22T19:57:32Z</time></trkpt><trkpt lat="59.3765004259" lon="34.6040200442"><ele>200.09</ele><time>2026-08-22T19:57:45Z</time></trkpt><trkpt lat="59.3764593545" lon="34.6041115746"><ele>199.61</ele><time>2026-08-22T19:57:59Z</time></trkpt><trkpt lat="59.3764287606" lon="34.6042513847"><ele>199.61</ele><time>2026-08-22T19:58:11Z</time></trkpt><trkpt lat="59.3764052913" lon="34.6043927874"><ele>199.13</ele><time>2026-08-22T19:58:25Z</time></trkpt><trkpt lat="59.3763757031" lon="34.6044237167"><ele>200.09</ele><time>2026-08-22T19:58:41Z</time></trkpt><trkpt lat="59.3763720989" lon="34.6044704039"><ele>198.17</ele><time>2026-08-22T19:59:07Z</time></trkpt><trkpt lat="59.3763782177" lon="34.6045006625"><ele>200.09</ele><time>2026-08-22T19:59:16Z</time></trkpt><trkpt lat="59.3763804808" lon="34.6045045182"><ele>198.65</ele><time>2026-08-22T19:59:22Z</time></trkpt><trkpt lat="59.3764019385" lon="34.6045334358"><ele>200.09</ele><time>2026-08-22T19:59:47Z</time></trkpt><trkpt lat="59.3764181994" lon="34.6046094596"><ele>199.61</ele><time>2026-08-22T20:00:00Z</time></trkpt><trkpt lat="59.3764543254" lon="34.6047844738"><ele>197.69</ele><time>2026-08-22T20:00:17Z</time></trkpt><trkpt lat="59.3764777109" lon="34.6049232781"><ele>197.69</ele><time>2026-08-22T20:00:27Z</time></trkpt><trkpt lat="59.3764525652" lon="34.6049885731"><ele>197.69</ele><time>2026-08-22T20:00:38Z</time></trkpt><trkpt lat="59.3764768727" lon="34.6050571371"><ele>196.73</ele><time>2026-08-22T20:00:53Z</time></trkpt><trkpt lat="59.3764938880" lon="34.6050305665"><ele>202.49</ele><time>2026-08-22T20:00:55Z</time></trkpt><trkpt lat="59.3765037786" lon="34.6050226875"><ele>198.17</ele><time>2026-08-22T20:00:56Z</time></trkpt><trkpt lat="59.3765073828" lon="34.6050157305"><ele>202.49</ele><time>2026-08-22T20:00:57Z</time></trkpt><trkpt lat="59.3765444309" lon="34.6050013974"><ele>194.80</ele><time>2026-08-22T20:01:04Z</time></trkpt><trkpt lat="59.3765446823" lon="34.6050026547"><ele>196.73</ele><time>2026-08-22T20:01:05Z</time></trkpt><trkpt lat="59.3765409943" lon="34.6050089411"><ele>200.09</ele><time>2026-08-22T20:01:07Z</time></trkpt><trkpt lat="59.3765393179" lon="34.6050231904"><ele>201.53</ele><time>2026-08-22T20:01:09Z</time></trkpt><trkpt lat="59.3765403237" lon="34.6050123777"><ele>198.17</ele><time>2026-08-22T20:01:26Z</time></trkpt><trkpt lat="59.3765291758" lon="34.6050252020"><ele>194.80</ele><time>2026-08-22T20:01:34Z</time></trkpt><trkpt lat="59.3765266612" lon="34.6050427202"><ele>183.27</ele><time>2026-08-22T20:01:35Z</time></trkpt><trkpt lat="59.3765271641" lon="34.6050464083"><ele>192.88</ele><time>2026-08-22T20:01:36Z</time></trkpt><trkpt lat="59.3765248172" lon="34.6050747391"><ele>200.09</ele><time>2026-08-22T20:01:37Z</time></trkpt><trkpt lat="59.3765224703" lon="34.6050818637"><ele>201.53</ele><time>2026-08-22T20:01:39Z</time></trkpt><trkpt lat="59.3765248172" lon="34.6050578076"><ele>201.05</ele><time>2026-08-22T20:01:45Z</time></trkpt><trkpt lat="59.3765267450" lon="34.6050542872"><ele>202.49</ele><time>2026-08-22T20:01:47Z</time></trkpt><trkpt lat="59.3765274156" lon="34.6050484199"><ele>198.65</ele><time>2026-08-22T20:01:48Z</time></trkpt><trkpt lat="59.3765285052" lon="34.6050458215"><ele>199.13</ele><time>2026-08-22T20:01:49Z</time></trkpt><trkpt lat="59.3765271641" lon="34.6050405409"><ele>204.42</ele><time>2026-08-22T20:01:58Z</time></trkpt><trkpt lat="59.3765257392" lon="34.6050388645"><ele>204.42</ele><time>2026-08-22T20:01:59Z</time></trkpt><trkpt lat="59.3764841650" lon="34.6049412154"><ele>207.78</ele><time>2026-08-22T20:02:26Z</time></trkpt><trkpt lat="59.3764620367" lon="34.6049609967"><ele>205.86</ele><time>2026-08-22T20:02:35Z</time></trkpt><trkpt lat="59.3765130825" lon="34.6050651837"><ele>205.38</ele><time>2026-08-22T20:03:02Z</time></trkpt><trkpt lat="59.3765161000" lon="34.6050713025"><ele>212.11</ele><time>2026-08-22T20:03:29Z</time></trkpt><trkpt lat="59.3765164353" lon="34.6050666086"><ele>212.11</ele><time>2026-08-22T20:03:30Z</time></trkpt><trkpt lat="59.3764945585" lon="34.6050420497"><ele>215.95</ele><time>2026-08-22T20:03:46Z</time></trkpt><trkpt lat="59.3765164353" lon="34.6050640102"><ele>215.95</ele><time>2026-08-22T20:04:15Z</time></trkpt><trkpt lat="59.3765175249" lon="34.6050643455"><ele>220.28</ele><time>2026-08-22T20:04:17Z</time></trkpt><trkpt lat="59.3765188660" lon="34.6050657704"><ele>219.80</ele><time>2026-08-22T20:04:18Z</time></trkpt><trkpt lat="59.3765009288" lon="34.6050754096"><ele>219.32</ele><time>2026-08-22T20:04:50Z</time></trkpt><trkpt lat="59.3765010126" lon="34.6050730627"><ele>225.57</ele><time>2026-08-22T20:05:00Z</time></trkpt><trkpt lat="59.3765032757" lon="34.6050740685"><ele>225.57</ele><time>2026-08-22T20:05:01Z</time></trkpt><trkpt lat="59.3765205424" lon="34.6051186603"><ele>228.93</ele><time>2026-08-22T20:05:12Z</time></trkpt><trkpt lat="59.3764777947" lon="34.6051301435"><ele>225.57</ele><time>2026-08-22T20:05:22Z</time></trkpt><trkpt lat="59.3764659762" lon="34.6051350888"><ele>226.53</ele><time>2026-08-22T20:05:23Z</time></trkpt><trkpt lat="59.3764567561" lon="34.6051436383"><ele>220.76</ele><time>2026-08-22T20:05:26Z</time></trkpt><trkpt lat="59.3764592707" lon="34.6051383577"><ele>224.12</ele><time>2026-08-22T20:05:27Z</time></trkpt><trkpt lat="59.3764720112" lon="34.6051199175"><ele>227.97</ele><time>2026-08-22T20:05:29Z</time></trkpt><trkpt lat="59.3764828239" lon="34.6051158104"><ele>229.89</ele><time>2026-08-22T20:05:31Z</time></trkpt><trkpt lat="59.3765423354" lon="34.6050831210"><ele>229.41</ele><time>2026-08-22T20:05:51Z</time></trkpt><trkpt lat="59.3765559979" lon="34.6051127091"><ele>232.78</ele><time>2026-08-22T20:05:59Z</time></trkpt><trkpt lat="59.3765856698" lon="34.6051874757"><ele>234.70</ele><time>2026-08-22T20:06:11Z</time></trkpt><trkpt lat="59.3766078819" lon="34.6052275412"><ele>234.70</ele><time>2026-08-22T20:06:18Z</time></trkpt><trkpt lat="59.3766523059" lon="34.6052757371"><ele>235.66</ele><time>2026-08-22T20:06:30Z</time></trkpt><trkpt lat="59.3767031003" lon="34.6053194068"><ele>237.10</ele><time>2026-08-22T20:06:41Z</time></trkpt><trkpt lat="59.3767908588" lon="34.6053331532"><ele>238.06</ele><time>2026-08-22T20:06:53Z</time></trkpt><trkpt lat="59.3768931180" lon="34.6053817682"><ele>239.51</ele><time>2026-08-22T20:07:05Z</time></trkpt><trkpt lat="59.3770082016" lon="34.6054602228"><ele>241.43</ele><time>2026-08-22T20:07:20Z</time></trkpt><trkpt lat="59.3770284858" lon="34.6055046469"><ele>239.99</ele><time>2026-08-22T20:07:23Z</time></trkpt><trkpt lat="59.3770406395" lon="34.6054993663"><ele>241.43</ele><time>2026-08-22T20:07:25Z</time></trkpt><trkpt lat="59.3771260511" lon="34.6055709478"><ele>241.43</ele><time>2026-08-22T20:07:38Z</time></trkpt><trkpt lat="59.3772008177" lon="34.6056115162"><ele>242.87</ele><time>2026-08-22T20:07:49Z</time></trkpt><trkpt lat="59.3772664480" lon="34.6055302117"><ele>244.31</ele><time>2026-08-22T20:08:02Z</time></trkpt><trkpt lat="59.3772960361" lon="34.6055234224"><ele>240.95</ele><time>2026-08-22T20:08:07Z</time></trkpt><trkpt lat="59.3773003947" lon="34.6055091731"><ele>241.43</ele><time>2026-08-22T20:08:08Z</time></trkpt><trkpt lat="59.3773022387" lon="34.6054926608"><ele>241.91</ele><time>2026-08-22T20:08:10Z</time></trkpt><trkpt lat="59.3773298152" lon="34.6054951753"><ele>244.79</ele><time>2026-08-22T20:08:15Z</time></trkpt><trkpt lat="59.3773681205" lon="34.6054923255"><ele>242.39</ele><time>2026-08-22T20:08:21Z</time></trkpt><trkpt lat="59.3773878179" lon="34.6055014618"><ele>239.02</ele><time>2026-08-22T20:08:27Z</time></trkpt><trkpt lat="59.3773904163" lon="34.6055088378"><ele>244.79</ele><time>2026-08-22T20:08:29Z</time></trkpt><trkpt lat="59.3773930985" lon="34.6054994501"><ele>246.23</ele><time>2026-08-22T20:08:31Z</time></trkpt><trkpt lat="59.3774473295" lon="34.6054826025"><ele>245.75</ele><time>2026-08-22T20:08:41Z</time></trkpt><trkpt lat="59.3775220960" lon="34.6054781601"><ele>247.20</ele><time>2026-08-22T20:08:51Z</time></trkpt><trkpt lat="59.3775843736" lon="34.6055007912"><ele>246.23</ele><time>2026-08-22T20:09:03Z</time></trkpt><trkpt lat="59.3776526023" lon="34.6055744682"><ele>248.16</ele><time>2026-08-22T20:09:15Z</time></trkpt><trkpt lat="59.3777256925" lon="34.6056404337"><ele>249.12</ele><time>2026-08-22T20:09:27Z</time></trkpt><trkpt lat="59.3778414465" lon="34.6056318004"><ele>249.12</ele><time>2026-08-22T20:09:42Z</time></trkpt><trkpt lat="59.3779332284" lon="34.6057366580"><ele>250.56</ele><time>2026-08-22T20:09:56Z</time></trkpt><trkpt lat="59.3780208193" lon="34.6058436111"><ele>251.04</ele><time>2026-08-22T20:10:09Z</time></trkpt><trkpt lat="59.3781365734" lon="34.6059238259"><ele>252.00</ele><time>2026-08-22T20:10:22Z</time></trkpt><trkpt lat="59.3782311212" lon="34.6059008595"><ele>252.00</ele><time>2026-08-22T20:10:33Z</time></trkpt><trkpt lat="59.3782901298" lon="34.6059502289"><ele>250.08</ele><time>2026-08-22T20:10:40Z</time></trkpt><trkpt lat="59.3783273455" lon="34.6059558447"><ele>252.96</ele><time>2026-08-22T20:10:46Z</time></trkpt><trkpt lat="59.3783348054" lon="34.6059701778"><ele>253.44</ele><time>2026-08-22T20:10:47Z</time></trkpt><trkpt lat="59.3784286827" lon="34.6060544997"><ele>254.41</ele><time>2026-08-22T20:11:03Z</time></trkpt><trkpt lat="59.3785296008" lon="34.6062300168"><ele>254.89</ele><time>2026-08-22T20:11:21Z</time></trkpt><trkpt lat="59.3785634637" lon="34.6064616088"><ele>254.41</ele><time>2026-08-22T20:11:35Z</time></trkpt><trkpt lat="59.3786479533" lon="34.6065950487"><ele>255.37</ele><time>2026-08-22T20:11:50Z</time></trkpt><trkpt lat="59.3787417468" lon="34.6067161672"><ele>257.29</ele><time>2026-08-22T20:12:06Z</time></trkpt><trkpt lat="59.3788555730" lon="34.6067638602"><ele>258.25</ele><time>2026-08-22T20:12:21Z</time></trkpt><trkpt lat="59.3789942097" lon="34.6069039218"><ele>258.25</ele><time>2026-08-22T20:12:35Z</time></trkpt><trkpt lat="59.3789990712" lon="34.6069498546"><ele>243.83</ele><time>2026-08-22T20:12:38Z</time></trkpt><trkpt lat="59.3789972272" lon="34.6069603320"><ele>214.51</ele><time>2026-08-22T20:12:39Z</time></trkpt><trkpt lat="59.3790022563" lon="34.6069735754"><ele>237.58</ele><time>2026-08-22T20:12:40Z</time></trkpt><trkpt lat="59.3790063635" lon="34.6069851425"><ele>245.75</ele><time>2026-08-22T20:12:41Z</time></trkpt><trkpt lat="59.3790126499" lon="34.6069893334"><ele>221.24</ele><time>2026-08-22T20:12:42Z</time></trkpt><trkpt lat="59.3790196069" lon="34.6069880761"><ele>250.08</ele><time>2026-08-22T20:12:43Z</time></trkpt><trkpt lat="59.3790283240" lon="34.6069862321"><ele>249.60</ele><time>2026-08-22T20:12:44Z</time></trkpt><trkpt lat="59.3790373765" lon="34.6069879923"><ele>236.14</ele><time>2026-08-22T20:12:45Z</time></trkpt><trkpt lat="59.3790395558" lon="34.6070024930"><ele>232.78</ele><time>2026-08-22T20:12:47Z</time></trkpt><trkpt lat="59.3790408969" lon="34.6070116293"><ele>255.85</ele><time>2026-08-22T20:12:48Z</time></trkpt><trkpt lat="59.3790432438" lon="34.6070161555"><ele>253.93</ele><time>2026-08-22T20:12:49Z</time></trkpt><trkpt lat="59.3790450878" lon="34.6070257109"><ele>257.29</ele><time>2026-08-22T20:12:51Z</time></trkpt><trkpt lat="59.3790491112" lon="34.6070409659"><ele>258.25</ele><time>2026-08-22T20:12:53Z</time></trkpt><trkpt lat="59.3790999893" lon="34.6071789321"><ele>259.69</ele><time>2026-08-22T20:13:10Z</time></trkpt><trkpt lat="59.3791205250" lon="34.6073324885"><ele>258.73</ele><time>2026-08-22T20:13:24Z</time></trkpt><trkpt lat="59.3791617639" lon="34.6075296309"><ele>259.69</ele><time>2026-08-22T20:13:36Z</time></trkpt><trkpt lat="59.3792422302" lon="34.6076305490"><ele>260.17</ele><time>2026-08-22T20:13:49Z</time></trkpt><trkpt lat="59.3793379515" lon="34.6078182198"><ele>260.65</ele><time>2026-08-22T20:14:04Z</time></trkpt><trkpt lat="59.3794269674" lon="34.6078687627"><ele>261.14</ele><time>2026-08-22T20:14:16Z</time></trkpt><trkpt lat="59.3794537056" lon="34.6079174615"><ele>260.65</ele><time>2026-08-22T20:14:25Z</time></trkpt><trkpt lat="59.3795350939" lon="34.6079888754"><ele>262.58</ele><time>2026-08-22T20:14:37Z</time></trkpt><trkpt lat="59.3796207570" lon="34.6080173738"><ele>263.54</ele><time>2026-08-22T20:14:51Z</time></trkpt><trkpt lat="59.3797048274" lon="34.6079913899"><ele>263.06</ele><time>2026-08-22T20:15:06Z</time></trkpt><trkpt lat="59.3797735590" lon="34.6080084052"><ele>264.02</ele><time>2026-08-22T20:15:18Z</time></trkpt><trkpt lat="59.3798677716" lon="34.6080178767"><ele>264.50</ele><time>2026-08-22T20:15:35Z</time></trkpt><trkpt lat="59.3799882196" lon="34.6080505662"><ele>264.98</ele><time>2026-08-22T20:15:49Z</time></trkpt><trkpt lat="59.3800178915" lon="34.6080482192"><ele>261.62</ele><time>2026-08-22T20:15:57Z</time></trkpt><trkpt lat="59.3800251838" lon="34.6080585290"><ele>264.98</ele><time>2026-08-22T20:15:58Z</time></trkpt><trkpt lat="59.3801566958" lon="34.6081703436"><ele>265.46</ele><time>2026-08-22T20:16:14Z</time></trkpt><trkpt lat="59.3801823445" lon="34.6081651468"><ele>264.50</ele><time>2026-08-22T20:16:28Z</time></trkpt><trkpt lat="59.3802624755" lon="34.6082439367"><ele>265.46</ele><time>2026-08-22T20:16:42Z</time></trkpt><trkpt lat="59.3803269323" lon="34.6081876941"><ele>265.46</ele><time>2026-08-22T20:16:54Z</time></trkpt><trkpt lat="59.3803654891" lon="34.6081558429"><ele>265.94</ele><time>2026-08-22T20:17:04Z</time></trkpt><trkpt lat="59.3803681713" lon="34.6081364807"><ele>261.62</ele><time>2026-08-22T20:17:06Z</time></trkpt><trkpt lat="59.3803685904" lon="34.6081407554"><ele>252.48</ele><time>2026-08-22T20:17:07Z</time></trkpt><trkpt lat="59.3803825043" lon="34.6081285179"><ele>255.85</ele><time>2026-08-22T20:17:08Z</time></trkpt><trkpt lat="59.3803907186" lon="34.6081267577"><ele>252.00</ele><time>2026-08-22T20:17:09Z</time></trkpt><trkpt lat="59.3804114219" lon="34.6081166156"><ele>257.29</ele><time>2026-08-22T20:17:13Z</time></trkpt><trkpt lat="59.3804279342" lon="34.6081358939"><ele>264.98</ele><time>2026-08-22T20:17:15Z</time></trkpt><trkpt lat="59.3804914691" lon="34.6081585251"><ele>265.46</ele><time>2026-08-22T20:17:28Z</time></trkpt><trkpt lat="59.3805503938" lon="34.6081543341"><ele>260.17</ele><time>2026-08-22T20:17:38Z</time></trkpt><trkpt lat="59.3805639725" lon="34.6081692539"><ele>264.50</ele><time>2026-08-22T20:17:40Z</time></trkpt><trkpt lat="59.3805664033" lon="34.6081711818"><ele>263.06</ele><time>2026-08-22T20:17:41Z</time></trkpt><trkpt lat="59.3805653136" lon="34.6081809886"><ele>265.94</ele><time>2026-08-22T20:17:42Z</time></trkpt><trkpt lat="59.3805654813" lon="34.6081859339"><ele>265.94</ele><time>2026-08-22T20:17:43Z</time></trkpt><trkpt lat="59.3806057144" lon="34.6080999356"><ele>266.42</ele><time>2026-08-22T20:17:56Z</time></trkpt><trkpt lat="59.3806929700" lon="34.6080648154"><ele>265.94</ele><time>2026-08-22T20:18:12Z</time></trkpt><trkpt lat="59.3807432614" lon="34.6081915498"><ele>265.94</ele><time>2026-08-22T20:18:29Z</time></trkpt><trkpt lat="59.3807940558" lon="34.6082936414"><ele>263.06</ele><time>2026-08-22T20:18:44Z</time></trkpt><trkpt lat="59.3808590993" lon="34.6083584335"><ele>264.98</ele><time>2026-08-22T20:18:52Z</time></trkpt><trkpt lat="59.3809839897" lon="34.6085029375"><ele>265.46</ele><time>2026-08-22T20:19:08Z</time></trkpt><trkpt lat="59.3810683116" lon="34.6087206155"><ele>264.02</ele><time>2026-08-22T20:19:25Z</time></trkpt><trkpt lat="59.3811034318" lon="34.6088740043"><ele>266.42</ele><time>2026-08-22T20:19:35Z</time></trkpt><trkpt lat="59.3811124843" lon="34.6090300754"><ele>265.46</ele><time>2026-08-22T20:19:47Z</time></trkpt><trkpt lat="59.3811588362" lon="34.6091421414"><ele>265.46</ele><time>2026-08-22T20:20:03Z</time></trkpt><trkpt lat="59.3811227940" lon="34.6092589013"><ele>264.98</ele><time>2026-08-22T20:20:18Z</time></trkpt><trkpt lat="59.3811658770" lon="34.6093791816"><ele>264.50</ele><time>2026-08-22T20:20:32Z</time></trkpt><trkpt lat="59.3811700679" lon="34.6094320714"><ele>265.46</ele><time>2026-08-22T20:20:39Z</time></trkpt><trkpt lat="59.3812132347" lon="34.6094297245"><ele>260.17</ele><time>2026-08-22T20:20:45Z</time></trkpt><trkpt lat="59.3812186830" lon="34.6094278805"><ele>260.17</ele><time>2026-08-22T20:20:46Z</time></trkpt><trkpt lat="59.3812783621" lon="34.6094537806"><ele>263.54</ele><time>2026-08-22T20:20:54Z</time></trkpt><trkpt lat="59.3812811282" lon="34.6094866376"><ele>265.46</ele><time>2026-08-22T20:20:56Z</time></trkpt><trkpt lat="59.3813589960" lon="34.6096828580"><ele>265.46</ele><time>2026-08-22T20:21:11Z</time></trkpt><trkpt lat="59.3813376222" lon="34.6097807586"><ele>264.98</ele><time>2026-08-22T20:21:24Z</time></trkpt><trkpt lat="59.3814374506" lon="34.6097700298"><ele>264.98</ele><time>2026-08-22T20:21:36Z</time></trkpt><trkpt lat="59.3814967945" lon="34.6097227558"><ele>259.69</ele><time>2026-08-22T20:21:44Z</time></trkpt><trkpt lat="59.3815146480" lon="34.6097183134"><ele>260.17</ele><time>2026-08-22T20:21:45Z</time></trkpt><trkpt lat="59.3815185037" lon="34.6097069979"><ele>261.14</ele><time>2026-08-22T20:21:47Z</time></trkpt><trkpt lat="59.3815333396" lon="34.6097005438"><ele>264.50</ele><time>2026-08-22T20:21:52Z</time></trkpt><trkpt lat="59.3815419730" lon="34.6096936706"><ele>264.50</ele><time>2026-08-22T20:21:53Z</time></trkpt><trkpt lat="59.3816246185" lon="34.6096903179"><ele>260.17</ele><time>2026-08-22T20:22:06Z</time></trkpt><trkpt lat="59.3816325814" lon="34.6096853726"><ele>263.54</ele><time>2026-08-22T20:22:08Z</time></trkpt><trkpt lat="59.3816335034" lon="34.6096816007"><ele>263.06</ele><time>2026-08-22T20:22:09Z</time></trkpt><trkpt lat="59.3817383610" lon="34.6096938383"><ele>262.10</ele><time>2026-08-22T20:22:24Z</time></trkpt><trkpt lat="59.3817914184" lon="34.6097196545"><ele>260.17</ele><time>2026-08-22T20:22:31Z</time></trkpt><trkpt lat="59.3818075117" lon="34.6097479016"><ele>262.58</ele><time>2026-08-22T20:22:33Z</time></trkpt><trkpt lat="59.3818675261" lon="34.6097108535"><ele>262.10</ele><time>2026-08-22T20:22:48Z</time></trkpt><trkpt lat="59.3819474056" lon="34.6097779088"><ele>261.62</ele><time>2026-08-22T20:23:03Z</time></trkpt><trkpt lat="59.3820197415" lon="34.6096634958"><ele>263.06</ele><time>2026-08-22T20:23:16Z</time></trkpt><trkpt lat="59.3820163049" lon="34.6096440498"><ele>262.10</ele><time>2026-08-22T20:23:29Z</time></trkpt><trkpt lat="59.3820318952" lon="34.6095623262"><ele>262.10</ele><time>2026-08-22T20:23:44Z</time></trkpt><trkpt lat="59.3821099307" lon="34.6094831172"><ele>261.62</ele><time>2026-08-22T20:23:59Z</time></trkpt><trkpt lat="59.3821532652" lon="34.6096158028"><ele>262.10</ele><time>2026-08-22T20:24:14Z</time></trkpt><trkpt lat="59.3821986113" lon="34.6097080875"><ele>261.14</ele><time>2026-08-22T20:24:28Z</time></trkpt><trkpt lat="59.3823105097" lon="34.6098192316"><ele>261.14</ele><time>2026-08-22T20:24:44Z</time></trkpt><trkpt lat="59.3823376670" lon="34.6098788269"><ele>260.65</ele><time>2026-08-22T20:24:59Z</time></trkpt><trkpt lat="59.3823418580" lon="34.6098947525"><ele>259.69</ele><time>2026-08-22T20:25:19Z</time></trkpt><trkpt lat="59.3823473901" lon="34.6098913159"><ele>256.33</ele><time>2026-08-22T20:25:20Z</time></trkpt><trkpt lat="59.3823596276" lon="34.6098830178"><ele>252.00</ele><time>2026-08-22T20:25:22Z</time></trkpt><trkpt lat="59.3823666684" lon="34.6098818444"><ele>253.93</ele><time>2026-08-22T20:25:23Z</time></trkpt><trkpt lat="59.3823752180" lon="34.6098777372"><ele>255.37</ele><time>2026-08-22T20:25:25Z</time></trkpt><trkpt lat="59.3824082427" lon="34.6098608058"><ele>259.21</ele><time>2026-08-22T20:25:42Z</time></trkpt><trkpt lat="59.3824136909" lon="34.6099074092"><ele>259.69</ele><time>2026-08-22T20:25:44Z</time></trkpt><trkpt lat="59.3823639862" lon="34.6099205688"><ele>259.21</ele><time>2026-08-22T20:26:14Z</time></trkpt><trkpt lat="59.3823729549" lon="34.6099333093"><ele>260.17</ele><time>2026-08-22T20:26:21Z</time></trkpt><trkpt lat="59.3823600467" lon="34.6099323872"><ele>256.81</ele><time>2026-08-22T20:26:31Z</time></trkpt><trkpt lat="59.3823577836" lon="34.6099307109"><ele>259.21</ele><time>2026-08-22T20:26:32Z</time></trkpt><trkpt lat="59.3823712785" lon="34.6098854486"><ele>257.77</ele><time>2026-08-22T20:27:03Z</time></trkpt><trkpt lat="59.3823853601" lon="34.6098866221"><ele>261.14</ele><time>2026-08-22T20:27:08Z</time></trkpt><trkpt lat="59.3823843542" lon="34.6098827664"><ele>260.17</ele><time>2026-08-22T20:27:09Z</time></trkpt><trkpt lat="59.3823725358" lon="34.6098400187"><ele>260.65</ele><time>2026-08-22T20:27:36Z</time></trkpt><trkpt lat="59.3823590409" lon="34.6099960059"><ele>257.77</ele><time>2026-08-22T20:28:00Z</time></trkpt><trkpt lat="59.3824062310" lon="34.6101200581"><ele>257.77</ele><time>2026-08-22T20:28:11Z</time></trkpt><trkpt lat="59.3824265152" lon="34.6103112493"><ele>256.33</ele><time>2026-08-22T20:28:23Z</time></trkpt><trkpt lat="59.3824159540" lon="34.6104539093"><ele>256.81</ele><time>2026-08-22T20:28:36Z</time></trkpt><trkpt lat="59.3824831769" lon="34.6105620358"><ele>254.89</ele><time>2026-08-22T20:28:54Z</time></trkpt><trkpt lat="59.3824821711" lon="34.6105639637"><ele>254.41</ele><time>2026-08-22T20:28:56Z</time></trkpt><trkpt lat="59.3825048022" lon="34.6106769517"><ele>254.41</ele><time>2026-08-22T20:29:12Z</time></trkpt><trkpt lat="59.3825814128" lon="34.6108107269"><ele>254.89</ele><time>2026-08-22T20:29:28Z</time></trkpt><trkpt lat="59.3826333806" lon="34.6109695639"><ele>254.89</ele><time>2026-08-22T20:29:42Z</time></trkpt><trkpt lat="59.3826669082" lon="34.6111481823"><ele>252.96</ele><time>2026-08-22T20:29:55Z</time></trkpt><trkpt lat="59.3826965801" lon="34.6113033313"><ele>254.89</ele><time>2026-08-22T20:30:07Z</time></trkpt><trkpt lat="59.3827207200" lon="34.6114413813"><ele>254.41</ele><time>2026-08-22T20:30:21Z</time></trkpt><trkpt lat="59.3827223964" lon="34.6115526091"><ele>253.44</ele><time>2026-08-22T20:30:32Z</time></trkpt><trkpt lat="59.3827813212" lon="34.6116177365"><ele>203.46</ele><time>2026-08-22T20:30:43Z</time></trkpt><trkpt lat="59.3827850092" lon="34.6116177365"><ele>231.81</ele><time>2026-08-22T20:30:44Z</time></trkpt><trkpt lat="59.3827925529" lon="34.6115932614"><ele>201.53</ele><time>2026-08-22T20:30:46Z</time></trkpt><trkpt lat="59.3827943970" lon="34.6115868073"><ele>228.93</ele><time>2026-08-22T20:30:48Z</time></trkpt><trkpt lat="59.3827903736" lon="34.6115873102"><ele>243.83</ele><time>2026-08-22T20:30:49Z</time></trkpt><trkpt lat="59.3827871047" lon="34.6115759946"><ele>245.75</ele><time>2026-08-22T20:30:51Z</time></trkpt><trkpt lat="59.3827857636" lon="34.6116013080"><ele>249.12</ele><time>2026-08-22T20:30:55Z</time></trkpt><trkpt lat="59.3827878591" lon="34.6116316505"><ele>243.83</ele><time>2026-08-22T20:31:01Z</time></trkpt><trkpt lat="59.3827911280" lon="34.6116418764"><ele>246.72</ele><time>2026-08-22T20:31:02Z</time></trkpt><trkpt lat="59.3827896193" lon="34.6116564609"><ele>239.51</ele><time>2026-08-22T20:31:03Z</time></trkpt><trkpt lat="59.3827871885" lon="34.6116593108"><ele>225.57</ele><time>2026-08-22T20:31:04Z</time></trkpt><trkpt lat="59.3827882782" lon="34.6116728056"><ele>235.18</ele><time>2026-08-22T20:31:05Z</time></trkpt><trkpt lat="59.3827891164" lon="34.6116669383"><ele>242.39</ele><time>2026-08-22T20:31:06Z</time></trkpt><trkpt lat="59.3827860989" lon="34.6116869710"><ele>246.23</ele><time>2026-08-22T20:31:07Z</time></trkpt><trkpt lat="59.3827850092" lon="34.6116817743"><ele>249.60</ele><time>2026-08-22T20:31:08Z</time></trkpt><trkpt lat="59.3827664014" lon="34.6116557065"><ele>252.00</ele><time>2026-08-22T20:31:13Z</time></trkpt><trkpt lat="59.3827751186" lon="34.6116305608"><ele>252.96</ele><time>2026-08-22T20:31:21Z</time></trkpt><trkpt lat="59.3827748671" lon="34.6115966979"><ele>252.96</ele><time>2026-08-22T20:31:39Z</time></trkpt><trkpt lat="59.3828130886" lon="34.6114834584"><ele>252.96</ele><time>2026-08-22T20:31:56Z</time></trkpt><trkpt lat="59.3828579318" lon="34.6114654373"><ele>252.96</ele><time>2026-08-22T20:32:16Z</time></trkpt><trkpt lat="59.3828698341" lon="34.6113926824"><ele>252.96</ele><time>2026-08-22T20:32:38Z</time></trkpt><trkpt lat="59.3828959856" lon="34.6114427224"><ele>253.44</ele><time>2026-08-22T20:33:03Z</time></trkpt><trkpt lat="59.3829207961" lon="34.6114337537"><ele>253.44</ele><time>2026-08-22T20:33:31Z</time></trkpt><trkpt lat="59.3828862626" lon="34.6114050038"><ele>252.96</ele><time>2026-08-22T20:33:57Z</time></trkpt><trkpt lat="59.3829087261" lon="34.6114200912"><ele>247.68</ele><time>2026-08-22T20:34:13Z</time></trkpt><trkpt lat="59.3829114083" lon="34.6114304848"><ele>247.68</ele><time>2026-08-22T20:34:14Z</time></trkpt><trkpt lat="59.3829044513" lon="34.6114724781"><ele>250.56</ele><time>2026-08-22T20:34:18Z</time></trkpt><trkpt lat="59.3829130009" lon="34.6114782616"><ele>250.08</ele><time>2026-08-22T20:34:32Z</time></trkpt><trkpt lat="59.3829335365" lon="34.6114496794"><ele>251.52</ele><time>2026-08-22T20:34:48Z</time></trkpt><trkpt lat="59.3829120789" lon="34.6114398725"><ele>251.04</ele><time>2026-08-22T20:35:02Z</time></trkpt><trkpt lat="59.3829224724" lon="34.6114476677"><ele>251.52</ele><time>2026-08-22T20:35:17Z</time></trkpt><trkpt lat="59.3829635438" lon="34.6113249566"><ele>251.04</ele><time>2026-08-22T20:35:31Z</time></trkpt><trkpt lat="59.3829960655" lon="34.6113244537"><ele>249.12</ele><time>2026-08-22T20:35:44Z</time></trkpt><trkpt lat="59.3829936348" lon="34.6113211010"><ele>248.16</ele><time>2026-08-22T20:35:46Z</time></trkpt><trkpt lat="59.3830171041" lon="34.6112897526"><ele>246.72</ele><time>2026-08-22T20:36:18Z</time></trkpt><trkpt lat="59.3829684891" lon="34.6113098692"><ele>247.68</ele><time>2026-08-22T20:36:36Z</time></trkpt><trkpt lat="59.3828865979" lon="34.6114731487"><ele>249.60</ele><time>2026-08-22T20:36:55Z</time></trkpt><trkpt lat="59.3828644697" lon="34.6115120407"><ele>249.60</ele><time>2026-08-22T20:37:08Z</time></trkpt><trkpt lat="59.3827817403" lon="34.6114556305"><ele>250.56</ele><time>2026-08-22T20:37:23Z</time></trkpt><trkpt lat="59.3826944847" lon="34.6115030721"><ele>250.56</ele><time>2026-08-22T20:37:38Z</time></trkpt><trkpt lat="59.3826742843" lon="34.6115841251"><ele>251.52</ele><time>2026-08-22T20:37:53Z</time></trkpt><trkpt lat="59.3825865258" lon="34.6115682833"><ele>251.52</ele><time>2026-08-22T20:38:09Z</time></trkpt><trkpt lat="59.3824803270" lon="34.6116160601"><ele>252.00</ele><time>2026-08-22T20:38:24Z</time></trkpt><trkpt lat="59.3824262638" lon="34.6117046569"><ele>252.48</ele><time>2026-08-22T20:38:37Z</time></trkpt><trkpt lat="59.3823386729" lon="34.6117743943"><ele>253.44</ele><time>2026-08-22T20:38:53Z</time></trkpt><trkpt lat="59.3822896387" lon="34.6117627434"><ele>253.93</ele><time>2026-08-22T20:39:11Z</time></trkpt><trkpt lat="59.3822582904" lon="34.6118036471"><ele>254.41</ele><time>2026-08-22T20:39:27Z</time></trkpt><trkpt lat="59.3822600506" lon="34.6118800063"><ele>254.89</ele><time>2026-08-22T20:39:42Z</time></trkpt><trkpt lat="59.3822596315" lon="34.6119195689"><ele>252.96</ele><time>2026-08-22T20:39:47Z</time></trkpt><trkpt lat="59.3822324742" lon="34.6119841095"><ele>252.00</ele><time>2026-08-22T20:40:04Z</time></trkpt><trkpt lat="59.3822293729" lon="34.6119780745"><ele>254.41</ele><time>2026-08-22T20:40:06Z</time></trkpt><trkpt lat="59.3821902294" lon="34.6120776515"><ele>252.96</ele><time>2026-08-22T20:40:21Z</time></trkpt><trkpt lat="59.3821670115" lon="34.6120936610"><ele>251.52</ele><time>2026-08-22T20:40:24Z</time></trkpt><trkpt lat="59.3821541034" lon="34.6121065691"><ele>248.16</ele><time>2026-08-22T20:40:33Z</time></trkpt><trkpt lat="59.3821536843" lon="34.6121065691"><ele>245.27</ele><time>2026-08-22T20:40:35Z</time></trkpt><trkpt lat="59.3821769860" lon="34.6122165397"><ele>250.56</ele><time>2026-08-22T20:40:41Z</time></trkpt><trkpt lat="59.3821574561" lon="34.6123374067"><ele>250.56</ele><time>2026-08-22T20:40:55Z</time></trkpt><trkpt lat="59.3821088411" lon="34.6123597026"><ele>249.12</ele><time>2026-08-22T20:41:07Z</time></trkpt><trkpt lat="59.3821096793" lon="34.6124732774"><ele>247.68</ele><time>2026-08-22T20:41:19Z</time></trkpt><trkpt lat="59.3821259402" lon="34.6126361378"><ele>246.72</ele><time>2026-08-22T20:41:33Z</time></trkpt><trkpt lat="59.3820997048" lon="34.6127496287"><ele>245.75</ele><time>2026-08-22T20:41:48Z</time></trkpt><trkpt lat="59.3820766546" lon="34.6127498802"><ele>242.39</ele><time>2026-08-22T20:41:56Z</time></trkpt><trkpt lat="59.3820728827" lon="34.6127416659"><ele>228.93</ele><time>2026-08-22T20:41:57Z</time></trkpt><trkpt lat="59.3820708711" lon="34.6127441805"><ele>236.62</ele><time>2026-08-22T20:41:58Z</time></trkpt><trkpt lat="59.3820745591" lon="34.6127431747"><ele>226.05</ele><time>2026-08-22T20:41:59Z</time></trkpt><trkpt lat="59.3820738047" lon="34.6127445158"><ele>226.05</ele><time>2026-08-22T20:42:00Z</time></trkpt><trkpt lat="59.3820940889" lon="34.6127704997"><ele>242.87</ele><time>2026-08-22T20:42:04Z</time></trkpt><trkpt lat="59.3820956815" lon="34.6127864253"><ele>241.91</ele><time>2026-08-22T20:42:05Z</time></trkpt><trkpt lat="59.3820915744" lon="34.6128281672"><ele>244.79</ele><time>2026-08-22T20:42:08Z</time></trkpt><trkpt lat="59.3820885569" lon="34.6130186878"><ele>243.83</ele><time>2026-08-22T20:42:20Z</time></trkpt><trkpt lat="59.3819994573" lon="34.6131478529"><ele>243.83</ele><time>2026-08-22T20:42:33Z</time></trkpt><trkpt lat="59.3819708750" lon="34.6131566539"><ele>243.83</ele><time>2026-08-22T20:42:47Z</time></trkpt><trkpt lat="59.3820019718" lon="34.6131876670"><ele>243.35</ele><time>2026-08-22T20:43:08Z</time></trkpt><trkpt lat="59.3820075877" lon="34.6131021716"><ele>242.39</ele><time>2026-08-22T20:43:33Z</time></trkpt><trkpt lat="59.3820156343" lon="34.6130579151"><ele>242.39</ele><time>2026-08-22T20:43:59Z</time></trkpt><trkpt lat="59.3819281273" lon="34.6131221205"><ele>240.95</ele><time>2026-08-22T20:44:23Z</time></trkpt><trkpt lat="59.3820217531" lon="34.6131382976"><ele>240.47</ele><time>2026-08-22T20:44:45Z</time></trkpt><trkpt lat="59.3820167240" lon="34.6130168438"><ele>237.10</ele><time>2026-08-22T20:45:07Z</time></trkpt><trkpt lat="59.3819386885" lon="34.6130310930"><ele>239.02</ele><time>2026-08-22T20:45:29Z</time></trkpt><trkpt lat="59.3819124531" lon="34.6129766945"><ele>238.06</ele><time>2026-08-22T20:45:54Z</time></trkpt><trkpt lat="59.3818686157" lon="34.6129696537"><ele>237.58</ele><time>2026-08-22T20:46:23Z</time></trkpt><trkpt lat="59.3819756526" lon="34.6130934544"><ele>236.62</ele><time>2026-08-22T20:46:46Z</time></trkpt><trkpt lat="59.3820481561" lon="34.6131818835"><ele>234.70</ele><time>2026-08-22T20:47:06Z</time></trkpt><trkpt lat="59.3821095116" lon="34.6131484397"><ele>235.18</ele><time>2026-08-22T20:47:33Z</time></trkpt><trkpt lat="59.3820492458" lon="34.6131434105"><ele>234.70</ele><time>2026-08-22T20:48:00Z</time></trkpt><trkpt lat="59.3820373435" lon="34.6131873317"><ele>233.74</ele><time>2026-08-22T20:48:25Z</time></trkpt><trkpt lat="59.3820549455" lon="34.6131319273"><ele>233.26</ele><time>2026-08-22T20:48:56Z</time></trkpt><trkpt lat="59.3820554484" lon="34.6131535526"><ele>231.81</ele><time>2026-08-22T20:49:27Z</time></trkpt><trkpt lat="59.3820367567" lon="34.6131590847"><ele>231.81</ele><time>2026-08-22T20:49:47Z</time></trkpt><trkpt lat="59.3819813523" lon="34.6130794566"><ele>230.85</ele><time>2026-08-22T20:50:14Z</time></trkpt><trkpt lat="59.3819692824" lon="34.6132479329"><ele>223.16</ele><time>2026-08-22T20:50:38Z</time></trkpt><trkpt lat="59.3819833640" lon="34.6132501122"><ele>229.41</ele><time>2026-08-22T20:50:40Z</time></trkpt><trkpt lat="59.3820373435" lon="34.6133146528"><ele>229.41</ele><time>2026-08-22T20:50:55Z</time></trkpt><trkpt lat="59.3820655905" lon="34.6134402975"><ele>228.93</ele><time>2026-08-22T20:51:13Z</time></trkpt><trkpt lat="59.3821837753" lon="34.6135091130"><ele>227.97</ele><time>2026-08-22T20:51:29Z</time></trkpt><trkpt lat="59.3821898941" lon="34.6135321632"><ele>222.20</ele><time>2026-08-22T20:51:35Z</time></trkpt><trkpt lat="59.3821929116" lon="34.6135366056"><ele>226.53</ele><time>2026-08-22T20:51:36Z</time></trkpt><trkpt lat="59.3821997847" lon="34.6135548782"><ele>227.01</ele><time>2026-08-22T20:51:38Z</time></trkpt><trkpt lat="59.3822284508" lon="34.6136648487"><ele>226.05</ele><time>2026-08-22T20:51:53Z</time></trkpt><trkpt lat="59.3822354078" lon="34.6136189159"><ele>227.49</ele><time>2026-08-22T20:52:00Z</time></trkpt><trkpt lat="59.3822376709" lon="34.6136272978"><ele>224.12</ele><time>2026-08-22T20:52:01Z</time></trkpt><trkpt lat="59.3822450470" lon="34.6136392001"><ele>224.61</ele><time>2026-08-22T20:52:02Z</time></trkpt><trkpt lat="59.3822499923" lon="34.6136428043"><ele>227.01</ele><time>2026-08-22T20:52:04Z</time></trkpt><trkpt lat="59.3822545186" lon="34.6136414632"><ele>226.05</ele><time>2026-08-22T20:52:06Z</time></trkpt><trkpt lat="59.3823269382" lon="34.6136500966"><ele>226.05</ele><time>2026-08-22T20:52:21Z</time></trkpt><trkpt lat="59.3823389243" lon="34.6136914194"><ele>221.72</ele><time>2026-08-22T20:52:25Z</time></trkpt><trkpt lat="59.3823424447" lon="34.6136907488"><ele>221.72</ele><time>2026-08-22T20:52:26Z</time></trkpt><trkpt lat="59.3823488988" lon="34.6137043275"><ele>226.05</ele><time>2026-08-22T20:52:28Z</time></trkpt><trkpt lat="59.3823519163" lon="34.6137079317"><ele>226.05</ele><time>2026-08-22T20:52:29Z</time></trkpt><trkpt lat="59.3824066501" lon="34.6138153039"><ele>224.61</ele><time>2026-08-22T20:52:46Z</time></trkpt><trkpt lat="59.3824120145" lon="34.6138216741"><ele>224.61</ele><time>2026-08-22T20:52:47Z</time></trkpt><trkpt lat="59.3825005274" lon="34.6139199100"><ele>224.12</ele><time>2026-08-22T20:53:05Z</time></trkpt><trkpt lat="59.3825835921" lon="34.6139106899"><ele>223.16</ele><time>2026-08-22T20:53:21Z</time></trkpt><trkpt lat="59.3826742005" lon="34.6139940899"><ele>223.16</ele><time>2026-08-22T20:53:34Z</time></trkpt><trkpt lat="59.3828007672" lon="34.6139252745"><ele>223.16</ele><time>2026-08-22T20:53:50Z</time></trkpt><trkpt lat="59.3828212190" lon="34.6139485762"><ele>221.24</ele><time>2026-08-22T20:53:52Z</time></trkpt><trkpt lat="59.3829378951" lon="34.6140199061"><ele>222.20</ele><time>2026-08-22T20:54:05Z</time></trkpt><trkpt lat="59.3830666412" lon="34.6139237657"><ele>222.20</ele><time>2026-08-22T20:54:21Z</time></trkpt><trkpt lat="59.3830933794" lon="34.6139509231"><ele>222.68</ele><time>2026-08-22T20:54:39Z</time></trkpt><trkpt lat="59.3831582554" lon="34.6139729675"><ele>220.76</ele><time>2026-08-22T20:54:48Z</time></trkpt><trkpt lat="59.3833210319" lon="34.6139918268"><ele>220.28</ele><time>2026-08-22T20:55:05Z</time></trkpt><trkpt lat="59.3834042642" lon="34.6140721254"><ele>220.28</ele><time>2026-08-22T20:55:17Z</time></trkpt><trkpt lat="59.3834141549" lon="34.6140363347"><ele>219.80</ele><time>2026-08-22T20:55:30Z</time></trkpt><trkpt lat="59.3833987322" lon="34.6139101870"><ele>219.32</ele><time>2026-08-22T20:55:41Z</time></trkpt><trkpt lat="59.3834799528" lon="34.6138311457"><ele>219.80</ele><time>2026-08-22T20:55:53Z</time></trkpt><trkpt lat="59.3835197669" lon="34.6137684491"><ele>217.40</ele><time>2026-08-22T20:56:05Z</time></trkpt><trkpt lat="59.3836018257" lon="34.6137989592"><ele>218.84</ele><time>2026-08-22T20:56:24Z</time></trkpt><trkpt lat="59.3835594971" lon="34.6138898190"><ele>217.40</ele><time>2026-08-22T20:56:41Z</time></trkpt><trkpt lat="59.3835480139" lon="34.6139029786"><ele>215.95</ele><time>2026-08-22T20:56:44Z</time></trkpt><trkpt lat="59.3835102115" lon="34.6140409447"><ele>216.91</ele><time>2026-08-22T20:56:58Z</time></trkpt><trkpt lat="59.3835164979" lon="34.6142344829"><ele>214.99</ele><time>2026-08-22T20:57:10Z</time></trkpt><trkpt lat="59.3835077807" lon="34.6142324712"><ele>214.99</ele><time>2026-08-22T20:57:25Z</time></trkpt><trkpt lat="59.3834798690" lon="34.6143203974"><ele>214.99</ele><time>2026-08-22T20:57:38Z</time></trkpt><trkpt lat="59.3834964652" lon="34.6143987682"><ele>214.99</ele><time>2026-08-22T20:57:51Z</time></trkpt><trkpt lat="59.3834999856" lon="34.6144072339"><ele>216.43</ele><time>2026-08-22T20:57:55Z</time></trkpt><trkpt lat="59.3834617641" lon="34.6144331340"><ele>215.95</ele><time>2026-08-22T20:58:14Z</time></trkpt><trkpt lat="59.3834248837" lon="34.6145170368"><ele>214.99</ele><time>2026-08-22T20:58:32Z</time></trkpt><trkpt lat="59.3834492750" lon="34.6147362236"><ele>214.99</ele><time>2026-08-22T20:58:50Z</time></trkpt><trkpt lat="59.3834723253" lon="34.6148978267"><ele>214.51</ele><time>2026-08-22T20:59:06Z</time></trkpt><trkpt lat="59.3834485207" lon="34.6149396524"><ele>212.59</ele><time>2026-08-22T20:59:14Z</time></trkpt><trkpt lat="59.3834264763" lon="34.6149160992"><ele>207.78</ele><time>2026-08-22T20:59:25Z</time></trkpt><trkpt lat="59.3834251352" lon="34.6149152610"><ele>214.03</ele><time>2026-08-22T20:59:26Z</time></trkpt><trkpt lat="59.3834235426" lon="34.6149129979"><ele>213.55</ele><time>2026-08-22T20:59:27Z</time></trkpt><trkpt lat="59.3834188487" lon="34.6149060410"><ele>213.55</ele><time>2026-08-22T20:59:32Z</time></trkpt><trkpt lat="59.3834160827" lon="34.6149037778"><ele>213.07</ele><time>2026-08-22T20:59:36Z</time></trkpt><trkpt lat="59.3834290747" lon="34.6148671489"><ele>211.63</ele><time>2026-08-22T20:59:45Z</time></trkpt><trkpt lat="59.3834262248" lon="34.6148609463"><ele>207.78</ele><time>2026-08-22T20:59:47Z</time></trkpt><trkpt lat="59.3834524602" lon="34.6148987487"><ele>212.11</ele><time>2026-08-22T20:59:51Z</time></trkpt><trkpt lat="59.3834766001" lon="34.6149562486"><ele>213.07</ele><time>2026-08-22T20:59:57Z</time></trkpt><trkpt lat="59.3835331779" lon="34.6151187737"><ele>210.19</ele><time>2026-08-22T21:00:11Z</time></trkpt><trkpt lat="59.3835465051" lon="34.6153492760"><ele>211.63</ele><time>2026-08-22T21:00:24Z</time></trkpt><trkpt lat="59.3835146539" lon="34.6153905150"><ele>212.11</ele><time>2026-08-22T21:00:38Z</time></trkpt><trkpt lat="59.3834796175" lon="34.6154892538"><ele>212.11</ele><time>2026-08-22T21:00:59Z</time></trkpt><trkpt lat="59.3834847305" lon="34.6155145671"><ele>211.63</ele><time>2026-08-22T21:01:20Z</time></trkpt><trkpt lat="59.3835091218" lon="34.6156530362"><ele>212.11</ele><time>2026-08-22T21:01:40Z</time></trkpt><trkpt lat="59.3836061843" lon="34.6157601569"><ele>211.15</ele><time>2026-08-22T21:01:55Z</time></trkpt><trkpt lat="59.3835390452" lon="34.6158420481"><ele>209.70</ele><time>2026-08-22T21:02:09Z</time></trkpt><trkpt lat="59.3834350258" lon="34.6158785932"><ele>207.78</ele><time>2026-08-22T21:02:24Z</time></trkpt><trkpt lat="59.3834318407" lon="34.6158819459"><ele>207.78</ele><time>2026-08-22T21:02:25Z</time></trkpt><trkpt lat="59.3834024202" lon="34.6158775873"><ele>209.22</ele><time>2026-08-22T21:02:29Z</time></trkpt><trkpt lat="59.3832691479" lon="34.6157420520"><ele>210.19</ele><time>2026-08-22T21:02:54Z</time></trkpt><trkpt lat="59.3831719179" lon="34.6158844605"><ele>210.67</ele><time>2026-08-22T21:03:11Z</time></trkpt><trkpt lat="59.3831102271" lon="34.6158854663"><ele>210.67</ele><time>2026-08-22T21:03:30Z</time></trkpt><trkpt lat="59.3829775415" lon="34.6159246098"><ele>210.19</ele><time>2026-08-22T21:03:48Z</time></trkpt><trkpt lat="59.3828699179" lon="34.6159852948"><ele>211.15</ele><time>2026-08-22T21:04:07Z</time></trkpt><trkpt lat="59.3828389887" lon="34.6160278749"><ele>205.86</ele><time>2026-08-22T21:04:18Z</time></trkpt><trkpt lat="59.3828228954" lon="34.6160319820"><ele>206.82</ele><time>2026-08-22T21:04:19Z</time></trkpt><trkpt lat="59.3828119989" lon="34.6160434652"><ele>210.19</ele><time>2026-08-22T21:04:20Z</time></trkpt><trkpt lat="59.3827511463" lon="34.6161328163"><ele>210.67</ele><time>2026-08-22T21:04:37Z</time></trkpt><trkpt lat="59.3827567622" lon="34.6162582096"><ele>208.74</ele><time>2026-08-22T21:04:49Z</time></trkpt><trkpt lat="59.3827440217" lon="34.6164128557"><ele>209.22</ele><time>2026-08-22T21:05:05Z</time></trkpt><trkpt lat="59.3826720212" lon="34.6166039631"><ele>209.70</ele><time>2026-08-22T21:05:21Z</time></trkpt><trkpt lat="59.3826570176" lon="34.6167239081"><ele>209.22</ele><time>2026-08-22T21:05:32Z</time></trkpt><trkpt lat="59.3826374039" lon="34.6168646403"><ele>208.74</ele><time>2026-08-22T21:05:45Z</time></trkpt><trkpt lat="59.3826586101" lon="34.6169355512"><ele>205.38</ele><time>2026-08-22T21:05:56Z</time></trkpt><trkpt lat="59.3826765474" lon="34.6169367246"><ele>207.30</ele><time>2026-08-22T21:05:59Z</time></trkpt><trkpt lat="59.3827108294" lon="34.6169577632"><ele>207.78</ele><time>2026-08-22T21:06:10Z</time></trkpt><trkpt lat="59.3827205524" lon="34.6169585176"><ele>207.30</ele><time>2026-08-22T21:06:40Z</time></trkpt><trkpt lat="59.3826642260" lon="34.6169071365"><ele>206.82</ele><time>2026-08-22T21:07:10Z</time></trkpt><trkpt lat="59.3826181255" lon="34.6169161890"><ele>206.34</ele><time>2026-08-22T21:07:34Z</time></trkpt><trkpt lat="59.3826135993" lon="34.6171808057"><ele>205.38</ele><time>2026-08-22T21:07:57Z</time></trkpt><trkpt lat="59.3826485518" lon="34.6172607690"><ele>201.53</ele><time>2026-08-22T21:08:01Z</time></trkpt><trkpt lat="59.3826633040" lon="34.6173012536"><ele>204.90</ele><time>2026-08-22T21:08:04Z</time></trkpt><trkpt lat="59.3826819956" lon="34.6173144970"><ele>205.86</ele><time>2026-08-22T21:08:06Z</time></trkpt><trkpt lat="59.3828215543" lon="34.6175267268"><ele>203.94</ele><time>2026-08-22T21:08:22Z</time></trkpt><trkpt lat="59.3828145973" lon="34.6178839635"><ele>203.94</ele><time>2026-08-22T21:08:39Z</time></trkpt><trkpt lat="59.3828160223" lon="34.6179793496"><ele>202.98</ele><time>2026-08-22T21:08:59Z</time></trkpt><trkpt lat="59.3828212190" lon="34.6181262005"><ele>204.90</ele><time>2026-08-22T21:09:11Z</time></trkpt><trkpt lat="59.3828800600" lon="34.6182562876"><ele>204.42</ele><time>2026-08-22T21:09:20Z</time></trkpt><trkpt lat="59.3828845862" lon="34.6182686929"><ele>204.42</ele><time>2026-08-22T21:09:21Z</time></trkpt><trkpt lat="59.3828634638" lon="34.6183868777"><ele>202.98</ele><time>2026-08-22T21:09:34Z</time></trkpt><trkpt lat="59.3828336243" lon="34.6184613090"><ele>203.46</ele><time>2026-08-22T21:09:43Z</time></trkpt><trkpt lat="59.3828008510" lon="34.6185119357"><ele>197.21</ele><time>2026-08-22T21:09:47Z</time></trkpt><trkpt lat="59.3827940617" lon="34.6185189765"><ele>201.05</ele><time>2026-08-22T21:09:48Z</time></trkpt><trkpt lat="59.3827715982" lon="34.6185407694"><ele>202.98</ele><time>2026-08-22T21:09:51Z</time></trkpt><trkpt lat="59.3827233184" lon="34.6188270114"><ele>201.53</ele><time>2026-08-22T21:10:10Z</time></trkpt><trkpt lat="59.3827199657" lon="34.6188360639"><ele>201.53</ele><time>2026-08-22T21:10:11Z</time></trkpt><trkpt lat="59.3827152718" lon="34.6188566834"><ele>202.98</ele><time>2026-08-22T21:10:13Z</time></trkpt><trkpt lat="59.3827386573" lon="34.6188000217"><ele>202.98</ele><time>2026-08-22T21:10:29Z</time></trkpt><trkpt lat="59.3827403337" lon="34.6188831702"><ele>200.57</ele><time>2026-08-22T21:10:45Z</time></trkpt><trkpt lat="59.3828476220" lon="34.6190177836"><ele>198.17</ele><time>2026-08-22T21:10:57Z</time></trkpt><trkpt lat="59.3829119951" lon="34.6190177836"><ele>194.32</ele><time>2026-08-22T21:11:08Z</time></trkpt><trkpt lat="59.3829164375" lon="34.6190324519"><ele>198.65</ele><time>2026-08-22T21:11:13Z</time></trkpt><trkpt lat="59.3830066267" lon="34.6189996786"><ele>199.61</ele><time>2026-08-22T21:11:28Z</time></trkpt><trkpt lat="59.3830234744" lon="34.6190280095"><ele>199.13</ele><time>2026-08-22T21:11:30Z</time></trkpt><trkpt lat="59.3830733467" lon="34.6190112457"><ele>200.57</ele><time>2026-08-22T21:11:48Z</time></trkpt><trkpt lat="59.3831342831" lon="34.6190653089"><ele>197.21</ele><time>2026-08-22T21:12:00Z</time></trkpt><trkpt lat="59.3831401505" lon="34.6190667339"><ele>197.21</ele><time>2026-08-22T21:12:01Z</time></trkpt><trkpt lat="59.3831624463" lon="34.6190514788"><ele>199.61</ele><time>2026-08-22T21:12:05Z</time></trkpt><trkpt lat="59.3832542282" lon="34.6190362237"><ele>195.28</ele><time>2026-08-22T21:12:23Z</time></trkpt><trkpt lat="59.3832539767" lon="34.6190420911"><ele>195.28</ele><time>2026-08-22T21:12:24Z</time></trkpt><trkpt lat="59.3832611013" lon="34.6190487128"><ele>199.61</ele><time>2026-08-22T21:12:28Z</time></trkpt><trkpt lat="59.3832607660" lon="34.6190439351"><ele>199.61</ele><time>2026-08-22T21:12:29Z</time></trkpt><trkpt lat="59.3833427411" lon="34.6190437675"><ele>200.57</ele><time>2026-08-22T21:12:46Z</time></trkpt><trkpt lat="59.3833600916" lon="34.6190229803"><ele>202.49</ele><time>2026-08-22T21:13:10Z</time></trkpt><trkpt lat="59.3833975587" lon="34.6190911252"><ele>204.42</ele><time>2026-08-22T21:13:39Z</time></trkpt><trkpt lat="59.3834252190" lon="34.6187467966"><ele>205.86</ele><time>2026-08-22T21:14:01Z</time></trkpt><trkpt lat="59.3834446650" lon="34.6185240056"><ele>205.86</ele><time>2026-08-22T21:14:17Z</time></trkpt><trkpt lat="59.3834455870" lon="34.6185861994"><ele>208.26</ele><time>2026-08-22T21:14:39Z</time></trkpt><trkpt lat="59.3835558090" lon="34.6184093412"><ele>208.26</ele><time>2026-08-22T21:14:59Z</time></trkpt><trkpt lat="59.3835786078" lon="34.6183871292"><ele>204.90</ele><time>2026-08-22T21:15:00Z</time></trkpt><trkpt lat="59.3835809547" lon="34.6183822677"><ele>207.30</ele><time>2026-08-22T21:15:01Z</time></trkpt><trkpt lat="59.3836061843" lon="34.6183754783"><ele>198.65</ele><time>2026-08-22T21:15:02Z</time></trkpt><trkpt lat="59.3836075254" lon="34.6183721256"><ele>198.65</ele><time>2026-08-22T21:15:03Z</time></trkpt><trkpt lat="59.3836486805" lon="34.6183712035"><ele>207.78</ele><time>2026-08-22T21:15:09Z</time></trkpt><trkpt lat="59.3836733233" lon="34.6183740534"><ele>201.53</ele><time>2026-08-22T21:15:14Z</time></trkpt><trkpt lat="59.3836757541" lon="34.6183700301"><ele>207.78</ele><time>2026-08-22T21:15:15Z</time></trkpt><trkpt lat="59.3837006483" lon="34.6183325630"><ele>208.26</ele><time>2026-08-22T21:15:20Z</time></trkpt><trkpt lat="59.3838632572" lon="34.6183469798"><ele>207.78</ele><time>2026-08-22T21:15:37Z</time></trkpt><trkpt lat="59.3838754948" lon="34.6183468122"><ele>207.78</ele><time>2026-08-22T21:15:39Z</time></trkpt><trkpt lat="59.3839422148" lon="34.6183152124"><ele>207.78</ele><time>2026-08-22T21:15:52Z</time></trkpt><trkpt lat="59.3839658517" lon="34.6180834528"><ele>207.30</ele><time>2026-08-22T21:16:09Z</time></trkpt><trkpt lat="59.3840241060" lon="34.6178585663"><ele>207.30</ele><time>2026-08-22T21:16:25Z</time></trkpt><trkpt lat="59.3840548676" lon="34.6176534612"><ele>207.30</ele><time>2026-08-22T21:16:41Z</time></trkpt><trkpt lat="59.3841375969" lon="34.6174698975"><ele>207.30</ele><time>2026-08-22T21:16:56Z</time></trkpt><trkpt lat="59.3841911573" lon="34.6173863299"><ele>207.30</ele><time>2026-08-22T21:17:11Z</time></trkpt><trkpt lat="59.3842745572" lon="34.6171144210"><ele>206.82</ele><time>2026-08-22T21:17:28Z</time></trkpt><trkpt lat="59.3843017984" lon="34.6170635428"><ele>203.46</ele><time>2026-08-22T21:17:37Z</time></trkpt><trkpt lat="59.3842944223" lon="34.6170610283"><ele>206.82</ele><time>2026-08-22T21:17:39Z</time></trkpt><trkpt lat="59.3842966016" lon="34.6170718409"><ele>206.82</ele><time>2026-08-22T21:17:40Z</time></trkpt><trkpt lat="59.3843401037" lon="34.6171627846"><ele>206.34</ele><time>2026-08-22T21:17:51Z</time></trkpt><trkpt lat="59.3843618967" lon="34.6171791293"><ele>206.34</ele><time>2026-08-22T21:17:54Z</time></trkpt><trkpt lat="59.3843976036" lon="34.6171957254"><ele>205.86</ele><time>2026-08-22T21:18:07Z</time></trkpt><trkpt lat="59.3844185583" lon="34.6171452664"><ele>204.42</ele><time>2026-08-22T21:18:17Z</time></trkpt><trkpt lat="59.3844180554" lon="34.6171499602"><ele>202.98</ele><time>2026-08-22T21:18:19Z</time></trkpt><trkpt lat="59.3844213244" lon="34.6171565820"><ele>205.86</ele><time>2026-08-22T21:18:22Z</time></trkpt><trkpt lat="59.3844526727" lon="34.6171129122"><ele>205.86</ele><time>2026-08-22T21:18:38Z</time></trkpt><trkpt lat="59.3844858650" lon="34.6171191148"><ele>205.38</ele><time>2026-08-22T21:18:53Z</time></trkpt><trkpt lat="59.3845513277" lon="34.6172609366"><ele>204.42</ele><time>2026-08-22T21:19:13Z</time></trkpt><trkpt lat="59.3847001065" lon="34.6172629483"><ele>201.05</ele><time>2026-08-22T21:19:30Z</time></trkpt><trkpt lat="59.3847717717" lon="34.6172524709"><ele>204.90</ele><time>2026-08-22T21:19:37Z</time></trkpt><trkpt lat="59.3847782258" lon="34.6172478609"><ele>204.90</ele><time>2026-08-22T21:19:38Z</time></trkpt><trkpt lat="59.3848285172" lon="34.6173233818"><ele>201.05</ele><time>2026-08-22T21:19:48Z</time></trkpt><trkpt lat="59.3848369829" lon="34.6173269860"><ele>200.57</ele><time>2026-08-22T21:19:49Z</time></trkpt><trkpt lat="59.3848701753" lon="34.6173342783"><ele>204.42</ele><time>2026-08-22T21:19:52Z</time></trkpt><trkpt lat="59.3848718517" lon="34.6173289977"><ele>203.94</ele><time>2026-08-22T21:19:53Z</time></trkpt><trkpt lat="59.3849798944" lon="34.6173338592"><ele>203.94</ele><time>2026-08-22T21:20:12Z</time></trkpt><trkpt lat="59.3850940559" lon="34.6175237931"><ele>204.42</ele><time>2026-08-22T21:20:34Z</time></trkpt><trkpt lat="59.3851632904" lon="34.6177721489"><ele>203.94</ele><time>2026-08-22T21:20:55Z</time></trkpt><trkpt lat="59.3852777034" lon="34.6178560518"><ele>202.98</ele><time>2026-08-22T21:21:13Z</time></trkpt><trkpt lat="59.3852820620" lon="34.6178466640"><ele>199.61</ele><time>2026-08-22T21:21:19Z</time></trkpt><trkpt lat="59.3852789607" lon="34.6178456582"><ele>199.61</ele><time>2026-08-22T21:21:20Z</time></trkpt><trkpt lat="59.3852784578" lon="34.6178542916"><ele>203.46</ele><time>2026-08-22T21:21:22Z</time></trkpt><trkpt lat="59.3852802180" lon="34.6178635955"><ele>201.53</ele><time>2026-08-22T21:21:23Z</time></trkpt><trkpt lat="59.3852863368" lon="34.6178776771"><ele>204.90</ele><time>2026-08-22T21:21:25Z</time></trkpt><trkpt lat="59.3852922879" lon="34.6178865619"><ele>204.90</ele><time>2026-08-22T21:21:26Z</time></trkpt><trkpt lat="59.3853788730" lon="34.6180344187"><ele>204.90</ele><time>2026-08-22T21:21:41Z</time></trkpt><trkpt lat="59.3854111433" lon="34.6182388533"><ele>201.53</ele><time>2026-08-22T21:21:55Z</time></trkpt><trkpt lat="59.3854041863" lon="34.6182430442"><ele>202.01</ele><time>2026-08-22T21:21:56Z</time></trkpt><trkpt lat="59.3852950539" lon="34.6185208205"><ele>203.94</ele><time>2026-08-22T21:22:15Z</time></trkpt><trkpt lat="59.3852562457" lon="34.6188149415"><ele>202.98</ele><time>2026-08-22T21:22:28Z</time></trkpt><trkpt lat="59.3852314353" lon="34.6190008521"><ele>202.49</ele><time>2026-08-22T21:22:43Z</time></trkpt><trkpt lat="59.3852148391" lon="34.6190606989"><ele>202.01</ele><time>2026-08-22T21:22:48Z</time></trkpt><trkpt lat="59.3852580059" lon="34.6192358807"><ele>202.01</ele><time>2026-08-22T21:23:03Z</time></trkpt><trkpt lat="59.3852797151" lon="34.6193793789"><ele>200.57</ele><time>2026-08-22T21:23:13Z</time></trkpt><trkpt lat="59.3852646276" lon="34.6194037702"><ele>203.46</ele><time>2026-08-22T21:23:16Z</time></trkpt><trkpt lat="59.3852052838" lon="34.6195414849"><ele>202.49</ele><time>2026-08-22T21:23:36Z</time></trkpt><trkpt lat="59.3852480315" lon="34.6196817979"><ele>197.69</ele><time>2026-08-22T21:23:46Z</time></trkpt><trkpt lat="59.3852496240" lon="34.6196845639"><ele>194.32</ele><time>2026-08-22T21:23:47Z</time></trkpt><trkpt lat="59.3852653820" lon="34.6196886711"><ele>197.69</ele><time>2026-08-22T21:23:48Z</time></trkpt><trkpt lat="59.3852692377" lon="34.6197005734"><ele>202.98</ele><time>2026-08-22T21:23:49Z</time></trkpt><trkpt lat="59.3852704111" lon="34.6197189298"><ele>203.46</ele><time>2026-08-22T21:23:50Z</time></trkpt><trkpt lat="59.3853731733" lon="34.6200736519"><ele>202.98</ele><time>2026-08-22T21:24:08Z</time></trkpt><trkpt lat="59.3853638694" lon="34.6202452295"><ele>203.46</ele><time>2026-08-22T21:24:25Z</time></trkpt><trkpt lat="59.3853511289" lon="34.6202917490"><ele>199.61</ele><time>2026-08-22T21:24:27Z</time></trkpt><trkpt lat="59.3853535596" lon="34.6202918328"><ele>199.61</ele><time>2026-08-22T21:24:28Z</time></trkpt><trkpt lat="59.3853553198" lon="34.6203021426"><ele>202.98</ele><time>2026-08-22T21:24:31Z</time></trkpt><trkpt lat="59.3853591755" lon="34.6203213371"><ele>202.98</ele><time>2026-08-22T21:24:32Z</time></trkpt><trkpt lat="59.3853607681" lon="34.6204261109"><ele>202.98</ele><time>2026-08-22T21:24:39Z</time></trkpt><trkpt lat="59.3853870872" lon="34.6206259355"><ele>202.98</ele><time>2026-08-22T21:24:53Z</time></trkpt><trkpt lat="59.3853751849" lon="34.6208062302"><ele>202.98</ele><time>2026-08-22T21:25:08Z</time></trkpt><trkpt lat="59.3853622768" lon="34.6209493931"><ele>202.49</ele><time>2026-08-22T21:25:21Z</time></trkpt><trkpt lat="59.3853440881" lon="34.6210151073"><ele>201.05</ele><time>2026-08-22T21:25:31Z</time></trkpt><trkpt lat="59.3853382207" lon="34.6210120060"><ele>200.09</ele><time>2026-08-22T21:25:33Z</time></trkpt><trkpt lat="59.3853271566" lon="34.6210053843"><ele>198.65</ele><time>2026-08-22T21:25:35Z</time></trkpt><trkpt lat="59.3853183556" lon="34.6210138500"><ele>202.01</ele><time>2026-08-22T21:25:41Z</time></trkpt><trkpt lat="59.3853177689" lon="34.6210237406"><ele>202.01</ele><time>2026-08-22T21:25:42Z</time></trkpt><trkpt lat="59.3853482790" lon="34.6212192066"><ele>202.98</ele><time>2026-08-22T21:25:57Z</time></trkpt><trkpt lat="59.3854458444" lon="34.6214932110"><ele>202.49</ele><time>2026-08-22T21:26:17Z</time></trkpt><trkpt lat="59.3855117261" lon="34.6218856517"><ele>202.49</ele><time>2026-08-22T21:26:37Z</time></trkpt><trkpt lat="59.3854387198" lon="34.6222458221"><ele>203.46</ele><time>2026-08-22T21:26:57Z</time></trkpt><trkpt lat="59.3853961397" lon="34.6223550383"><ele>203.46</ele><time>2026-08-22T21:27:18Z</time></trkpt><trkpt lat="59.3854805455" lon="34.6224924177"><ele>203.46</ele><time>2026-08-22T21:27:34Z</time></trkpt><trkpt lat="59.3855351955" lon="34.6226803400"><ele>202.98</ele><time>2026-08-22T21:27:49Z</time></trkpt><trkpt lat="59.3856189307" lon="34.6229035500"><ele>202.98</ele><time>2026-08-22T21:28:09Z</time></trkpt><trkpt lat="59.3856318388" lon="34.6232016943"><ele>202.49</ele><time>2026-08-22T21:28:29Z</time></trkpt><trkpt lat="59.3855926115" lon="34.6232578531"><ele>202.49</ele><time>2026-08-22T21:28:52Z</time></trkpt><trkpt lat="59.3855167553" lon="34.6234795544"><ele>201.53</ele><time>2026-08-22T21:29:13Z</time></trkpt><trkpt lat="59.3855786975" lon="34.6236290038"><ele>201.53</ele><time>2026-08-22T21:29:30Z</time></trkpt><trkpt lat="59.3856385443" lon="34.6236492880"><ele>201.53</ele><time>2026-08-22T21:29:49Z</time></trkpt><trkpt lat="59.3857703917" lon="34.6239111386"><ele>200.57</ele><time>2026-08-22T21:30:07Z</time></trkpt><trkpt lat="59.3858164921" lon="34.6240224503"><ele>200.09</ele><time>2026-08-22T21:30:24Z</time></trkpt><trkpt lat="59.3858169951" lon="34.6240544692"><ele>198.65</ele><time>2026-08-22T21:30:26Z</time></trkpt><trkpt lat="59.3858172465" lon="34.6241685469"><ele>200.09</ele><time>2026-08-22T21:30:33Z</time></trkpt><trkpt lat="59.3859072682" lon="34.6241601650"><ele>200.09</ele><time>2026-08-22T21:30:49Z</time></trkpt><trkpt lat="59.3860531971" lon="34.6241952851"><ele>199.61</ele><time>2026-08-22T21:31:08Z</time></trkpt><trkpt lat="59.3861286342" lon="34.6241200157"><ele>199.61</ele><time>2026-08-22T21:31:25Z</time></trkpt><trkpt lat="59.3861348368" lon="34.6241195966"><ele>198.17</ele><time>2026-08-22T21:31:27Z</time></trkpt><trkpt lat="59.3861538637" lon="34.6241449937"><ele>194.80</ele><time>2026-08-22T21:31:32Z</time></trkpt><trkpt lat="59.3861477450" lon="34.6241460834"><ele>198.17</ele><time>2026-08-22T21:31:34Z</time></trkpt><trkpt lat="59.3861537799" lon="34.6241593268"><ele>199.61</ele><time>2026-08-22T21:31:36Z</time></trkpt><trkpt lat="59.3861793447" lon="34.6242620051"><ele>199.13</ele><time>2026-08-22T21:31:54Z</time></trkpt><trkpt lat="59.3861821946" lon="34.6243614145"><ele>198.17</ele><time>2026-08-22T21:32:12Z</time></trkpt><trkpt lat="59.3861693703" lon="34.6243972890"><ele>198.17</ele><time>2026-08-22T21:32:32Z</time></trkpt><trkpt lat="59.3861530256" lon="34.6244951896"><ele>197.69</ele><time>2026-08-22T21:32:49Z</time></trkpt><trkpt lat="59.3861442246" lon="34.6245513484"><ele>197.21</ele><time>2026-08-22T21:33:09Z</time></trkpt><trkpt lat="59.3861464038" lon="34.6246087644"><ele>197.21</ele><time>2026-08-22T21:33:24Z</time></trkpt><trkpt lat="59.3861699570" lon="34.6246386878"><ele>192.88</ele><time>2026-08-22T21:33:40Z</time></trkpt><trkpt lat="59.3861719687" lon="34.6246447228"><ele>192.88</ele><time>2026-08-22T21:33:41Z</time></trkpt><trkpt lat="59.3861775845" lon="34.6246953495"><ele>194.80</ele><time>2026-08-22T21:33:45Z</time></trkpt><trkpt lat="59.3861883134" lon="34.6247002110"><ele>189.52</ele><time>2026-08-22T21:33:54Z</time></trkpt><trkpt lat="59.3861870561" lon="34.6247018874"><ele>190.00</ele><time>2026-08-22T21:33:55Z</time></trkpt><trkpt lat="59.3861659337" lon="34.6247101855"><ele>187.11</ele><time>2026-08-22T21:34:03Z</time></trkpt><trkpt lat="59.3861886486" lon="34.6245945152"><ele>187.11</ele><time>2026-08-22T21:34:26Z</time></trkpt><trkpt lat="59.3861890677" lon="34.6246285457"><ele>191.92</ele><time>2026-08-22T21:34:56Z</time></trkpt><trkpt lat="59.3861874752" lon="34.6246277913"><ele>186.15</ele><time>2026-08-22T21:34:57Z</time></trkpt><trkpt lat="59.3861811049" lon="34.6246182360"><ele>188.08</ele><time>2026-08-22T21:35:05Z</time></trkpt><trkpt lat="59.3861999642" lon="34.6246283781"><ele>191.44</ele><time>2026-08-22T21:35:14Z</time></trkpt><trkpt lat="59.3861814402" lon="34.6246061660"><ele>192.88</ele><time>2026-08-22T21:35:31Z</time></trkpt><trkpt lat="59.3861857150" lon="34.6246722993"><ele>192.88</ele><time>2026-08-22T21:35:44Z</time></trkpt><trkpt lat="59.3861836195" lon="34.6246428788"><ele>193.84</ele><time>2026-08-22T21:36:03Z</time></trkpt><trkpt lat="59.3861784227" lon="34.6246467344"><ele>192.88</ele><time>2026-08-22T21:36:31Z</time></trkpt><trkpt lat="59.3861743994" lon="34.6247167233"><ele>193.84</ele><time>2026-08-22T21:37:07Z</time></trkpt><trkpt lat="59.3862061668" lon="34.6247292962"><ele>194.32</ele><time>2026-08-22T21:37:22Z</time></trkpt><trkpt lat="59.3861911632" lon="34.6248422004"><ele>194.80</ele><time>2026-08-22T21:37:38Z</time></trkpt><trkpt lat="59.3861888163" lon="34.6249086689"><ele>195.77</ele><time>2026-08-22T21:37:55Z</time></trkpt><trkpt lat="59.3861350045" lon="34.6249037236"><ele>196.25</ele><time>2026-08-22T21:38:15Z</time></trkpt><trkpt lat="59.3861164805" lon="34.6249652468"><ele>197.21</ele><time>2026-08-22T21:38:30Z</time></trkpt><trkpt lat="59.3860360980" lon="34.6250286140"><ele>197.69</ele><time>2026-08-22T21:38:50Z</time></trkpt><trkpt lat="59.3860185798" lon="34.6250796597"><ele>197.21</ele><time>2026-08-22T21:39:05Z</time></trkpt><trkpt lat="59.3860360980" lon="34.6251446195"><ele>196.73</ele><time>2026-08-22T21:39:09Z</time></trkpt><trkpt lat="59.3860451505" lon="34.6251666639"><ele>193.36</ele><time>2026-08-22T21:39:12Z</time></trkpt><trkpt lat="59.3860542867" lon="34.6251737885"><ele>190.96</ele><time>2026-08-22T21:39:16Z</time></trkpt><trkpt lat="59.3860323261" lon="34.6251832601"><ele>198.65</ele><time>2026-08-22T21:39:20Z</time></trkpt><trkpt lat="59.3860299792" lon="34.6251887921"><ele>198.65</ele><time>2026-08-22T21:39:21Z</time></trkpt><trkpt lat="59.3860628363" lon="34.6251008660"><ele>199.61</ele><time>2026-08-22T21:39:41Z</time></trkpt><trkpt lat="59.3860648479" lon="34.6250700206"><ele>200.57</ele><time>2026-08-22T21:40:07Z</time></trkpt><trkpt lat="59.3861167319" lon="34.6251689270"><ele>201.53</ele><time>2026-08-22T21:40:34Z</time></trkpt><trkpt lat="59.3861273769" lon="34.6251966711"><ele>202.49</ele><time>2026-08-22T21:41:10Z</time></trkpt><trkpt lat="59.3861802667" lon="34.6252472140"><ele>203.94</ele><time>2026-08-22T21:41:43Z</time></trkpt><trkpt lat="59.3861810211" lon="34.6250993572"><ele>204.42</ele><time>2026-08-22T21:42:05Z</time></trkpt><trkpt lat="59.3862339109" lon="34.6251511574"><ele>205.38</ele><time>2026-08-22T21:42:33Z</time></trkpt><trkpt lat="59.3861538637" lon="34.6251190547"><ele>206.82</ele><time>2026-08-22T21:43:01Z</time></trkpt><trkpt lat="59.3861940969" lon="34.6251352318"><ele>207.30</ele><time>2026-08-22T21:43:39Z</time></trkpt><trkpt lat="59.3861968629" lon="34.6251333877"><ele>203.46</ele><time>2026-08-22T21:43:51Z</time></trkpt><trkpt lat="59.3861901574" lon="34.6251087449"><ele>203.46</ele><time>2026-08-22T21:43:52Z</time></trkpt><trkpt lat="59.3861630000" lon="34.6251129359"><ele>206.34</ele><time>2026-08-22T21:43:56Z</time></trkpt><trkpt lat="59.3861461524" lon="34.6252805740"><ele>207.30</ele><time>2026-08-22T21:44:09Z</time></trkpt><trkpt lat="59.3860679492" lon="34.6253326256"><ele>207.78</ele><time>2026-08-22T21:44:23Z</time></trkpt><trkpt lat="59.3860178255" lon="34.6254529059"><ele>208.26</ele><time>2026-08-22T21:44:38Z</time></trkpt><trkpt lat="59.3859512731" lon="34.6255099028"><ele>208.74</ele><time>2026-08-22T21:44:50Z</time></trkpt><trkpt lat="59.3858921807" lon="34.6255386528"><ele>202.49</ele><time>2026-08-22T21:45:07Z</time></trkpt><trkpt lat="59.3858900853" lon="34.6255420055"><ele>203.46</ele><time>2026-08-22T21:45:08Z</time></trkpt><trkpt lat="59.3858892471" lon="34.6255600266"><ele>209.22</ele><time>2026-08-22T21:45:10Z</time></trkpt><trkpt lat="59.3858969584" lon="34.6255801432"><ele>209.22</ele><time>2026-08-22T21:45:11Z</time></trkpt><trkpt lat="59.3860160653" lon="34.6255767066"><ele>209.70</ele><time>2026-08-22T21:45:30Z</time></trkpt><trkpt lat="59.3860323261" lon="34.6255947277"><ele>209.22</ele><time>2026-08-22T21:45:44Z</time></trkpt><trkpt lat="59.3860315718" lon="34.6255800594"><ele>205.86</ele><time>2026-08-22T21:45:46Z</time></trkpt><trkpt lat="59.3860380258" lon="34.6255739406"><ele>209.70</ele><time>2026-08-22T21:45:47Z</time></trkpt><trkpt lat="59.3860195018" lon="34.6255893633"><ele>210.19</ele><time>2026-08-22T21:46:06Z</time></trkpt><trkpt lat="59.3860135507" lon="34.6255099028"><ele>210.67</ele><time>2026-08-22T21:46:24Z</time></trkpt><trkpt lat="59.3859895784" lon="34.6255531535"><ele>210.67</ele><time>2026-08-22T21:46:42Z</time></trkpt><trkpt lat="59.3859450705" lon="34.6255197935"><ele>211.15</ele><time>2026-08-22T21:47:01Z</time></trkpt><trkpt lat="59.3859254569" lon="34.6255187038"><ele>212.11</ele><time>2026-08-22T21:47:18Z</time></trkpt><trkpt lat="59.3858940247" lon="34.6255522314"><ele>211.63</ele><time>2026-08-22T21:47:35Z</time></trkpt><trkpt lat="59.3858768418" lon="34.6255736891"><ele>207.78</ele><time>2026-08-22T21:47:37Z</time></trkpt><trkpt lat="59.3858648557" lon="34.6255792212"><ele>211.63</ele><time>2026-08-22T21:47:38Z</time></trkpt><trkpt lat="59.3858480919" lon="34.6255330369"><ele>211.63</ele><time>2026-08-22T21:47:54Z</time></trkpt><trkpt lat="59.3858256284" lon="34.6254405007"><ele>211.63</ele><time>2026-08-22T21:48:10Z</time></trkpt><trkpt lat="59.3857716490" lon="34.6253916342"><ele>212.11</ele><time>2026-08-22T21:48:23Z</time></trkpt><trkpt lat="59.3857686315" lon="34.6253923047"><ele>202.01</ele><time>2026-08-22T21:48:24Z</time></trkpt><trkpt lat="59.3857652787" lon="34.6253897902"><ele>203.46</ele><time>2026-08-22T21:48:25Z</time></trkpt><trkpt lat="59.3857645243" lon="34.6253809892"><ele>200.09</ele><time>2026-08-22T21:48:26Z</time></trkpt><trkpt lat="59.3857663684" lon="34.6253659856"><ele>206.34</ele><time>2026-08-22T21:48:27Z</time></trkpt><trkpt lat="59.3857675418" lon="34.6253517363"><ele>210.67</ele><time>2026-08-22T21:48:28Z</time></trkpt><trkpt lat="59.3857734092" lon="34.6253424324"><ele>212.11</ele><time>2026-08-22T21:48:30Z</time></trkpt><trkpt lat="59.3857680447" lon="34.6252571885"><ele>212.11</ele><time>2026-08-22T21:48:44Z</time></trkpt><trkpt lat="59.3857089523" lon="34.6251391713"><ele>212.59</ele><time>2026-08-22T21:49:01Z</time></trkpt><trkpt lat="59.3857462518" lon="34.6249715332"><ele>213.07</ele><time>2026-08-22T21:49:19Z</time></trkpt><trkpt lat="59.3857608363" lon="34.6250233334"><ele>213.07</ele><time>2026-08-22T21:49:31Z</time></trkpt><trkpt lat="59.3857512809" lon="34.6250198130"><ele>208.74</ele><time>2026-08-22T21:49:48Z</time></trkpt><trkpt lat="59.3857517838" lon="34.6250271890"><ele>213.07</ele><time>2026-08-22T21:49:50Z</time></trkpt><trkpt lat="59.3857479282" lon="34.6250320505"><ele>213.55</ele><time>2026-08-22T21:49:52Z</time></trkpt><trkpt lat="59.3857651949" lon="34.6249438729"><ele>214.03</ele><time>2026-08-22T21:50:15Z</time></trkpt><trkpt lat="59.3857336789" lon="34.6249749698"><ele>214.51</ele><time>2026-08-22T21:50:34Z</time></trkpt><trkpt lat="59.3857978005" lon="34.6249717008"><ele>214.03</ele><time>2026-08-22T21:51:03Z</time></trkpt><trkpt lat="59.3857730739" lon="34.6250228304"><ele>210.67</ele><time>2026-08-22T21:51:22Z</time></trkpt><trkpt lat="59.3857247103" lon="34.6250652429"><ele>213.07</ele><time>2026-08-22T21:51:50Z</time></trkpt><trkpt lat="59.3856755923" lon="34.6249836031"><ele>213.07</ele><time>2026-08-22T21:52:19Z</time></trkpt><trkpt lat="59.3857242074" lon="34.6249185596"><ele>211.63</ele><time>2026-08-22T21:52:49Z</time></trkpt><trkpt lat="59.3857159093" lon="34.6249003708"><ele>206.82</ele><time>2026-08-22T21:53:05Z</time></trkpt><trkpt lat="59.3857151549" lon="34.6248993650"><ele>207.30</ele><time>2026-08-22T21:53:06Z</time></trkpt><trkpt lat="59.3857152387" lon="34.6249004547"><ele>210.67</ele><time>2026-08-22T21:53:07Z</time></trkpt><trkpt lat="59.3857141491" lon="34.6248917375"><ele>192.40</ele><time>2026-08-22T21:53:18Z</time></trkpt><trkpt lat="59.3857185915" lon="34.6248897258"><ele>206.82</ele><time>2026-08-22T21:53:33Z</time></trkpt><trkpt lat="59.3857192621" lon="34.6248918213"><ele>206.82</ele><time>2026-08-22T21:53:34Z</time></trkpt><trkpt lat="59.3857061863" lon="34.6248770691"><ele>203.94</ele><time>2026-08-22T21:53:41Z</time></trkpt><trkpt lat="59.3857049290" lon="34.6248784102"><ele>203.94</ele><time>2026-08-22T21:53:42Z</time></trkpt><trkpt lat="59.3857414741" lon="34.6249327250"><ele>203.94</ele><time>2026-08-22T21:54:10Z</time></trkpt><trkpt lat="59.3857517000" lon="34.6249363292"><ele>199.13</ele><time>2026-08-22T21:54:20Z</time></trkpt><trkpt lat="59.3857188430" lon="34.6250670869"><ele>197.21</ele><time>2026-08-22T21:54:45Z</time></trkpt><trkpt lat="59.3857255485" lon="34.6250909753"><ele>190.48</ele><time>2026-08-22T21:54:51Z</time></trkpt><trkpt lat="59.3857294042" lon="34.6250927355"><ele>191.92</ele><time>2026-08-22T21:54:52Z</time></trkpt><trkpt lat="59.3857269734" lon="34.6251024585"><ele>193.84</ele><time>2026-08-22T21:54:53Z</time></trkpt><trkpt lat="59.3857284822" lon="34.6251084097"><ele>191.44</ele><time>2026-08-22T21:54:54Z</time></trkpt><trkpt lat="59.3857378699" lon="34.6251105890"><ele>187.59</ele><time>2026-08-22T21:54:57Z</time></trkpt><trkpt lat="59.3857393786" lon="34.6251073200"><ele>188.08</ele><time>2026-08-22T21:54:58Z</time></trkpt><trkpt lat="59.3857390434" lon="34.6251064818"><ele>193.36</ele><time>2026-08-22T21:54:59Z</time></trkpt><trkpt lat="59.3857382890" lon="34.6251048893"><ele>185.67</ele><time>2026-08-22T21:55:00Z</time></trkpt><trkpt lat="59.3857377861" lon="34.6251061466"><ele>181.83</ele><time>2026-08-22T21:55:01Z</time></trkpt><trkpt lat="59.3857392110" lon="34.6251063980"><ele>193.84</ele><time>2026-08-22T21:55:02Z</time></trkpt><trkpt lat="59.3857388757" lon="34.6251022071"><ele>193.36</ele><time>2026-08-22T21:55:05Z</time></trkpt><trkpt lat="59.3856616784" lon="34.6250717808"><ele>193.36</ele><time>2026-08-22T21:55:32Z</time></trkpt><trkpt lat="59.3856319226" lon="34.6250808332"><ele>193.36</ele><time>2026-08-22T21:55:54Z</time></trkpt><trkpt lat="59.3856541347" lon="34.6250466350"><ele>190.00</ele><time>2026-08-22T21:56:02Z</time></trkpt><trkpt lat="59.3856550567" lon="34.6250484791"><ele>190.00</ele><time>2026-08-22T21:56:03Z</time></trkpt><trkpt lat="59.3857683800" lon="34.6250613034"><ele>189.52</ele><time>2026-08-22T21:56:36Z</time></trkpt><trkpt lat="59.3857729901" lon="34.6250446234"><ele>190.00</ele><time>2026-08-22T21:56:57Z</time></trkpt><trkpt lat="59.3858223595" lon="34.6250250097"><ele>190.96</ele><time>2026-08-22T21:57:34Z</time></trkpt><trkpt lat="59.3858035002" lon="34.6250382531"><ele>191.92</ele><time>2026-08-22T21:58:11Z</time></trkpt><trkpt lat="59.3857692182" lon="34.6250548493"><ele>192.88</ele><time>2026-08-22T21:58:46Z</time></trkpt><trkpt lat="59.3857730739" lon="34.6251225751"><ele>193.84</ele><time>2026-08-22T21:59:18Z</time></trkpt><trkpt lat="59.3857562263" lon="34.6251421887"><ele>193.84</ele><time>2026-08-22T21:59:51Z</time></trkpt><trkpt lat="59.3857589085" lon="34.6250797436"><ele>193.84</ele><time>2026-08-22T22:00:22Z</time></trkpt><trkpt lat="59.3857060187" lon="34.6250415221"><ele>194.32</ele><time>2026-08-22T22:00:50Z</time></trkpt><trkpt lat="59.3857074436" lon="34.6250411030"><ele>194.32</ele><time>2026-08-22T22:01:24Z</time></trkpt><trkpt lat="59.3857120536" lon="34.6251265984"><ele>194.32</ele><time>2026-08-22T22:01:52Z</time></trkpt><trkpt lat="59.3856931105" lon="34.6250722837"><ele>193.84</ele><time>2026-08-22T22:02:26Z</time></trkpt><trkpt lat="59.3857506942" lon="34.6251048893"><ele>194.32</ele><time>2026-08-22T22:02:51Z</time></trkpt><trkpt lat="59.3857653625" lon="34.6251287777"><ele>193.84</ele><time>2026-08-22T22:03:20Z</time></trkpt><trkpt lat="59.3856925238" lon="34.6251598746"><ele>191.92</ele><time>2026-08-22T22:03:50Z</time></trkpt><trkpt lat="59.3857238721" lon="34.6251860261"><ele>191.92</ele><time>2026-08-22T22:04:16Z</time></trkpt><trkpt lat="59.3856992293" lon="34.6250741277"><ele>180.38</ele><time>2026-08-22T22:04:49Z</time></trkpt><trkpt lat="59.3856961280" lon="34.6250665840"><ele>181.35</ele><time>2026-08-22T22:04:50Z</time></trkpt><trkpt lat="59.3856705632" lon="34.6250572801"><ele>179.42</ele><time>2026-08-22T22:05:05Z</time></trkpt><trkpt lat="59.3856958766" lon="34.6250521671"><ele>180.87</ele><time>2026-08-22T22:05:27Z</time></trkpt><trkpt lat="59.3857024983" lon="34.6251056436"><ele>177.98</ele><time>2026-08-22T22:05:35Z</time></trkpt><trkpt lat="59.3857118860" lon="34.6251094993"><ele>181.35</ele><time>2026-08-22T22:05:38Z</time></trkpt><trkpt lat="59.3857322540" lon="34.6252450347"><ele>181.83</ele><time>2026-08-22T22:05:58Z</time></trkpt><trkpt lat="59.3857561424" lon="34.6253252495"><ele>182.31</ele><time>2026-08-22T22:06:15Z</time></trkpt><trkpt lat="59.3857550528" lon="34.6254777163"><ele>183.27</ele><time>2026-08-22T22:06:30Z</time></trkpt><trkpt lat="59.3857682962" lon="34.6254228149"><ele>183.75</ele><time>2026-08-22T22:06:48Z</time></trkpt><trkpt lat="59.3857287336" lon="34.6252637263"><ele>184.71</ele><time>2026-08-22T22:07:03Z</time></trkpt><trkpt lat="59.3856621813" lon="34.6252000239"><ele>185.67</ele><time>2026-08-22T22:07:21Z</time></trkpt><trkpt lat="59.3855134863" lon="34.6253055520"><ele>186.63</ele><time>2026-08-22T22:07:38Z</time></trkpt><trkpt lat="59.3854657095" lon="34.6253607050"><ele>179.90</ele><time>2026-08-22T22:07:46Z</time></trkpt><trkpt lat="59.3854562379" lon="34.6253613755"><ele>175.58</ele><time>2026-08-22T22:07:47Z</time></trkpt><trkpt lat="59.3854497001" lon="34.6253602020"><ele>179.42</ele><time>2026-08-22T22:07:48Z</time></trkpt><trkpt lat="59.3854427431" lon="34.6253607888"><ele>186.63</ele><time>2026-08-22T22:07:49Z</time></trkpt><trkpt lat="59.3854342774" lon="34.6253704280"><ele>186.63</ele><time>2026-08-22T22:07:50Z</time></trkpt><trkpt lat="59.3853079621" lon="34.6255762037"><ele>188.56</ele><time>2026-08-22T22:08:10Z</time></trkpt><trkpt lat="59.3852946348" lon="34.6256137546"><ele>185.19</ele><time>2026-08-22T22:08:14Z</time></trkpt><trkpt lat="59.3852947187" lon="34.6256277524"><ele>186.63</ele><time>2026-08-22T22:08:15Z</time></trkpt><trkpt lat="59.3852932099" lon="34.6256599389"><ele>188.08</ele><time>2026-08-22T22:08:17Z</time></trkpt><trkpt lat="59.3852823973" lon="34.6258108970"><ele>188.56</ele><time>2026-08-22T22:08:38Z</time></trkpt><trkpt lat="59.3852344528" lon="34.6260828059"><ele>190.00</ele><time>2026-08-22T22:08:56Z</time></trkpt><trkpt lat="59.3852003384" lon="34.6262744162"><ele>190.96</ele><time>2026-08-22T22:09:13Z</time></trkpt><trkpt lat="59.3851479515" lon="34.6264665294"><ele>192.88</ele><time>2026-08-22T22:09:31Z</time></trkpt><trkpt lat="59.3850099016" lon="34.6266412083"><ele>194.32</ele><time>2026-08-22T22:09:54Z</time></trkpt><trkpt lat="59.3849952333" lon="34.6267735586"><ele>195.77</ele><time>2026-08-22T22:10:18Z</time></trkpt><trkpt lat="59.3850014359" lon="34.6269872971"><ele>196.25</ele><time>2026-08-22T22:10:36Z</time></trkpt><trkpt lat="59.3849814869" lon="34.6271443740"><ele>191.92</ele><time>2026-08-22T22:10:47Z</time></trkpt><trkpt lat="59.3849823251" lon="34.6271427814"><ele>184.71</ele><time>2026-08-22T22:10:48Z</time></trkpt><trkpt lat="59.3849836662" lon="34.6271442063"><ele>183.75</ele><time>2026-08-22T22:10:50Z</time></trkpt><trkpt lat="59.3849799782" lon="34.6271509957"><ele>194.32</ele><time>2026-08-22T22:10:51Z</time></trkpt><trkpt lat="59.3849726859" lon="34.6272115968"><ele>197.21</ele><time>2026-08-22T22:10:54Z</time></trkpt><trkpt lat="59.3849408347" lon="34.6273700148"><ele>195.28</ele><time>2026-08-22T22:11:01Z</time></trkpt><trkpt lat="59.3849231489" lon="34.6274552587"><ele>197.69</ele><time>2026-08-22T22:11:07Z</time></trkpt><trkpt lat="59.3849559221" lon="34.6275736950"><ele>198.65</ele><time>2026-08-22T22:11:23Z</time></trkpt><trkpt lat="59.3848990090" lon="34.6277639642"><ele>199.13</ele><time>2026-08-22T22:11:39Z</time></trkpt><trkpt lat="59.3848508131" lon="34.6279886831"><ele>200.09</ele><time>2026-08-22T22:11:55Z</time></trkpt><trkpt lat="59.3848235719" lon="34.6283251327"><ele>201.05</ele><time>2026-08-22T22:12:15Z</time></trkpt><trkpt lat="59.3847368192" lon="34.6286115423"><ele>201.53</ele><time>2026-08-22T22:12:30Z</time></trkpt><trkpt lat="59.3847056385" lon="34.6286714729"><ele>198.17</ele><time>2026-08-22T22:12:40Z</time></trkpt><trkpt lat="59.3847001065" lon="34.6286898293"><ele>198.65</ele><time>2026-08-22T22:12:41Z</time></trkpt><trkpt lat="59.3846716080" lon="34.6287753247"><ele>201.05</ele><time>2026-08-22T22:13:03Z</time></trkpt><trkpt lat="59.3845707737" lon="34.6289397776"><ele>200.57</ele><time>2026-08-22T22:13:20Z</time></trkpt><trkpt lat="59.3845270202" lon="34.6291396860"><ele>201.53</ele><time>2026-08-22T22:13:39Z</time></trkpt><trkpt lat="59.3844974320" lon="34.6293292008"><ele>202.01</ele><time>2026-08-22T22:13:56Z</time></trkpt><trkpt lat="59.3844649103" lon="34.6296455339"><ele>202.49</ele><time>2026-08-22T22:14:13Z</time></trkpt><trkpt lat="59.3844616413" lon="34.6296787262"><ele>194.32</ele><time>2026-08-22T22:14:16Z</time></trkpt><trkpt lat="59.3844667543" lon="34.6296855994"><ele>192.40</ele><time>2026-08-22T22:14:18Z</time></trkpt><trkpt lat="59.3844681792" lon="34.6296886168"><ele>202.01</ele><time>2026-08-22T22:14:19Z</time></trkpt><trkpt lat="59.3844670895" lon="34.6296960767"><ele>202.01</ele><time>2026-08-22T22:14:20Z</time></trkpt><trkpt lat="59.3844181392" lon="34.6299938019"><ele>202.98</ele><time>2026-08-22T22:14:38Z</time></trkpt><trkpt lat="59.3844411895" lon="34.6301584225"><ele>203.46</ele><time>2026-08-22T22:14:53Z</time></trkpt><trkpt lat="59.3844000343" lon="34.6303880867"><ele>204.42</ele><time>2026-08-22T22:15:14Z</time></trkpt><trkpt lat="59.3844270241" lon="34.6305501089"><ele>204.42</ele><time>2026-08-22T22:15:28Z</time></trkpt><trkpt lat="59.3844462186" lon="34.6307618357"><ele>204.90</ele><time>2026-08-22T22:15:47Z</time></trkpt><trkpt lat="59.3844716158" lon="34.6309747361"><ele>204.90</ele><time>2026-08-22T22:16:04Z</time></trkpt><trkpt lat="59.3845291995" lon="34.6312816814"><ele>205.86</ele><time>2026-08-22T22:16:22Z</time></trkpt><trkpt lat="59.3845278583" lon="34.6314429492"><ele>205.86</ele><time>2026-08-22T22:16:43Z</time></trkpt><trkpt lat="59.3845542613" lon="34.6316188853"><ele>202.98</ele><time>2026-08-22T22:16:54Z</time></trkpt><trkpt lat="59.3845347315" lon="34.6316540893"><ele>205.86</ele><time>2026-08-22T22:16:58Z</time></trkpt><trkpt lat="59.3845534232" lon="34.6318938117"><ele>205.86</ele><time>2026-08-22T22:17:13Z</time></trkpt><trkpt lat="59.3845378328" lon="34.6320233960"><ele>205.86</ele><time>2026-08-22T22:17:27Z</time></trkpt><trkpt lat="59.3845319655" lon="34.6320112422"><ele>205.86</ele><time>2026-08-22T22:17:33Z</time></trkpt><trkpt lat="59.3845437840" lon="34.6321380604"><ele>206.34</ele><time>2026-08-22T22:17:48Z</time></trkpt><trkpt lat="59.3845360726" lon="34.6321806405"><ele>207.30</ele><time>2026-08-22T22:18:05Z</time></trkpt><trkpt lat="59.3845289480" lon="34.6322985739"><ele>206.82</ele><time>2026-08-22T22:18:23Z</time></trkpt><trkpt lat="59.3844954204" lon="34.6323679760"><ele>207.30</ele><time>2026-08-22T22:18:37Z</time></trkpt><trkpt lat="59.3844820932" lon="34.6324554831"><ele>205.38</ele><time>2026-08-22T22:18:49Z</time></trkpt><trkpt lat="59.3844751362" lon="34.6324870829"><ele>207.30</ele><time>2026-08-22T22:18:55Z</time></trkpt><trkpt lat="59.3844666705" lon="34.6325576585"><ele>203.94</ele><time>2026-08-22T22:19:08Z</time></trkpt><trkpt lat="59.3844647426" lon="34.6325543057"><ele>200.57</ele><time>2026-08-22T22:19:09Z</time></trkpt><trkpt lat="59.3844613899" lon="34.6325546410"><ele>200.09</ele><time>2026-08-22T22:19:11Z</time></trkpt><trkpt lat="59.3844557740" lon="34.6325680520"><ele>203.94</ele><time>2026-08-22T22:19:12Z</time></trkpt><trkpt lat="59.3844437879" lon="34.6325977240"><ele>206.34</ele><time>2026-08-22T22:19:14Z</time></trkpt><trkpt lat="59.3844486494" lon="34.6327577345"><ele>206.34</ele><time>2026-08-22T22:19:27Z</time></trkpt><trkpt lat="59.3844336458" lon="34.6329247858"><ele>206.34</ele><time>2026-08-22T22:19:41Z</time></trkpt><trkpt lat="59.3844277784" lon="34.6330412105"><ele>206.34</ele><time>2026-08-22T22:19:55Z</time></trkpt><trkpt lat="59.3843851145" lon="34.6331303939"><ele>206.34</ele><time>2026-08-22T22:20:11Z</time></trkpt><trkpt lat="59.3843313865" lon="34.6332267858"><ele>205.38</ele><time>2026-08-22T22:20:26Z</time></trkpt><trkpt lat="59.3843011279" lon="34.6332226787"><ele>201.05</ele><time>2026-08-22T22:20:35Z</time></trkpt><trkpt lat="59.3842981104" lon="34.6332247742"><ele>204.42</ele><time>2026-08-22T22:20:36Z</time></trkpt><trkpt lat="59.3843026366" lon="34.6332611516"><ele>205.38</ele><time>2026-08-22T22:20:45Z</time></trkpt><trkpt lat="59.3842867110" lon="34.6333246864"><ele>204.90</ele><time>2026-08-22T22:21:03Z</time></trkpt><trkpt lat="59.3842644151" lon="34.6334342379"><ele>204.90</ele><time>2026-08-22T22:21:21Z</time></trkpt><trkpt lat="59.3842330668" lon="34.6334569529"><ele>204.42</ele><time>2026-08-22T22:21:44Z</time></trkpt><trkpt lat="59.3842156325" lon="34.6335250977"><ele>204.42</ele><time>2026-08-22T22:22:03Z</time></trkpt><trkpt lat="59.3841464818" lon="34.6335717849"><ele>203.46</ele><time>2026-08-22T22:22:15Z</time></trkpt><trkpt lat="59.3840779178" lon="34.6336523350"><ele>201.05</ele><time>2026-08-22T22:22:30Z</time></trkpt><trkpt lat="59.3840627465" lon="34.6336646564"><ele>203.94</ele><time>2026-08-22T22:22:39Z</time></trkpt><trkpt lat="59.3840179872" lon="34.6336588729"><ele>203.94</ele><time>2026-08-22T22:22:58Z</time></trkpt><trkpt lat="59.3839446455" lon="34.6337553486"><ele>203.94</ele><time>2026-08-22T22:23:11Z</time></trkpt><trkpt lat="59.3838680349" lon="34.6339148562"><ele>203.94</ele><time>2026-08-22T22:23:22Z</time></trkpt><trkpt lat="59.3838039134" lon="34.6340330411"><ele>203.94</ele><time>2026-08-22T22:23:32Z</time></trkpt><trkpt lat="59.3837879039" lon="34.6341301873"><ele>203.46</ele><time>2026-08-22T22:23:39Z</time></trkpt><trkpt lat="59.3837264646" lon="34.6342821512"><ele>203.94</ele><time>2026-08-22T22:23:51Z</time></trkpt><trkpt lat="59.3836922664" lon="34.6344429161"><ele>203.94</ele><time>2026-08-22T22:24:03Z</time></trkpt><trkpt lat="59.3836875726" lon="34.6344931237"><ele>204.90</ele><time>2026-08-22T22:24:18Z</time></trkpt><trkpt lat="59.3836863153" lon="34.6345393918"><ele>204.42</ele><time>2026-08-22T22:24:52Z</time></trkpt><trkpt lat="59.3836770114" lon="34.6345202811"><ele>204.90</ele><time>2026-08-22T22:25:28Z</time></trkpt><trkpt lat="59.3837022409" lon="34.6346304193"><ele>204.42</ele><time>2026-08-22T22:25:41Z</time></trkpt><trkpt lat="59.3837413006" lon="34.6346419025"><ele>200.09</ele><time>2026-08-22T22:25:48Z</time></trkpt><trkpt lat="59.3837497663" lon="34.6346384659"><ele>201.05</ele><time>2026-08-22T22:26:04Z</time></trkpt><trkpt lat="59.3838003092" lon="34.6347102989"><ele>200.09</ele><time>2026-08-22T22:26:25Z</time></trkpt><trkpt lat="59.3838241976" lon="34.6347733308"><ele>198.17</ele><time>2026-08-22T22:26:31Z</time></trkpt><trkpt lat="59.3838341720" lon="34.6348350216"><ele>194.32</ele><time>2026-08-22T22:26:37Z</time></trkpt><trkpt lat="59.3838412967" lon="34.6348515339"><ele>197.69</ele><time>2026-08-22T22:26:40Z</time></trkpt><trkpt lat="59.3839382753" lon="34.6348564792"><ele>197.21</ele><time>2026-08-22T22:26:53Z</time></trkpt><trkpt lat="59.3839715514" lon="34.6348818764"><ele>195.28</ele><time>2026-08-22T22:26:58Z</time></trkpt><trkpt lat="59.3840209208" lon="34.6348548867"><ele>195.28</ele><time>2026-08-22T22:27:11Z</time></trkpt><trkpt lat="59.3841090985" lon="34.6349071059"><ele>193.84</ele><time>2026-08-22T22:27:26Z</time></trkpt><trkpt lat="59.3841795065" lon="34.6348301601"><ele>192.88</ele><time>2026-08-22T22:27:39Z</time></trkpt><trkpt lat="59.3842221703" lon="34.6347462572"><ele>191.92</ele><time>2026-08-22T22:27:52Z</time></trkpt><trkpt lat="59.3842676003" lon="34.6345999930"><ele>190.48</ele><time>2026-08-22T22:28:06Z</time></trkpt><trkpt lat="59.3843168858" lon="34.6345123183"><ele>186.63</ele><time>2026-08-22T22:28:19Z</time></trkpt><trkpt lat="59.3843214959" lon="34.6345084626"><ele>186.63</ele><time>2026-08-22T22:28:20Z</time></trkpt><trkpt lat="59.3843299616" lon="34.6345215384"><ele>183.75</ele><time>2026-08-22T22:28:22Z</time></trkpt><trkpt lat="59.3843369186" lon="34.6345284116"><ele>183.75</ele><time>2026-08-22T22:28:23Z</time></trkpt><trkpt lat="59.3843415286" lon="34.6345346980"><ele>181.35</ele><time>2026-08-22T22:28:24Z</time></trkpt><trkpt lat="59.3843442108" lon="34.6345422417"><ele>183.75</ele><time>2026-08-22T22:28:26Z</time></trkpt><trkpt lat="59.3843441270" lon="34.6345438343"><ele>187.11</ele><time>2026-08-22T22:28:27Z</time></trkpt><trkpt lat="59.3843456358" lon="34.6345453430"><ele>187.11</ele><time>2026-08-22T22:28:28Z</time></trkpt><trkpt lat="59.3843532633" lon="34.6345523000"><ele>188.56</ele><time>2026-08-22T22:28:30Z</time></trkpt><trkpt lat="59.3844727892" lon="34.6345756017"><ele>187.11</ele><time>2026-08-22T22:28:48Z</time></trkpt><trkpt lat="59.3845795747" lon="34.6346315928"><ele>186.15</ele><time>2026-08-22T22:29:02Z</time></trkpt><trkpt lat="59.3845952488" lon="34.6345550660"><ele>184.71</ele><time>2026-08-22T22:29:17Z</time></trkpt><trkpt lat="59.3846099172" lon="34.6345559880"><ele>184.71</ele><time>2026-08-22T22:29:23Z</time></trkpt><trkpt lat="59.3846270163" lon="34.6343833208"><ele>183.75</ele><time>2026-08-22T22:29:37Z</time></trkpt><trkpt lat="59.3846670818" lon="34.6343673114"><ele>182.31</ele><time>2026-08-22T22:29:52Z</time></trkpt><trkpt lat="59.3847425189" lon="34.6343262400"><ele>181.83</ele><time>2026-08-22T22:30:07Z</time></trkpt><trkpt lat="59.3848135136" lon="34.6344914474"><ele>180.38</ele><time>2026-08-22T22:30:22Z</time></trkpt><trkpt lat="59.3849539105" lon="34.6348092053"><ele>179.90</ele><time>2026-08-22T22:30:39Z</time></trkpt><trkpt lat="59.3849675730" lon="34.6349347662"><ele>168.37</ele><time>2026-08-22T22:30:53Z</time></trkpt><trkpt lat="59.3849737756" lon="34.6349613369"><ele>173.66</ele><time>2026-08-22T22:30:54Z</time></trkpt><trkpt lat="59.3849891983" lon="34.6350003127"><ele>179.42</ele><time>2026-08-22T22:30:59Z</time></trkpt><trkpt lat="59.3849999271" lon="34.6350202616"><ele>178.94</ele><time>2026-08-22T22:31:00Z</time></trkpt><trkpt lat="59.3850715924" lon="34.6351758298"><ele>177.02</ele><time>2026-08-22T22:31:16Z</time></trkpt><trkpt lat="59.3851042818" lon="34.6353046596"><ele>177.98</ele><time>2026-08-22T22:31:31Z</time></trkpt><trkpt lat="59.3851383124" lon="34.6354728006"><ele>177.50</ele><time>2026-08-22T22:31:50Z</time></trkpt><trkpt lat="59.3852689862" lon="34.6355103515"><ele>177.50</ele><time>2026-08-22T22:32:07Z</time></trkpt><trkpt lat="59.3854051083" lon="34.6355070826"><ele>177.02</ele><time>2026-08-22T22:32:22Z</time></trkpt><trkpt lat="59.3855206110" lon="34.6356464736"><ele>177.02</ele><time>2026-08-22T22:32:39Z</time></trkpt><trkpt lat="59.3856602535" lon="34.6357960906"><ele>176.54</ele><time>2026-08-22T22:32:59Z</time></trkpt><trkpt lat="59.3858116306" lon="34.6359549277"><ele>176.06</ele><time>2026-08-22T22:33:17Z</time></trkpt><trkpt lat="59.3858467508" lon="34.6361123398"><ele>171.73</ele><time>2026-08-22T22:33:27Z</time></trkpt><trkpt lat="59.3858618382" lon="34.6361817420"><ele>175.58</ele><time>2026-08-22T22:33:31Z</time></trkpt><trkpt lat="59.3858630117" lon="34.6361949015"><ele>175.58</ele><time>2026-08-22T22:33:32Z</time></trkpt><trkpt lat="59.3859376106" lon="34.6363490447"><ele>175.58</ele><time>2026-08-22T22:33:48Z</time></trkpt><trkpt lat="59.3860089406" lon="34.6364282537"><ele>175.10</ele><time>2026-08-22T22:34:04Z</time></trkpt><trkpt lat="59.3860369362" lon="34.6364708338"><ele>175.10</ele><time>2026-08-22T22:34:08Z</time></trkpt><trkpt lat="59.3861415423" lon="34.6366886795"><ele>174.14</ele><time>2026-08-22T22:34:22Z</time></trkpt><trkpt lat="59.3861694541" lon="34.6367243864"><ele>174.14</ele><time>2026-08-22T22:34:33Z</time></trkpt><trkpt lat="59.3862079270" lon="34.6367502026"><ele>174.14</ele><time>2026-08-22T22:34:38Z</time></trkpt><trkpt lat="59.3862868007" lon="34.6368530486"><ele>173.66</ele><time>2026-08-22T22:34:48Z</time></trkpt><trkpt lat="59.3863081746" lon="34.6368982270"><ele>173.66</ele><time>2026-08-22T22:34:51Z</time></trkpt><trkpt lat="59.3863163888" lon="34.6369643603"><ele>173.66</ele><time>2026-08-22T22:34:54Z</time></trkpt><trkpt lat="59.3863463122" lon="34.6370597463"><ele>173.66</ele><time>2026-08-22T22:35:00Z</time></trkpt><trkpt lat="59.3863291293" lon="34.6372192539"><ele>173.66</ele><time>2026-08-22T22:35:10Z</time></trkpt><trkpt lat="59.3863397744" lon="34.6372511890"><ele>173.66</ele><time>2026-08-22T22:35:12Z</time></trkpt><trkpt lat="59.3863453064" lon="34.6372873988"><ele>173.66</ele><time>2026-08-22T22:35:14Z</time></trkpt><trkpt lat="59.3864166364" lon="34.6374845412"><ele>174.14</ele><time>2026-08-22T22:35:27Z</time></trkpt><trkpt lat="59.3864371721" lon="34.6375839505"><ele>172.69</ele><time>2026-08-22T22:35:33Z</time></trkpt><trkpt lat="59.3865262717" lon="34.6377119422"><ele>172.69</ele><time>2026-08-22T22:35:47Z</time></trkpt><trkpt lat="59.3865505792" lon="34.6377661731"><ele>173.17</ele><time>2026-08-22T22:35:52Z</time></trkpt><trkpt lat="59.3866313808" lon="34.6378974337"><ele>173.66</ele><time>2026-08-22T22:36:05Z</time></trkpt><trkpt lat="59.3866804987" lon="34.6380171273"><ele>174.14</ele><time>2026-08-22T22:36:18Z</time></trkpt><trkpt lat="59.3867183849" lon="34.6381282713"><ele>173.66</ele><time>2026-08-22T22:36:29Z</time></trkpt><trkpt lat="59.3867462967" lon="34.6381171234"><ele>174.14</ele><time>2026-08-22T22:36:32Z</time></trkpt><trkpt lat="59.3867758010" lon="34.6381543390"><ele>174.14</ele><time>2026-08-22T22:36:36Z</time></trkpt><trkpt lat="59.3868172914" lon="34.6383306105"><ele>171.25</ele><time>2026-08-22T22:36:48Z</time></trkpt><trkpt lat="59.3869370688" lon="34.6383587737"><ele>172.21</ele><time>2026-08-22T22:37:03Z</time></trkpt><trkpt lat="59.3870302755" lon="34.6383136790"><ele>173.66</ele><time>2026-08-22T22:37:15Z</time></trkpt><trkpt lat="59.3871175312" lon="34.6383039560"><ele>173.66</ele><time>2026-08-22T22:37:28Z</time></trkpt><trkpt lat="59.3871977460" lon="34.6383131761"><ele>173.17</ele><time>2026-08-22T22:37:40Z</time></trkpt><trkpt lat="59.3872834090" lon="34.6382897906"><ele>173.17</ele><time>2026-08-22T22:37:52Z</time></trkpt><trkpt lat="59.3873171043" lon="34.6383081470"><ele>173.17</ele><time>2026-08-22T22:38:03Z</time></trkpt><trkpt lat="59.3873937987" lon="34.6383271739"><ele>173.17</ele><time>2026-08-22T22:38:15Z</time></trkpt><trkpt lat="59.3875085469" lon="34.6383117512"><ele>173.17</ele><time>2026-08-22T22:38:29Z</time></trkpt><trkpt lat="59.3875431642" lon="34.6382693388"><ele>172.69</ele><time>2026-08-22T22:38:37Z</time></trkpt><trkpt lat="59.3875162583" lon="34.6381069813"><ele>173.17</ele><time>2026-08-22T22:38:49Z</time></trkpt><trkpt lat="59.3875478581" lon="34.6380462125"><ele>173.17</ele><time>2026-08-22T22:39:00Z</time></trkpt><trkpt lat="59.3876422383" lon="34.6381213143"><ele>172.69</ele><time>2026-08-22T22:39:14Z</time></trkpt><trkpt lat="59.3876579124" lon="34.6381224878"><ele>173.17</ele><time>2026-08-22T22:39:20Z</time></trkpt><trkpt lat="59.3877454195" lon="34.6381523274"><ele>172.69</ele><time>2026-08-22T22:39:32Z</time></trkpt><trkpt lat="59.3878208566" lon="34.6381068137"><ele>172.69</ele><time>2026-08-22T22:39:44Z</time></trkpt><trkpt lat="59.3878256343" lon="34.6380872000"><ele>169.33</ele><time>2026-08-22T22:39:48Z</time></trkpt><trkpt lat="59.3878263049" lon="34.6380975097"><ele>172.69</ele><time>2026-08-22T22:39:50Z</time></trkpt><trkpt lat="59.3878297415" lon="34.6380870324"><ele>172.69</ele><time>2026-08-22T22:40:04Z</time></trkpt><trkpt lat="59.3878474273" lon="34.6380427759"><ele>172.69</ele><time>2026-08-22T22:40:08Z</time></trkpt><trkpt lat="59.3878931087" lon="34.6379784867"><ele>170.29</ele><time>2026-08-22T22:40:15Z</time></trkpt><trkpt lat="59.3879583199" lon="34.6378991939"><ele>171.25</ele><time>2026-08-22T22:40:31Z</time></trkpt><trkpt lat="59.3880214356" lon="34.6377125289"><ele>170.77</ele><time>2026-08-22T22:40:47Z</time></trkpt><trkpt lat="59.3880793545" lon="34.6375421248"><ele>169.81</ele><time>2026-08-22T22:41:00Z</time></trkpt><trkpt lat="59.3880852219" lon="34.6375127882"><ele>169.81</ele><time>2026-08-22T22:41:02Z</time></trkpt><trkpt lat="59.3881399557" lon="34.6373438928"><ele>169.33</ele><time>2026-08-22T22:41:14Z</time></trkpt><trkpt lat="59.3881828710" lon="34.6371778473"><ele>168.85</ele><time>2026-08-22T22:41:27Z</time></trkpt><trkpt lat="59.3882463221" lon="34.6370226145"><ele>168.85</ele><time>2026-08-22T22:41:39Z</time></trkpt><trkpt lat="59.3882592302" lon="34.6370045934"><ele>168.85</ele><time>2026-08-22T22:41:41Z</time></trkpt><trkpt lat="59.3883025646" lon="34.6369331796"><ele>168.85</ele><time>2026-08-22T22:41:48Z</time></trkpt><trkpt lat="59.3883220945" lon="34.6368558146"><ele>168.37</ele><time>2026-08-22T22:41:53Z</time></trkpt><trkpt lat="59.3883540295" lon="34.6367384680"><ele>164.52</ele><time>2026-08-22T22:42:05Z</time></trkpt><trkpt lat="59.3883553706" lon="34.6367392223"><ele>162.60</ele><time>2026-08-22T22:42:08Z</time></trkpt><trkpt lat="59.3883579690" lon="34.6367475204"><ele>165.48</ele><time>2026-08-22T22:42:13Z</time></trkpt><trkpt lat="59.3883683626" lon="34.6367276553"><ele>167.41</ele><time>2026-08-22T22:42:15Z</time></trkpt><trkpt lat="59.3884705380" lon="34.6366315987"><ele>166.93</ele><time>2026-08-22T22:42:29Z</time></trkpt><trkpt lat="59.3884652574" lon="34.6366350353"><ele>166.45</ele><time>2026-08-22T22:42:32Z</time></trkpt><trkpt lat="59.3885101844" lon="34.6365869232"><ele>166.45</ele><time>2026-08-22T22:42:37Z</time></trkpt><trkpt lat="59.3885442987" lon="34.6365167666"><ele>166.45</ele><time>2026-08-22T22:42:44Z</time></trkpt><trkpt lat="59.3885892257" lon="34.6364201233"><ele>166.45</ele><time>2026-08-22T22:42:52Z</time></trkpt><trkpt lat="59.3886765651" lon="34.6363661438"><ele>166.45</ele><time>2026-08-22T22:43:04Z</time></trkpt><trkpt lat="59.3887369987" lon="34.6362620406"><ele>166.45</ele><time>2026-08-22T22:43:14Z</time></trkpt><trkpt lat="59.3888471369" lon="34.6361649781"><ele>165.48</ele><time>2026-08-22T22:43:28Z</time></trkpt><trkpt lat="59.3888535909" lon="34.6361596137"><ele>165.48</ele><time>2026-08-22T22:43:29Z</time></trkpt><trkpt lat="59.3888688460" lon="34.6361482982"><ele>163.56</ele><time>2026-08-22T22:43:31Z</time></trkpt><trkpt lat="59.3889012840" lon="34.6361563448"><ele>161.64</ele><time>2026-08-22T22:43:43Z</time></trkpt><trkpt lat="59.3889150303" lon="34.6361401677"><ele>164.52</ele><time>2026-08-22T22:43:45Z</time></trkpt><trkpt lat="59.3889214844" lon="34.6361301094"><ele>164.52</ele><time>2026-08-22T22:43:46Z</time></trkpt><trkpt lat="59.3889629748" lon="34.6360565163"><ele>164.04</ele><time>2026-08-22T22:43:53Z</time></trkpt><trkpt lat="59.3890520744" lon="34.6361135133"><ele>163.56</ele><time>2026-08-22T22:44:05Z</time></trkpt><trkpt lat="59.3890661560" lon="34.6361378208"><ele>163.56</ele><time>2026-08-22T22:44:07Z</time></trkpt><trkpt lat="59.3891286012" lon="34.6361991763"><ele>163.56</ele><time>2026-08-22T22:44:16Z</time></trkpt><trkpt lat="59.3892011046" lon="34.6363291796"><ele>163.56</ele><time>2026-08-22T22:44:28Z</time></trkpt><trkpt lat="59.3892607000" lon="34.6364540700"><ele>163.56</ele><time>2026-08-22T22:44:39Z</time></trkpt><trkpt lat="59.3892922159" lon="34.6365480311"><ele>163.56</ele><time>2026-08-22T22:44:53Z</time></trkpt><trkpt lat="59.3893316947" lon="34.6366050281"><ele>163.08</ele><time>2026-08-22T22:44:59Z</time></trkpt><trkpt lat="59.3893941399" lon="34.6367385518"><ele>163.56</ele><time>2026-08-22T22:45:10Z</time></trkpt><trkpt lat="59.3894461915" lon="34.6369287372"><ele>164.04</ele><time>2026-08-22T22:45:23Z</time></trkpt><trkpt lat="59.3894803897" lon="34.6371010691"><ele>164.52</ele><time>2026-08-22T22:45:35Z</time></trkpt><trkpt lat="59.3895362969" lon="34.6372519433"><ele>164.04</ele><time>2026-08-22T22:45:49Z</time></trkpt><trkpt lat="59.3895353749" lon="34.6372828726"><ele>164.52</ele><time>2026-08-22T22:46:01Z</time></trkpt><trkpt lat="59.3895387277" lon="34.6374623291"><ele>164.04</ele><time>2026-08-22T22:46:12Z</time></trkpt><trkpt lat="59.3895597663" lon="34.6376290452"><ele>164.52</ele><time>2026-08-22T22:46:25Z</time></trkpt><trkpt lat="59.3895267416" lon="34.6377734654"><ele>163.08</ele><time>2026-08-22T22:46:35Z</time></trkpt><trkpt lat="59.3895444274" lon="34.6377567016"><ele>160.20</ele><time>2026-08-22T22:46:42Z</time></trkpt><trkpt lat="59.3895535637" lon="34.6377644129"><ele>163.56</ele><time>2026-08-22T22:46:47Z</time></trkpt><trkpt lat="59.3896192778" lon="34.6378400177"><ele>163.56</ele><time>2026-08-22T22:46:59Z</time></trkpt><trkpt lat="59.3896673061" lon="34.6379539277"><ele>163.56</ele><time>2026-08-22T22:47:16Z</time></trkpt><trkpt lat="59.3897199444" lon="34.6379955020"><ele>163.56</ele><time>2026-08-22T22:47:32Z</time></trkpt><trkpt lat="59.3897522148" lon="34.6379662491"><ele>163.08</ele><time>2026-08-22T22:47:53Z</time></trkpt><trkpt lat="59.3898004945" lon="34.6379759721"><ele>161.64</ele><time>2026-08-22T22:48:16Z</time></trkpt><trkpt lat="59.3898075353" lon="34.6379605494"><ele>156.83</ele><time>2026-08-22T22:48:21Z</time></trkpt><trkpt lat="59.3898160849" lon="34.6379581187"><ele>160.68</ele><time>2026-08-22T22:48:22Z</time></trkpt><trkpt lat="59.3898685556" lon="34.6378867049"><ele>160.68</ele><time>2026-08-22T22:48:39Z</time></trkpt><trkpt lat="59.3898942880" lon="34.6377653349"><ele>159.72</ele><time>2026-08-22T22:49:00Z</time></trkpt><trkpt lat="59.3899229541" lon="34.6376279555"><ele>155.39</ele><time>2026-08-22T22:49:14Z</time></trkpt><trkpt lat="59.3899365328" lon="34.6376349963"><ele>156.35</ele><time>2026-08-22T22:49:18Z</time></trkpt><trkpt lat="59.3899477646" lon="34.6376348287"><ele>158.75</ele><time>2026-08-22T22:49:22Z</time></trkpt><trkpt lat="59.3900247104" lon="34.6376852877"><ele>158.27</ele><time>2026-08-22T22:49:41Z</time></trkpt><trkpt lat="59.3901377823" lon="34.6377216652"><ele>157.79</ele><time>2026-08-22T22:50:00Z</time></trkpt><trkpt lat="59.3902626727" lon="34.6376856230"><ele>157.79</ele><time>2026-08-22T22:50:21Z</time></trkpt><trkpt lat="59.3904142175" lon="34.6378022991"><ele>158.27</ele><time>2026-08-22T22:50:41Z</time></trkpt><trkpt lat="59.3905188236" lon="34.6378790773"><ele>158.27</ele><time>2026-08-22T22:51:01Z</time></trkpt><trkpt lat="59.3905858789" lon="34.6379080787"><ele>158.27</ele><time>2026-08-22T22:51:22Z</time></trkpt><trkpt lat="59.3905927520" lon="34.6379297040"><ele>158.75</ele><time>2026-08-22T22:51:36Z</time></trkpt><trkpt lat="59.3906821869" lon="34.6378912311"><ele>157.79</ele><time>2026-08-22T22:51:55Z</time></trkpt><trkpt lat="59.3907206599" lon="34.6378831007"><ele>154.43</ele><time>2026-08-22T22:52:06Z</time></trkpt><trkpt lat="59.3907260243" lon="34.6378768981"><ele>145.78</ele><time>2026-08-22T22:52:07Z</time></trkpt><trkpt lat="59.3907292094" lon="34.6378781553"><ele>150.10</ele><time>2026-08-22T22:52:08Z</time></trkpt><trkpt lat="59.3907303829" lon="34.6378784906"><ele>157.31</ele><time>2026-08-22T22:52:09Z</time></trkpt><trkpt lat="59.3907328974" lon="34.6378699411"><ele>158.27</ele><time>2026-08-22T22:52:11Z</time></trkpt><trkpt lat="59.3907914869" lon="34.6377524268"><ele>157.79</ele><time>2026-08-22T22:52:31Z</time></trkpt><trkpt lat="59.3908871245" lon="34.6376845334"><ele>157.31</ele><time>2026-08-22T22:52:50Z</time></trkpt><trkpt lat="59.3909276929" lon="34.6376297995"><ele>157.31</ele><time>2026-08-22T22:53:12Z</time></trkpt><trkpt lat="59.3909494020" lon="34.6376418695"><ele>153.95</ele><time>2026-08-22T22:53:25Z</time></trkpt><trkpt lat="59.3909490667" lon="34.6376639139"><ele>157.31</ele><time>2026-08-22T22:53:26Z</time></trkpt><trkpt lat="59.3909983523" lon="34.6377329808"><ele>156.35</ele><time>2026-08-22T22:53:54Z</time></trkpt><trkpt lat="59.3909820076" lon="34.6378022153"><ele>155.87</ele><time>2026-08-22T22:54:10Z</time></trkpt><trkpt lat="59.3909922335" lon="34.6379089169"><ele>155.87</ele><time>2026-08-22T22:54:26Z</time></trkpt><trkpt lat="59.3909577839" lon="34.6380297840"><ele>155.87</ele><time>2026-08-22T22:54:39Z</time></trkpt><trkpt lat="59.3909857795" lon="34.6382110007"><ele>155.87</ele><time>2026-08-22T22:54:54Z</time></trkpt><trkpt lat="59.3909891322" lon="34.6383364778"><ele>156.83</ele><time>2026-08-22T22:55:08Z</time></trkpt><trkpt lat="59.3910215702" lon="34.6385052055"><ele>156.83</ele><time>2026-08-22T22:55:22Z</time></trkpt><trkpt lat="59.3910434470" lon="34.6386461891"><ele>157.79</ele><time>2026-08-22T22:55:37Z</time></trkpt><trkpt lat="59.3910671677" lon="34.6387924533"><ele>157.79</ele><time>2026-08-22T22:55:56Z</time></trkpt><trkpt lat="59.3911423534" lon="34.6389233787"><ele>158.75</ele><time>2026-08-22T22:56:12Z</time></trkpt><trkpt lat="59.3912068941" lon="34.6390859038"><ele>159.72</ele><time>2026-08-22T22:56:36Z</time></trkpt><trkpt lat="59.3912492227" lon="34.6391171683"><ele>160.20</ele><time>2026-08-22T22:57:03Z</time></trkpt><trkpt lat="59.3912468757" lon="34.6391279809"><ele>161.16</ele><time>2026-08-22T22:57:25Z</time></trkpt><trkpt lat="59.3912512343" lon="34.6390530467"><ele>160.68</ele><time>2026-08-22T22:57:49Z</time></trkpt><trkpt lat="59.3912944850" lon="34.6391492710"><ele>161.16</ele><time>2026-08-22T22:58:20Z</time></trkpt><trkpt lat="59.3912560120" lon="34.6391494386"><ele>160.68</ele><time>2026-08-22T22:58:43Z</time></trkpt><trkpt lat="59.3912230711" lon="34.6392066032"><ele>160.68</ele><time>2026-08-22T22:59:05Z</time></trkpt><trkpt lat="59.3912274297" lon="34.6391795296"><ele>160.68</ele><time>2026-08-22T22:59:26Z</time></trkpt><trkpt lat="59.3912506476" lon="34.6390621830"><ele>160.20</ele><time>2026-08-22T23:00:00Z</time></trkpt><trkpt lat="59.3912611250" lon="34.6389777772"><ele>159.72</ele><time>2026-08-22T23:00:38Z</time></trkpt><trkpt lat="59.3912597839" lon="34.6390172560"><ele>156.35</ele><time>2026-08-22T23:00:55Z</time></trkpt><trkpt lat="59.3912587781" lon="34.6390210278"><ele>154.43</ele><time>2026-08-22T23:00:57Z</time></trkpt><trkpt lat="59.3912565988" lon="34.6390209440"><ele>158.75</ele><time>2026-08-22T23:00:58Z</time></trkpt><trkpt lat="59.3912601192" lon="34.6390315890"><ele>158.75</ele><time>2026-08-22T23:00:59Z</time></trkpt><trkpt lat="59.3912761286" lon="34.6390281525"><ele>152.51</ele><time>2026-08-22T23:01:08Z</time></trkpt><trkpt lat="59.3912700098" lon="34.6390328463"><ele>156.35</ele><time>2026-08-22T23:01:09Z</time></trkpt><trkpt lat="59.3912720215" lon="34.6390442457"><ele>157.79</ele><time>2026-08-22T23:01:11Z</time></trkpt><trkpt lat="59.3912476301" lon="34.6390114725"><ele>157.79</ele><time>2026-08-22T23:01:40Z</time></trkpt><trkpt lat="59.3913306948" lon="34.6392335091"><ele>156.83</ele><time>2026-08-22T23:02:03Z</time></trkpt><trkpt lat="59.3914097361" lon="34.6393268835"><ele>156.83</ele><time>2026-08-22T23:02:20Z</time></trkpt><trkpt lat="59.3914596085" lon="34.6393826231"><ele>156.35</ele><time>2026-08-22T23:02:37Z</time></trkpt><trkpt lat="59.3915145099" lon="34.6394226886"><ele>156.35</ele><time>2026-08-22T23:02:51Z</time></trkpt><trkpt lat="59.3915922940" lon="34.6395090222"><ele>156.83</ele><time>2026-08-22T23:03:07Z</time></trkpt><trkpt lat="59.3916269951" lon="34.6395787597"><ele>156.83</ele><time>2026-08-22T23:03:25Z</time></trkpt><trkpt lat="59.3917492870" lon="34.6396640036"><ele>157.31</ele><time>2026-08-22T23:03:42Z</time></trkpt><trkpt lat="59.3918158393" lon="34.6397055779"><ele>155.87</ele><time>2026-08-22T23:04:08Z</time></trkpt><trkpt lat="59.3918467686" lon="34.6396845393"><ele>154.91</ele><time>2026-08-22T23:04:28Z</time></trkpt><trkpt lat="59.3918913603" lon="34.6397933364"><ele>154.91</ele><time>2026-08-22T23:04:44Z</time></trkpt><trkpt lat="59.3919597566" lon="34.6399095096"><ele>154.91</ele><time>2026-08-22T23:04:57Z</time></trkpt><trkpt lat="59.3920223694" lon="34.6400179714"><ele>155.39</ele><time>2026-08-22T23:05:12Z</time></trkpt><trkpt lat="59.3921040930" lon="34.6401854418"><ele>155.87</ele><time>2026-08-22T23:05:28Z</time></trkpt><trkpt lat="59.3921796978" lon="34.6403694246"><ele>156.83</ele><time>2026-08-22T23:05:44Z</time></trkpt><trkpt lat="59.3922413047" lon="34.6404463705"><ele>156.83</ele><time>2026-08-22T23:05:51Z</time></trkpt><trkpt lat="59.3922941945" lon="34.6405106597"><ele>157.31</ele><time>2026-08-22T23:05:59Z</time></trkpt><trkpt lat="59.3923511915" lon="34.6405925509"><ele>153.95</ele><time>2026-08-22T23:06:05Z</time></trkpt><trkpt lat="59.3923614174" lon="34.6406018548"><ele>150.10</ele><time>2026-08-22T23:06:06Z</time></trkpt><trkpt lat="59.3923706375" lon="34.6406093985"><ele>150.58</ele><time>2026-08-22T23:06:07Z</time></trkpt><trkpt lat="59.3923780136" lon="34.6406166907"><ele>153.47</ele><time>2026-08-22T23:06:08Z</time></trkpt><trkpt lat="59.3924627546" lon="34.6407456044"><ele>156.83</ele><time>2026-08-22T23:06:15Z</time></trkpt><trkpt lat="59.3926852103" lon="34.6410296671"><ele>155.87</ele><time>2026-08-22T23:06:41Z</time></trkpt><trkpt lat="59.3928878848" lon="34.6413102094"><ele>152.99</ele><time>2026-08-22T23:07:03Z</time></trkpt><trkpt lat="59.3930179719" lon="34.6415042505"><ele>151.06</ele><time>2026-08-22T23:07:25Z</time></trkpt><trkpt lat="59.3931198120" lon="34.6415741555"><ele>147.70</ele><time>2026-08-22T23:07:52Z</time></trkpt><trkpt lat="59.3931314629" lon="34.6415800229"><ele>145.30</ele><time>2026-08-22T23:08:20Z</time></trkpt><trkpt lat="59.3931069877" lon="34.6415882371"><ele>143.37</ele><time>2026-08-22T23:08:48Z</time></trkpt><trkpt lat="59.3931439519" lon="34.6415865608"><ele>140.01</ele><time>2026-08-22T23:09:05Z</time></trkpt><trkpt lat="59.3931352347" lon="34.6415817831"><ele>138.57</ele><time>2026-08-22T23:09:08Z</time></trkpt><trkpt lat="59.3931354862" lon="34.6415802743"><ele>140.49</ele><time>2026-08-22T23:09:09Z</time></trkpt><trkpt lat="59.3931732886" lon="34.6415453218"><ele>140.01</ele><time>2026-08-22T23:09:36Z</time></trkpt><trkpt lat="59.3932001106" lon="34.6415091120"><ele>139.05</ele><time>2026-08-22T23:09:50Z</time></trkpt><trkpt lat="59.3931939080" lon="34.6415263787"><ele>138.09</ele><time>2026-08-22T23:10:10Z</time></trkpt><trkpt lat="59.3931288645" lon="34.6415468305"><ele>136.64</ele><time>2026-08-22T23:10:32Z</time></trkpt><trkpt lat="59.3930248450" lon="34.6415306535"><ele>135.68</ele><time>2026-08-22T23:10:59Z</time></trkpt><trkpt lat="59.3930330593" lon="34.6414264664"><ele>133.28</ele><time>2026-08-22T23:11:16Z</time></trkpt><trkpt lat="59.3930391781" lon="34.6414168272"><ele>134.72</ele><time>2026-08-22T23:11:22Z</time></trkpt><trkpt lat="59.3930806685" lon="34.6415338386"><ele>131.36</ele><time>2026-08-22T23:11:33Z</time></trkpt><trkpt lat="59.3931065686" lon="34.6415640973"><ele>131.84</ele><time>2026-08-22T23:11:34Z</time></trkpt><trkpt lat="59.3932273518" lon="34.6416602377"><ele>132.32</ele><time>2026-08-22T23:11:49Z</time></trkpt><trkpt lat="59.3933274318" lon="34.6417492535"><ele>131.36</ele><time>2026-08-22T23:12:08Z</time></trkpt><trkpt lat="59.3933333829" lon="34.6417539474"><ele>132.32</ele><time>2026-08-22T23:12:10Z</time></trkpt><trkpt lat="59.3933637254" lon="34.6417619940"><ele>133.28</ele><time>2026-08-22T23:12:16Z</time></trkpt><trkpt lat="59.3934337981" lon="34.6418992896"><ele>136.16</ele><time>2026-08-22T23:12:26Z</time></trkpt><trkpt lat="59.3936150149" lon="34.6421326417"><ele>135.20</ele><time>2026-08-22T23:12:50Z</time></trkpt><trkpt lat="59.3937917892" lon="34.6424224041"><ele>133.76</ele><time>2026-08-22T23:13:15Z</time></trkpt><trkpt lat="59.3940419052" lon="34.6426013578"><ele>133.28</ele><time>2026-08-22T23:13:41Z</time></trkpt><trkpt lat="59.3941763509" lon="34.6429325268"><ele>131.36</ele><time>2026-08-22T23:14:05Z</time></trkpt><trkpt lat="59.3942609243" lon="34.6433313377"><ele>130.40</ele><time>2026-08-22T23:14:25Z</time></trkpt><trkpt lat="59.3942833878" lon="34.6435792744"><ele>129.92</ele><time>2026-08-22T23:14:46Z</time></trkpt><trkpt lat="59.3942594156" lon="34.6436236985"><ele>127.99</ele><time>2026-08-22T23:15:10Z</time></trkpt><trkpt lat="59.3942323420" lon="34.6438096929"><ele>124.63</ele><time>2026-08-22T23:15:24Z</time></trkpt><trkpt lat="59.3941394705" lon="34.6441239305"><ele>123.67</ele><time>2026-08-22T23:15:47Z</time></trkpt><trkpt lat="59.3940232135" lon="34.6444335580"><ele>121.74</ele><time>2026-08-22T23:16:05Z</time></trkpt><trkpt lat="59.3939414062" lon="34.6446744539"><ele>118.86</ele><time>2026-08-22T23:16:25Z</time></trkpt><trkpt lat="59.3938199524" lon="34.6448712610"><ele>117.90</ele><time>2026-08-22T23:16:47Z</time></trkpt><trkpt lat="59.3937151786" lon="34.6451032721"><ele>115.50</ele><time>2026-08-22T23:17:09Z</time></trkpt><trkpt lat="59.3936404120" lon="34.6456085332"><ele>113.09</ele><time>2026-08-22T23:17:37Z</time></trkpt><trkpt lat="59.3935366441" lon="34.6459327452"><ele>110.21</ele><time>2026-08-22T23:18:01Z</time></trkpt><trkpt lat="59.3934374861" lon="34.6462768223"><ele>108.77</ele><time>2026-08-22T23:18:24Z</time></trkpt><trkpt lat="59.3934435211" lon="34.6464935783"><ele>100.11</ele><time>2026-08-22T23:18:45Z</time></trkpt><trkpt lat="59.3934468739" lon="34.6465003677"><ele>105.88</ele><time>2026-08-22T23:18:46Z</time></trkpt><trkpt lat="59.3934538309" lon="34.6465061512"><ele>106.36</ele><time>2026-08-22T23:18:48Z</time></trkpt><trkpt lat="59.3934648950" lon="34.6466146968"><ele>103.96</ele><time>2026-08-22T23:19:15Z</time></trkpt><trkpt lat="59.3934180401" lon="34.6466338914"><ele>102.52</ele><time>2026-08-22T23:19:33Z</time></trkpt><trkpt lat="59.3934006058" lon="34.6465582028"><ele>101.56</ele><time>2026-08-22T23:19:51Z</time></trkpt><trkpt lat="59.3934507295" lon="34.6466142777"><ele>100.11</ele><time>2026-08-22T23:20:12Z</time></trkpt><trkpt lat="59.3935521506" lon="34.6467168722"><ele>98.19</ele><time>2026-08-22T23:20:37Z</time></trkpt><trkpt lat="59.3933928106" lon="34.6465386730"><ele>96.75</ele><time>2026-08-22T23:21:01Z</time></trkpt><trkpt lat="59.3934396654" lon="34.6469591092"><ele>95.79</ele><time>2026-08-22T23:21:21Z</time></trkpt><trkpt lat="59.3934267573" lon="34.6473393124"><ele>95.79</ele><time>2026-08-22T23:21:38Z</time></trkpt><trkpt lat="59.3934693374" lon="34.6477466729"><ele>93.87</ele><time>2026-08-22T23:22:00Z</time></trkpt><trkpt lat="59.3934972491" lon="34.6481654327"><ele>92.90</ele><time>2026-08-22T23:22:23Z</time></trkpt><trkpt lat="59.3935446069" lon="34.6484855376"><ele>92.90</ele><time>2026-08-22T23:22:42Z</time></trkpt><trkpt lat="59.3936760351" lon="34.6488756314"><ele>91.94</ele><time>2026-08-22T23:23:03Z</time></trkpt><trkpt lat="59.3936908711" lon="34.6489203069"><ele>90.50</ele><time>2026-08-22T23:23:06Z</time></trkpt><trkpt lat="59.3936720956" lon="34.6490743663"><ele>87.14</ele><time>2026-08-22T23:23:15Z</time></trkpt><trkpt lat="59.3936732691" lon="34.6490869392"><ele>81.85</ele><time>2026-08-22T23:23:16Z</time></trkpt><trkpt lat="59.3936756998" lon="34.6490872744"><ele>81.85</ele><time>2026-08-22T23:23:17Z</time></trkpt><trkpt lat="59.3936910387" lon="34.6491157729"><ele>88.10</ele><time>2026-08-22T23:23:21Z</time></trkpt><trkpt lat="59.3936942238" lon="34.6491227299"><ele>88.10</ele><time>2026-08-22T23:23:22Z</time></trkpt><trkpt lat="59.3937378097" lon="34.6491949819"><ele>86.66</ele><time>2026-08-22T23:23:33Z</time></trkpt><trkpt lat="59.3937468622" lon="34.6492154337"><ele>88.10</ele><time>2026-08-22T23:23:36Z</time></trkpt><trkpt lat="59.3937489577" lon="34.6492648870"><ele>89.54</ele><time>2026-08-22T23:23:40Z</time></trkpt><trkpt lat="59.3938066252" lon="34.6493218839"><ele>90.02</ele><time>2026-08-22T23:23:54Z</time></trkpt><trkpt lat="59.3938173540" lon="34.6493517235"><ele>92.90</ele><time>2026-08-22T23:23:56Z</time></trkpt><trkpt lat="59.3938759435" lon="34.6494801342"><ele>96.75</ele><time>2026-08-22T23:24:05Z</time></trkpt><trkpt lat="59.3938842416" lon="34.6494897734"><ele>96.75</ele><time>2026-08-22T23:24:06Z</time></trkpt><trkpt lat="59.3939164281" lon="34.6495462675"><ele>97.71</ele><time>2026-08-22T23:24:10Z</time></trkpt><trkpt lat="59.3940445036" lon="34.6498906799"><ele>99.15</ele><time>2026-08-22T23:24:32Z</time></trkpt><trkpt lat="59.3941735849" lon="34.6502161492"><ele>100.11</ele><time>2026-08-22T23:24:51Z</time></trkpt><trkpt lat="59.3943049293" lon="34.6505015530"><ele>102.04</ele><time>2026-08-22T23:25:11Z</time></trkpt><trkpt lat="59.3944570608" lon="34.6508608852"><ele>102.52</ele><time>2026-08-22T23:25:33Z</time></trkpt><trkpt lat="59.3946330808" lon="34.6510960814"><ele>103.48</ele><time>2026-08-22T23:25:56Z</time></trkpt><trkpt lat="59.3948298041" lon="34.6513656434"><ele>103.96</ele><time>2026-08-22T23:26:19Z</time></trkpt><trkpt lat="59.3949992023" lon="34.6517046075"><ele>104.92</ele><time>2026-08-22T23:26:44Z</time></trkpt><trkpt lat="59.3951418623" lon="34.6518295817"><ele>104.92</ele><time>2026-08-22T23:27:03Z</time></trkpt><trkpt lat="59.3953253422" lon="34.6521068551"><ele>104.92</ele><time>2026-08-22T23:27:29Z</time></trkpt><trkpt lat="59.3954768870" lon="34.6522640157"><ele>105.40</ele><time>2026-08-22T23:27:51Z</time></trkpt><trkpt lat="59.3955438584" lon="34.6524868906"><ele>104.44</ele><time>2026-08-22T23:28:14Z</time></trkpt><trkpt lat="59.3956176192" lon="34.6526599769"><ele>104.92</ele><time>2026-08-22T23:28:34Z</time></trkpt><trkpt lat="59.3957672361" lon="34.6528245974"><ele>104.44</ele><time>2026-08-22T23:28:58Z</time></trkpt><trkpt lat="59.3958311062" lon="34.6531198081"><ele>103.96</ele><time>2026-08-22T23:29:21Z</time></trkpt><trkpt lat="59.3958430924" lon="34.6533425990"><ele>103.96</ele><time>2026-08-22T23:29:42Z</time></trkpt><trkpt lat="59.3959472794" lon="34.6534891985"><ele>103.00</ele><time>2026-08-22T23:30:04Z</time></trkpt><trkpt lat="59.3960910290" lon="34.6536978241"><ele>102.52</ele><time>2026-08-22T23:30:25Z</time></trkpt><trkpt lat="59.3961818889" lon="34.6540896781"><ele>102.52</ele><time>2026-08-22T23:30:48Z</time></trkpt><trkpt lat="59.3963552266" lon="34.6543527022"><ele>102.04</ele><time>2026-08-22T23:31:12Z</time></trkpt><trkpt lat="59.3964721542" lon="34.6546694543"><ele>102.52</ele><time>2026-08-22T23:31:37Z</time></trkpt><trkpt lat="59.3965878244" lon="34.6548638307"><ele>102.04</ele><time>2026-08-22T23:31:58Z</time></trkpt><trkpt lat="59.3967850506" lon="34.6551041398"><ele>101.56</ele><time>2026-08-22T23:32:23Z</time></trkpt><trkpt lat="59.3968360964" lon="34.6552158706"><ele>93.39</ele><time>2026-08-22T23:32:29Z</time></trkpt><trkpt lat="59.3968463223" lon="34.6552328859"><ele>93.39</ele><time>2026-08-22T23:32:30Z</time></trkpt><trkpt lat="59.3968935963" lon="34.6552488115"><ele>98.19</ele><time>2026-08-22T23:32:35Z</time></trkpt><trkpt lat="59.3969023135" lon="34.6552530024"><ele>97.71</ele><time>2026-08-22T23:32:36Z</time></trkpt><trkpt lat="59.3969938438" lon="34.6552719455"><ele>102.04</ele><time>2026-08-22T23:32:49Z</time></trkpt><trkpt lat="59.3970023096" lon="34.6552695986"><ele>102.04</ele><time>2026-08-22T23:32:50Z</time></trkpt><trkpt lat="59.3970576301" lon="34.6552706044"><ele>97.23</ele><time>2026-08-22T23:32:56Z</time></trkpt><trkpt lat="59.3970660958" lon="34.6552771423"><ele>103.48</ele><time>2026-08-22T23:32:57Z</time></trkpt><trkpt lat="59.3970766570" lon="34.6552994382"><ele>103.48</ele><time>2026-08-22T23:32:58Z</time></trkpt><trkpt lat="59.3972240109" lon="34.6554859355"><ele>104.44</ele><time>2026-08-22T23:33:20Z</time></trkpt><trkpt lat="59.3973575346" lon="34.6555496380"><ele>104.44</ele><time>2026-08-22T23:33:42Z</time></trkpt><trkpt lat="59.3974855263" lon="34.6558828186"><ele>104.92</ele><time>2026-08-22T23:34:04Z</time></trkpt><trkpt lat="59.3975047208" lon="34.6560708247"><ele>104.92</ele><time>2026-08-22T23:34:21Z</time></trkpt><trkpt lat="59.3975866120" lon="34.6563118044"><ele>105.40</ele><time>2026-08-22T23:34:43Z</time></trkpt><trkpt lat="59.3977162801" lon="34.6566551272"><ele>105.88</ele><time>2026-08-22T23:35:09Z</time></trkpt><trkpt lat="59.3978262506" lon="34.6571859531"><ele>105.88</ele><time>2026-08-22T23:35:34Z</time></trkpt><trkpt lat="59.3978617061" lon="34.6575680003"><ele>106.36</ele><time>2026-08-22T23:35:54Z</time></trkpt><trkpt lat="59.3979353830" lon="34.6576623805"><ele>105.40</ele><time>2026-08-22T23:36:18Z</time></trkpt><trkpt lat="59.3981345370" lon="34.6577710100"><ele>106.36</ele><time>2026-08-22T23:36:43Z</time></trkpt><trkpt lat="59.3984218687" lon="34.6579961479"><ele>103.00</ele><time>2026-08-22T23:37:09Z</time></trkpt><trkpt lat="59.3984342739" lon="34.6580107324"><ele>103.00</ele><time>2026-08-22T23:37:10Z</time></trkpt><trkpt lat="59.3984738365" lon="34.6580214612"><ele>101.56</ele><time>2026-08-22T23:37:16Z</time></trkpt><trkpt lat="59.3985102139" lon="34.6580606885"><ele>104.92</ele><time>2026-08-22T23:37:23Z</time></trkpt><trkpt lat="59.3986661173" lon="34.6583088767"><ele>106.84</ele><time>2026-08-22T23:37:44Z</time></trkpt><trkpt lat="59.3987268861" lon="34.6584847290"><ele>107.81</ele><time>2026-08-22T23:38:01Z</time></trkpt><trkpt lat="59.3987464160" lon="34.6585183404"><ele>106.36</ele><time>2026-08-22T23:38:04Z</time></trkpt><trkpt lat="59.3988205958" lon="34.6588087734"><ele>108.29</ele><time>2026-08-22T23:38:26Z</time></trkpt><trkpt lat="59.3988340069" lon="34.6591608133"><ele>108.77</ele><time>2026-08-22T23:38:52Z</time></trkpt><trkpt lat="59.3988501001" lon="34.6595152002"><ele>108.77</ele><time>2026-08-22T23:39:15Z</time></trkpt><trkpt lat="59.3988430593" lon="34.6596832573"><ele>101.56</ele><time>2026-08-22T23:39:22Z</time></trkpt><trkpt lat="59.3988385331" lon="34.6596966684"><ele>106.84</ele><time>2026-08-22T23:39:23Z</time></trkpt><trkpt lat="59.3988345936" lon="34.6597249154"><ele>109.25</ele><time>2026-08-22T23:39:25Z</time></trkpt><trkpt lat="59.3988744915" lon="34.6598751191"><ele>109.25</ele><time>2026-08-22T23:39:43Z</time></trkpt><trkpt lat="59.3990117032" lon="34.6601193678"><ele>109.25</ele><time>2026-08-22T23:40:05Z</time></trkpt><trkpt lat="59.3991089333" lon="34.6602318529"><ele>108.77</ele><time>2026-08-22T23:40:31Z</time></trkpt><trkpt lat="59.3993626535" lon="34.6604795381"><ele>108.77</ele><time>2026-08-22T23:40:53Z</time></trkpt><trkpt lat="59.3995043915" lon="34.6604776103"><ele>108.77</ele><time>2026-08-22T23:41:16Z</time></trkpt><trkpt lat="59.3996820040" lon="34.6606034227"><ele>108.29</ele><time>2026-08-22T23:41:43Z</time></trkpt><trkpt lat="59.3996985164" lon="34.6606431529"><ele>108.29</ele><time>2026-08-22T23:42:11Z</time></trkpt><trkpt lat="59.3996942416" lon="34.6606400516"><ele>107.81</ele><time>2026-08-22T23:42:12Z</time></trkpt><trkpt lat="59.3996688444" lon="34.6606076136"><ele>105.88</ele><time>2026-08-22T23:42:18Z</time></trkpt><trkpt lat="59.3996899668" lon="34.6604072023"><ele>106.36</ele><time>2026-08-22T23:42:44Z</time></trkpt><trkpt lat="59.3997152802" lon="34.6603511274"><ele>100.11</ele><time>2026-08-22T23:43:00Z</time></trkpt><trkpt lat="59.3997182976" lon="34.6603574976"><ele>101.56</ele><time>2026-08-22T23:43:01Z</time></trkpt><trkpt lat="59.3997221533" lon="34.6603676397"><ele>104.92</ele><time>2026-08-22T23:43:02Z</time></trkpt><trkpt lat="59.3997263443" lon="34.6603797097"><ele>104.92</ele><time>2026-08-22T23:43:03Z</time></trkpt><trkpt lat="59.3998157792" lon="34.6605450008"><ele>104.92</ele><time>2026-08-22T23:43:29Z</time></trkpt><trkpt lat="59.3997666612" lon="34.6605083719"><ele>102.52</ele><time>2026-08-22T23:43:49Z</time></trkpt><trkpt lat="59.3997125141" lon="34.6603850741"><ele>99.63</ele><time>2026-08-22T23:44:04Z</time></trkpt><trkpt lat="59.3997089099" lon="34.6603766084"><ele>101.08</ele><time>2026-08-22T23:44:05Z</time></trkpt><trkpt lat="59.3997029588" lon="34.6604306716"><ele>102.52</ele><time>2026-08-22T23:44:35Z</time></trkpt><trkpt lat="59.3997092452" lon="34.6605408937"><ele>102.04</ele><time>2026-08-22T23:44:54Z</time></trkpt><trkpt lat="59.3996937387" lon="34.6605092101"><ele>102.04</ele><time>2026-08-22T23:44:58Z</time></trkpt><trkpt lat="59.3995139468" lon="34.6603538096"><ele>102.04</ele><time>2026-08-22T23:45:20Z</time></trkpt><trkpt lat="59.3996918108" lon="34.6604493633"><ele>102.52</ele><time>2026-08-22T23:45:41Z</time></trkpt><trkpt lat="59.3997551780" lon="34.6605207771"><ele>102.52</ele><time>2026-08-22T23:45:50Z</time></trkpt><trkpt lat="59.4000982493" lon="34.6608320810"><ele>102.04</ele><time>2026-08-22T23:46:12Z</time></trkpt><trkpt lat="59.4003119040" lon="34.6609759144"><ele>101.56</ele><time>2026-08-22T23:46:37Z</time></trkpt><trkpt lat="59.3998855166" lon="34.6605417319"><ele>101.56</ele><time>2026-08-22T23:46:58Z</time></trkpt><trkpt lat="59.3997106701" lon="34.6603890974"><ele>102.04</ele><time>2026-08-22T23:47:23Z</time></trkpt><trkpt lat="59.3996822555" lon="34.6603849065"><ele>102.52</ele><time>2026-08-22T23:47:46Z</time></trkpt><trkpt lat="59.3997572735" lon="34.6604662947"><ele>103.00</ele><time>2026-08-22T23:48:11Z</time></trkpt><trkpt lat="59.3997755460" lon="34.6604272351"><ele>98.67</ele><time>2026-08-22T23:48:25Z</time></trkpt><trkpt lat="59.3997784797" lon="34.6604243014"><ele>100.11</ele><time>2026-08-22T23:48:26Z</time></trkpt><trkpt lat="59.3997731991" lon="34.6604024246"><ele>103.96</ele><time>2026-08-22T23:48:30Z</time></trkpt><trkpt lat="59.3997629732" lon="34.6603901871"><ele>103.96</ele><time>2026-08-22T23:48:31Z</time></trkpt><trkpt lat="59.3997290265" lon="34.6603662986"><ele>98.67</ele><time>2026-08-22T23:48:39Z</time></trkpt><trkpt lat="59.3997245841" lon="34.6603754349"><ele>92.90</ele><time>2026-08-22T23:48:40Z</time></trkpt><trkpt lat="59.3997283559" lon="34.6604019217"><ele>97.23</ele><time>2026-08-22T23:48:43Z</time></trkpt><trkpt lat="59.3997317925" lon="34.6604083758"><ele>97.23</ele><time>2026-08-22T23:48:44Z</time></trkpt><trkpt lat="59.3997623026" lon="34.6604496986"><ele>104.44</ele><time>2026-08-22T23:48:48Z</time></trkpt><trkpt lat="59.3997721095" lon="34.6604641154"><ele>103.00</ele><time>2026-08-22T23:48:49Z</time></trkpt><trkpt lat="59.3997980934" lon="34.6605216991"><ele>98.19</ele><time>2026-08-22T23:48:57Z</time></trkpt><trkpt lat="59.3997997697" lon="34.6605289076"><ele>97.71</ele><time>2026-08-22T23:48:58Z</time></trkpt><trkpt lat="59.3998013623" lon="34.6605373733"><ele>103.96</ele><time>2026-08-22T23:48:59Z</time></trkpt><trkpt lat="59.3997757975" lon="34.6605584119"><ele>99.63</ele><time>2026-08-22T23:49:10Z</time></trkpt><trkpt lat="59.3997753784" lon="34.6605576575"><ele>102.04</ele><time>2026-08-22T23:49:11Z</time></trkpt><trkpt lat="59.3997692596" lon="34.6605428215"><ele>103.96</ele><time>2026-08-22T23:49:14Z</time></trkpt><trkpt lat="59.3997184653" lon="34.6604816336"><ele>103.00</ele><time>2026-08-22T23:49:19Z</time></trkpt><trkpt lat="59.3996366579" lon="34.6607677918"><ele>103.00</ele><time>2026-08-22T23:49:38Z</time></trkpt><trkpt lat="59.3997410126" lon="34.6609609947"><ele>103.48</ele><time>2026-08-22T23:50:01Z</time></trkpt><trkpt lat="59.3999402504" lon="34.6610967815"><ele>103.48</ele><time>2026-08-22T23:50:26Z</time></trkpt><trkpt lat="59.4001666456" lon="34.6613310557"><ele>103.96</ele><time>2026-08-22T23:50:50Z</time></trkpt><trkpt lat="59.4002896920" lon="34.6616348997"><ele>103.48</ele><time>2026-08-22T23:51:13Z</time></trkpt><trkpt lat="59.4003730919" lon="34.6618529130"><ele>103.48</ele><time>2026-08-22T23:51:33Z</time></trkpt><trkpt lat="59.4003870059" lon="34.6619703434"><ele>100.60</ele><time>2026-08-22T23:51:41Z</time></trkpt><trkpt lat="59.4003875088" lon="34.6619882807"><ele>100.60</ele><time>2026-08-22T23:51:42Z</time></trkpt><trkpt lat="59.4003944658" lon="34.6620132588"><ele>102.04</ele><time>2026-08-22T23:51:44Z</time></trkpt><trkpt lat="59.4004575815" lon="34.6621767897"><ele>102.52</ele><time>2026-08-22T23:52:04Z</time></trkpt><trkpt lat="59.4004490320" lon="34.6623118222"><ele>102.04</ele><time>2026-08-22T23:52:15Z</time></trkpt><trkpt lat="59.4004595093" lon="34.6623849962"><ele>104.44</ele><time>2026-08-22T23:52:20Z</time></trkpt><trkpt lat="59.4006216154" lon="34.6625040192"><ele>101.08</ele><time>2026-08-22T23:52:37Z</time></trkpt><trkpt lat="59.4006223697" lon="34.6624834836"><ele>103.96</ele><time>2026-08-22T23:52:39Z</time></trkpt><trkpt lat="59.4006289076" lon="34.6624617744"><ele>103.48</ele><time>2026-08-22T23:52:40Z</time></trkpt><trkpt lat="59.4006667938" lon="34.6626165882"><ele>104.44</ele><time>2026-08-22T23:53:02Z</time></trkpt><trkpt lat="59.4007382914" lon="34.6627816278"><ele>103.96</ele><time>2026-08-22T23:53:21Z</time></trkpt><trkpt lat="59.4007908460" lon="34.6631144732"><ele>104.44</ele><time>2026-08-22T23:53:42Z</time></trkpt><trkpt lat="59.4007540494" lon="34.6635454707"><ele>104.92</ele><time>2026-08-22T23:54:04Z</time></trkpt><trkpt lat="59.4006642792" lon="34.6639284398"><ele>104.92</ele><time>2026-08-22T23:54:28Z</time></trkpt><trkpt lat="59.4004790392" lon="34.6641730238"><ele>104.92</ele><time>2026-08-22T23:54:46Z</time></trkpt><trkpt lat="59.4004623592" lon="34.6645119041"><ele>105.40</ele><time>2026-08-22T23:55:11Z</time></trkpt><trkpt lat="59.4005164225" lon="34.6648481861"><ele>105.40</ele><time>2026-08-22T23:55:32Z</time></trkpt><trkpt lat="59.4006102998" lon="34.6652035788"><ele>105.88</ele><time>2026-08-22T23:55:54Z</time></trkpt><trkpt lat="59.4007517863" lon="34.6653681155"><ele>106.84</ele><time>2026-08-22T23:56:17Z</time></trkpt><trkpt lat="59.4007237069" lon="34.6653988771"><ele>103.96</ele><time>2026-08-22T23:56:27Z</time></trkpt><trkpt lat="59.4007281493" lon="34.6654891502"><ele>100.60</ele><time>2026-08-22T23:56:38Z</time></trkpt><trkpt lat="59.4007348549" lon="34.6655018069"><ele>104.92</ele><time>2026-08-22T23:56:39Z</time></trkpt><trkpt lat="59.4007988088" lon="34.6655915771"><ele>107.81</ele><time>2026-08-22T23:56:50Z</time></trkpt><trkpt lat="59.4009863120" lon="34.6658199001"><ele>108.77</ele><time>2026-08-22T23:57:16Z</time></trkpt><trkpt lat="59.4010587316" lon="34.6661346406"><ele>109.73</ele><time>2026-08-22T23:57:41Z</time></trkpt><trkpt lat="59.4011154771" lon="34.6663401648"><ele>110.69</ele><time>2026-08-22T23:58:01Z</time></trkpt><trkpt lat="59.4011073466" lon="34.6666542348"><ele>111.17</ele><time>2026-08-22T23:58:23Z</time></trkpt><trkpt lat="59.4011673611" lon="34.6669792011"><ele>111.65</ele><time>2026-08-22T23:58:45Z</time></trkpt><trkpt lat="59.4012366794" lon="34.6672028303"><ele>112.13</ele><time>2026-08-22T23:59:08Z</time></trkpt><trkpt lat="59.4013965223" lon="34.6674547065"><ele>112.61</ele><time>2026-08-22T23:59:30Z</time></trkpt><trkpt lat="59.4014302175" lon="34.6678428724"><ele>113.09</ele><time>2026-08-22T23:59:54Z</time></trkpt><trkpt lat="59.4015654176" lon="34.6681975108"><ele>113.09</ele><time>2026-08-23T00:00:19Z</time></trkpt><trkpt lat="59.4017633982" lon="34.6683938988"><ele>113.57</ele><time>2026-08-23T00:00:43Z</time></trkpt><trkpt lat="59.4018561020" lon="34.6685426775"><ele>113.09</ele><time>2026-08-23T00:01:05Z</time></trkpt><trkpt lat="59.4018791523" lon="34.6685821563"><ele>113.57</ele><time>2026-08-23T00:01:27Z</time></trkpt><trkpt lat="59.4019783102" lon="34.6686923783"><ele>113.57</ele><time>2026-08-23T00:01:51Z</time></trkpt><trkpt lat="59.4020622130" lon="34.6687578410"><ele>114.05</ele><time>2026-08-23T00:02:13Z</time></trkpt><trkpt lat="59.4022928830" lon="34.6690087114"><ele>113.57</ele><time>2026-08-23T00:02:39Z</time></trkpt><trkpt lat="59.4024032727" lon="34.6691960469"><ele>113.57</ele><time>2026-08-23T00:03:07Z</time></trkpt><trkpt lat="59.4025621936" lon="34.6694280580"><ele>114.05</ele><time>2026-08-23T00:03:32Z</time></trkpt><trkpt lat="59.4025611039" lon="34.6694879048"><ele>113.57</ele><time>2026-08-23T00:03:51Z</time></trkpt><trkpt lat="59.4027456734" lon="34.6697182395"><ele>114.53</ele><time>2026-08-23T00:04:11Z</time></trkpt><trkpt lat="59.4027973898" lon="34.6699430421"><ele>113.57</ele><time>2026-08-23T00:04:23Z</time></trkpt><trkpt lat="59.4028497767" lon="34.6703397576"><ele>113.57</ele><time>2026-08-23T00:04:45Z</time></trkpt><trkpt lat="59.4029657822" lon="34.6705714334"><ele>113.57</ele><time>2026-08-23T00:05:08Z</time></trkpt><trkpt lat="59.4030887447" lon="34.6706376504"><ele>113.57</ele><time>2026-08-23T00:05:28Z</time></trkpt><trkpt lat="59.4031348452" lon="34.6708100662"><ele>113.57</ele><time>2026-08-23T00:05:49Z</time></trkpt><trkpt lat="59.4031936862" lon="34.6712512895"><ele>110.21</ele><time>2026-08-23T00:06:14Z</time></trkpt><trkpt lat="59.4031920098" lon="34.6712906845"><ele>113.57</ele><time>2026-08-23T00:06:18Z</time></trkpt><trkpt lat="59.4031879865" lon="34.6715911757"><ele>113.57</ele><time>2026-08-23T00:06:37Z</time></trkpt><trkpt lat="59.4032371044" lon="34.6719082631"><ele>114.05</ele><time>2026-08-23T00:06:57Z</time></trkpt><trkpt lat="59.4033272937" lon="34.6721206605"><ele>113.57</ele><time>2026-08-23T00:07:19Z</time></trkpt><trkpt lat="59.4034339953" lon="34.6723082475"><ele>114.05</ele><time>2026-08-23T00:07:41Z</time></trkpt><trkpt lat="59.4034967758" lon="34.6725335531"><ele>113.57</ele><time>2026-08-23T00:08:01Z</time></trkpt><trkpt lat="59.4035650883" lon="34.6727528237"><ele>113.09</ele><time>2026-08-23T00:08:21Z</time></trkpt><trkpt lat="59.4036738016" lon="34.6728544123"><ele>113.57</ele><time>2026-08-23T00:08:43Z</time></trkpt><trkpt lat="59.4038379192" lon="34.6731187776"><ele>110.69</ele><time>2026-08-23T00:09:04Z</time></trkpt><trkpt lat="59.4038643222" lon="34.6731068753"><ele>109.73</ele><time>2026-08-23T00:09:11Z</time></trkpt><trkpt lat="59.4039241690" lon="34.6731352061"><ele>110.21</ele><time>2026-08-23T00:09:17Z</time></trkpt><trkpt lat="59.4039880391" lon="34.6731590107"><ele>112.61</ele><time>2026-08-23T00:09:21Z</time></trkpt><trkpt lat="59.4040270988" lon="34.6731844079"><ele>114.53</ele><time>2026-08-23T00:09:24Z</time></trkpt><trkpt lat="59.4041450322" lon="34.6733621042"><ele>115.98</ele><time>2026-08-23T00:09:45Z</time></trkpt><trkpt lat="59.4043420069" lon="34.6736317500"><ele>116.46</ele><time>2026-08-23T00:10:09Z</time></trkpt><trkpt lat="59.4043704215" lon="34.6738042496"><ele>117.90</ele><time>2026-08-23T00:10:30Z</time></trkpt><trkpt lat="59.4044810627" lon="34.6741199121"><ele>118.38</ele><time>2026-08-23T00:10:55Z</time></trkpt><trkpt lat="59.4045705814" lon="34.6744582057"><ele>118.86</ele><time>2026-08-23T00:11:20Z</time></trkpt><trkpt lat="59.4046320207" lon="34.6748758759"><ele>118.86</ele><time>2026-08-23T00:11:45Z</time></trkpt><trkpt lat="59.4047128223" lon="34.6750823222"><ele>119.34</ele><time>2026-08-23T00:12:08Z</time></trkpt><trkpt lat="59.4047181029" lon="34.6753808018"><ele>119.34</ele><time>2026-08-23T00:12:31Z</time></trkpt><trkpt lat="59.4047797937" lon="34.6756990626"><ele>119.34</ele><time>2026-08-23T00:12:55Z</time></trkpt><trkpt lat="59.4048447534" lon="34.6759649366"><ele>119.34</ele><time>2026-08-23T00:13:14Z</time></trkpt><trkpt lat="59.4048403110" lon="34.6759978775"><ele>118.38</ele><time>2026-08-23T00:13:16Z</time></trkpt><trkpt lat="59.4048813824" lon="34.6760549583"><ele>115.01</ele><time>2026-08-23T00:13:31Z</time></trkpt><trkpt lat="59.4048876688" lon="34.6760480851"><ele>112.13</ele><time>2026-08-23T00:13:32Z</time></trkpt><trkpt lat="59.4048928656" lon="34.6760393679"><ele>114.53</ele><time>2026-08-23T00:13:33Z</time></trkpt><trkpt lat="59.4048958831" lon="34.6760363504"><ele>118.86</ele><time>2026-08-23T00:13:34Z</time></trkpt><trkpt lat="59.4049874134" lon="34.6760961972"><ele>116.94</ele><time>2026-08-23T00:13:55Z</time></trkpt><trkpt lat="59.4050276466" lon="34.6761127934"><ele>115.98</ele><time>2026-08-23T00:14:01Z</time></trkpt><trkpt lat="59.4050309993" lon="34.6761142183"><ele>100.60</ele><time>2026-08-23T00:14:02Z</time></trkpt><trkpt lat="59.4050336815" lon="34.6761163138"><ele>105.88</ele><time>2026-08-23T00:14:03Z</time></trkpt><trkpt lat="59.4050373696" lon="34.6761251148"><ele>117.90</ele><time>2026-08-23T00:14:05Z</time></trkpt><trkpt lat="59.4050387945" lon="34.6761288866"><ele>117.90</ele><time>2026-08-23T00:14:06Z</time></trkpt><trkpt lat="59.4052113779" lon="34.6761804353"><ele>119.34</ele><time>2026-08-23T00:14:28Z</time></trkpt><trkpt lat="59.4052289799" lon="34.6762640029"><ele>115.01</ele><time>2026-08-23T00:14:49Z</time></trkpt><trkpt lat="59.4052331708" lon="34.6762760729"><ele>118.38</ele><time>2026-08-23T00:14:51Z</time></trkpt><trkpt lat="59.4052314945" lon="34.6763328183"><ele>114.05</ele><time>2026-08-23T00:15:04Z</time></trkpt><trkpt lat="59.4052324165" lon="34.6763318125"><ele>114.05</ele><time>2026-08-23T00:15:05Z</time></trkpt><trkpt lat="59.4052274711" lon="34.6763285436"><ele>118.86</ele><time>2026-08-23T00:15:07Z</time></trkpt><trkpt lat="59.4052223582" lon="34.6763266157"><ele>117.90</ele><time>2026-08-23T00:15:08Z</time></trkpt><trkpt lat="59.4052024931" lon="34.6763266996"><ele>116.94</ele><time>2026-08-23T00:15:15Z</time></trkpt><trkpt lat="59.4051808678" lon="34.6763610654"><ele>109.73</ele><time>2026-08-23T00:15:25Z</time></trkpt><trkpt lat="59.4051800296" lon="34.6763536893"><ele>105.40</ele><time>2026-08-23T00:15:26Z</time></trkpt><trkpt lat="59.4051792752" lon="34.6763484925"><ele>108.77</ele><time>2026-08-23T00:15:27Z</time></trkpt><trkpt lat="59.4051781856" lon="34.6763407812"><ele>112.61</ele><time>2026-08-23T00:15:29Z</time></trkpt><trkpt lat="59.4051783532" lon="34.6763353329"><ele>106.84</ele><time>2026-08-23T00:15:31Z</time></trkpt><trkpt lat="59.4051803648" lon="34.6763376798"><ele>108.77</ele><time>2026-08-23T00:15:33Z</time></trkpt><trkpt lat="59.4051818736" lon="34.6763383504"><ele>115.50</ele><time>2026-08-23T00:15:34Z</time></trkpt><trkpt lat="59.4051912613" lon="34.6763439663"><ele>113.57</ele><time>2026-08-23T00:15:35Z</time></trkpt><trkpt lat="59.4052464981" lon="34.6763492469"><ele>116.94</ele><time>2026-08-23T00:15:39Z</time></trkpt><trkpt lat="59.4052550476" lon="34.6763619874"><ele>115.01</ele><time>2026-08-23T00:15:45Z</time></trkpt><trkpt lat="59.4052531198" lon="34.6763638314"><ele>117.42</ele><time>2026-08-23T00:15:46Z</time></trkpt><trkpt lat="59.4053174928" lon="34.6764339879"><ele>114.53</ele><time>2026-08-23T00:16:13Z</time></trkpt><trkpt lat="59.4055252802" lon="34.6765541006"><ele>115.01</ele><time>2026-08-23T00:16:39Z</time></trkpt><trkpt lat="59.4057847001" lon="34.6765868738"><ele>113.09</ele><time>2026-08-23T00:17:01Z</time></trkpt><trkpt lat="59.4059531763" lon="34.6764158830"><ele>112.13</ele><time>2026-08-23T00:17:22Z</time></trkpt><trkpt lat="59.4061690103" lon="34.6762526035"><ele>113.09</ele><time>2026-08-23T00:17:48Z</time></trkpt><trkpt lat="59.4063035399" lon="34.6762115322"><ele>112.61</ele><time>2026-08-23T00:18:12Z</time></trkpt><trkpt lat="59.4064648077" lon="34.6760614123"><ele>113.09</ele><time>2026-08-23T00:18:33Z</time></trkpt><trkpt lat="59.4065597747" lon="34.6760014817"><ele>112.61</ele><time>2026-08-23T00:18:54Z</time></trkpt><trkpt lat="59.4066280872" lon="34.6760531142"><ele>111.65</ele><time>2026-08-23T00:19:17Z</time></trkpt><trkpt lat="59.4066893589" lon="34.6762317326"><ele>111.65</ele><time>2026-08-23T00:19:37Z</time></trkpt><trkpt lat="59.4068037719" lon="34.6764206607"><ele>110.69</ele><time>2026-08-23T00:19:58Z</time></trkpt><trkpt lat="59.4069122337" lon="34.6766797453"><ele>107.32</ele><time>2026-08-23T00:20:22Z</time></trkpt><trkpt lat="59.4069190230" lon="34.6766939107"><ele>110.21</ele><time>2026-08-23T00:20:27Z</time></trkpt><trkpt lat="59.4069352839" lon="34.6768035460"><ele>109.73</ele><time>2026-08-23T00:20:47Z</time></trkpt><trkpt lat="59.4070332684" lon="34.6770406701"><ele>108.77</ele><time>2026-08-23T00:21:07Z</time></trkpt><trkpt lat="59.4071273971" lon="34.6772924624"><ele>107.32</ele><time>2026-08-23T00:21:31Z</time></trkpt><trkpt lat="59.4074611645" lon="34.6774666384"><ele>107.32</ele><time>2026-08-23T00:21:54Z</time></trkpt><trkpt lat="59.4074430596" lon="34.6777684707"><ele>107.81</ele><time>2026-08-23T00:22:16Z</time></trkpt><trkpt lat="59.4074528664" lon="34.6782475803"><ele>108.29</ele><time>2026-08-23T00:22:40Z</time></trkpt><trkpt lat="59.4073830452" lon="34.6784260310"><ele>108.29</ele><time>2026-08-23T00:22:59Z</time></trkpt><trkpt lat="59.4072673749" lon="34.6785929147"><ele>105.40</ele><time>2026-08-23T00:23:08Z</time></trkpt><trkpt lat="59.4072467554" lon="34.6786190663"><ele>108.29</ele><time>2026-08-23T00:23:09Z</time></trkpt><trkpt lat="59.4071381260" lon="34.6787817590"><ele>108.77</ele><time>2026-08-23T00:23:27Z</time></trkpt><trkpt lat="59.4070767704" lon="34.6791444439"><ele>109.25</ele><time>2026-08-23T00:23:50Z</time></trkpt><trkpt lat="59.4070161693" lon="34.6795113198"><ele>110.69</ele><time>2026-08-23T00:24:09Z</time></trkpt><trkpt lat="59.4070207793" lon="34.6795162652"><ele>107.32</ele><time>2026-08-23T00:24:21Z</time></trkpt><trkpt lat="59.4070210308" lon="34.6795203723"><ele>110.69</ele><time>2026-08-23T00:24:22Z</time></trkpt><trkpt lat="59.4070229586" lon="34.6795440093"><ele>111.17</ele><time>2026-08-23T00:24:30Z</time></trkpt><trkpt lat="59.4070402253" lon="34.6797057800"><ele>111.65</ele><time>2026-08-23T00:24:57Z</time></trkpt><trkpt lat="59.4070835598" lon="34.6800270583"><ele>111.65</ele><time>2026-08-23T00:25:21Z</time></trkpt><trkpt lat="59.4071377907" lon="34.6802728157"><ele>112.13</ele><time>2026-08-23T00:25:43Z</time></trkpt><trkpt lat="59.4071405567" lon="34.6805088501"><ele>111.17</ele><time>2026-08-23T00:26:06Z</time></trkpt><trkpt lat="59.4071503635" lon="34.6806135401"><ele>111.17</ele><time>2026-08-23T00:26:28Z</time></trkpt><trkpt lat="59.4071874116" lon="34.6806856245"><ele>109.73</ele><time>2026-08-23T00:26:34Z</time></trkpt><trkpt lat="59.4072454982" lon="34.6809007041"><ele>111.17</ele><time>2026-08-23T00:26:52Z</time></trkpt><trkpt lat="59.4072500244" lon="34.6809410211"><ele>107.81</ele><time>2026-08-23T00:26:55Z</time></trkpt><trkpt lat="59.4072593283" lon="34.6809588745"><ele>111.17</ele><time>2026-08-23T00:26:56Z</time></trkpt><trkpt lat="59.4072656147" lon="34.6809771471"><ele>111.17</ele><time>2026-08-23T00:26:57Z</time></trkpt><trkpt lat="59.4072998967" lon="34.6811839286"><ele>111.17</ele><time>2026-08-23T00:27:18Z</time></trkpt><trkpt lat="59.4072843902" lon="34.6812085714"><ele>109.73</ele><time>2026-08-23T00:27:21Z</time></trkpt><trkpt lat="59.4072415587" lon="34.6812908817"><ele>111.65</ele><time>2026-08-23T00:27:27Z</time></trkpt><trkpt lat="59.4074046705" lon="34.6815919597"><ele>111.65</ele><time>2026-08-23T00:27:47Z</time></trkpt><trkpt lat="59.4075821992" lon="34.6818890143"><ele>112.13</ele><time>2026-08-23T00:28:12Z</time></trkpt><trkpt lat="59.4076253660" lon="34.6819704864"><ele>111.65</ele><time>2026-08-23T00:28:36Z</time></trkpt><trkpt lat="59.4076451473" lon="34.6819655411"><ele>107.32</ele><time>2026-08-23T00:28:49Z</time></trkpt><trkpt lat="59.4076439738" lon="34.6819669660"><ele>107.32</ele><time>2026-08-23T00:28:50Z</time></trkpt><trkpt lat="59.4076381065" lon="34.6819795389"><ele>112.13</ele><time>2026-08-23T00:28:53Z</time></trkpt><trkpt lat="59.4076348376" lon="34.6819905192"><ele>112.13</ele><time>2026-08-23T00:28:54Z</time></trkpt><trkpt lat="59.4076161459" lon="34.6820602566"><ele>110.69</ele><time>2026-08-23T00:29:03Z</time></trkpt><trkpt lat="59.4076102786" lon="34.6820686385"><ele>107.81</ele><time>2026-08-23T00:29:06Z</time></trkpt><trkpt lat="59.4076090213" lon="34.6820695605"><ele>109.73</ele><time>2026-08-23T00:29:07Z</time></trkpt><trkpt lat="59.4076074287" lon="34.6820692252"><ele>104.92</ele><time>2026-08-23T00:29:09Z</time></trkpt><trkpt lat="59.4076066744" lon="34.6820683870"><ele>111.17</ele><time>2026-08-23T00:29:10Z</time></trkpt><trkpt lat="59.4076055009" lon="34.6820683870"><ele>111.17</ele><time>2026-08-23T00:29:11Z</time></trkpt><trkpt lat="59.4076098595" lon="34.6820990648"><ele>107.32</ele><time>2026-08-23T00:29:37Z</time></trkpt><trkpt lat="59.4076064229" lon="34.6820952091"><ele>108.29</ele><time>2026-08-23T00:29:38Z</time></trkpt><trkpt lat="59.4075983763" lon="34.6820886713"><ele>110.21</ele><time>2026-08-23T00:29:40Z</time></trkpt><trkpt lat="59.4077355042" lon="34.6821347717"><ele>108.29</ele><time>2026-08-23T00:30:01Z</time></trkpt><trkpt lat="59.4078998733" lon="34.6822450776"><ele>109.25</ele><time>2026-08-23T00:30:27Z</time></trkpt><trkpt lat="59.4079005439" lon="34.6822494362"><ele>106.36</ele><time>2026-08-23T00:30:29Z</time></trkpt><trkpt lat="59.4079883862" lon="34.6824371908"><ele>108.29</ele><time>2026-08-23T00:30:47Z</time></trkpt><trkpt lat="59.4080777373" lon="34.6827139612"><ele>107.81</ele><time>2026-08-23T00:31:06Z</time></trkpt><trkpt lat="59.4082657434" lon="34.6829544380"><ele>106.84</ele><time>2026-08-23T00:31:29Z</time></trkpt><trkpt lat="59.4084374048" lon="34.6831579506"><ele>104.92</ele><time>2026-08-23T00:31:52Z</time></trkpt><trkpt lat="59.4085643906" lon="34.6834155265"><ele>105.88</ele><time>2026-08-23T00:32:09Z</time></trkpt><trkpt lat="59.4086943101" lon="34.6837394033"><ele>105.40</ele><time>2026-08-23T00:32:28Z</time></trkpt><trkpt lat="59.4088331144" lon="34.6841040999"><ele>105.40</ele><time>2026-08-23T00:32:49Z</time></trkpt><trkpt lat="59.4089349546" lon="34.6843163297"><ele>103.00</ele><time>2026-08-23T00:33:04Z</time></trkpt><trkpt lat="59.4089412410" lon="34.6843286511"><ele>104.92</ele><time>2026-08-23T00:33:05Z</time></trkpt><trkpt lat="59.4090593420" lon="34.6848432161"><ele>104.92</ele><time>2026-08-23T00:33:33Z</time></trkpt><trkpt lat="59.4090827275" lon="34.6850903146"><ele>103.48</ele><time>2026-08-23T00:33:53Z</time></trkpt><trkpt lat="59.4092391338" lon="34.6853350662"><ele>103.00</ele><time>2026-08-23T00:34:16Z</time></trkpt><trkpt lat="59.4092683867" lon="34.6853801608"><ele>102.04</ele><time>2026-08-23T00:34:21Z</time></trkpt><trkpt lat="59.4093865715" lon="34.6857456118"><ele>102.52</ele><time>2026-08-23T00:34:41Z</time></trkpt><trkpt lat="59.4095019065" lon="34.6860947181"><ele>103.00</ele><time>2026-08-23T00:35:00Z</time></trkpt><trkpt lat="59.4095450733" lon="34.6862235479"><ele>102.52</ele><time>2026-08-23T00:35:19Z</time></trkpt><trkpt lat="59.4095597416" lon="34.6864687186"><ele>102.52</ele><time>2026-08-23T00:35:37Z</time></trkpt><trkpt lat="59.4095897488" lon="34.6868847962"><ele>103.00</ele><time>2026-08-23T00:36:00Z</time></trkpt><trkpt lat="59.4095831271" lon="34.6870227624"><ele>103.48</ele><time>2026-08-23T00:36:09Z</time></trkpt><trkpt lat="59.4095919281" lon="34.6871818509"><ele>100.11</ele><time>2026-08-23T00:36:22Z</time></trkpt><trkpt lat="59.4095954485" lon="34.6871943399"><ele>103.48</ele><time>2026-08-23T00:36:23Z</time></trkpt><trkpt lat="59.4096047524" lon="34.6872506663"><ele>98.67</ele><time>2026-08-23T00:36:30Z</time></trkpt><trkpt lat="59.4096055068" lon="34.6872643288"><ele>103.96</ele><time>2026-08-23T00:36:31Z</time></trkpt><trkpt lat="59.4095635973" lon="34.6875984315"><ele>103.00</ele><time>2026-08-23T00:36:50Z</time></trkpt><trkpt lat="59.4095722307" lon="34.6877615433"><ele>101.08</ele><time>2026-08-23T00:37:07Z</time></trkpt><trkpt lat="59.4095748290" lon="34.6877775528"><ele>104.44</ele><time>2026-08-23T00:37:09Z</time></trkpt><trkpt lat="59.4095769245" lon="34.6881212108"><ele>104.92</ele><time>2026-08-23T00:37:30Z</time></trkpt><trkpt lat="59.4096131343" lon="34.6885873284"><ele>104.92</ele><time>2026-08-23T00:37:54Z</time></trkpt><trkpt lat="59.4095966220" lon="34.6890153922"><ele>105.88</ele><time>2026-08-23T00:38:17Z</time></trkpt><trkpt lat="59.4094967935" lon="34.6892417874"><ele>106.36</ele><time>2026-08-23T00:38:33Z</time></trkpt><trkpt lat="59.4094528724" lon="34.6893357486"><ele>106.36</ele><time>2026-08-23T00:38:41Z</time></trkpt><trkpt lat="59.4093154930" lon="34.6896766406"><ele>107.32</ele><time>2026-08-23T00:39:03Z</time></trkpt><trkpt lat="59.4092242140" lon="34.6899916325"><ele>108.29</ele><time>2026-08-23T00:39:22Z</time></trkpt><trkpt lat="59.4090984855" lon="34.6904337779"><ele>109.73</ele><time>2026-08-23T00:39:44Z</time></trkpt><trkpt lat="59.4089914486" lon="34.6908781864"><ele>111.17</ele><time>2026-08-23T00:40:08Z</time></trkpt><trkpt lat="59.4089367986" lon="34.6913954336"><ele>112.13</ele><time>2026-08-23T00:40:32Z</time></trkpt><trkpt lat="59.4088569190" lon="34.6916577872"><ele>114.53</ele><time>2026-08-23T00:40:54Z</time></trkpt><trkpt lat="59.4088912010" lon="34.6918739565"><ele>114.53</ele><time>2026-08-23T00:41:19Z</time></trkpt><trkpt lat="59.4089521375" lon="34.6923065465"><ele>115.01</ele><time>2026-08-23T00:41:41Z</time></trkpt><trkpt lat="59.4089553226" lon="34.6924598515"><ele>115.98</ele><time>2026-08-23T00:42:01Z</time></trkpt><trkpt lat="59.4088994153" lon="34.6922421735"><ele>116.46</ele><time>2026-08-23T00:42:26Z</time></trkpt><trkpt lat="59.4088156801" lon="34.6917937417"><ele>116.94</ele><time>2026-08-23T00:42:50Z</time></trkpt><trkpt lat="59.4087805599" lon="34.6918372437"><ele>116.46</ele><time>2026-08-23T00:42:55Z</time></trkpt><trkpt lat="59.4086565077" lon="34.6922725160"><ele>117.42</ele><time>2026-08-23T00:43:21Z</time></trkpt><trkpt lat="59.4085324556" lon="34.6927289106"><ele>118.86</ele><time>2026-08-23T00:43:46Z</time></trkpt><trkpt lat="59.4084339682" lon="34.6932376921"><ele>118.38</ele><time>2026-08-23T00:44:14Z</time></trkpt><trkpt lat="59.4083675835" lon="34.6937068272"><ele>117.90</ele><time>2026-08-23T00:44:39Z</time></trkpt><trkpt lat="59.4083464611" lon="34.6938737947"><ele>119.82</ele><time>2026-08-23T00:44:48Z</time></trkpt><trkpt lat="59.4082852732" lon="34.6943875216"><ele>120.78</ele><time>2026-08-23T00:45:13Z</time></trkpt><trkpt lat="59.4082268514" lon="34.6946576703"><ele>120.78</ele><time>2026-08-23T00:45:30Z</time></trkpt><trkpt lat="59.4081662502" lon="34.6950289048"><ele>121.26</ele><time>2026-08-23T00:45:52Z</time></trkpt><trkpt lat="59.4081684295" lon="34.6954564657"><ele>121.26</ele><time>2026-08-23T00:46:12Z</time></trkpt><trkpt lat="59.4081143662" lon="34.6958785783"><ele>122.22</ele><time>2026-08-23T00:46:35Z</time></trkpt><trkpt lat="59.4080573693" lon="34.6963139344"><ele>123.19</ele><time>2026-08-23T00:46:59Z</time></trkpt><trkpt lat="59.4079955947" lon="34.6967490390"><ele>123.67</ele><time>2026-08-23T00:47:21Z</time></trkpt><trkpt lat="59.4079568703" lon="34.6969529707"><ele>124.15</ele><time>2026-08-23T00:47:37Z</time></trkpt><trkpt lat="59.4078609813" lon="34.6971147414"><ele>125.59</ele><time>2026-08-23T00:47:56Z</time></trkpt><trkpt lat="59.4077075925" lon="34.6973720659"><ele>125.59</ele><time>2026-08-23T00:48:22Z</time></trkpt><trkpt lat="59.4077200815" lon="34.6974190045"><ele>122.22</ele><time>2026-08-23T00:48:31Z</time></trkpt><trkpt lat="59.4077225961" lon="34.6974354330"><ele>125.59</ele><time>2026-08-23T00:48:34Z</time></trkpt><trkpt lat="59.4076739810" lon="34.6974027436"><ele>123.67</ele><time>2026-08-23T00:48:46Z</time></trkpt><trkpt lat="59.4076034054" lon="34.6976265404"><ele>124.63</ele><time>2026-08-23T00:49:08Z</time></trkpt><trkpt lat="59.4075192511" lon="34.6978945099"><ele>125.11</ele><time>2026-08-23T00:49:27Z</time></trkpt><trkpt lat="59.4073571451" lon="34.6982566919"><ele>124.63</ele><time>2026-08-23T00:49:50Z</time></trkpt><trkpt lat="59.4071885850" lon="34.6986526530"><ele>124.63</ele><time>2026-08-23T00:50:13Z</time></trkpt><trkpt lat="59.4071553089" lon="34.6987268329"><ele>123.67</ele><time>2026-08-23T00:50:18Z</time></trkpt><trkpt lat="59.4071390480" lon="34.6987725981"><ele>123.19</ele><time>2026-08-23T00:50:21Z</time></trkpt><trkpt lat="59.4071329292" lon="34.6987859253"><ele>124.63</ele><time>2026-08-23T00:50:22Z</time></trkpt><trkpt lat="59.4070142414" lon="34.6991884243"><ele>125.11</ele><time>2026-08-23T00:50:46Z</time></trkpt><trkpt lat="59.4070067815" lon="34.6992320940"><ele>124.63</ele><time>2026-08-23T00:50:48Z</time></trkpt><trkpt lat="59.4069110602" lon="34.6995770093"><ele>124.63</ele><time>2026-08-23T00:51:11Z</time></trkpt><trkpt lat="59.4067822304" lon="34.7000733018"><ele>125.11</ele><time>2026-08-23T00:51:34Z</time></trkpt><trkpt lat="59.4067078829" lon="34.7004799917"><ele>125.11</ele><time>2026-08-23T00:51:56Z</time></trkpt><trkpt lat="59.4066681527" lon="34.7007673234"><ele>122.71</ele><time>2026-08-23T00:52:11Z</time></trkpt><trkpt lat="59.4066630397" lon="34.7007886972"><ele>119.34</ele><time>2026-08-23T00:52:12Z</time></trkpt><trkpt lat="59.4066585135" lon="34.7008097358"><ele>122.71</ele><time>2026-08-23T00:52:13Z</time></trkpt><trkpt lat="59.4066397380" lon="34.7008829936"><ele>125.11</ele><time>2026-08-23T00:52:17Z</time></trkpt><trkpt lat="59.4064690825" lon="34.7014469281"><ele>125.11</ele><time>2026-08-23T00:52:45Z</time></trkpt><trkpt lat="59.4063794799" lon="34.7018096969"><ele>125.59</ele><time>2026-08-23T00:53:06Z</time></trkpt><trkpt lat="59.4063104969" lon="34.7022121120"><ele>125.11</ele><time>2026-08-23T00:53:27Z</time></trkpt><trkpt lat="59.4062125962" lon="34.7027056385"><ele>126.07</ele><time>2026-08-23T00:53:53Z</time></trkpt><trkpt lat="59.4061467145" lon="34.7031431738"><ele>126.55</ele><time>2026-08-23T00:54:17Z</time></trkpt><trkpt lat="59.4060918130" lon="34.7033590078"><ele>125.11</ele><time>2026-08-23T00:54:30Z</time></trkpt><trkpt lat="59.4060802460" lon="34.7033916973"><ele>121.26</ele><time>2026-08-23T00:54:33Z</time></trkpt><trkpt lat="59.4060834311" lon="34.7034137417"><ele>125.11</ele><time>2026-08-23T00:54:36Z</time></trkpt><trkpt lat="59.4060176332" lon="34.7036783583"><ele>125.59</ele><time>2026-08-23T00:54:53Z</time></trkpt><trkpt lat="59.4061315432" lon="34.7035551444"><ele>126.55</ele><time>2026-08-23T00:55:13Z</time></trkpt><trkpt lat="59.4062130153" lon="34.7036900092"><ele>124.63</ele><time>2026-08-23T00:55:23Z</time></trkpt><trkpt lat="59.4062893745" lon="34.7037517838"><ele>124.63</ele><time>2026-08-23T00:55:30Z</time></trkpt><trkpt lat="59.4063084852" lon="34.7037632670"><ele>126.55</ele><time>2026-08-23T00:55:32Z</time></trkpt><trkpt lat="59.4064695854" lon="34.7039516922"><ele>126.07</ele><time>2026-08-23T00:55:52Z</time></trkpt><trkpt lat="59.4064715970" lon="34.7039645165"><ele>127.51</ele><time>2026-08-23T00:55:53Z</time></trkpt><trkpt lat="59.4065580983" lon="34.7044658381"><ele>127.03</ele><time>2026-08-23T00:56:17Z</time></trkpt><trkpt lat="59.4065491296" lon="34.7049004398"><ele>127.99</ele><time>2026-08-23T00:56:38Z</time></trkpt><trkpt lat="59.4065520633" lon="34.7052166052"><ele>127.99</ele><time>2026-08-23T00:56:52Z</time></trkpt><trkpt lat="59.4065507222" lon="34.7052638792"><ele>127.03</ele><time>2026-08-23T00:56:59Z</time></trkpt><trkpt lat="59.4065589365" lon="34.7054516338"><ele>127.51</ele><time>2026-08-23T00:57:28Z</time></trkpt><trkpt lat="59.4065710064" lon="34.7056291625"><ele>127.51</ele><time>2026-08-23T00:57:41Z</time></trkpt><trkpt lat="59.4064912107" lon="34.7062307317"><ele>127.03</ele><time>2026-08-23T00:58:05Z</time></trkpt><trkpt lat="59.4063928910" lon="34.7066472284"><ele>127.99</ele><time>2026-08-23T00:58:25Z</time></trkpt><trkpt lat="59.4062772207" lon="34.7070398368"><ele>128.95</ele><time>2026-08-23T00:58:47Z</time></trkpt><trkpt lat="59.4062491413" lon="34.7070621327"><ele>124.15</ele><time>2026-08-23T00:58:53Z</time></trkpt><trkpt lat="59.4061459601" lon="34.7071602009"><ele>128.47</ele><time>2026-08-23T00:59:07Z</time></trkpt><trkpt lat="59.4060012884" lon="34.7075334471"><ele>129.92</ele><time>2026-08-23T00:59:31Z</time></trkpt><trkpt lat="59.4058301300" lon="34.7078791168"><ele>130.40</ele><time>2026-08-23T00:59:52Z</time></trkpt><trkpt lat="59.4056595583" lon="34.7083205916"><ele>130.88</ele><time>2026-08-23T01:00:15Z</time></trkpt><trkpt lat="59.4055441394" lon="34.7087374236"><ele>131.84</ele><time>2026-08-23T01:00:37Z</time></trkpt><trkpt lat="59.4054047484" lon="34.7091930639"><ele>131.36</ele><time>2026-08-23T01:01:01Z</time></trkpt><trkpt lat="59.4053963665" lon="34.7093985882"><ele>132.32</ele><time>2026-08-23T01:01:19Z</time></trkpt><trkpt lat="59.4053995516" lon="34.7094627935"><ele>132.80</ele><time>2026-08-23T01:01:42Z</time></trkpt><trkpt lat="59.4054045808" lon="34.7094055451"><ele>133.76</ele><time>2026-08-23T01:02:03Z</time></trkpt><trkpt lat="59.4053852186" lon="34.7094181180"><ele>133.28</ele><time>2026-08-23T01:02:23Z</time></trkpt><trkpt lat="59.4053667784" lon="34.7094906215"><ele>134.72</ele><time>2026-08-23T01:02:47Z</time></trkpt><trkpt lat="59.4053563848" lon="34.7094705049"><ele>133.28</ele><time>2026-08-23T01:03:13Z</time></trkpt><trkpt lat="59.4053642638" lon="34.7094382346"><ele>136.16</ele><time>2026-08-23T01:03:25Z</time></trkpt><trkpt lat="59.4053609110" lon="34.7094378993"><ele>134.72</ele><time>2026-08-23T01:03:29Z</time></trkpt><trkpt lat="59.4053570554" lon="34.7094373126"><ele>131.36</ele><time>2026-08-23T01:03:31Z</time></trkpt><trkpt lat="59.4053564686" lon="34.7094329540"><ele>135.20</ele><time>2026-08-23T01:03:32Z</time></trkpt><trkpt lat="59.4053561334" lon="34.7094321158"><ele>134.72</ele><time>2026-08-23T01:03:33Z</time></trkpt><trkpt lat="59.4053731486" lon="34.7094244044"><ele>135.68</ele><time>2026-08-23T01:03:42Z</time></trkpt><trkpt lat="59.4054117892" lon="34.7094157711"><ele>137.13</ele><time>2026-08-23T01:03:53Z</time></trkpt><trkpt lat="59.4053780101" lon="34.7094347980"><ele>137.61</ele><time>2026-08-23T01:04:19Z</time></trkpt><trkpt lat="59.4053902477" lon="34.7094071377"><ele>137.61</ele><time>2026-08-23T01:04:40Z</time></trkpt><trkpt lat="59.4053941872" lon="34.7094153520"><ele>137.13</ele><time>2026-08-23T01:05:03Z</time></trkpt><trkpt lat="59.4054074306" lon="34.7094081435"><ele>140.01</ele><time>2026-08-23T01:05:17Z</time></trkpt><trkpt lat="59.4054049160" lon="34.7094067186"><ele>138.57</ele><time>2026-08-23T01:05:19Z</time></trkpt><trkpt lat="59.4053892419" lon="34.7094103228"><ele>139.05</ele><time>2026-08-23T01:05:55Z</time></trkpt><trkpt lat="59.4054016471" lon="34.7094373126"><ele>138.57</ele><time>2026-08-23T01:06:22Z</time></trkpt><trkpt lat="59.4054053351" lon="34.7094362229"><ele>140.49</ele><time>2026-08-23T01:06:26Z</time></trkpt><trkpt lat="59.4053891581" lon="34.7093854286"><ele>140.01</ele><time>2026-08-23T01:06:53Z</time></trkpt><trkpt lat="59.4053749926" lon="34.7094114963"><ele>140.97</ele><time>2026-08-23T01:07:09Z</time></trkpt><trkpt lat="59.4053777587" lon="34.7093909606"><ele>141.45</ele><time>2026-08-23T01:07:32Z</time></trkpt><trkpt lat="59.4053849671" lon="34.7094056290"><ele>135.68</ele><time>2026-08-23T01:07:45Z</time></trkpt><trkpt lat="59.4053863082" lon="34.7094000131"><ele>137.61</ele><time>2026-08-23T01:07:46Z</time></trkpt><trkpt lat="59.4053652696" lon="34.7094005160"><ele>138.57</ele><time>2026-08-23T01:07:48Z</time></trkpt></trkseg></trk></gpx>